<?xml version='1.0' encoding='UTF-8'?><gpx version="1.1" creator="JPX - https://github.com/jenetics/jpx" xmlns="http://www.topografix.com/GPX/1/1"><trk><trkseg><trkpt lat="44.3178504" lon="11.7915547"><ele>44.0</ele><time>2026-04-25T08:06:31.78Z</time></trkpt><trkpt lat="44.3179141" lon="11.7915693"><ele>44.0</ele><time>2026-04-25T08:06:35.779Z</time></trkpt><trkpt lat="44.31798" lon="11.7915877"><ele>44.0</ele><time>2026-04-25T08:06:42.786Z</time></trkpt><trkpt lat="44.3180418" lon="11.7914949"><ele>44.0</ele><time>2026-04-25T08:06:46.78Z</time></trkpt><trkpt lat="44.3180749" lon="11.791409"><ele>44.0</ele><time>2026-04-25T08:06:48.779Z</time></trkpt><trkpt lat="44.3180946" lon="11.7913209"><ele>44.0</ele><time>2026-04-25T08:06:50.78Z</time></trkpt><trkpt lat="44.3180706" lon="11.7912229"><ele>44.0</ele><time>2026-04-25T08:06:53.78Z</time></trkpt><trkpt lat="44.318109" lon="11.7911086"><ele>44.0</ele><time>2026-04-25T08:06:55.779Z</time></trkpt><trkpt lat="44.318137" lon="11.7909968"><ele>44.0</ele><time>2026-04-25T08:06:57.779Z</time></trkpt><trkpt lat="44.3181676" lon="11.7909128"><ele>44.0</ele><time>2026-04-25T08:06:59.779Z</time></trkpt><trkpt lat="44.3181148" lon="11.7910022"><ele>44.0</ele><time>2026-04-25T08:07:05.779Z</time></trkpt><trkpt lat="44.3180754" lon="11.7910866"><ele>44.0</ele><time>2026-04-25T08:07:07.78Z</time></trkpt><trkpt lat="44.3180418" lon="11.7911648"><ele>44.0</ele><time>2026-04-25T08:07:09.671Z</time></trkpt><trkpt lat="44.3179788" lon="11.7911961"><ele>44.0</ele><time>2026-04-25T08:07:11.78Z</time></trkpt><trkpt lat="44.3179151" lon="11.7911437"><ele>44.0</ele><time>2026-04-25T08:07:14.746Z</time></trkpt><trkpt lat="44.3178631" lon="11.7910901"><ele>44.0</ele><time>2026-04-25T08:07:27.779Z</time></trkpt><trkpt lat="44.3177993" lon="11.7910258"><ele>44.0</ele><time>2026-04-25T08:07:31.779Z</time></trkpt><trkpt lat="44.3177578" lon="11.7909569"><ele>44.0</ele><time>2026-04-25T08:07:33.78Z</time></trkpt><trkpt lat="44.3176949" lon="11.7908748"><ele>44.0</ele><time>2026-04-25T08:07:35.779Z</time></trkpt><trkpt lat="44.3176182" lon="11.7907936"><ele>44.0</ele><time>2026-04-25T08:07:37.779Z</time></trkpt><trkpt lat="44.3174877" lon="11.7907443"><ele>44.2</ele><time>2026-04-25T08:07:39.78Z</time></trkpt><trkpt lat="44.3174167" lon="11.7907292"><ele>44.400000000000006</ele><time>2026-04-25T08:07:40.78Z</time></trkpt><trkpt lat="44.3173162" lon="11.7906736"><ele>44.6</ele><time>2026-04-25T08:07:42.779Z</time></trkpt><trkpt lat="44.3172256" lon="11.7906154"><ele>44.8</ele><time>2026-04-25T08:07:44.78Z</time></trkpt><trkpt lat="44.3171382" lon="11.7905555"><ele>45.0</ele><time>2026-04-25T08:07:46.78Z</time></trkpt><trkpt lat="44.3170555" lon="11.7905109"><ele>45.0</ele><time>2026-04-25T08:07:48.78Z</time></trkpt><trkpt lat="44.3169659" lon="11.7904484"><ele>45.0</ele><time>2026-04-25T08:07:50.78Z</time></trkpt><trkpt lat="44.3168786" lon="11.7903716"><ele>45.0</ele><time>2026-04-25T08:07:52.779Z</time></trkpt><trkpt lat="44.3167896" lon="11.790305"><ele>45.0</ele><time>2026-04-25T08:07:54.779Z</time></trkpt><trkpt lat="44.3166969" lon="11.7902493"><ele>45.0</ele><time>2026-04-25T08:07:56.78Z</time></trkpt><trkpt lat="44.3166073" lon="11.7902008"><ele>45.0</ele><time>2026-04-25T08:07:58.78Z</time></trkpt><trkpt lat="44.3165184" lon="11.7901433"><ele>45.0</ele><time>2026-04-25T08:08:00.779Z</time></trkpt><trkpt lat="44.316427" lon="11.7900775"><ele>45.0</ele><time>2026-04-25T08:08:02.78Z</time></trkpt><trkpt lat="44.3163401" lon="11.7900167"><ele>45.0</ele><time>2026-04-25T08:08:04.779Z</time></trkpt><trkpt lat="44.3162564" lon="11.7899547"><ele>45.0</ele><time>2026-04-25T08:08:06.779Z</time></trkpt><trkpt lat="44.3161673" lon="11.7898914"><ele>44.8</ele><time>2026-04-25T08:08:08.78Z</time></trkpt><trkpt lat="44.3160711" lon="11.7898394"><ele>44.6</ele><time>2026-04-25T08:08:10.779Z</time></trkpt><trkpt lat="44.3159733" lon="11.7897881"><ele>44.400000000000006</ele><time>2026-04-25T08:08:12.779Z</time></trkpt><trkpt lat="44.3158761" lon="11.7897441"><ele>44.2</ele><time>2026-04-25T08:08:14.78Z</time></trkpt><trkpt lat="44.315778" lon="11.7897044"><ele>44.0</ele><time>2026-04-25T08:08:16.78Z</time></trkpt><trkpt lat="44.3156784" lon="11.7896513"><ele>44.0</ele><time>2026-04-25T08:08:18.779Z</time></trkpt><trkpt lat="44.3155865" lon="11.7895932"><ele>44.0</ele><time>2026-04-25T08:08:20.78Z</time></trkpt><trkpt lat="44.3154939" lon="11.7895351"><ele>44.0</ele><time>2026-04-25T08:08:22.779Z</time></trkpt><trkpt lat="44.3154025" lon="11.7894766"><ele>44.0</ele><time>2026-04-25T08:08:24.779Z</time></trkpt><trkpt lat="44.3153113" lon="11.7894193"><ele>44.0</ele><time>2026-04-25T08:08:26.779Z</time></trkpt><trkpt lat="44.3152213" lon="11.7893547"><ele>44.0</ele><time>2026-04-25T08:08:28.78Z</time></trkpt><trkpt lat="44.3151269" lon="11.7892886"><ele>44.0</ele><time>2026-04-25T08:08:30.78Z</time></trkpt><trkpt lat="44.3150368" lon="11.7892229"><ele>44.0</ele><time>2026-04-25T08:08:32.78Z</time></trkpt><trkpt lat="44.3149434" lon="11.7891576"><ele>44.0</ele><time>2026-04-25T08:08:34.78Z</time></trkpt><trkpt lat="44.314854" lon="11.7890891"><ele>44.0</ele><time>2026-04-25T08:08:36.779Z</time></trkpt><trkpt lat="44.314761" lon="11.7890348"><ele>44.2</ele><time>2026-04-25T08:08:38.78Z</time></trkpt><trkpt lat="44.3146712" lon="11.7889676"><ele>44.400000000000006</ele><time>2026-04-25T08:08:40.779Z</time></trkpt><trkpt lat="44.3145874" lon="11.7889052"><ele>44.6</ele><time>2026-04-25T08:08:42.779Z</time></trkpt><trkpt lat="44.3144952" lon="11.7888315"><ele>44.8</ele><time>2026-04-25T08:08:44.779Z</time></trkpt><trkpt lat="44.3144164" lon="11.7887339"><ele>45.0</ele><time>2026-04-25T08:08:46.779Z</time></trkpt><trkpt lat="44.3143241" lon="11.7886502"><ele>45.0</ele><time>2026-04-25T08:08:48.78Z</time></trkpt><trkpt lat="44.3142257" lon="11.7885801"><ele>45.0</ele><time>2026-04-25T08:08:50.779Z</time></trkpt><trkpt lat="44.3141388" lon="11.7885052"><ele>45.0</ele><time>2026-04-25T08:08:52.78Z</time></trkpt><trkpt lat="44.3140374" lon="11.7884401"><ele>45.0</ele><time>2026-04-25T08:08:54.78Z</time></trkpt><trkpt lat="44.3139328" lon="11.788371"><ele>45.0</ele><time>2026-04-25T08:08:56.78Z</time></trkpt><trkpt lat="44.3138335" lon="11.7882995"><ele>44.8</ele><time>2026-04-25T08:08:58.779Z</time></trkpt><trkpt lat="44.3137372" lon="11.7882274"><ele>44.6</ele><time>2026-04-25T08:09:00.78Z</time></trkpt><trkpt lat="44.3136357" lon="11.7881583"><ele>44.400000000000006</ele><time>2026-04-25T08:09:02.779Z</time></trkpt><trkpt lat="44.3135382" lon="11.78809"><ele>44.2</ele><time>2026-04-25T08:09:04.78Z</time></trkpt><trkpt lat="44.3134442" lon="11.7880243"><ele>44.0</ele><time>2026-04-25T08:09:06.78Z</time></trkpt><trkpt lat="44.3133498" lon="11.7879553"><ele>44.0</ele><time>2026-04-25T08:09:08.78Z</time></trkpt><trkpt lat="44.3132586" lon="11.7878953"><ele>44.0</ele><time>2026-04-25T08:09:10.779Z</time></trkpt><trkpt lat="44.3131751" lon="11.787868"><ele>44.0</ele><time>2026-04-25T08:09:12.78Z</time></trkpt><trkpt lat="44.3131111" lon="11.7879661"><ele>44.0</ele><time>2026-04-25T08:09:14.78Z</time></trkpt><trkpt lat="44.3130643" lon="11.7880799"><ele>44.0</ele><time>2026-04-25T08:09:16.779Z</time></trkpt><trkpt lat="44.3130129" lon="11.7882016"><ele>44.0</ele><time>2026-04-25T08:09:18.78Z</time></trkpt><trkpt lat="44.3129577" lon="11.7883299"><ele>44.0</ele><time>2026-04-25T08:09:20.779Z</time></trkpt><trkpt lat="44.3129035" lon="11.7884474"><ele>44.0</ele><time>2026-04-25T08:09:22.78Z</time></trkpt><trkpt lat="44.312854" lon="11.7885502"><ele>44.0</ele><time>2026-04-25T08:09:24.779Z</time></trkpt><trkpt lat="44.3128134" lon="11.7886586"><ele>44.0</ele><time>2026-04-25T08:09:26.78Z</time></trkpt><trkpt lat="44.3127799" lon="11.7887644"><ele>44.0</ele><time>2026-04-25T08:09:28.78Z</time></trkpt><trkpt lat="44.3127218" lon="11.7888324"><ele>44.0</ele><time>2026-04-25T08:09:30.779Z</time></trkpt><trkpt lat="44.3126417" lon="11.7888014"><ele>44.0</ele><time>2026-04-25T08:09:32.78Z</time></trkpt><trkpt lat="44.3125671" lon="11.7887332"><ele>44.0</ele><time>2026-04-25T08:09:34.779Z</time></trkpt><trkpt lat="44.3124809" lon="11.7886874"><ele>44.0</ele><time>2026-04-25T08:09:36.78Z</time></trkpt><trkpt lat="44.312388" lon="11.7886532"><ele>44.0</ele><time>2026-04-25T08:09:38.779Z</time></trkpt><trkpt lat="44.3122905" lon="11.7886344"><ele>44.0</ele><time>2026-04-25T08:09:40.779Z</time></trkpt><trkpt lat="44.3121911" lon="11.7886152"><ele>44.0</ele><time>2026-04-25T08:09:42.779Z</time></trkpt><trkpt lat="44.3120968" lon="11.7886125"><ele>44.0</ele><time>2026-04-25T08:09:44.779Z</time></trkpt><trkpt lat="44.312001" lon="11.7886271"><ele>44.0</ele><time>2026-04-25T08:09:46.78Z</time></trkpt><trkpt lat="44.3119007" lon="11.7886458"><ele>44.0</ele><time>2026-04-25T08:09:48.78Z</time></trkpt><trkpt lat="44.311812" lon="11.7886754"><ele>44.0</ele><time>2026-04-25T08:09:50.78Z</time></trkpt><trkpt lat="44.3117193" lon="11.788691"><ele>44.0</ele><time>2026-04-25T08:09:52.779Z</time></trkpt><trkpt lat="44.3116194" lon="11.7887062"><ele>44.0</ele><time>2026-04-25T08:09:54.779Z</time></trkpt><trkpt lat="44.3115142" lon="11.788736"><ele>44.0</ele><time>2026-04-25T08:09:56.78Z</time></trkpt><trkpt lat="44.3114164" lon="11.7887734"><ele>44.0</ele><time>2026-04-25T08:09:58.78Z</time></trkpt><trkpt lat="44.3113159" lon="11.788817"><ele>44.0</ele><time>2026-04-25T08:10:00.78Z</time></trkpt><trkpt lat="44.3112146" lon="11.7888649"><ele>44.0</ele><time>2026-04-25T08:10:02.78Z</time></trkpt><trkpt lat="44.3111168" lon="11.7889083"><ele>44.0</ele><time>2026-04-25T08:10:04.78Z</time></trkpt><trkpt lat="44.3110181" lon="11.7889559"><ele>44.0</ele><time>2026-04-25T08:10:06.78Z</time></trkpt><trkpt lat="44.3109284" lon="11.789007"><ele>44.0</ele><time>2026-04-25T08:10:08.78Z</time></trkpt><trkpt lat="44.31084" lon="11.7890573"><ele>44.0</ele><time>2026-04-25T08:10:10.78Z</time></trkpt><trkpt lat="44.3107388" lon="11.7891045"><ele>44.0</ele><time>2026-04-25T08:10:12.78Z</time></trkpt><trkpt lat="44.310645" lon="11.7891462"><ele>44.0</ele><time>2026-04-25T08:10:14.779Z</time></trkpt><trkpt lat="44.3105483" lon="11.7891971"><ele>44.0</ele><time>2026-04-25T08:10:16.779Z</time></trkpt><trkpt lat="44.3104549" lon="11.7892487"><ele>44.0</ele><time>2026-04-25T08:10:18.78Z</time></trkpt><trkpt lat="44.3103661" lon="11.7893006"><ele>44.0</ele><time>2026-04-25T08:10:20.779Z</time></trkpt><trkpt lat="44.3102824" lon="11.7893486"><ele>44.0</ele><time>2026-04-25T08:10:22.779Z</time></trkpt><trkpt lat="44.3101892" lon="11.7893192"><ele>44.0</ele><time>2026-04-25T08:10:24.78Z</time></trkpt><trkpt lat="44.3101297" lon="11.7892304"><ele>44.0</ele><time>2026-04-25T08:10:26.779Z</time></trkpt><trkpt lat="44.3100616" lon="11.7891388"><ele>44.0</ele><time>2026-04-25T08:10:28.779Z</time></trkpt><trkpt lat="44.3099876" lon="11.7890444"><ele>44.0</ele><time>2026-04-25T08:10:30.78Z</time></trkpt><trkpt lat="44.3099148" lon="11.7889585"><ele>44.0</ele><time>2026-04-25T08:10:32.78Z</time></trkpt><trkpt lat="44.309838" lon="11.7888674"><ele>44.0</ele><time>2026-04-25T08:10:34.779Z</time></trkpt><trkpt lat="44.309764" lon="11.7887841"><ele>44.0</ele><time>2026-04-25T08:10:36.78Z</time></trkpt><trkpt lat="44.3096882" lon="11.7887056"><ele>44.0</ele><time>2026-04-25T08:10:38.779Z</time></trkpt><trkpt lat="44.3096197" lon="11.7886137"><ele>44.0</ele><time>2026-04-25T08:10:40.779Z</time></trkpt><trkpt lat="44.3095524" lon="11.7885348"><ele>44.0</ele><time>2026-04-25T08:10:42.779Z</time></trkpt><trkpt lat="44.3094793" lon="11.7884552"><ele>44.0</ele><time>2026-04-25T08:10:44.779Z</time></trkpt><trkpt lat="44.3094061" lon="11.7883656"><ele>44.0</ele><time>2026-04-25T08:10:46.779Z</time></trkpt><trkpt lat="44.3093332" lon="11.7882783"><ele>44.0</ele><time>2026-04-25T08:10:48.78Z</time></trkpt><trkpt lat="44.3092573" lon="11.7881868"><ele>44.2</ele><time>2026-04-25T08:10:50.779Z</time></trkpt><trkpt lat="44.3091854" lon="11.7880933"><ele>44.400000000000006</ele><time>2026-04-25T08:10:52.78Z</time></trkpt><trkpt lat="44.3091112" lon="11.7880065"><ele>44.6</ele><time>2026-04-25T08:10:54.779Z</time></trkpt><trkpt lat="44.3090434" lon="11.787916"><ele>44.8</ele><time>2026-04-25T08:10:56.779Z</time></trkpt><trkpt lat="44.3089711" lon="11.7878236"><ele>45.0</ele><time>2026-04-25T08:10:58.779Z</time></trkpt><trkpt lat="44.3089035" lon="11.7877396"><ele>45.0</ele><time>2026-04-25T08:11:00.78Z</time></trkpt><trkpt lat="44.308827" lon="11.78765"><ele>45.0</ele><time>2026-04-25T08:11:02.78Z</time></trkpt><trkpt lat="44.3087654" lon="11.787575"><ele>45.0</ele><time>2026-04-25T08:11:04.779Z</time></trkpt><trkpt lat="44.3087035" lon="11.7874957"><ele>45.0</ele><time>2026-04-25T08:11:06.78Z</time></trkpt><trkpt lat="44.3086314" lon="11.7874087"><ele>45.0</ele><time>2026-04-25T08:11:08.78Z</time></trkpt><trkpt lat="44.3085527" lon="11.787331"><ele>45.0</ele><time>2026-04-25T08:11:10.78Z</time></trkpt><trkpt lat="44.3084752" lon="11.7872412"><ele>45.0</ele><time>2026-04-25T08:11:12.779Z</time></trkpt><trkpt lat="44.3084076" lon="11.7871613"><ele>45.0</ele><time>2026-04-25T08:11:14.779Z</time></trkpt><trkpt lat="44.3083347" lon="11.7870774"><ele>45.0</ele><time>2026-04-25T08:11:16.78Z</time></trkpt><trkpt lat="44.3082629" lon="11.7869792"><ele>45.0</ele><time>2026-04-25T08:11:18.779Z</time></trkpt><trkpt lat="44.3081915" lon="11.7868927"><ele>45.0</ele><time>2026-04-25T08:11:20.779Z</time></trkpt><trkpt lat="44.3081145" lon="11.7868005"><ele>45.0</ele><time>2026-04-25T08:11:22.779Z</time></trkpt><trkpt lat="44.3080429" lon="11.7867183"><ele>45.0</ele><time>2026-04-25T08:11:24.779Z</time></trkpt><trkpt lat="44.3079792" lon="11.786642"><ele>45.0</ele><time>2026-04-25T08:11:26.779Z</time></trkpt><trkpt lat="44.3079254" lon="11.786549"><ele>45.0</ele><time>2026-04-25T08:11:28.779Z</time></trkpt><trkpt lat="44.3079062" lon="11.7864457"><ele>45.0</ele><time>2026-04-25T08:11:30.779Z</time></trkpt><trkpt lat="44.3079392" lon="11.7863372"><ele>45.333333333333336</ele><time>2026-04-25T08:11:32.78Z</time></trkpt><trkpt lat="44.3079722" lon="11.7862334"><ele>45.666666666666664</ele><time>2026-04-25T08:11:34.78Z</time></trkpt><trkpt lat="44.3079706" lon="11.7861181"><ele>46.0</ele><time>2026-04-25T08:11:36.78Z</time></trkpt><trkpt lat="44.3079593" lon="11.7859845"><ele>46.33333333333333</ele><time>2026-04-25T08:11:38.779Z</time></trkpt><trkpt lat="44.3079888" lon="11.7858562"><ele>46.666666666666664</ele><time>2026-04-25T08:11:40.78Z</time></trkpt><trkpt lat="44.3080105" lon="11.785734"><ele>47.0</ele><time>2026-04-25T08:11:42.779Z</time></trkpt><trkpt lat="44.3080379" lon="11.7856049"><ele>47.2</ele><time>2026-04-25T08:11:44.779Z</time></trkpt><trkpt lat="44.3080865" lon="11.7854802"><ele>47.400000000000006</ele><time>2026-04-25T08:11:46.775Z</time></trkpt><trkpt lat="44.3081358" lon="11.7853511"><ele>47.599999999999994</ele><time>2026-04-25T08:11:48.779Z</time></trkpt><trkpt lat="44.3082016" lon="11.7852203"><ele>47.8</ele><time>2026-04-25T08:11:50.78Z</time></trkpt><trkpt lat="44.3082507" lon="11.7850962"><ele>48.0</ele><time>2026-04-25T08:11:52.78Z</time></trkpt><trkpt lat="44.3082978" lon="11.7849754"><ele>48.0</ele><time>2026-04-25T08:11:54.779Z</time></trkpt><trkpt lat="44.3083465" lon="11.7848476"><ele>48.0</ele><time>2026-04-25T08:11:56.779Z</time></trkpt><trkpt lat="44.3083965" lon="11.7847217"><ele>48.0</ele><time>2026-04-25T08:11:58.779Z</time></trkpt><trkpt lat="44.3084372" lon="11.7845906"><ele>48.0</ele><time>2026-04-25T08:12:00.78Z</time></trkpt><trkpt lat="44.308489" lon="11.7844659"><ele>48.0</ele><time>2026-04-25T08:12:02.78Z</time></trkpt><trkpt lat="44.3085462" lon="11.7843378"><ele>48.0</ele><time>2026-04-25T08:12:04.779Z</time></trkpt><trkpt lat="44.3085987" lon="11.7842043"><ele>48.0</ele><time>2026-04-25T08:12:06.78Z</time></trkpt><trkpt lat="44.3086569" lon="11.784083"><ele>48.0</ele><time>2026-04-25T08:12:08.78Z</time></trkpt><trkpt lat="44.3087121" lon="11.7839471"><ele>48.0</ele><time>2026-04-25T08:12:10.779Z</time></trkpt><trkpt lat="44.3087696" lon="11.7838137"><ele>48.0</ele><time>2026-04-25T08:12:12.779Z</time></trkpt><trkpt lat="44.3088127" lon="11.7836823"><ele>48.0</ele><time>2026-04-25T08:12:14.78Z</time></trkpt><trkpt lat="44.3088668" lon="11.7835616"><ele>48.0</ele><time>2026-04-25T08:12:16.779Z</time></trkpt><trkpt lat="44.3089175" lon="11.7834323"><ele>48.0</ele><time>2026-04-25T08:12:18.779Z</time></trkpt><trkpt lat="44.3089723" lon="11.7832985"><ele>48.0</ele><time>2026-04-25T08:12:20.779Z</time></trkpt><trkpt lat="44.3090248" lon="11.783174"><ele>48.0</ele><time>2026-04-25T08:12:22.78Z</time></trkpt><trkpt lat="44.3090807" lon="11.7830455"><ele>48.2</ele><time>2026-04-25T08:12:24.779Z</time></trkpt><trkpt lat="44.3091334" lon="11.7829194"><ele>48.4</ele><time>2026-04-25T08:12:26.78Z</time></trkpt><trkpt lat="44.309185" lon="11.782789"><ele>48.6</ele><time>2026-04-25T08:12:28.78Z</time></trkpt><trkpt lat="44.3092419" lon="11.7826644"><ele>48.800000000000004</ele><time>2026-04-25T08:12:30.78Z</time></trkpt><trkpt lat="44.3093067" lon="11.7825451"><ele>49.0</ele><time>2026-04-25T08:12:32.779Z</time></trkpt><trkpt lat="44.3093692" lon="11.7824477"><ele>48.99999999999999</ele><time>2026-04-25T08:12:34.78Z</time></trkpt><trkpt lat="44.3094261" lon="11.7823436"><ele>49.0</ele><time>2026-04-25T08:12:36.779Z</time></trkpt><trkpt lat="44.3094795" lon="11.7822453"><ele>49.0</ele><time>2026-04-25T08:12:38.779Z</time></trkpt><trkpt lat="44.3095316" lon="11.782153"><ele>49.0</ele><time>2026-04-25T08:12:40.779Z</time></trkpt><trkpt lat="44.3095737" lon="11.7820616"><ele>48.99999999999999</ele><time>2026-04-25T08:12:42.78Z</time></trkpt><trkpt lat="44.3096102" lon="11.7819819"><ele>49.0</ele><time>2026-04-25T08:12:44.779Z</time></trkpt><trkpt lat="44.3096394" lon="11.7818594"><ele>49.0</ele><time>2026-04-25T08:12:47.779Z</time></trkpt><trkpt lat="44.3096501" lon="11.7817497"><ele>49.0</ele><time>2026-04-25T08:12:49.78Z</time></trkpt><trkpt lat="44.3096792" lon="11.7816198"><ele>49.0</ele><time>2026-04-25T08:12:51.78Z</time></trkpt><trkpt lat="44.3097315" lon="11.7814788"><ele>49.0</ele><time>2026-04-25T08:12:53.779Z</time></trkpt><trkpt lat="44.3097945" lon="11.7813353"><ele>49.0</ele><time>2026-04-25T08:12:55.779Z</time></trkpt><trkpt lat="44.3098425" lon="11.7812025"><ele>49.25</ele><time>2026-04-25T08:12:57.78Z</time></trkpt><trkpt lat="44.3099133" lon="11.7810673"><ele>49.5</ele><time>2026-04-25T08:12:59.78Z</time></trkpt><trkpt lat="44.3099828" lon="11.7809345"><ele>49.75</ele><time>2026-04-25T08:13:01.779Z</time></trkpt><trkpt lat="44.3100545" lon="11.7808023"><ele>50.0</ele><time>2026-04-25T08:13:03.779Z</time></trkpt><trkpt lat="44.3101233" lon="11.7806792"><ele>50.2</ele><time>2026-04-25T08:13:05.78Z</time></trkpt><trkpt lat="44.3101992" lon="11.7805561"><ele>50.4</ele><time>2026-04-25T08:13:07.779Z</time></trkpt><trkpt lat="44.3102702" lon="11.7804348"><ele>50.599999999999994</ele><time>2026-04-25T08:13:09.78Z</time></trkpt><trkpt lat="44.3103428" lon="11.7803239"><ele>50.8</ele><time>2026-04-25T08:13:11.779Z</time></trkpt><trkpt lat="44.3104078" lon="11.7802014"><ele>51.0</ele><time>2026-04-25T08:13:13.78Z</time></trkpt><trkpt lat="44.3104701" lon="11.780085"><ele>51.0</ele><time>2026-04-25T08:13:15.779Z</time></trkpt><trkpt lat="44.3105379" lon="11.7799756"><ele>51.0</ele><time>2026-04-25T08:13:17.779Z</time></trkpt><trkpt lat="44.3105991" lon="11.7798605"><ele>51.0</ele><time>2026-04-25T08:13:19.78Z</time></trkpt><trkpt lat="44.3106598" lon="11.7797534"><ele>51.0</ele><time>2026-04-25T08:13:21.779Z</time></trkpt><trkpt lat="44.3107135" lon="11.779659"><ele>51.0</ele><time>2026-04-25T08:13:23.779Z</time></trkpt><trkpt lat="44.3107438" lon="11.7795476"><ele>51.0</ele><time>2026-04-25T08:13:25.779Z</time></trkpt><trkpt lat="44.3107224" lon="11.7794332"><ele>51.0</ele><time>2026-04-25T08:13:27.78Z</time></trkpt><trkpt lat="44.3106496" lon="11.7793357"><ele>51.0</ele><time>2026-04-25T08:13:29.78Z</time></trkpt><trkpt lat="44.3105599" lon="11.7792509"><ele>51.0</ele><time>2026-04-25T08:13:31.78Z</time></trkpt><trkpt lat="44.310479" lon="11.7791679"><ele>51.0</ele><time>2026-04-25T08:13:33.779Z</time></trkpt><trkpt lat="44.3103909" lon="11.779085"><ele>51.0</ele><time>2026-04-25T08:13:35.78Z</time></trkpt><trkpt lat="44.3102981" lon="11.778989"><ele>51.0</ele><time>2026-04-25T08:13:37.779Z</time></trkpt><trkpt lat="44.310208" lon="11.7788958"><ele>51.0</ele><time>2026-04-25T08:13:39.779Z</time></trkpt><trkpt lat="44.3101167" lon="11.7788107"><ele>51.0</ele><time>2026-04-25T08:13:41.78Z</time></trkpt><trkpt lat="44.3100274" lon="11.7787154"><ele>51.0</ele><time>2026-04-25T08:13:43.78Z</time></trkpt><trkpt lat="44.3099431" lon="11.7786289"><ele>51.0</ele><time>2026-04-25T08:13:45.78Z</time></trkpt><trkpt lat="44.3098619" lon="11.778545"><ele>51.0</ele><time>2026-04-25T08:13:47.78Z</time></trkpt><trkpt lat="44.309782" lon="11.7784703"><ele>51.0</ele><time>2026-04-25T08:13:49.78Z</time></trkpt><trkpt lat="44.3097159" lon="11.7783639"><ele>51.0</ele><time>2026-04-25T08:13:51.779Z</time></trkpt><trkpt lat="44.3096984" lon="11.7782235"><ele>51.0</ele><time>2026-04-25T08:13:53.78Z</time></trkpt><trkpt lat="44.3097473" lon="11.7780937"><ele>51.0</ele><time>2026-04-25T08:13:55.779Z</time></trkpt><trkpt lat="44.3098251" lon="11.7779881"><ele>51.0</ele><time>2026-04-25T08:13:57.78Z</time></trkpt><trkpt lat="44.3099052" lon="11.7778843"><ele>51.0</ele><time>2026-04-25T08:13:59.779Z</time></trkpt><trkpt lat="44.3099764" lon="11.7777794"><ele>51.0</ele><time>2026-04-25T08:14:01.78Z</time></trkpt><trkpt lat="44.3100417" lon="11.7776639"><ele>51.199999999999996</ele><time>2026-04-25T08:14:03.78Z</time></trkpt><trkpt lat="44.3101173" lon="11.7775551"><ele>51.4</ele><time>2026-04-25T08:14:05.779Z</time></trkpt><trkpt lat="44.3101906" lon="11.7774478"><ele>51.6</ele><time>2026-04-25T08:14:07.779Z</time></trkpt><trkpt lat="44.3102577" lon="11.7773277"><ele>51.8</ele><time>2026-04-25T08:14:09.78Z</time></trkpt><trkpt lat="44.310333" lon="11.7772164"><ele>52.0</ele><time>2026-04-25T08:14:11.779Z</time></trkpt><trkpt lat="44.3104031" lon="11.7771009"><ele>52.0</ele><time>2026-04-25T08:14:13.779Z</time></trkpt><trkpt lat="44.310475" lon="11.7769878"><ele>52.0</ele><time>2026-04-25T08:14:15.779Z</time></trkpt><trkpt lat="44.3105351" lon="11.7768738"><ele>52.0</ele><time>2026-04-25T08:14:17.779Z</time></trkpt><trkpt lat="44.3106009" lon="11.7767581"><ele>52.0</ele><time>2026-04-25T08:14:19.779Z</time></trkpt><trkpt lat="44.3106711" lon="11.7766405"><ele>52.0</ele><time>2026-04-25T08:14:21.779Z</time></trkpt><trkpt lat="44.3107375" lon="11.7765331"><ele>52.2</ele><time>2026-04-25T08:14:23.779Z</time></trkpt><trkpt lat="44.310797" lon="11.7764138"><ele>52.400000000000006</ele><time>2026-04-25T08:14:25.78Z</time></trkpt><trkpt lat="44.3108588" lon="11.7762916"><ele>52.599999999999994</ele><time>2026-04-25T08:14:27.779Z</time></trkpt><trkpt lat="44.3109153" lon="11.7761656"><ele>52.8</ele><time>2026-04-25T08:14:29.78Z</time></trkpt><trkpt lat="44.3109813" lon="11.7760486"><ele>53.0</ele><time>2026-04-25T08:14:31.779Z</time></trkpt><trkpt lat="44.3110478" lon="11.7759288"><ele>53.4</ele><time>2026-04-25T08:14:33.779Z</time></trkpt><trkpt lat="44.3111018" lon="11.775797"><ele>53.8</ele><time>2026-04-25T08:14:35.779Z</time></trkpt><trkpt lat="44.3111568" lon="11.7756605"><ele>54.2</ele><time>2026-04-25T08:14:37.779Z</time></trkpt><trkpt lat="44.3112107" lon="11.775533"><ele>54.6</ele><time>2026-04-25T08:14:39.78Z</time></trkpt><trkpt lat="44.3112634" lon="11.7754033"><ele>55.0</ele><time>2026-04-25T08:14:41.78Z</time></trkpt><trkpt lat="44.3113197" lon="11.7752788"><ele>55.6</ele><time>2026-04-25T08:14:43.779Z</time></trkpt><trkpt lat="44.3113706" lon="11.7751484"><ele>56.2</ele><time>2026-04-25T08:14:45.779Z</time></trkpt><trkpt lat="44.311419" lon="11.7750241"><ele>56.8</ele><time>2026-04-25T08:14:47.779Z</time></trkpt><trkpt lat="44.311462" lon="11.7748981"><ele>57.4</ele><time>2026-04-25T08:14:49.779Z</time></trkpt><trkpt lat="44.3115167" lon="11.7747742"><ele>58.0</ele><time>2026-04-25T08:14:51.779Z</time></trkpt><trkpt lat="44.3115629" lon="11.7746572"><ele>58.2</ele><time>2026-04-25T08:14:53.779Z</time></trkpt><trkpt lat="44.3116109" lon="11.7745374"><ele>58.4</ele><time>2026-04-25T08:14:55.779Z</time></trkpt><trkpt lat="44.3116521" lon="11.774409"><ele>58.60000000000001</ele><time>2026-04-25T08:14:57.779Z</time></trkpt><trkpt lat="44.311691" lon="11.7742899"><ele>58.800000000000004</ele><time>2026-04-25T08:14:59.779Z</time></trkpt><trkpt lat="44.3117375" lon="11.7741676"><ele>59.0</ele><time>2026-04-25T08:15:01.779Z</time></trkpt><trkpt lat="44.3117745" lon="11.7740382"><ele>59.0</ele><time>2026-04-25T08:15:03.779Z</time></trkpt><trkpt lat="44.3118073" lon="11.7739067"><ele>59.00000000000001</ele><time>2026-04-25T08:15:05.78Z</time></trkpt><trkpt lat="44.3118464" lon="11.7737749"><ele>59.00000000000001</ele><time>2026-04-25T08:15:07.78Z</time></trkpt><trkpt lat="44.3118882" lon="11.7736436"><ele>59.0</ele><time>2026-04-25T08:15:09.779Z</time></trkpt><trkpt lat="44.3119194" lon="11.7735138"><ele>59.0</ele><time>2026-04-25T08:15:11.78Z</time></trkpt><trkpt lat="44.3119599" lon="11.7733884"><ele>59.2</ele><time>2026-04-25T08:15:13.78Z</time></trkpt><trkpt lat="44.3119622" lon="11.7732454"><ele>59.400000000000006</ele><time>2026-04-25T08:15:15.779Z</time></trkpt><trkpt lat="44.3119257" lon="11.7731289"><ele>59.6</ele><time>2026-04-25T08:15:17.78Z</time></trkpt><trkpt lat="44.3118749" lon="11.7729985"><ele>59.8</ele><time>2026-04-25T08:15:19.779Z</time></trkpt><trkpt lat="44.3118274" lon="11.7728678"><ele>60.0</ele><time>2026-04-25T08:15:21.78Z</time></trkpt><trkpt lat="44.3117685" lon="11.7727562"><ele>60.2</ele><time>2026-04-25T08:15:23.779Z</time></trkpt><trkpt lat="44.3117184" lon="11.7726404"><ele>60.4</ele><time>2026-04-25T08:15:25.78Z</time></trkpt><trkpt lat="44.3116634" lon="11.7725252"><ele>60.599999999999994</ele><time>2026-04-25T08:15:27.78Z</time></trkpt><trkpt lat="44.3115947" lon="11.7724133"><ele>60.8</ele><time>2026-04-25T08:15:29.78Z</time></trkpt><trkpt lat="44.3115434" lon="11.7722875"><ele>61.0</ele><time>2026-04-25T08:15:31.779Z</time></trkpt><trkpt lat="44.311503" lon="11.7721606"><ele>61.0</ele><time>2026-04-25T08:15:33.779Z</time></trkpt><trkpt lat="44.3114621" lon="11.7720354"><ele>60.99999999999999</ele><time>2026-04-25T08:15:35.78Z</time></trkpt><trkpt lat="44.3114366" lon="11.7718982"><ele>60.99999999999999</ele><time>2026-04-25T08:15:37.779Z</time></trkpt><trkpt lat="44.3114367" lon="11.7717547"><ele>61.0</ele><time>2026-04-25T08:15:39.78Z</time></trkpt><trkpt lat="44.3114521" lon="11.77162"><ele>61.0</ele><time>2026-04-25T08:15:41.779Z</time></trkpt><trkpt lat="44.3114826" lon="11.7714875"><ele>61.0</ele><time>2026-04-25T08:15:43.779Z</time></trkpt><trkpt lat="44.3115231" lon="11.771355"><ele>60.99999999999999</ele><time>2026-04-25T08:15:45.779Z</time></trkpt><trkpt lat="44.3115752" lon="11.7712271"><ele>60.99999999999999</ele><time>2026-04-25T08:15:47.78Z</time></trkpt><trkpt lat="44.3116267" lon="11.7711037"><ele>61.0</ele><time>2026-04-25T08:15:49.78Z</time></trkpt><trkpt lat="44.3116765" lon="11.7709745"><ele>61.0</ele><time>2026-04-25T08:15:51.78Z</time></trkpt><trkpt lat="44.3117216" lon="11.7708482"><ele>61.4</ele><time>2026-04-25T08:15:53.779Z</time></trkpt><trkpt lat="44.3117709" lon="11.7707256"><ele>61.8</ele><time>2026-04-25T08:15:55.779Z</time></trkpt><trkpt lat="44.3118155" lon="11.7705993"><ele>62.199999999999996</ele><time>2026-04-25T08:15:57.779Z</time></trkpt><trkpt lat="44.3118613" lon="11.770481"><ele>62.599999999999994</ele><time>2026-04-25T08:15:59.779Z</time></trkpt><trkpt lat="44.3119043" lon="11.7703633"><ele>63.0</ele><time>2026-04-25T08:16:01.78Z</time></trkpt><trkpt lat="44.3119436" lon="11.7702538"><ele>63.599999999999994</ele><time>2026-04-25T08:16:03.78Z</time></trkpt><trkpt lat="44.3119739" lon="11.7701349"><ele>64.19999999999999</ele><time>2026-04-25T08:16:05.78Z</time></trkpt><trkpt lat="44.311981" lon="11.7700098"><ele>64.8</ele><time>2026-04-25T08:16:07.779Z</time></trkpt><trkpt lat="44.3119316" lon="11.769913"><ele>65.39999999999999</ele><time>2026-04-25T08:16:09.779Z</time></trkpt><trkpt lat="44.3118375" lon="11.7698474"><ele>66.0</ele><time>2026-04-25T08:16:11.78Z</time></trkpt><trkpt lat="44.3117478" lon="11.7697856"><ele>66.0</ele><time>2026-04-25T08:16:13.78Z</time></trkpt><trkpt lat="44.3116559" lon="11.7697219"><ele>66.0</ele><time>2026-04-25T08:16:15.78Z</time></trkpt><trkpt lat="44.3115562" lon="11.7696427"><ele>66.0</ele><time>2026-04-25T08:16:17.779Z</time></trkpt><trkpt lat="44.3114562" lon="11.7695838"><ele>66.0</ele><time>2026-04-25T08:16:19.779Z</time></trkpt><trkpt lat="44.3113598" lon="11.7695224"><ele>66.0</ele><time>2026-04-25T08:16:21.779Z</time></trkpt><trkpt lat="44.3112637" lon="11.7694625"><ele>66.0</ele><time>2026-04-25T08:16:23.779Z</time></trkpt><trkpt lat="44.3111758" lon="11.7693998"><ele>66.0</ele><time>2026-04-25T08:16:25.78Z</time></trkpt><trkpt lat="44.3110929" lon="11.7693344"><ele>66.0</ele><time>2026-04-25T08:16:27.78Z</time></trkpt><trkpt lat="44.3109974" lon="11.7692665"><ele>66.0</ele><time>2026-04-25T08:16:29.78Z</time></trkpt><trkpt lat="44.3109094" lon="11.7692"><ele>66.0</ele><time>2026-04-25T08:16:31.78Z</time></trkpt><trkpt lat="44.3108216" lon="11.769139"><ele>66.0</ele><time>2026-04-25T08:16:33.779Z</time></trkpt><trkpt lat="44.3107344" lon="11.7690767"><ele>66.0</ele><time>2026-04-25T08:16:35.78Z</time></trkpt><trkpt lat="44.3106398" lon="11.7690031"><ele>66.0</ele><time>2026-04-25T08:16:37.779Z</time></trkpt><trkpt lat="44.3105566" lon="11.7689279"><ele>66.0</ele><time>2026-04-25T08:16:39.779Z</time></trkpt><trkpt lat="44.3104788" lon="11.7688448"><ele>66.0</ele><time>2026-04-25T08:16:41.779Z</time></trkpt><trkpt lat="44.3104049" lon="11.7687604"><ele>65.8</ele><time>2026-04-25T08:16:43.779Z</time></trkpt><trkpt lat="44.3103342" lon="11.7686867"><ele>65.6</ele><time>2026-04-25T08:16:45.779Z</time></trkpt><trkpt lat="44.3102723" lon="11.7685905"><ele>65.4</ele><time>2026-04-25T08:16:47.78Z</time></trkpt><trkpt lat="44.3102581" lon="11.7684334"><ele>65.2</ele><time>2026-04-25T08:16:49.779Z</time></trkpt><trkpt lat="44.3102856" lon="11.7682985"><ele>65.0</ele><time>2026-04-25T08:16:51.779Z</time></trkpt><trkpt lat="44.3103258" lon="11.7681657"><ele>65.4</ele><time>2026-04-25T08:16:53.78Z</time></trkpt><trkpt lat="44.3103778" lon="11.7680377"><ele>65.8</ele><time>2026-04-25T08:16:55.78Z</time></trkpt><trkpt lat="44.3104255" lon="11.7679071"><ele>66.2</ele><time>2026-04-25T08:16:57.779Z</time></trkpt><trkpt lat="44.3104795" lon="11.7677857"><ele>66.6</ele><time>2026-04-25T08:16:59.78Z</time></trkpt><trkpt lat="44.310529" lon="11.7676655"><ele>67.0</ele><time>2026-04-25T08:17:01.779Z</time></trkpt><trkpt lat="44.3105766" lon="11.7675441"><ele>67.4</ele><time>2026-04-25T08:17:03.779Z</time></trkpt><trkpt lat="44.3106296" lon="11.7674206"><ele>67.80000000000001</ele><time>2026-04-25T08:17:05.78Z</time></trkpt><trkpt lat="44.3106665" lon="11.7672882"><ele>68.2</ele><time>2026-04-25T08:17:07.78Z</time></trkpt><trkpt lat="44.310718" lon="11.7671691"><ele>68.60000000000001</ele><time>2026-04-25T08:17:09.78Z</time></trkpt><trkpt lat="44.3107666" lon="11.7670533"><ele>69.0</ele><time>2026-04-25T08:17:11.779Z</time></trkpt><trkpt lat="44.3107989" lon="11.7669237"><ele>69.2</ele><time>2026-04-25T08:17:13.779Z</time></trkpt><trkpt lat="44.3108429" lon="11.7668006"><ele>69.4</ele><time>2026-04-25T08:17:15.779Z</time></trkpt><trkpt lat="44.3108835" lon="11.7666875"><ele>69.6</ele><time>2026-04-25T08:17:17.779Z</time></trkpt><trkpt lat="44.3109391" lon="11.7665755"><ele>69.8</ele><time>2026-04-25T08:17:19.779Z</time></trkpt><trkpt lat="44.3109849" lon="11.7664584"><ele>70.0</ele><time>2026-04-25T08:17:21.779Z</time></trkpt><trkpt lat="44.3110185" lon="11.7663489"><ele>70.0</ele><time>2026-04-25T08:17:23.78Z</time></trkpt><trkpt lat="44.3110588" lon="11.7662398"><ele>70.0</ele><time>2026-04-25T08:17:25.779Z</time></trkpt><trkpt lat="44.3111104" lon="11.7661301"><ele>70.0</ele><time>2026-04-25T08:17:27.78Z</time></trkpt><trkpt lat="44.3111624" lon="11.7660085"><ele>70.0</ele><time>2026-04-25T08:17:29.78Z</time></trkpt><trkpt lat="44.3112122" lon="11.765878"><ele>70.0</ele><time>2026-04-25T08:17:31.779Z</time></trkpt><trkpt lat="44.3112623" lon="11.7657597"><ele>70.6</ele><time>2026-04-25T08:17:33.78Z</time></trkpt><trkpt lat="44.3113152" lon="11.7656361"><ele>71.2</ele><time>2026-04-25T08:17:35.78Z</time></trkpt><trkpt lat="44.3113665" lon="11.7655092"><ele>71.8</ele><time>2026-04-25T08:17:37.78Z</time></trkpt><trkpt lat="44.3114159" lon="11.7653912"><ele>72.4</ele><time>2026-04-25T08:17:39.78Z</time></trkpt><trkpt lat="44.3114686" lon="11.7652772"><ele>73.0</ele><time>2026-04-25T08:17:41.78Z</time></trkpt><trkpt lat="44.311515" lon="11.7651491"><ele>73.4</ele><time>2026-04-25T08:17:43.78Z</time></trkpt><trkpt lat="44.3115563" lon="11.7650248"><ele>73.8</ele><time>2026-04-25T08:17:45.779Z</time></trkpt><trkpt lat="44.3116124" lon="11.7649005"><ele>74.2</ele><time>2026-04-25T08:17:47.78Z</time></trkpt><trkpt lat="44.3116608" lon="11.7647692"><ele>74.6</ele><time>2026-04-25T08:17:49.78Z</time></trkpt><trkpt lat="44.3117085" lon="11.7646544"><ele>75.0</ele><time>2026-04-25T08:17:51.78Z</time></trkpt><trkpt lat="44.3117525" lon="11.764536"><ele>75.0</ele><time>2026-04-25T08:17:53.779Z</time></trkpt><trkpt lat="44.3118059" lon="11.7644361"><ele>75.0</ele><time>2026-04-25T08:17:55.779Z</time></trkpt><trkpt lat="44.3118538" lon="11.7643361"><ele>75.0</ele><time>2026-04-25T08:17:57.78Z</time></trkpt><trkpt lat="44.3118996" lon="11.7642319"><ele>75.0</ele><time>2026-04-25T08:17:59.78Z</time></trkpt><trkpt lat="44.3119552" lon="11.7641085"><ele>75.0</ele><time>2026-04-25T08:18:01.78Z</time></trkpt><trkpt lat="44.3120131" lon="11.7639749"><ele>75.0</ele><time>2026-04-25T08:18:03.78Z</time></trkpt><trkpt lat="44.3120639" lon="11.7638278"><ele>75.0</ele><time>2026-04-25T08:18:05.779Z</time></trkpt><trkpt lat="44.3121216" lon="11.7636844"><ele>75.0</ele><time>2026-04-25T08:18:07.78Z</time></trkpt><trkpt lat="44.3121817" lon="11.7635444"><ele>75.0</ele><time>2026-04-25T08:18:09.78Z</time></trkpt><trkpt lat="44.3122131" lon="11.7634668"><ele>75.0</ele><time>2026-04-25T08:18:10.78Z</time></trkpt><trkpt lat="44.3122512" lon="11.7633862"><ele>74.99999999999999</ele><time>2026-04-25T08:18:11.78Z</time></trkpt><trkpt lat="44.3122897" lon="11.76331"><ele>75.0</ele><time>2026-04-25T08:18:12.779Z</time></trkpt><trkpt lat="44.3123367" lon="11.7632355"><ele>75.0</ele><time>2026-04-25T08:18:13.78Z</time></trkpt><trkpt lat="44.3123915" lon="11.7631806"><ele>75.0</ele><time>2026-04-25T08:18:14.78Z</time></trkpt><trkpt lat="44.3124598" lon="11.763144"><ele>75.0</ele><time>2026-04-25T08:18:15.779Z</time></trkpt><trkpt lat="44.3125311" lon="11.7631252"><ele>74.99999999999999</ele><time>2026-04-25T08:18:16.78Z</time></trkpt><trkpt lat="44.3125987" lon="11.7631079"><ele>75.0</ele><time>2026-04-25T08:18:17.78Z</time></trkpt><trkpt lat="44.3126636" lon="11.7630958"><ele>74.99999999999999</ele><time>2026-04-25T08:18:18.779Z</time></trkpt><trkpt lat="44.312728" lon="11.7630838"><ele>75.0</ele><time>2026-04-25T08:18:19.78Z</time></trkpt><trkpt lat="44.312793" lon="11.7630653"><ele>75.0</ele><time>2026-04-25T08:18:20.78Z</time></trkpt><trkpt lat="44.3128569" lon="11.7630443"><ele>75.0</ele><time>2026-04-25T08:18:21.78Z</time></trkpt><trkpt lat="44.3129165" lon="11.7630049"><ele>75.0</ele><time>2026-04-25T08:18:22.78Z</time></trkpt><trkpt lat="44.3129667" lon="11.7629475"><ele>74.99999999999999</ele><time>2026-04-25T08:18:23.779Z</time></trkpt><trkpt lat="44.3130075" lon="11.7628725"><ele>75.0</ele><time>2026-04-25T08:18:24.779Z</time></trkpt><trkpt lat="44.3130713" lon="11.7627446"><ele>74.6</ele><time>2026-04-25T08:18:26.78Z</time></trkpt><trkpt lat="44.3131463" lon="11.762629"><ele>74.2</ele><time>2026-04-25T08:18:28.779Z</time></trkpt><trkpt lat="44.3132139" lon="11.7625169"><ele>73.8</ele><time>2026-04-25T08:18:30.778Z</time></trkpt><trkpt lat="44.3132766" lon="11.7623982"><ele>73.4</ele><time>2026-04-25T08:18:32.779Z</time></trkpt><trkpt lat="44.3133367" lon="11.7622865"><ele>73.0</ele><time>2026-04-25T08:18:34.779Z</time></trkpt><trkpt lat="44.3134136" lon="11.7621824"><ele>73.0</ele><time>2026-04-25T08:18:36.778Z</time></trkpt><trkpt lat="44.313494" lon="11.7620687"><ele>73.0</ele><time>2026-04-25T08:18:38.779Z</time></trkpt><trkpt lat="44.3135624" lon="11.7619445"><ele>73.0</ele><time>2026-04-25T08:18:40.779Z</time></trkpt><trkpt lat="44.3136317" lon="11.7618191"><ele>73.0</ele><time>2026-04-25T08:18:42.778Z</time></trkpt><trkpt lat="44.3137121" lon="11.7617022"><ele>73.6</ele><time>2026-04-25T08:18:44.778Z</time></trkpt><trkpt lat="44.3137835" lon="11.7615784"><ele>74.19999999999999</ele><time>2026-04-25T08:18:46.778Z</time></trkpt><trkpt lat="44.3138586" lon="11.7614602"><ele>74.8</ele><time>2026-04-25T08:18:48.778Z</time></trkpt><trkpt lat="44.313899" lon="11.7613918"><ele>75.39999999999999</ele><time>2026-04-25T08:18:49.778Z</time></trkpt><trkpt lat="44.3139731" lon="11.761256"><ele>76.0</ele><time>2026-04-25T08:18:51.778Z</time></trkpt><trkpt lat="44.3140048" lon="11.761178"><ele>76.0</ele><time>2026-04-25T08:18:52.779Z</time></trkpt><trkpt lat="44.3140687" lon="11.761048"><ele>76.0</ele><time>2026-04-25T08:18:54.778Z</time></trkpt><trkpt lat="44.3141324" lon="11.7609116"><ele>76.0</ele><time>2026-04-25T08:18:56.779Z</time></trkpt><trkpt lat="44.3141706" lon="11.7607859"><ele>76.0</ele><time>2026-04-25T08:18:58.779Z</time></trkpt><trkpt lat="44.3142048" lon="11.7606539"><ele>76.0</ele><time>2026-04-25T08:19:00.778Z</time></trkpt><trkpt lat="44.3142417" lon="11.7605197"><ele>75.8</ele><time>2026-04-25T08:19:02.778Z</time></trkpt><trkpt lat="44.3142468" lon="11.7603927"><ele>75.6</ele><time>2026-04-25T08:19:04.778Z</time></trkpt><trkpt lat="44.3142302" lon="11.7602615"><ele>75.4</ele><time>2026-04-25T08:19:06.779Z</time></trkpt><trkpt lat="44.3142056" lon="11.7601206"><ele>75.2</ele><time>2026-04-25T08:19:08.779Z</time></trkpt><trkpt lat="44.314175" lon="11.7599853"><ele>75.0</ele><time>2026-04-25T08:19:10.779Z</time></trkpt><trkpt lat="44.3141413" lon="11.7598506"><ele>75.4</ele><time>2026-04-25T08:19:12.779Z</time></trkpt><trkpt lat="44.3141112" lon="11.7597218"><ele>75.8</ele><time>2026-04-25T08:19:14.778Z</time></trkpt><trkpt lat="44.3140828" lon="11.7595939"><ele>76.2</ele><time>2026-04-25T08:19:16.778Z</time></trkpt><trkpt lat="44.3140467" lon="11.7594599"><ele>76.6</ele><time>2026-04-25T08:19:18.778Z</time></trkpt><trkpt lat="44.3140144" lon="11.7593264"><ele>77.0</ele><time>2026-04-25T08:19:20.779Z</time></trkpt><trkpt lat="44.3139882" lon="11.7591853"><ele>77.2</ele><time>2026-04-25T08:19:22.778Z</time></trkpt><trkpt lat="44.3139515" lon="11.7590539"><ele>77.4</ele><time>2026-04-25T08:19:24.779Z</time></trkpt><trkpt lat="44.3139209" lon="11.7589159"><ele>77.6</ele><time>2026-04-25T08:19:26.778Z</time></trkpt><trkpt lat="44.3138834" lon="11.7587886"><ele>77.8</ele><time>2026-04-25T08:19:28.778Z</time></trkpt><trkpt lat="44.3138355" lon="11.7586776"><ele>78.0</ele><time>2026-04-25T08:19:30.778Z</time></trkpt><trkpt lat="44.3137731" lon="11.7585951"><ele>78.33333333333333</ele><time>2026-04-25T08:19:32.779Z</time></trkpt><trkpt lat="44.3137016" lon="11.7585307"><ele>78.66666666666667</ele><time>2026-04-25T08:19:34.778Z</time></trkpt><trkpt lat="44.3136328" lon="11.7584742"><ele>79.0</ele><time>2026-04-25T08:19:36.778Z</time></trkpt><trkpt lat="44.3135754" lon="11.758436"><ele>79.33333333333334</ele><time>2026-04-25T08:19:38.779Z</time></trkpt><trkpt lat="44.3134898" lon="11.7583979"><ele>79.66666666666667</ele><time>2026-04-25T08:19:40.784Z</time></trkpt><trkpt lat="44.3134003" lon="11.7583689"><ele>80.0</ele><time>2026-04-25T08:19:42.795Z</time></trkpt><trkpt lat="44.3133299" lon="11.758305"><ele>80.0</ele><time>2026-04-25T08:19:44.779Z</time></trkpt><trkpt lat="44.313261" lon="11.7582551"><ele>80.0</ele><time>2026-04-25T08:19:46.778Z</time></trkpt><trkpt lat="44.3131982" lon="11.758208"><ele>80.0</ele><time>2026-04-25T08:19:48.708Z</time></trkpt><trkpt lat="44.3131336" lon="11.7581687"><ele>80.0</ele><time>2026-04-25T08:19:50.779Z</time></trkpt><trkpt lat="44.3130687" lon="11.7581357"><ele>80.0</ele><time>2026-04-25T08:19:52.778Z</time></trkpt><trkpt lat="44.3130077" lon="11.7581008"><ele>80.0</ele><time>2026-04-25T08:19:54.779Z</time></trkpt><trkpt lat="44.3129273" lon="11.7580533"><ele>80.0</ele><time>2026-04-25T08:19:57.778Z</time></trkpt><trkpt lat="44.3128452" lon="11.7579805"><ele>80.57142857142857</ele><time>2026-04-25T08:20:00.791Z</time></trkpt><trkpt lat="44.3127974" lon="11.7579043"><ele>81.14285714285714</ele><time>2026-04-25T08:20:03.778Z</time></trkpt><trkpt lat="44.3127548" lon="11.7578131"><ele>81.71428571428572</ele><time>2026-04-25T08:20:06.779Z</time></trkpt><trkpt lat="44.3127147" lon="11.7577324"><ele>82.28571428571428</ele><time>2026-04-25T08:20:09.778Z</time></trkpt><trkpt lat="44.312669" lon="11.7576596"><ele>82.85714285714286</ele><time>2026-04-25T08:20:12.858Z</time></trkpt><trkpt lat="44.312624" lon="11.7575922"><ele>83.42857142857143</ele><time>2026-04-25T08:20:14.779Z</time></trkpt><trkpt lat="44.3125763" lon="11.7575141"><ele>84.0</ele><time>2026-04-25T08:20:17.781Z</time></trkpt><trkpt lat="44.3125176" lon="11.7574231"><ele>85.5</ele><time>2026-04-25T08:20:20.801Z</time></trkpt><trkpt lat="44.3124705" lon="11.7573409"><ele>87.0</ele><time>2026-04-25T08:20:23.757Z</time></trkpt><trkpt lat="44.3124179" lon="11.7572591"><ele>88.5</ele><time>2026-04-25T08:20:26.779Z</time></trkpt><trkpt lat="44.3123614" lon="11.7571689"><ele>90.0</ele><time>2026-04-25T08:20:29.779Z</time></trkpt><trkpt lat="44.3122973" lon="11.7570991"><ele>91.5</ele><time>2026-04-25T08:20:32.778Z</time></trkpt><trkpt lat="44.3122316" lon="11.7570254"><ele>93.0</ele><time>2026-04-25T08:20:35.778Z</time></trkpt><trkpt lat="44.3121675" lon="11.7569462"><ele>95.16666666666667</ele><time>2026-04-25T08:20:38.793Z</time></trkpt><trkpt lat="44.312109" lon="11.756862"><ele>97.33333333333334</ele><time>2026-04-25T08:20:41.808Z</time></trkpt><trkpt lat="44.3120487" lon="11.7567941"><ele>99.5</ele><time>2026-04-25T08:20:44.822Z</time></trkpt><trkpt lat="44.3119982" lon="11.7567056"><ele>101.66666666666667</ele><time>2026-04-25T08:20:47.779Z</time></trkpt><trkpt lat="44.3119452" lon="11.7566153"><ele>103.83333333333334</ele><time>2026-04-25T08:20:50.778Z</time></trkpt><trkpt lat="44.3119034" lon="11.7565495"><ele>106.0</ele><time>2026-04-25T08:20:52.778Z</time></trkpt><trkpt lat="44.3118384" lon="11.7564663"><ele>106.00000000000001</ele><time>2026-04-25T08:20:55.778Z</time></trkpt><trkpt lat="44.3117818" lon="11.7563736"><ele>106.0</ele><time>2026-04-25T08:20:58.794Z</time></trkpt><trkpt lat="44.3117151" lon="11.7562912"><ele>106.0</ele><time>2026-04-25T08:21:01.779Z</time></trkpt><trkpt lat="44.3116405" lon="11.7562202"><ele>106.0</ele><time>2026-04-25T08:21:04.778Z</time></trkpt><trkpt lat="44.3115726" lon="11.7561559"><ele>106.00000000000001</ele><time>2026-04-25T08:21:07.861Z</time></trkpt><trkpt lat="44.3114953" lon="11.7561157"><ele>106.0</ele><time>2026-04-25T08:21:10.792Z</time></trkpt><trkpt lat="44.3114225" lon="11.7561025"><ele>107.50000000000001</ele><time>2026-04-25T08:21:12.778Z</time></trkpt><trkpt lat="44.3113545" lon="11.7560968"><ele>109.0</ele><time>2026-04-25T08:21:14.778Z</time></trkpt><trkpt lat="44.3112605" lon="11.7560988"><ele>110.5</ele><time>2026-04-25T08:21:17.82Z</time></trkpt><trkpt lat="44.3111807" lon="11.7560903"><ele>112.0</ele><time>2026-04-25T08:21:20.788Z</time></trkpt><trkpt lat="44.3110886" lon="11.7560869"><ele>113.50000000000001</ele><time>2026-04-25T08:21:23.755Z</time></trkpt><trkpt lat="44.3110231" lon="11.7560855"><ele>115.0</ele><time>2026-04-25T08:21:25.778Z</time></trkpt><trkpt lat="44.3109343" lon="11.7560696"><ele>115.00000000000001</ele><time>2026-04-25T08:21:28.779Z</time></trkpt><trkpt lat="44.310849" lon="11.7560471"><ele>115.0</ele><time>2026-04-25T08:21:31.779Z</time></trkpt><trkpt lat="44.3107597" lon="11.7560399"><ele>115.0</ele><time>2026-04-25T08:21:34.779Z</time></trkpt><trkpt lat="44.31067" lon="11.756039"><ele>115.0</ele><time>2026-04-25T08:21:37.779Z</time></trkpt><trkpt lat="44.3105861" lon="11.7560283"><ele>115.00000000000001</ele><time>2026-04-25T08:21:40.788Z</time></trkpt><trkpt lat="44.3105219" lon="11.756012"><ele>115.0</ele><time>2026-04-25T08:21:43.832Z</time></trkpt><trkpt lat="44.3104453" lon="11.7560006"><ele>115.83333333333334</ele><time>2026-04-25T08:21:46.87Z</time></trkpt><trkpt lat="44.3103608" lon="11.7559829"><ele>116.66666666666667</ele><time>2026-04-25T08:21:49.778Z</time></trkpt><trkpt lat="44.3102712" lon="11.7559777"><ele>117.5</ele><time>2026-04-25T08:21:52.778Z</time></trkpt><trkpt lat="44.3101883" lon="11.7559693"><ele>118.33333333333334</ele><time>2026-04-25T08:21:55.793Z</time></trkpt><trkpt lat="44.3101027" lon="11.7559516"><ele>119.16666666666667</ele><time>2026-04-25T08:21:58.81Z</time></trkpt><trkpt lat="44.3100279" lon="11.7559111"><ele>120.0</ele><time>2026-04-25T08:22:01.778Z</time></trkpt><trkpt lat="44.3099443" lon="11.755871"><ele>120.0</ele><time>2026-04-25T08:22:04.778Z</time></trkpt><trkpt lat="44.3098685" lon="11.7558212"><ele>120.0</ele><time>2026-04-25T08:22:07.778Z</time></trkpt><trkpt lat="44.309794" lon="11.7557702"><ele>120.0</ele><time>2026-04-25T08:22:10.778Z</time></trkpt><trkpt lat="44.3097057" lon="11.7557137"><ele>120.0</ele><time>2026-04-25T08:22:13.787Z</time></trkpt><trkpt lat="44.3096478" lon="11.7556675"><ele>120.0</ele><time>2026-04-25T08:22:16.779Z</time></trkpt><trkpt lat="44.3095755" lon="11.7556239"><ele>120.0</ele><time>2026-04-25T08:22:19.778Z</time></trkpt><trkpt lat="44.3094884" lon="11.7555829"><ele>122.16666666666667</ele><time>2026-04-25T08:22:22.779Z</time></trkpt><trkpt lat="44.3094043" lon="11.7555558"><ele>124.33333333333334</ele><time>2026-04-25T08:22:25.778Z</time></trkpt><trkpt lat="44.3093305" lon="11.7555533"><ele>126.5</ele><time>2026-04-25T08:22:28.785Z</time></trkpt><trkpt lat="44.3092604" lon="11.7555688"><ele>128.66666666666669</ele><time>2026-04-25T08:22:30.779Z</time></trkpt><trkpt lat="44.309186" lon="11.7556019"><ele>130.83333333333334</ele><time>2026-04-25T08:22:33.779Z</time></trkpt><trkpt lat="44.3091007" lon="11.7556189"><ele>133.0</ele><time>2026-04-25T08:22:36.778Z</time></trkpt><trkpt lat="44.3090163" lon="11.7556314"><ele>133.0</ele><time>2026-04-25T08:22:39.779Z</time></trkpt><trkpt lat="44.3089289" lon="11.7556415"><ele>133.0</ele><time>2026-04-25T08:22:42.778Z</time></trkpt><trkpt lat="44.3088406" lon="11.7556403"><ele>133.0</ele><time>2026-04-25T08:22:45.778Z</time></trkpt><trkpt lat="44.3087505" lon="11.7556251"><ele>133.0</ele><time>2026-04-25T08:22:48.778Z</time></trkpt><trkpt lat="44.308667" lon="11.7556101"><ele>133.0</ele><time>2026-04-25T08:22:51.779Z</time></trkpt><trkpt lat="44.3085781" lon="11.7555929"><ele>133.0</ele><time>2026-04-25T08:22:54.778Z</time></trkpt><trkpt lat="44.3084938" lon="11.7555607"><ele>133.5</ele><time>2026-04-25T08:22:57.778Z</time></trkpt><trkpt lat="44.3084098" lon="11.7555415"><ele>134.0</ele><time>2026-04-25T08:23:00.779Z</time></trkpt><trkpt lat="44.3083251" lon="11.7555253"><ele>134.5</ele><time>2026-04-25T08:23:03.779Z</time></trkpt><trkpt lat="44.3082324" lon="11.7555026"><ele>135.0</ele><time>2026-04-25T08:23:06.779Z</time></trkpt><trkpt lat="44.3081492" lon="11.7554754"><ele>135.5</ele><time>2026-04-25T08:23:09.779Z</time></trkpt><trkpt lat="44.3080863" lon="11.7554607"><ele>136.0</ele><time>2026-04-25T08:23:11.73Z</time></trkpt><trkpt lat="44.3080216" lon="11.7554502"><ele>136.33333333333334</ele><time>2026-04-25T08:23:13.779Z</time></trkpt><trkpt lat="44.3079391" lon="11.7554294"><ele>136.66666666666669</ele><time>2026-04-25T08:23:16.866Z</time></trkpt><trkpt lat="44.3078518" lon="11.7554011"><ele>137.0</ele><time>2026-04-25T08:23:19.814Z</time></trkpt><trkpt lat="44.3077652" lon="11.7553807"><ele>137.33333333333334</ele><time>2026-04-25T08:23:22.791Z</time></trkpt><trkpt lat="44.3077027" lon="11.7553609"><ele>137.66666666666666</ele><time>2026-04-25T08:23:24.802Z</time></trkpt><trkpt lat="44.30764" lon="11.7553478"><ele>138.0</ele><time>2026-04-25T08:23:26.778Z</time></trkpt><trkpt lat="44.3075471" lon="11.7553255"><ele>138.0</ele><time>2026-04-25T08:23:29.778Z</time></trkpt><trkpt lat="44.3074815" lon="11.7553068"><ele>138.0</ele><time>2026-04-25T08:23:31.779Z</time></trkpt><trkpt lat="44.3074097" lon="11.7552938"><ele>138.0</ele><time>2026-04-25T08:23:33.778Z</time></trkpt><trkpt lat="44.3073397" lon="11.755283"><ele>138.0</ele><time>2026-04-25T08:23:35.778Z</time></trkpt><trkpt lat="44.307264" lon="11.7552662"><ele>138.0</ele><time>2026-04-25T08:23:37.778Z</time></trkpt><trkpt lat="44.3071905" lon="11.7552396"><ele>138.0</ele><time>2026-04-25T08:23:39.779Z</time></trkpt><trkpt lat="44.3071152" lon="11.7552188"><ele>138.0</ele><time>2026-04-25T08:23:41.784Z</time></trkpt><trkpt lat="44.3070393" lon="11.7551961"><ele>138.57142857142858</ele><time>2026-04-25T08:23:43.797Z</time></trkpt><trkpt lat="44.3069687" lon="11.7551771"><ele>139.14285714285717</ele><time>2026-04-25T08:23:45.779Z</time></trkpt><trkpt lat="44.3068982" lon="11.75516"><ele>139.71428571428572</ele><time>2026-04-25T08:23:47.69Z</time></trkpt><trkpt lat="44.3068252" lon="11.7551361"><ele>140.28571428571428</ele><time>2026-04-25T08:23:49.779Z</time></trkpt><trkpt lat="44.3067537" lon="11.7551101"><ele>140.85714285714283</ele><time>2026-04-25T08:23:51.778Z</time></trkpt><trkpt lat="44.3066818" lon="11.7550915"><ele>141.42857142857142</ele><time>2026-04-25T08:23:53.553Z</time></trkpt><trkpt lat="44.3066116" lon="11.7550772"><ele>142.0</ele><time>2026-04-25T08:23:55.779Z</time></trkpt><trkpt lat="44.3065389" lon="11.7550676"><ele>142.0</ele><time>2026-04-25T08:23:57.779Z</time></trkpt><trkpt lat="44.3064657" lon="11.7550532"><ele>142.0</ele><time>2026-04-25T08:23:59.808Z</time></trkpt><trkpt lat="44.3063914" lon="11.7550313"><ele>142.0</ele><time>2026-04-25T08:24:01.789Z</time></trkpt><trkpt lat="44.3063114" lon="11.7550056"><ele>142.0</ele><time>2026-04-25T08:24:03.814Z</time></trkpt><trkpt lat="44.3062354" lon="11.7549817"><ele>142.0</ele><time>2026-04-25T08:24:05.779Z</time></trkpt><trkpt lat="44.306171" lon="11.7549342"><ele>142.0</ele><time>2026-04-25T08:24:07.779Z</time></trkpt><trkpt lat="44.3061101" lon="11.7548816"><ele>143.0</ele><time>2026-04-25T08:24:09.778Z</time></trkpt><trkpt lat="44.3060526" lon="11.7548281"><ele>144.0</ele><time>2026-04-25T08:24:11.779Z</time></trkpt><trkpt lat="44.3060014" lon="11.7547728"><ele>145.0</ele><time>2026-04-25T08:24:13.778Z</time></trkpt><trkpt lat="44.305949" lon="11.7547098"><ele>146.0</ele><time>2026-04-25T08:24:15.778Z</time></trkpt><trkpt lat="44.3058972" lon="11.7546455"><ele>147.0</ele><time>2026-04-25T08:24:17.68Z</time></trkpt><trkpt lat="44.30584" lon="11.7545613"><ele>148.0</ele><time>2026-04-25T08:24:19.786Z</time></trkpt><trkpt lat="44.3057918" lon="11.754485"><ele>149.0</ele><time>2026-04-25T08:24:21.797Z</time></trkpt><trkpt lat="44.3057427" lon="11.7544154"><ele>148.14285714285714</ele><time>2026-04-25T08:24:23.811Z</time></trkpt><trkpt lat="44.3056913" lon="11.7543408"><ele>147.28571428571428</ele><time>2026-04-25T08:24:25.779Z</time></trkpt><trkpt lat="44.3056473" lon="11.7542544"><ele>146.42857142857142</ele><time>2026-04-25T08:24:27.778Z</time></trkpt><trkpt lat="44.3055997" lon="11.7541779"><ele>145.57142857142856</ele><time>2026-04-25T08:24:29.778Z</time></trkpt><trkpt lat="44.3055543" lon="11.7541079"><ele>144.71428571428572</ele><time>2026-04-25T08:24:31.788Z</time></trkpt><trkpt lat="44.3055061" lon="11.7540425"><ele>143.85714285714283</ele><time>2026-04-25T08:24:33.802Z</time></trkpt><trkpt lat="44.3054597" lon="11.7539637"><ele>143.0</ele><time>2026-04-25T08:24:36.78Z</time></trkpt><trkpt lat="44.3053887" lon="11.7538716"><ele>145.5</ele><time>2026-04-25T08:24:39.779Z</time></trkpt><trkpt lat="44.3053141" lon="11.7537607"><ele>148.0</ele><time>2026-04-25T08:24:42.874Z</time></trkpt><trkpt lat="44.305259" lon="11.7536614"><ele>150.5</ele><time>2026-04-25T08:24:45.779Z</time></trkpt><trkpt lat="44.305223" lon="11.753586"><ele>153.0</ele><time>2026-04-25T08:24:47.786Z</time></trkpt><trkpt lat="44.3051722" lon="11.7534965"><ele>155.5</ele><time>2026-04-25T08:24:49.779Z</time></trkpt><trkpt lat="44.3051177" lon="11.753412"><ele>158.0</ele><time>2026-04-25T08:24:51.778Z</time></trkpt><trkpt lat="44.3050674" lon="11.7533382"><ele>158.0</ele><time>2026-04-25T08:24:53.779Z</time></trkpt><trkpt lat="44.3050236" lon="11.7532668"><ele>158.0</ele><time>2026-04-25T08:24:55.778Z</time></trkpt><trkpt lat="44.3049678" lon="11.7531848"><ele>158.0</ele><time>2026-04-25T08:24:58.794Z</time></trkpt><trkpt lat="44.3049019" lon="11.7530954"><ele>158.0</ele><time>2026-04-25T08:25:01.813Z</time></trkpt><trkpt lat="44.3048419" lon="11.753031"><ele>158.0</ele><time>2026-04-25T08:25:03.779Z</time></trkpt><trkpt lat="44.3047646" lon="11.7529547"><ele>158.0</ele><time>2026-04-25T08:25:06.78Z</time></trkpt><trkpt lat="44.3046974" lon="11.7528927"><ele>158.33333333333331</ele><time>2026-04-25T08:25:08.779Z</time></trkpt><trkpt lat="44.3046361" lon="11.7528439"><ele>158.66666666666666</ele><time>2026-04-25T08:25:10.779Z</time></trkpt><trkpt lat="44.3045619" lon="11.7527831"><ele>159.0</ele><time>2026-04-25T08:25:13.779Z</time></trkpt><trkpt lat="44.304499" lon="11.7527233"><ele>159.33333333333334</ele><time>2026-04-25T08:25:16.779Z</time></trkpt><trkpt lat="44.304436" lon="11.7526501"><ele>159.66666666666669</ele><time>2026-04-25T08:25:19.779Z</time></trkpt><trkpt lat="44.3043818" lon="11.7525587"><ele>160.0</ele><time>2026-04-25T08:25:22.819Z</time></trkpt><trkpt lat="44.3043317" lon="11.7524671"><ele>160.0</ele><time>2026-04-25T08:25:25.779Z</time></trkpt><trkpt lat="44.3042792" lon="11.752374"><ele>160.0</ele><time>2026-04-25T08:25:28.778Z</time></trkpt><trkpt lat="44.3042272" lon="11.7522821"><ele>160.0</ele><time>2026-04-25T08:25:31.778Z</time></trkpt><trkpt lat="44.3041948" lon="11.7521956"><ele>160.0</ele><time>2026-04-25T08:25:33.778Z</time></trkpt><trkpt lat="44.3041638" lon="11.7521137"><ele>160.0</ele><time>2026-04-25T08:25:35.79Z</time></trkpt><trkpt lat="44.3041229" lon="11.7520168"><ele>160.0</ele><time>2026-04-25T08:25:37.639Z</time></trkpt><trkpt lat="44.3040748" lon="11.7519101"><ele>159.33333333333334</ele><time>2026-04-25T08:25:39.816Z</time></trkpt><trkpt lat="44.3040443" lon="11.7518009"><ele>158.66666666666669</ele><time>2026-04-25T08:25:41.712Z</time></trkpt><trkpt lat="44.3040146" lon="11.7516831"><ele>158.0</ele><time>2026-04-25T08:25:43.778Z</time></trkpt><trkpt lat="44.3039943" lon="11.7515731"><ele>157.33333333333334</ele><time>2026-04-25T08:25:45.779Z</time></trkpt><trkpt lat="44.3039741" lon="11.7514695"><ele>156.66666666666666</ele><time>2026-04-25T08:25:47.778Z</time></trkpt><trkpt lat="44.3039511" lon="11.7513758"><ele>156.0</ele><time>2026-04-25T08:25:49.779Z</time></trkpt><trkpt lat="44.3039287" lon="11.7512485"><ele>155.42857142857144</ele><time>2026-04-25T08:25:52.791Z</time></trkpt><trkpt lat="44.3039097" lon="11.7511608"><ele>154.85714285714283</ele><time>2026-04-25T08:25:54.805Z</time></trkpt><trkpt lat="44.3038842" lon="11.7510658"><ele>154.28571428571428</ele><time>2026-04-25T08:25:56.779Z</time></trkpt><trkpt lat="44.3038659" lon="11.750966"><ele>153.71428571428572</ele><time>2026-04-25T08:25:58.778Z</time></trkpt><trkpt lat="44.3038527" lon="11.7508641"><ele>153.14285714285717</ele><time>2026-04-25T08:26:00.779Z</time></trkpt><trkpt lat="44.3038345" lon="11.7507615"><ele>152.57142857142856</ele><time>2026-04-25T08:26:02.866Z</time></trkpt><trkpt lat="44.3038191" lon="11.7506673"><ele>152.0</ele><time>2026-04-25T08:26:04.831Z</time></trkpt><trkpt lat="44.3038087" lon="11.7505762"><ele>152.0</ele><time>2026-04-25T08:26:06.756Z</time></trkpt><trkpt lat="44.3037951" lon="11.7504791"><ele>152.0</ele><time>2026-04-25T08:26:08.791Z</time></trkpt><trkpt lat="44.3037845" lon="11.7503791"><ele>152.0</ele><time>2026-04-25T08:26:10.778Z</time></trkpt><trkpt lat="44.3037686" lon="11.7502835"><ele>152.0</ele><time>2026-04-25T08:26:12.817Z</time></trkpt><trkpt lat="44.3037543" lon="11.7501477"><ele>152.0</ele><time>2026-04-25T08:26:15.778Z</time></trkpt><trkpt lat="44.3037522" lon="11.7500569"><ele>152.0</ele><time>2026-04-25T08:26:17.79Z</time></trkpt><trkpt lat="44.303745" lon="11.7499595"><ele>152.0</ele><time>2026-04-25T08:26:19.779Z</time></trkpt><trkpt lat="44.3037359" lon="11.7498639"><ele>152.85714285714286</ele><time>2026-04-25T08:26:21.778Z</time></trkpt><trkpt lat="44.3037262" lon="11.7497715"><ele>153.71428571428572</ele><time>2026-04-25T08:26:23.779Z</time></trkpt><trkpt lat="44.303718" lon="11.749678"><ele>154.57142857142858</ele><time>2026-04-25T08:26:25.785Z</time></trkpt><trkpt lat="44.3037091" lon="11.7495805"><ele>155.42857142857144</ele><time>2026-04-25T08:26:27.778Z</time></trkpt><trkpt lat="44.3037079" lon="11.7494907"><ele>156.28571428571428</ele><time>2026-04-25T08:26:29.702Z</time></trkpt><trkpt lat="44.303699" lon="11.749395"><ele>157.14285714285717</ele><time>2026-04-25T08:26:31.836Z</time></trkpt><trkpt lat="44.3037017" lon="11.7493054"><ele>158.0</ele><time>2026-04-25T08:26:33.778Z</time></trkpt><trkpt lat="44.3037029" lon="11.7491738"><ele>159.33333333333331</ele><time>2026-04-25T08:26:36.778Z</time></trkpt><trkpt lat="44.3037175" lon="11.7490525"><ele>160.66666666666666</ele><time>2026-04-25T08:26:39.69Z</time></trkpt><trkpt lat="44.3037458" lon="11.7489382"><ele>162.0</ele><time>2026-04-25T08:26:41.778Z</time></trkpt><trkpt lat="44.3037866" lon="11.7488309"><ele>163.33333333333334</ele><time>2026-04-25T08:26:44.791Z</time></trkpt><trkpt lat="44.3038307" lon="11.7487242"><ele>164.66666666666669</ele><time>2026-04-25T08:26:47.823Z</time></trkpt><trkpt lat="44.3038737" lon="11.74862"><ele>166.0</ele><time>2026-04-25T08:26:50.779Z</time></trkpt><trkpt lat="44.3039145" lon="11.7485137"><ele>167.0</ele><time>2026-04-25T08:26:53.778Z</time></trkpt><trkpt lat="44.3039537" lon="11.7484228"><ele>168.0</ele><time>2026-04-25T08:26:56.779Z</time></trkpt><trkpt lat="44.3039902" lon="11.7483432"><ele>169.0</ele><time>2026-04-25T08:26:59.778Z</time></trkpt><trkpt lat="44.3040215" lon="11.7482495"><ele>170.0</ele><time>2026-04-25T08:27:02.778Z</time></trkpt><trkpt lat="44.3040524" lon="11.7481525"><ele>171.0</ele><time>2026-04-25T08:27:05.778Z</time></trkpt><trkpt lat="44.3040725" lon="11.748043"><ele>172.0</ele><time>2026-04-25T08:27:08.778Z</time></trkpt><trkpt lat="44.3041073" lon="11.7479282"><ele>172.0</ele><time>2026-04-25T08:27:11.846Z</time></trkpt><trkpt lat="44.3041481" lon="11.7478263"><ele>172.0</ele><time>2026-04-25T08:27:15.779Z</time></trkpt><trkpt lat="44.3041839" lon="11.7477264"><ele>172.0</ele><time>2026-04-25T08:27:19.778Z</time></trkpt><trkpt lat="44.3041935" lon="11.7476286"><ele>172.0</ele><time>2026-04-25T08:27:23.794Z</time></trkpt><trkpt lat="44.3042178" lon="11.7475384"><ele>172.0</ele><time>2026-04-25T08:27:26.813Z</time></trkpt><trkpt lat="44.3042299" lon="11.7474198"><ele>172.0</ele><time>2026-04-25T08:27:29.779Z</time></trkpt><trkpt lat="44.3042359" lon="11.7473112"><ele>174.66666666666669</ele><time>2026-04-25T08:27:32.779Z</time></trkpt><trkpt lat="44.3042422" lon="11.7471977"><ele>177.33333333333334</ele><time>2026-04-25T08:27:35.779Z</time></trkpt><trkpt lat="44.3042389" lon="11.7470979"><ele>180.0</ele><time>2026-04-25T08:27:37.778Z</time></trkpt><trkpt lat="44.3042425" lon="11.7469556"><ele>182.66666666666666</ele><time>2026-04-25T08:27:40.779Z</time></trkpt><trkpt lat="44.3042401" lon="11.7468309"><ele>185.33333333333331</ele><time>2026-04-25T08:27:43.798Z</time></trkpt><trkpt lat="44.3042314" lon="11.7467139"><ele>188.0</ele><time>2026-04-25T08:27:46.817Z</time></trkpt><trkpt lat="44.3042204" lon="11.7465917"><ele>189.0</ele><time>2026-04-25T08:27:49.779Z</time></trkpt><trkpt lat="44.3042135" lon="11.7464986"><ele>190.0</ele><time>2026-04-25T08:27:51.779Z</time></trkpt><trkpt lat="44.3042093" lon="11.7463979"><ele>191.0</ele><time>2026-04-25T08:27:53.72Z</time></trkpt><trkpt lat="44.3042073" lon="11.7462919"><ele>192.0</ele><time>2026-04-25T08:27:54.678Z</time></trkpt><trkpt lat="44.3042193" lon="11.746112"><ele>193.00000000000003</ele><time>2026-04-25T08:27:56.778Z</time></trkpt><trkpt lat="44.3042289" lon="11.7460142"><ele>194.0</ele><time>2026-04-25T08:27:57.778Z</time></trkpt><trkpt lat="44.3042418" lon="11.7459222"><ele>194.16666666666669</ele><time>2026-04-25T08:27:58.779Z</time></trkpt><trkpt lat="44.3042601" lon="11.745833"><ele>194.33333333333334</ele><time>2026-04-25T08:27:59.779Z</time></trkpt><trkpt lat="44.3042893" lon="11.7457501"><ele>194.5</ele><time>2026-04-25T08:28:00.779Z</time></trkpt><trkpt lat="44.3043205" lon="11.7456706"><ele>194.66666666666669</ele><time>2026-04-25T08:28:01.779Z</time></trkpt><trkpt lat="44.3043748" lon="11.7455501"><ele>194.83333333333334</ele><time>2026-04-25T08:28:03.778Z</time></trkpt><trkpt lat="44.3044176" lon="11.7454528"><ele>195.0</ele><time>2026-04-25T08:28:05.777Z</time></trkpt><trkpt lat="44.3044482" lon="11.7453466"><ele>195.0</ele><time>2026-04-25T08:28:07.777Z</time></trkpt><trkpt lat="44.3044732" lon="11.7452532"><ele>195.0</ele><time>2026-04-25T08:28:09.778Z</time></trkpt><trkpt lat="44.3044825" lon="11.7451415"><ele>195.0</ele><time>2026-04-25T08:28:12.709Z</time></trkpt><trkpt lat="44.3044268" lon="11.7450873"><ele>195.0</ele><time>2026-04-25T08:28:13.777Z</time></trkpt><trkpt lat="44.3043532" lon="11.7450741"><ele>195.0</ele><time>2026-04-25T08:28:15.778Z</time></trkpt><trkpt lat="44.3042748" lon="11.7450312"><ele>195.0</ele><time>2026-04-25T08:28:18.777Z</time></trkpt><trkpt lat="44.3042151" lon="11.7449872"><ele>195.0</ele><time>2026-04-25T08:28:21.877Z</time></trkpt><trkpt lat="44.3041541" lon="11.7449477"><ele>193.66666666666666</ele><time>2026-04-25T08:28:24.75Z</time></trkpt><trkpt lat="44.3040818" lon="11.7449123"><ele>192.33333333333334</ele><time>2026-04-25T08:28:27.687Z</time></trkpt><trkpt lat="44.3040094" lon="11.7448718"><ele>191.0</ele><time>2026-04-25T08:28:30.75Z</time></trkpt><trkpt lat="44.3039382" lon="11.7448177"><ele>189.66666666666669</ele><time>2026-04-25T08:28:33.777Z</time></trkpt><trkpt lat="44.3038637" lon="11.7447624"><ele>188.33333333333334</ele><time>2026-04-25T08:28:36.777Z</time></trkpt><trkpt lat="44.3037852" lon="11.7447204"><ele>187.0</ele><time>2026-04-25T08:28:39.782Z</time></trkpt><trkpt lat="44.3037089" lon="11.7446862"><ele>190.16666666666669</ele><time>2026-04-25T08:28:42.8Z</time></trkpt><trkpt lat="44.3036237" lon="11.7446434"><ele>193.33333333333334</ele><time>2026-04-25T08:28:45.777Z</time></trkpt><trkpt lat="44.3035438" lon="11.7446013"><ele>196.5</ele><time>2026-04-25T08:28:48.777Z</time></trkpt><trkpt lat="44.3034726" lon="11.7445624"><ele>199.66666666666669</ele><time>2026-04-25T08:28:51.697Z</time></trkpt><trkpt lat="44.3034127" lon="11.744534"><ele>202.83333333333334</ele><time>2026-04-25T08:28:53.777Z</time></trkpt><trkpt lat="44.3033353" lon="11.7444952"><ele>206.0</ele><time>2026-04-25T08:28:56.761Z</time></trkpt><trkpt lat="44.3032611" lon="11.7444696"><ele>206.00000000000003</ele><time>2026-04-25T08:28:59.792Z</time></trkpt><trkpt lat="44.3031903" lon="11.7444532"><ele>206.0</ele><time>2026-04-25T08:29:02.859Z</time></trkpt><trkpt lat="44.3031134" lon="11.7444398"><ele>206.0</ele><time>2026-04-25T08:29:05.778Z</time></trkpt><trkpt lat="44.3030333" lon="11.7444151"><ele>206.0</ele><time>2026-04-25T08:29:08.74Z</time></trkpt><trkpt lat="44.3029459" lon="11.7443816"><ele>206.00000000000003</ele><time>2026-04-25T08:29:11.778Z</time></trkpt><trkpt lat="44.3028787" lon="11.7443508"><ele>206.0</ele><time>2026-04-25T08:29:13.839Z</time></trkpt><trkpt lat="44.3027898" lon="11.744295"><ele>205.16666666666669</ele><time>2026-04-25T08:29:16.778Z</time></trkpt><trkpt lat="44.3027318" lon="11.7442505"><ele>204.33333333333334</ele><time>2026-04-25T08:29:18.777Z</time></trkpt><trkpt lat="44.3026508" lon="11.7442077"><ele>203.5</ele><time>2026-04-25T08:29:21.694Z</time></trkpt><trkpt lat="44.3025728" lon="11.7441901"><ele>202.66666666666669</ele><time>2026-04-25T08:29:24.778Z</time></trkpt><trkpt lat="44.3024973" lon="11.7441781"><ele>201.83333333333334</ele><time>2026-04-25T08:29:27.743Z</time></trkpt><trkpt lat="44.3024124" lon="11.7441813"><ele>201.0</ele><time>2026-04-25T08:29:30.777Z</time></trkpt><trkpt lat="44.3023463" lon="11.7441905"><ele>201.0</ele><time>2026-04-25T08:29:33.777Z</time></trkpt><trkpt lat="44.3022667" lon="11.7442096"><ele>201.0</ele><time>2026-04-25T08:29:36.778Z</time></trkpt><trkpt lat="44.3021906" lon="11.7442273"><ele>201.0</ele><time>2026-04-25T08:29:39.777Z</time></trkpt><trkpt lat="44.3021234" lon="11.7442165"><ele>201.0</ele><time>2026-04-25T08:29:42.777Z</time></trkpt><trkpt lat="44.3020561" lon="11.744193"><ele>201.0</ele><time>2026-04-25T08:29:45.781Z</time></trkpt><trkpt lat="44.3019827" lon="11.744157"><ele>201.0</ele><time>2026-04-25T08:29:48.799Z</time></trkpt><trkpt lat="44.3019016" lon="11.7441032"><ele>201.83333333333334</ele><time>2026-04-25T08:29:51.777Z</time></trkpt><trkpt lat="44.3018408" lon="11.7440635"><ele>202.66666666666669</ele><time>2026-04-25T08:29:53.778Z</time></trkpt><trkpt lat="44.3017579" lon="11.7440034"><ele>203.5</ele><time>2026-04-25T08:29:56.876Z</time></trkpt><trkpt lat="44.3016915" lon="11.7439489"><ele>204.33333333333334</ele><time>2026-04-25T08:29:58.777Z</time></trkpt><trkpt lat="44.3016237" lon="11.7438916"><ele>205.16666666666669</ele><time>2026-04-25T08:30:01.609Z</time></trkpt><trkpt lat="44.3015609" lon="11.7438452"><ele>206.0</ele><time>2026-04-25T08:30:03.777Z</time></trkpt><trkpt lat="44.3014693" lon="11.7437757"><ele>206.00000000000003</ele><time>2026-04-25T08:30:06.802Z</time></trkpt><trkpt lat="44.3013972" lon="11.7437249"><ele>206.0</ele><time>2026-04-25T08:30:09.778Z</time></trkpt><trkpt lat="44.301342" lon="11.7436779"><ele>206.0</ele><time>2026-04-25T08:30:11.778Z</time></trkpt><trkpt lat="44.3012648" lon="11.7436155"><ele>206.0</ele><time>2026-04-25T08:30:14.778Z</time></trkpt><trkpt lat="44.3011925" lon="11.7435479"><ele>206.00000000000003</ele><time>2026-04-25T08:30:17.777Z</time></trkpt><trkpt lat="44.3011315" lon="11.7434845"><ele>206.0</ele><time>2026-04-25T08:30:20.746Z</time></trkpt><trkpt lat="44.3010596" lon="11.7434041"><ele>206.99999999999997</ele><time>2026-04-25T08:30:23.778Z</time></trkpt><trkpt lat="44.3009988" lon="11.7433239"><ele>208.0</ele><time>2026-04-25T08:30:26.777Z</time></trkpt><trkpt lat="44.3009452" lon="11.7432328"><ele>209.0</ele><time>2026-04-25T08:30:29.745Z</time></trkpt><trkpt lat="44.3008953" lon="11.7431742"><ele>210.0</ele><time>2026-04-25T08:30:31.777Z</time></trkpt><trkpt lat="44.3008499" lon="11.7431079"><ele>211.0</ele><time>2026-04-25T08:30:33.777Z</time></trkpt><trkpt lat="44.3008051" lon="11.7430426"><ele>211.99999999999997</ele><time>2026-04-25T08:30:35.777Z</time></trkpt><trkpt lat="44.3007472" lon="11.7429568"><ele>213.0</ele><time>2026-04-25T08:30:38.779Z</time></trkpt><trkpt lat="44.3006751" lon="11.7428883"><ele>213.0</ele><time>2026-04-25T08:30:41.758Z</time></trkpt><trkpt lat="44.3006173" lon="11.7428462"><ele>213.0</ele><time>2026-04-25T08:30:43.777Z</time></trkpt><trkpt lat="44.3005539" lon="11.7428223"><ele>213.0</ele><time>2026-04-25T08:30:45.777Z</time></trkpt><trkpt lat="44.3004736" lon="11.7427987"><ele>213.0</ele><time>2026-04-25T08:30:48.777Z</time></trkpt><trkpt lat="44.3003869" lon="11.7427921"><ele>213.0</ele><time>2026-04-25T08:30:51.777Z</time></trkpt><trkpt lat="44.3003006" lon="11.7428012"><ele>213.0</ele><time>2026-04-25T08:30:54.789Z</time></trkpt><trkpt lat="44.3002353" lon="11.742822"><ele>213.0</ele><time>2026-04-25T08:30:56.802Z</time></trkpt><trkpt lat="44.3001465" lon="11.7428494"><ele>213.0</ele><time>2026-04-25T08:30:59.778Z</time></trkpt><trkpt lat="44.3000606" lon="11.7428665"><ele>213.0</ele><time>2026-04-25T08:31:02.721Z</time></trkpt><trkpt lat="44.2999637" lon="11.742874"><ele>213.0</ele><time>2026-04-25T08:31:05.777Z</time></trkpt><trkpt lat="44.2998794" lon="11.742887"><ele>213.0</ele><time>2026-04-25T08:31:07.777Z</time></trkpt><trkpt lat="44.2997676" lon="11.7429317"><ele>211.33333333333334</ele><time>2026-04-25T08:31:09.777Z</time></trkpt><trkpt lat="44.2996473" lon="11.7429939"><ele>209.66666666666669</ele><time>2026-04-25T08:31:11.778Z</time></trkpt><trkpt lat="44.299589" lon="11.7430427"><ele>208.0</ele><time>2026-04-25T08:31:12.777Z</time></trkpt><trkpt lat="44.2995357" lon="11.7431015"><ele>206.33333333333334</ele><time>2026-04-25T08:31:13.778Z</time></trkpt><trkpt lat="44.2994774" lon="11.7431564"><ele>204.66666666666669</ele><time>2026-04-25T08:31:14.778Z</time></trkpt><trkpt lat="44.2994124" lon="11.7432071"><ele>203.0</ele><time>2026-04-25T08:31:15.778Z</time></trkpt><trkpt lat="44.2993461" lon="11.7432524"><ele>203.00000000000003</ele><time>2026-04-25T08:31:16.778Z</time></trkpt><trkpt lat="44.2992744" lon="11.7432921"><ele>203.0</ele><time>2026-04-25T08:31:17.777Z</time></trkpt><trkpt lat="44.2992081" lon="11.7433378"><ele>203.0</ele><time>2026-04-25T08:31:18.777Z</time></trkpt><trkpt lat="44.2991426" lon="11.7433822"><ele>203.0</ele><time>2026-04-25T08:31:19.778Z</time></trkpt><trkpt lat="44.2990752" lon="11.74344"><ele>203.00000000000003</ele><time>2026-04-25T08:31:20.777Z</time></trkpt><trkpt lat="44.2990054" lon="11.7434961"><ele>203.0</ele><time>2026-04-25T08:31:21.777Z</time></trkpt><trkpt lat="44.2989407" lon="11.7435508"><ele>202.83333333333334</ele><time>2026-04-25T08:31:22.778Z</time></trkpt><trkpt lat="44.2988745" lon="11.7436087"><ele>202.66666666666669</ele><time>2026-04-25T08:31:23.777Z</time></trkpt><trkpt lat="44.2988108" lon="11.7436697"><ele>202.5</ele><time>2026-04-25T08:31:24.777Z</time></trkpt><trkpt lat="44.2987505" lon="11.743738"><ele>202.33333333333331</ele><time>2026-04-25T08:31:25.778Z</time></trkpt><trkpt lat="44.2986952" lon="11.7438113"><ele>202.16666666666666</ele><time>2026-04-25T08:31:26.778Z</time></trkpt><trkpt lat="44.2986416" lon="11.7438854"><ele>202.0</ele><time>2026-04-25T08:31:27.778Z</time></trkpt><trkpt lat="44.2985873" lon="11.7439534"><ele>202.0</ele><time>2026-04-25T08:31:28.777Z</time></trkpt><trkpt lat="44.2985271" lon="11.7440039"><ele>202.0</ele><time>2026-04-25T08:31:29.777Z</time></trkpt><trkpt lat="44.2984622" lon="11.7440288"><ele>202.0</ele><time>2026-04-25T08:31:30.777Z</time></trkpt><trkpt lat="44.2983475" lon="11.7440936"><ele>202.0</ele><time>2026-04-25T08:31:32.778Z</time></trkpt><trkpt lat="44.2982512" lon="11.7441587"><ele>202.0</ele><time>2026-04-25T08:31:34.777Z</time></trkpt><trkpt lat="44.2981826" lon="11.7442404"><ele>201.99999999999997</ele><time>2026-04-25T08:31:36.778Z</time></trkpt><trkpt lat="44.298127" lon="11.7443047"><ele>202.0</ele><time>2026-04-25T08:31:38.778Z</time></trkpt><trkpt lat="44.2980599" lon="11.7443662"><ele>202.0</ele><time>2026-04-25T08:31:41.777Z</time></trkpt><trkpt lat="44.2979874" lon="11.7443994"><ele>202.0</ele><time>2026-04-25T08:31:44.778Z</time></trkpt><trkpt lat="44.2979037" lon="11.7444284"><ele>201.99999999999997</ele><time>2026-04-25T08:31:47.777Z</time></trkpt><trkpt lat="44.297815" lon="11.744463"><ele>202.0</ele><time>2026-04-25T08:31:50.777Z</time></trkpt><trkpt lat="44.2977329" lon="11.7445097"><ele>203.16666666666666</ele><time>2026-04-25T08:31:53.778Z</time></trkpt><trkpt lat="44.2976513" lon="11.7445566"><ele>204.33333333333331</ele><time>2026-04-25T08:31:56.777Z</time></trkpt><trkpt lat="44.2975887" lon="11.7445906"><ele>205.5</ele><time>2026-04-25T08:31:58.777Z</time></trkpt><trkpt lat="44.2975041" lon="11.7446355"><ele>206.66666666666669</ele><time>2026-04-25T08:32:01.778Z</time></trkpt><trkpt lat="44.2974193" lon="11.7446864"><ele>207.83333333333334</ele><time>2026-04-25T08:32:04.777Z</time></trkpt><trkpt lat="44.2973619" lon="11.7447273"><ele>209.0</ele><time>2026-04-25T08:32:06.777Z</time></trkpt><trkpt lat="44.29728" lon="11.7447719"><ele>210.16666666666669</ele><time>2026-04-25T08:32:09.778Z</time></trkpt><trkpt lat="44.2971965" lon="11.7448131"><ele>211.33333333333334</ele><time>2026-04-25T08:32:12.777Z</time></trkpt><trkpt lat="44.2971381" lon="11.7448487"><ele>212.5</ele><time>2026-04-25T08:32:14.778Z</time></trkpt><trkpt lat="44.2970492" lon="11.7448885"><ele>213.66666666666669</ele><time>2026-04-25T08:32:17.778Z</time></trkpt><trkpt lat="44.2969834" lon="11.7449042"><ele>214.83333333333334</ele><time>2026-04-25T08:32:19.778Z</time></trkpt><trkpt lat="44.2969181" lon="11.7449122"><ele>216.0</ele><time>2026-04-25T08:32:21.778Z</time></trkpt><trkpt lat="44.2968242" lon="11.7449076"><ele>216.0</ele><time>2026-04-25T08:32:24.778Z</time></trkpt><trkpt lat="44.2967601" lon="11.7448852"><ele>216.0</ele><time>2026-04-25T08:32:26.777Z</time></trkpt><trkpt lat="44.2966995" lon="11.7448514"><ele>216.0</ele><time>2026-04-25T08:32:28.779Z</time></trkpt><trkpt lat="44.296608" lon="11.7448168"><ele>216.0</ele><time>2026-04-25T08:32:31.795Z</time></trkpt><trkpt lat="44.29652" lon="11.7447757"><ele>216.0</ele><time>2026-04-25T08:32:34.777Z</time></trkpt><trkpt lat="44.2964336" lon="11.7447529"><ele>216.0</ele><time>2026-04-25T08:32:37.778Z</time></trkpt><trkpt lat="44.2963357" lon="11.7447239"><ele>217.66666666666666</ele><time>2026-04-25T08:32:40.694Z</time></trkpt><trkpt lat="44.2962488" lon="11.7447116"><ele>219.33333333333331</ele><time>2026-04-25T08:32:43.777Z</time></trkpt><trkpt lat="44.2961856" lon="11.7447029"><ele>221.0</ele><time>2026-04-25T08:32:45.777Z</time></trkpt><trkpt lat="44.2960939" lon="11.7447047"><ele>222.66666666666666</ele><time>2026-04-25T08:32:48.785Z</time></trkpt><trkpt lat="44.2960063" lon="11.7446971"><ele>224.33333333333331</ele><time>2026-04-25T08:32:51.778Z</time></trkpt><trkpt lat="44.2959371" lon="11.7446989"><ele>226.0</ele><time>2026-04-25T08:32:53.778Z</time></trkpt><trkpt lat="44.2958733" lon="11.7447216"><ele>226.0</ele><time>2026-04-25T08:32:56.833Z</time></trkpt><trkpt lat="44.2958036" lon="11.7447285"><ele>226.0</ele><time>2026-04-25T08:32:59.778Z</time></trkpt><trkpt lat="44.2957263" lon="11.7447177"><ele>226.0</ele><time>2026-04-25T08:33:02.778Z</time></trkpt><trkpt lat="44.2956466" lon="11.7447076"><ele>226.0</ele><time>2026-04-25T08:33:05.778Z</time></trkpt><trkpt lat="44.2955769" lon="11.7447039"><ele>226.0</ele><time>2026-04-25T08:33:08.777Z</time></trkpt><trkpt lat="44.2955058" lon="11.7447385"><ele>226.0</ele><time>2026-04-25T08:33:11.775Z</time></trkpt><trkpt lat="44.2954561" lon="11.7447935"><ele>226.0</ele><time>2026-04-25T08:33:14.813Z</time></trkpt><trkpt lat="44.2954195" lon="11.7448759"><ele>224.99999999999997</ele><time>2026-04-25T08:33:17.777Z</time></trkpt><trkpt lat="44.2953671" lon="11.7449444"><ele>224.0</ele><time>2026-04-25T08:33:21.848Z</time></trkpt><trkpt lat="44.2953027" lon="11.7449847"><ele>223.0</ele><time>2026-04-25T08:33:25.777Z</time></trkpt><trkpt lat="44.2952472" lon="11.7450446"><ele>222.0</ele><time>2026-04-25T08:33:30.777Z</time></trkpt><trkpt lat="44.295187" lon="11.7451098"><ele>220.99999999999997</ele><time>2026-04-25T08:33:34.778Z</time></trkpt><trkpt lat="44.2951051" lon="11.7451676"><ele>220.0</ele><time>2026-04-25T08:33:36.778Z</time></trkpt><trkpt lat="44.2950343" lon="11.7451832"><ele>219.99999999999997</ele><time>2026-04-25T08:33:37.778Z</time></trkpt><trkpt lat="44.2949545" lon="11.7451838"><ele>220.0</ele><time>2026-04-25T08:33:38.778Z</time></trkpt><trkpt lat="44.2948742" lon="11.7451751"><ele>220.0</ele><time>2026-04-25T08:33:39.777Z</time></trkpt><trkpt lat="44.2947895" lon="11.7451667"><ele>220.0</ele><time>2026-04-25T08:33:40.778Z</time></trkpt><trkpt lat="44.2946996" lon="11.7451646"><ele>219.99999999999997</ele><time>2026-04-25T08:33:41.778Z</time></trkpt><trkpt lat="44.294606" lon="11.7451522"><ele>220.0</ele><time>2026-04-25T08:33:42.778Z</time></trkpt><trkpt lat="44.2945144" lon="11.7451329"><ele>220.4</ele><time>2026-04-25T08:33:43.778Z</time></trkpt><trkpt lat="44.2944261" lon="11.7450943"><ele>220.8</ele><time>2026-04-25T08:33:44.777Z</time></trkpt><trkpt lat="44.294336" lon="11.745043"><ele>221.2</ele><time>2026-04-25T08:33:45.777Z</time></trkpt><trkpt lat="44.2942501" lon="11.7449891"><ele>221.6</ele><time>2026-04-25T08:33:46.777Z</time></trkpt><trkpt lat="44.2941662" lon="11.7449284"><ele>222.0</ele><time>2026-04-25T08:33:47.778Z</time></trkpt><trkpt lat="44.2940874" lon="11.7448665"><ele>222.0</ele><time>2026-04-25T08:33:48.777Z</time></trkpt><trkpt lat="44.2940047" lon="11.7448118"><ele>222.0</ele><time>2026-04-25T08:33:49.778Z</time></trkpt><trkpt lat="44.2939212" lon="11.7447708"><ele>222.0</ele><time>2026-04-25T08:33:50.777Z</time></trkpt><trkpt lat="44.2938363" lon="11.7447438"><ele>222.0</ele><time>2026-04-25T08:33:51.777Z</time></trkpt><trkpt lat="44.2937509" lon="11.7447369"><ele>222.0</ele><time>2026-04-25T08:33:52.778Z</time></trkpt><trkpt lat="44.2936685" lon="11.7447422"><ele>222.0</ele><time>2026-04-25T08:33:53.778Z</time></trkpt><trkpt lat="44.2935881" lon="11.7447518"><ele>221.85714285714286</ele><time>2026-04-25T08:33:54.777Z</time></trkpt><trkpt lat="44.2935087" lon="11.7447573"><ele>221.71428571428572</ele><time>2026-04-25T08:33:55.778Z</time></trkpt><trkpt lat="44.2934378" lon="11.7447752"><ele>221.57142857142858</ele><time>2026-04-25T08:33:56.778Z</time></trkpt><trkpt lat="44.2933687" lon="11.7448036"><ele>221.42857142857144</ele><time>2026-04-25T08:33:57.777Z</time></trkpt><trkpt lat="44.2933018" lon="11.7448384"><ele>221.28571428571428</ele><time>2026-04-25T08:33:58.778Z</time></trkpt><trkpt lat="44.2932406" lon="11.74488"><ele>221.14285714285717</ele><time>2026-04-25T08:33:59.778Z</time></trkpt><trkpt lat="44.2931848" lon="11.7449227"><ele>221.0</ele><time>2026-04-25T08:34:00.777Z</time></trkpt><trkpt lat="44.2931308" lon="11.7449761"><ele>220.16666666666669</ele><time>2026-04-25T08:34:01.778Z</time></trkpt><trkpt lat="44.293081" lon="11.7450387"><ele>219.33333333333334</ele><time>2026-04-25T08:34:02.777Z</time></trkpt><trkpt lat="44.293025" lon="11.7451028"><ele>218.5</ele><time>2026-04-25T08:34:03.777Z</time></trkpt><trkpt lat="44.2929596" lon="11.7451607"><ele>217.66666666666669</ele><time>2026-04-25T08:34:04.778Z</time></trkpt><trkpt lat="44.2928849" lon="11.7452167"><ele>216.83333333333334</ele><time>2026-04-25T08:34:05.777Z</time></trkpt><trkpt lat="44.2928063" lon="11.745271"><ele>216.0</ele><time>2026-04-25T08:34:06.778Z</time></trkpt><trkpt lat="44.2927265" lon="11.7453278"><ele>216.0</ele><time>2026-04-25T08:34:07.777Z</time></trkpt><trkpt lat="44.2926445" lon="11.7453846"><ele>216.00000000000003</ele><time>2026-04-25T08:34:08.778Z</time></trkpt><trkpt lat="44.2925623" lon="11.7454418"><ele>216.00000000000003</ele><time>2026-04-25T08:34:09.777Z</time></trkpt><trkpt lat="44.2924807" lon="11.745494"><ele>216.0</ele><time>2026-04-25T08:34:10.777Z</time></trkpt><trkpt lat="44.2923924" lon="11.7455427"><ele>216.0</ele><time>2026-04-25T08:34:11.778Z</time></trkpt><trkpt lat="44.2923038" lon="11.745573"><ele>215.83333333333334</ele><time>2026-04-25T08:34:12.778Z</time></trkpt><trkpt lat="44.2922134" lon="11.7455896"><ele>215.66666666666669</ele><time>2026-04-25T08:34:13.778Z</time></trkpt><trkpt lat="44.2921278" lon="11.7456037"><ele>215.5</ele><time>2026-04-25T08:34:14.778Z</time></trkpt><trkpt lat="44.2920428" lon="11.7456236"><ele>215.33333333333334</ele><time>2026-04-25T08:34:15.778Z</time></trkpt><trkpt lat="44.291964" lon="11.745648"><ele>215.16666666666669</ele><time>2026-04-25T08:34:16.778Z</time></trkpt><trkpt lat="44.2918943" lon="11.7456707"><ele>215.0</ele><time>2026-04-25T08:34:17.778Z</time></trkpt><trkpt lat="44.2918266" lon="11.7456879"><ele>215.0</ele><time>2026-04-25T08:34:18.777Z</time></trkpt><trkpt lat="44.2917159" lon="11.745726"><ele>215.0</ele><time>2026-04-25T08:34:20.777Z</time></trkpt><trkpt lat="44.2916229" lon="11.7457447"><ele>215.0</ele><time>2026-04-25T08:34:22.777Z</time></trkpt><trkpt lat="44.2915488" lon="11.7457533"><ele>215.0</ele><time>2026-04-25T08:34:24.778Z</time></trkpt><trkpt lat="44.2914622" lon="11.7457732"><ele>215.0</ele><time>2026-04-25T08:34:26.777Z</time></trkpt><trkpt lat="44.2913687" lon="11.7458106"><ele>216.4</ele><time>2026-04-25T08:34:28.777Z</time></trkpt><trkpt lat="44.2912759" lon="11.7458118"><ele>217.8</ele><time>2026-04-25T08:34:30.777Z</time></trkpt><trkpt lat="44.2911892" lon="11.7457779"><ele>219.2</ele><time>2026-04-25T08:34:32.777Z</time></trkpt><trkpt lat="44.2911055" lon="11.7457241"><ele>220.6</ele><time>2026-04-25T08:34:34.778Z</time></trkpt><trkpt lat="44.2910243" lon="11.7456487"><ele>222.0</ele><time>2026-04-25T08:34:36.778Z</time></trkpt><trkpt lat="44.2909381" lon="11.7455484"><ele>222.0</ele><time>2026-04-25T08:34:38.778Z</time></trkpt><trkpt lat="44.2908417" lon="11.745441"><ele>222.0</ele><time>2026-04-25T08:34:40.777Z</time></trkpt><trkpt lat="44.2907448" lon="11.7453517"><ele>222.0</ele><time>2026-04-25T08:34:42.777Z</time></trkpt><trkpt lat="44.2906479" lon="11.7452702"><ele>222.0</ele><time>2026-04-25T08:34:44.778Z</time></trkpt><trkpt lat="44.2905337" lon="11.7452005"><ele>219.6</ele><time>2026-04-25T08:34:46.778Z</time></trkpt><trkpt lat="44.2904244" lon="11.7451558"><ele>217.2</ele><time>2026-04-25T08:34:48.778Z</time></trkpt><trkpt lat="44.2903368" lon="11.7451107"><ele>214.8</ele><time>2026-04-25T08:34:50.778Z</time></trkpt><trkpt lat="44.290257" lon="11.7450776"><ele>212.4</ele><time>2026-04-25T08:34:52.777Z</time></trkpt><trkpt lat="44.2901844" lon="11.7450748"><ele>210.0</ele><time>2026-04-25T08:34:54.778Z</time></trkpt><trkpt lat="44.2900833" lon="11.7451295"><ele>210.0</ele><time>2026-04-25T08:34:56.778Z</time></trkpt><trkpt lat="44.2899755" lon="11.7451824"><ele>210.0</ele><time>2026-04-25T08:34:58.777Z</time></trkpt><trkpt lat="44.2898655" lon="11.7452549"><ele>210.0</ele><time>2026-04-25T08:35:00.778Z</time></trkpt><trkpt lat="44.2898084" lon="11.7452933"><ele>210.0</ele><time>2026-04-25T08:35:01.778Z</time></trkpt><trkpt lat="44.2897066" lon="11.7453543"><ele>210.0</ele><time>2026-04-25T08:35:03.777Z</time></trkpt><trkpt lat="44.2896127" lon="11.7454157"><ele>208.8</ele><time>2026-04-25T08:35:05.778Z</time></trkpt><trkpt lat="44.2895292" lon="11.7454579"><ele>207.6</ele><time>2026-04-25T08:35:07.777Z</time></trkpt><trkpt lat="44.2894585" lon="11.7454882"><ele>206.39999999999998</ele><time>2026-04-25T08:35:09.777Z</time></trkpt><trkpt lat="44.2893526" lon="11.745478"><ele>205.2</ele><time>2026-04-25T08:35:11.778Z</time></trkpt><trkpt lat="44.2892549" lon="11.7454208"><ele>204.0</ele><time>2026-04-25T08:35:13.777Z</time></trkpt><trkpt lat="44.2891447" lon="11.7453874"><ele>204.0</ele><time>2026-04-25T08:35:15.778Z</time></trkpt><trkpt lat="44.289024" lon="11.7453855"><ele>204.0</ele><time>2026-04-25T08:35:17.777Z</time></trkpt><trkpt lat="44.2889025" lon="11.7454117"><ele>204.0</ele><time>2026-04-25T08:35:19.778Z</time></trkpt><trkpt lat="44.2888357" lon="11.7454289"><ele>204.0</ele><time>2026-04-25T08:35:20.777Z</time></trkpt><trkpt lat="44.2887679" lon="11.745442"><ele>204.0</ele><time>2026-04-25T08:35:21.778Z</time></trkpt><trkpt lat="44.2886992" lon="11.7454612"><ele>203.16666666666666</ele><time>2026-04-25T08:35:22.777Z</time></trkpt><trkpt lat="44.2886286" lon="11.7454814"><ele>202.33333333333331</ele><time>2026-04-25T08:35:23.777Z</time></trkpt><trkpt lat="44.2885548" lon="11.745505"><ele>201.5</ele><time>2026-04-25T08:35:24.778Z</time></trkpt><trkpt lat="44.2884723" lon="11.7455302"><ele>200.66666666666666</ele><time>2026-04-25T08:35:25.777Z</time></trkpt><trkpt lat="44.2883869" lon="11.7455544"><ele>199.83333333333331</ele><time>2026-04-25T08:35:26.777Z</time></trkpt><trkpt lat="44.2883002" lon="11.7455783"><ele>199.0</ele><time>2026-04-25T08:35:27.778Z</time></trkpt><trkpt lat="44.2882124" lon="11.7456064"><ele>198.99999999999997</ele><time>2026-04-25T08:35:28.777Z</time></trkpt><trkpt lat="44.2881262" lon="11.7456314"><ele>199.0</ele><time>2026-04-25T08:35:29.778Z</time></trkpt><trkpt lat="44.2880448" lon="11.7456544"><ele>199.0</ele><time>2026-04-25T08:35:30.778Z</time></trkpt><trkpt lat="44.2879671" lon="11.7456713"><ele>199.0</ele><time>2026-04-25T08:35:31.778Z</time></trkpt><trkpt lat="44.2878913" lon="11.7456871"><ele>198.99999999999997</ele><time>2026-04-25T08:35:32.777Z</time></trkpt><trkpt lat="44.2878223" lon="11.7456993"><ele>199.0</ele><time>2026-04-25T08:35:33.777Z</time></trkpt><trkpt lat="44.2877571" lon="11.7457103"><ele>199.49999999999997</ele><time>2026-04-25T08:35:34.778Z</time></trkpt><trkpt lat="44.2876922" lon="11.7457166"><ele>200.0</ele><time>2026-04-25T08:35:35.777Z</time></trkpt><trkpt lat="44.2876281" lon="11.7457168"><ele>200.5</ele><time>2026-04-25T08:35:36.777Z</time></trkpt><trkpt lat="44.2875082" lon="11.7457024"><ele>201.0</ele><time>2026-04-25T08:35:38.778Z</time></trkpt><trkpt lat="44.2874186" lon="11.7456883"><ele>201.49999999999997</ele><time>2026-04-25T08:35:40.778Z</time></trkpt><trkpt lat="44.2873504" lon="11.7456769"><ele>202.0</ele><time>2026-04-25T08:35:42.778Z</time></trkpt><trkpt lat="44.2872635" lon="11.7456733"><ele>203.99999999999997</ele><time>2026-04-25T08:35:45.777Z</time></trkpt><trkpt lat="44.2871765" lon="11.7456669"><ele>206.0</ele><time>2026-04-25T08:35:48.777Z</time></trkpt><trkpt lat="44.287083" lon="11.7456706"><ele>208.0</ele><time>2026-04-25T08:35:51.777Z</time></trkpt><trkpt lat="44.2870174" lon="11.7456785"><ele>210.0</ele><time>2026-04-25T08:35:53.778Z</time></trkpt><trkpt lat="44.2869273" lon="11.7457133"><ele>211.99999999999997</ele><time>2026-04-25T08:35:56.778Z</time></trkpt><trkpt lat="44.2868513" lon="11.7457381"><ele>214.0</ele><time>2026-04-25T08:35:58.778Z</time></trkpt><trkpt lat="44.2867737" lon="11.7457714"><ele>214.00000000000003</ele><time>2026-04-25T08:36:00.778Z</time></trkpt><trkpt lat="44.286704" lon="11.7458024"><ele>214.0</ele><time>2026-04-25T08:36:02.778Z</time></trkpt><trkpt lat="44.2866391" lon="11.7458322"><ele>214.0</ele><time>2026-04-25T08:36:04.778Z</time></trkpt><trkpt lat="44.2865734" lon="11.7458774"><ele>214.0</ele><time>2026-04-25T08:36:06.778Z</time></trkpt><trkpt lat="44.2865074" lon="11.7459344"><ele>214.0</ele><time>2026-04-25T08:36:08.777Z</time></trkpt><trkpt lat="44.2864492" lon="11.7459981"><ele>214.00000000000003</ele><time>2026-04-25T08:36:10.778Z</time></trkpt><trkpt lat="44.2863883" lon="11.7460702"><ele>214.0</ele><time>2026-04-25T08:36:12.778Z</time></trkpt><trkpt lat="44.2863349" lon="11.7461424"><ele>214.99999999999997</ele><time>2026-04-25T08:36:14.777Z</time></trkpt><trkpt lat="44.2862828" lon="11.7462187"><ele>216.0</ele><time>2026-04-25T08:36:16.778Z</time></trkpt><trkpt lat="44.2862312" lon="11.7462942"><ele>217.0</ele><time>2026-04-25T08:36:18.778Z</time></trkpt><trkpt lat="44.2861786" lon="11.7463677"><ele>218.0</ele><time>2026-04-25T08:36:20.778Z</time></trkpt><trkpt lat="44.2861282" lon="11.7464408"><ele>218.99999999999997</ele><time>2026-04-25T08:36:22.778Z</time></trkpt><trkpt lat="44.2860698" lon="11.7465154"><ele>220.0</ele><time>2026-04-25T08:36:24.777Z</time></trkpt><trkpt lat="44.2860084" lon="11.7465789"><ele>219.99999999999997</ele><time>2026-04-25T08:36:26.778Z</time></trkpt><trkpt lat="44.2859505" lon="11.7466456"><ele>220.0</ele><time>2026-04-25T08:36:28.778Z</time></trkpt><trkpt lat="44.2859029" lon="11.7467046"><ele>220.0</ele><time>2026-04-25T08:36:30.777Z</time></trkpt><trkpt lat="44.2858347" lon="11.7467945"><ele>220.0</ele><time>2026-04-25T08:36:33.778Z</time></trkpt><trkpt lat="44.2857759" lon="11.7468366"><ele>219.99999999999997</ele><time>2026-04-25T08:36:35.778Z</time></trkpt><trkpt lat="44.2857129" lon="11.7468707"><ele>220.0</ele><time>2026-04-25T08:36:37.777Z</time></trkpt><trkpt lat="44.2856345" lon="11.7469173"><ele>218.0</ele><time>2026-04-25T08:36:39.777Z</time></trkpt><trkpt lat="44.2855384" lon="11.7469658"><ele>216.0</ele><time>2026-04-25T08:36:41.778Z</time></trkpt><trkpt lat="44.2854329" lon="11.7470021"><ele>214.0</ele><time>2026-04-25T08:36:43.777Z</time></trkpt><trkpt lat="44.2853325" lon="11.7470319"><ele>212.0</ele><time>2026-04-25T08:36:45.777Z</time></trkpt><trkpt lat="44.285229" lon="11.7470592"><ele>210.0</ele><time>2026-04-25T08:36:47.777Z</time></trkpt><trkpt lat="44.2851365" lon="11.7470528"><ele>210.0</ele><time>2026-04-25T08:36:49.777Z</time></trkpt><trkpt lat="44.2850664" lon="11.7470126"><ele>210.0</ele><time>2026-04-25T08:36:51.777Z</time></trkpt><trkpt lat="44.2850362" lon="11.7469074"><ele>210.0</ele><time>2026-04-25T08:36:53.777Z</time></trkpt><trkpt lat="44.2850279" lon="11.7467952"><ele>210.0</ele><time>2026-04-25T08:36:55.778Z</time></trkpt><trkpt lat="44.2850346" lon="11.7466773"><ele>210.0</ele><time>2026-04-25T08:36:58.778Z</time></trkpt><trkpt lat="44.285046" lon="11.7465581"><ele>210.0</ele><time>2026-04-25T08:37:01.777Z</time></trkpt><trkpt lat="44.2850607" lon="11.7464373"><ele>211.66666666666666</ele><time>2026-04-25T08:37:04.778Z</time></trkpt><trkpt lat="44.2850697" lon="11.7463301"><ele>213.33333333333331</ele><time>2026-04-25T08:37:07.778Z</time></trkpt><trkpt lat="44.2850714" lon="11.7462062"><ele>215.0</ele><time>2026-04-25T08:37:10.777Z</time></trkpt><trkpt lat="44.2850789" lon="11.7460935"><ele>216.66666666666666</ele><time>2026-04-25T08:37:13.777Z</time></trkpt><trkpt lat="44.2850853" lon="11.7459813"><ele>218.33333333333331</ele><time>2026-04-25T08:37:16.778Z</time></trkpt><trkpt lat="44.2850969" lon="11.7458742"><ele>220.0</ele><time>2026-04-25T08:37:19.777Z</time></trkpt><trkpt lat="44.2851018" lon="11.7457671"><ele>220.66666666666666</ele><time>2026-04-25T08:37:22.776Z</time></trkpt><trkpt lat="44.2851151" lon="11.7456589"><ele>221.33333333333331</ele><time>2026-04-25T08:37:25.776Z</time></trkpt><trkpt lat="44.2851365" lon="11.7455537"><ele>222.0</ele><time>2026-04-25T08:37:28.777Z</time></trkpt><trkpt lat="44.2851512" lon="11.7454416"><ele>222.66666666666669</ele><time>2026-04-25T08:37:31.777Z</time></trkpt><trkpt lat="44.2851676" lon="11.7453422"><ele>223.33333333333334</ele><time>2026-04-25T08:37:34.777Z</time></trkpt><trkpt lat="44.285181" lon="11.7452367"><ele>224.0</ele><time>2026-04-25T08:37:37.777Z</time></trkpt><trkpt lat="44.2851965" lon="11.7451209"><ele>224.28571428571428</ele><time>2026-04-25T08:37:40.777Z</time></trkpt><trkpt lat="44.2852128" lon="11.7450253"><ele>224.57142857142856</ele><time>2026-04-25T08:37:43.776Z</time></trkpt><trkpt lat="44.285235" lon="11.744938"><ele>224.85714285714286</ele><time>2026-04-25T08:37:46.777Z</time></trkpt><trkpt lat="44.2852255" lon="11.7448387"><ele>225.14285714285714</ele><time>2026-04-25T08:37:51.776Z</time></trkpt><trkpt lat="44.2851933" lon="11.7447465"><ele>225.42857142857142</ele><time>2026-04-25T08:37:56.777Z</time></trkpt><trkpt lat="44.2851698" lon="11.7446595"><ele>225.71428571428572</ele><time>2026-04-25T08:38:00.776Z</time></trkpt><trkpt lat="44.2851415" lon="11.7445505"><ele>226.0</ele><time>2026-04-25T08:38:03.776Z</time></trkpt><trkpt lat="44.2851136" lon="11.7444092"><ele>225.20000000000002</ele><time>2026-04-25T08:38:06.776Z</time></trkpt><trkpt lat="44.285082" lon="11.7442715"><ele>224.40000000000003</ele><time>2026-04-25T08:38:08.777Z</time></trkpt><trkpt lat="44.2850542" lon="11.7441178"><ele>223.6</ele><time>2026-04-25T08:38:10.777Z</time></trkpt><trkpt lat="44.2850394" lon="11.7440275"><ele>222.8</ele><time>2026-04-25T08:38:11.776Z</time></trkpt><trkpt lat="44.2850243" lon="11.7439407"><ele>222.0</ele><time>2026-04-25T08:38:12.777Z</time></trkpt><trkpt lat="44.2850008" lon="11.743776"><ele>222.0</ele><time>2026-04-25T08:38:14.776Z</time></trkpt><trkpt lat="44.2849864" lon="11.7436508"><ele>222.0</ele><time>2026-04-25T08:38:16.776Z</time></trkpt><trkpt lat="44.2849792" lon="11.743504"><ele>222.0</ele><time>2026-04-25T08:38:18.776Z</time></trkpt><trkpt lat="44.2849774" lon="11.7433372"><ele>222.0</ele><time>2026-04-25T08:38:20.776Z</time></trkpt><trkpt lat="44.2849778" lon="11.7432486"><ele>222.0</ele><time>2026-04-25T08:38:21.777Z</time></trkpt><trkpt lat="44.2849741" lon="11.7430962"><ele>221.5</ele><time>2026-04-25T08:38:23.777Z</time></trkpt><trkpt lat="44.2849873" lon="11.7429285"><ele>221.0</ele><time>2026-04-25T08:38:25.776Z</time></trkpt><trkpt lat="44.2849874" lon="11.742761"><ele>220.5</ele><time>2026-04-25T08:38:27.777Z</time></trkpt><trkpt lat="44.2849912" lon="11.7426695"><ele>220.0</ele><time>2026-04-25T08:38:28.777Z</time></trkpt><trkpt lat="44.2849882" lon="11.7425679"><ele>219.5</ele><time>2026-04-25T08:38:29.776Z</time></trkpt><trkpt lat="44.2849827" lon="11.7424741"><ele>219.0</ele><time>2026-04-25T08:38:30.777Z</time></trkpt><trkpt lat="44.2849774" lon="11.742381"><ele>218.83333333333334</ele><time>2026-04-25T08:38:31.776Z</time></trkpt><trkpt lat="44.2849691" lon="11.7422879"><ele>218.66666666666669</ele><time>2026-04-25T08:38:32.776Z</time></trkpt><trkpt lat="44.2849586" lon="11.7421929"><ele>218.5</ele><time>2026-04-25T08:38:33.777Z</time></trkpt><trkpt lat="44.2849423" lon="11.7420901"><ele>218.33333333333334</ele><time>2026-04-25T08:38:34.776Z</time></trkpt><trkpt lat="44.2849236" lon="11.7419813"><ele>218.16666666666669</ele><time>2026-04-25T08:38:35.777Z</time></trkpt><trkpt lat="44.2849049" lon="11.7418674"><ele>218.0</ele><time>2026-04-25T08:38:36.776Z</time></trkpt><trkpt lat="44.2848843" lon="11.7417646"><ele>217.16666666666669</ele><time>2026-04-25T08:38:37.776Z</time></trkpt><trkpt lat="44.2848525" lon="11.7416652"><ele>216.33333333333334</ele><time>2026-04-25T08:38:38.776Z</time></trkpt><trkpt lat="44.2848271" lon="11.7415576"><ele>215.5</ele><time>2026-04-25T08:38:39.776Z</time></trkpt><trkpt lat="44.2848075" lon="11.7414564"><ele>214.66666666666669</ele><time>2026-04-25T08:38:40.777Z</time></trkpt><trkpt lat="44.2847935" lon="11.7413545"><ele>213.83333333333334</ele><time>2026-04-25T08:38:41.776Z</time></trkpt><trkpt lat="44.2847802" lon="11.7412448"><ele>213.0</ele><time>2026-04-25T08:38:42.777Z</time></trkpt><trkpt lat="44.284776" lon="11.7411366"><ele>211.16666666666666</ele><time>2026-04-25T08:38:43.777Z</time></trkpt><trkpt lat="44.2847742" lon="11.7410338"><ele>209.33333333333331</ele><time>2026-04-25T08:38:44.776Z</time></trkpt><trkpt lat="44.284775" lon="11.7409295"><ele>207.5</ele><time>2026-04-25T08:38:45.776Z</time></trkpt><trkpt lat="44.2847741" lon="11.7408297"><ele>205.66666666666666</ele><time>2026-04-25T08:38:46.777Z</time></trkpt><trkpt lat="44.2847687" lon="11.7407168"><ele>203.83333333333331</ele><time>2026-04-25T08:38:47.777Z</time></trkpt><trkpt lat="44.2847621" lon="11.7405987"><ele>202.0</ele><time>2026-04-25T08:38:48.777Z</time></trkpt><trkpt lat="44.2847426" lon="11.7404695"><ele>200.39999999999998</ele><time>2026-04-25T08:38:49.776Z</time></trkpt><trkpt lat="44.2847199" lon="11.7403413"><ele>198.79999999999998</ele><time>2026-04-25T08:38:50.777Z</time></trkpt><trkpt lat="44.284709" lon="11.7402081"><ele>197.2</ele><time>2026-04-25T08:38:51.777Z</time></trkpt><trkpt lat="44.2847125" lon="11.740064"><ele>195.6</ele><time>2026-04-25T08:38:52.777Z</time></trkpt><trkpt lat="44.2847382" lon="11.7399306"><ele>194.0</ele><time>2026-04-25T08:38:53.776Z</time></trkpt><trkpt lat="44.2847736" lon="11.7398156"><ele>193.0</ele><time>2026-04-25T08:38:54.776Z</time></trkpt><trkpt lat="44.284808" lon="11.7397026"><ele>192.0</ele><time>2026-04-25T08:38:55.776Z</time></trkpt><trkpt lat="44.2848221" lon="11.7395865"><ele>191.0</ele><time>2026-04-25T08:38:56.776Z</time></trkpt><trkpt lat="44.2848081" lon="11.7394659"><ele>190.0</ele><time>2026-04-25T08:38:57.776Z</time></trkpt><trkpt lat="44.2847669" lon="11.7393586"><ele>189.0</ele><time>2026-04-25T08:38:58.776Z</time></trkpt><trkpt lat="44.2847211" lon="11.7392301"><ele>183.5</ele><time>2026-04-25T08:38:59.777Z</time></trkpt><trkpt lat="44.284669" lon="11.7391022"><ele>178.0</ele><time>2026-04-25T08:39:00.777Z</time></trkpt><trkpt lat="44.2846162" lon="11.7389629"><ele>172.5</ele><time>2026-04-25T08:39:01.776Z</time></trkpt><trkpt lat="44.2845414" lon="11.7388218"><ele>167.0</ele><time>2026-04-25T08:39:02.776Z</time></trkpt><trkpt lat="44.2844621" lon="11.7386909"><ele>167.0</ele><time>2026-04-25T08:39:03.777Z</time></trkpt><trkpt lat="44.2843621" lon="11.7385583"><ele>167.0</ele><time>2026-04-25T08:39:04.777Z</time></trkpt><trkpt lat="44.2842577" lon="11.7384413"><ele>167.0</ele><time>2026-04-25T08:39:05.777Z</time></trkpt><trkpt lat="44.2841469" lon="11.7383319"><ele>167.0</ele><time>2026-04-25T08:39:06.776Z</time></trkpt><trkpt lat="44.2840362" lon="11.7382231"><ele>164.5</ele><time>2026-04-25T08:39:07.777Z</time></trkpt><trkpt lat="44.2839286" lon="11.7381096"><ele>162.0</ele><time>2026-04-25T08:39:08.776Z</time></trkpt><trkpt lat="44.2838268" lon="11.7379931"><ele>159.5</ele><time>2026-04-25T08:39:09.776Z</time></trkpt><trkpt lat="44.2837403" lon="11.7378696"><ele>157.0</ele><time>2026-04-25T08:39:10.776Z</time></trkpt><trkpt lat="44.2836568" lon="11.737746"><ele>159.75</ele><time>2026-04-25T08:39:11.776Z</time></trkpt><trkpt lat="44.2835746" lon="11.7376262"><ele>162.5</ele><time>2026-04-25T08:39:12.777Z</time></trkpt><trkpt lat="44.2835028" lon="11.7374938"><ele>165.25</ele><time>2026-04-25T08:39:13.776Z</time></trkpt><trkpt lat="44.2834469" lon="11.7373688"><ele>168.0</ele><time>2026-04-25T08:39:14.776Z</time></trkpt><trkpt lat="44.283395" lon="11.7372304"><ele>168.0</ele><time>2026-04-25T08:39:15.776Z</time></trkpt><trkpt lat="44.2833558" lon="11.7370929"><ele>168.0</ele><time>2026-04-25T08:39:16.776Z</time></trkpt><trkpt lat="44.2833165" lon="11.7369545"><ele>168.0</ele><time>2026-04-25T08:39:17.776Z</time></trkpt><trkpt lat="44.2832844" lon="11.7368212"><ele>168.0</ele><time>2026-04-25T08:39:18.777Z</time></trkpt><trkpt lat="44.2832564" lon="11.7366923"><ele>168.0</ele><time>2026-04-25T08:39:19.776Z</time></trkpt><trkpt lat="44.2832333" lon="11.736566"><ele>168.8</ele><time>2026-04-25T08:39:20.777Z</time></trkpt><trkpt lat="44.2832228" lon="11.7364339"><ele>169.60000000000002</ele><time>2026-04-25T08:39:21.776Z</time></trkpt><trkpt lat="44.2832267" lon="11.7363051"><ele>170.39999999999998</ele><time>2026-04-25T08:39:22.776Z</time></trkpt><trkpt lat="44.283238" lon="11.7361776"><ele>171.2</ele><time>2026-04-25T08:39:23.777Z</time></trkpt><trkpt lat="44.2832519" lon="11.7360526"><ele>172.0</ele><time>2026-04-25T08:39:24.777Z</time></trkpt><trkpt lat="44.2832665" lon="11.7359304"><ele>172.0</ele><time>2026-04-25T08:39:25.776Z</time></trkpt><trkpt lat="44.2832876" lon="11.7358133"><ele>172.0</ele><time>2026-04-25T08:39:26.777Z</time></trkpt><trkpt lat="44.2833113" lon="11.7356995"><ele>172.0</ele><time>2026-04-25T08:39:27.777Z</time></trkpt><trkpt lat="44.2833189" lon="11.7355903"><ele>172.0</ele><time>2026-04-25T08:39:28.777Z</time></trkpt><trkpt lat="44.2833073" lon="11.7354831"><ele>172.0</ele><time>2026-04-25T08:39:29.777Z</time></trkpt><trkpt lat="44.2832808" lon="11.7353779"><ele>172.0</ele><time>2026-04-25T08:39:30.777Z</time></trkpt><trkpt lat="44.2832348" lon="11.7352782"><ele>171.2</ele><time>2026-04-25T08:39:31.777Z</time></trkpt><trkpt lat="44.2831822" lon="11.7351745"><ele>170.39999999999998</ele><time>2026-04-25T08:39:32.776Z</time></trkpt><trkpt lat="44.2831214" lon="11.7350646"><ele>169.60000000000002</ele><time>2026-04-25T08:39:33.776Z</time></trkpt><trkpt lat="44.2830515" lon="11.7349507"><ele>168.8</ele><time>2026-04-25T08:39:34.776Z</time></trkpt><trkpt lat="44.2829779" lon="11.734828"><ele>168.0</ele><time>2026-04-25T08:39:35.776Z</time></trkpt><trkpt lat="44.2829082" lon="11.734695"><ele>165.75</ele><time>2026-04-25T08:39:36.777Z</time></trkpt><trkpt lat="44.2828353" lon="11.7345458"><ele>163.5</ele><time>2026-04-25T08:39:37.776Z</time></trkpt><trkpt lat="44.2827738" lon="11.7343904"><ele>161.25</ele><time>2026-04-25T08:39:38.776Z</time></trkpt><trkpt lat="44.2827222" lon="11.7342344"><ele>159.0</ele><time>2026-04-25T08:39:39.777Z</time></trkpt><trkpt lat="44.2826792" lon="11.7340823"><ele>158.25</ele><time>2026-04-25T08:39:40.776Z</time></trkpt><trkpt lat="44.2826345" lon="11.7339271"><ele>157.5</ele><time>2026-04-25T08:39:41.776Z</time></trkpt><trkpt lat="44.2825963" lon="11.7337757"><ele>156.75</ele><time>2026-04-25T08:39:42.776Z</time></trkpt><trkpt lat="44.2825602" lon="11.7336288"><ele>156.0</ele><time>2026-04-25T08:39:43.777Z</time></trkpt><trkpt lat="44.2825279" lon="11.7334801"><ele>155.66666666666666</ele><time>2026-04-25T08:39:44.777Z</time></trkpt><trkpt lat="44.2825039" lon="11.7333501"><ele>155.33333333333334</ele><time>2026-04-25T08:39:45.777Z</time></trkpt><trkpt lat="44.2824788" lon="11.7332202"><ele>155.0</ele><time>2026-04-25T08:39:46.777Z</time></trkpt><trkpt lat="44.2824534" lon="11.7331132"><ele>154.66666666666669</ele><time>2026-04-25T08:39:47.776Z</time></trkpt><trkpt lat="44.2824341" lon="11.7330202"><ele>154.33333333333334</ele><time>2026-04-25T08:39:48.777Z</time></trkpt><trkpt lat="44.2824143" lon="11.7329347"><ele>154.0</ele><time>2026-04-25T08:39:49.777Z</time></trkpt><trkpt lat="44.2823962" lon="11.7328437"><ele>154.0</ele><time>2026-04-25T08:39:50.776Z</time></trkpt><trkpt lat="44.2823802" lon="11.732754"><ele>154.0</ele><time>2026-04-25T08:39:51.777Z</time></trkpt><trkpt lat="44.2823686" lon="11.7326644"><ele>154.0</ele><time>2026-04-25T08:39:52.777Z</time></trkpt><trkpt lat="44.2823556" lon="11.7325668"><ele>154.0</ele><time>2026-04-25T08:39:53.776Z</time></trkpt><trkpt lat="44.2823483" lon="11.7324709"><ele>154.0</ele><time>2026-04-25T08:39:54.776Z</time></trkpt><trkpt lat="44.2823417" lon="11.7323535"><ele>154.0</ele><time>2026-04-25T08:39:55.777Z</time></trkpt><trkpt lat="44.282339" lon="11.732241"><ele>154.0</ele><time>2026-04-25T08:39:56.777Z</time></trkpt><trkpt lat="44.2823344" lon="11.7321241"><ele>153.6</ele><time>2026-04-25T08:39:57.777Z</time></trkpt><trkpt lat="44.2823275" lon="11.7319988"><ele>153.2</ele><time>2026-04-25T08:39:58.776Z</time></trkpt><trkpt lat="44.2823127" lon="11.7318645"><ele>152.79999999999998</ele><time>2026-04-25T08:39:59.777Z</time></trkpt><trkpt lat="44.2822971" lon="11.7317215"><ele>152.4</ele><time>2026-04-25T08:40:00.777Z</time></trkpt><trkpt lat="44.2822768" lon="11.7315884"><ele>152.0</ele><time>2026-04-25T08:40:01.777Z</time></trkpt><trkpt lat="44.2822574" lon="11.7314501"><ele>150.79999999999998</ele><time>2026-04-25T08:40:02.777Z</time></trkpt><trkpt lat="44.2822251" lon="11.7313046"><ele>149.6</ele><time>2026-04-25T08:40:03.776Z</time></trkpt><trkpt lat="44.2821877" lon="11.7311625"><ele>148.39999999999998</ele><time>2026-04-25T08:40:04.776Z</time></trkpt><trkpt lat="44.2821563" lon="11.7310324"><ele>147.2</ele><time>2026-04-25T08:40:05.777Z</time></trkpt><trkpt lat="44.2821187" lon="11.7309108"><ele>146.0</ele><time>2026-04-25T08:40:06.776Z</time></trkpt><trkpt lat="44.2820773" lon="11.730788"><ele>145.66666666666666</ele><time>2026-04-25T08:40:07.777Z</time></trkpt><trkpt lat="44.2820372" lon="11.7306628"><ele>145.33333333333331</ele><time>2026-04-25T08:40:08.776Z</time></trkpt><trkpt lat="44.2820052" lon="11.7305452"><ele>145.0</ele><time>2026-04-25T08:40:09.776Z</time></trkpt><trkpt lat="44.2819748" lon="11.7304224"><ele>144.66666666666666</ele><time>2026-04-25T08:40:10.776Z</time></trkpt><trkpt lat="44.2819436" lon="11.7303186"><ele>144.33333333333334</ele><time>2026-04-25T08:40:11.776Z</time></trkpt><trkpt lat="44.2819035" lon="11.7302222"><ele>144.0</ele><time>2026-04-25T08:40:12.776Z</time></trkpt><trkpt lat="44.2818552" lon="11.7301251"><ele>144.0</ele><time>2026-04-25T08:40:13.776Z</time></trkpt><trkpt lat="44.2818105" lon="11.7300153"><ele>144.0</ele><time>2026-04-25T08:40:14.776Z</time></trkpt><trkpt lat="44.2817787" lon="11.7299056"><ele>144.0</ele><time>2026-04-25T08:40:15.776Z</time></trkpt><trkpt lat="44.2817633" lon="11.72981"><ele>144.0</ele><time>2026-04-25T08:40:16.776Z</time></trkpt><trkpt lat="44.2817496" lon="11.7297209"><ele>144.0</ele><time>2026-04-25T08:40:17.777Z</time></trkpt><trkpt lat="44.2817299" lon="11.7295663"><ele>144.0</ele><time>2026-04-25T08:40:19.777Z</time></trkpt><trkpt lat="44.281721" lon="11.7294563"><ele>145.0</ele><time>2026-04-25T08:40:21.777Z</time></trkpt><trkpt lat="44.2816994" lon="11.7293399"><ele>146.0</ele><time>2026-04-25T08:40:24.776Z</time></trkpt><trkpt lat="44.2816828" lon="11.7292134"><ele>147.0</ele><time>2026-04-25T08:40:27.777Z</time></trkpt><trkpt lat="44.281672" lon="11.7291162"><ele>148.0</ele><time>2026-04-25T08:40:29.776Z</time></trkpt><trkpt lat="44.2816581" lon="11.7290091"><ele>149.0</ele><time>2026-04-25T08:40:31.776Z</time></trkpt><trkpt lat="44.2816376" lon="11.7289147"><ele>150.0</ele><time>2026-04-25T08:40:33.776Z</time></trkpt><trkpt lat="44.2816279" lon="11.728817"><ele>149.99999999999997</ele><time>2026-04-25T08:40:35.776Z</time></trkpt><trkpt lat="44.281622" lon="11.7287129"><ele>150.0</ele><time>2026-04-25T08:40:37.777Z</time></trkpt><trkpt lat="44.2816107" lon="11.728615"><ele>150.0</ele><time>2026-04-25T08:40:39.777Z</time></trkpt><trkpt lat="44.2816005" lon="11.7285181"><ele>150.0</ele><time>2026-04-25T08:40:41.776Z</time></trkpt><trkpt lat="44.281595" lon="11.7284251"><ele>150.0</ele><time>2026-04-25T08:40:43.777Z</time></trkpt><trkpt lat="44.2815833" lon="11.7283261"><ele>149.99999999999997</ele><time>2026-04-25T08:40:45.776Z</time></trkpt><trkpt lat="44.2815656" lon="11.728239"><ele>150.0</ele><time>2026-04-25T08:40:47.777Z</time></trkpt><trkpt lat="44.281553" lon="11.7281516"><ele>150.57142857142856</ele><time>2026-04-25T08:40:49.777Z</time></trkpt><trkpt lat="44.2815458" lon="11.7280576"><ele>151.14285714285714</ele><time>2026-04-25T08:40:51.777Z</time></trkpt><trkpt lat="44.2815393" lon="11.7279651"><ele>151.71428571428572</ele><time>2026-04-25T08:40:53.777Z</time></trkpt><trkpt lat="44.2815246" lon="11.7278518"><ele>152.28571428571428</ele><time>2026-04-25T08:40:55.777Z</time></trkpt><trkpt lat="44.2815189" lon="11.7277389"><ele>152.85714285714286</ele><time>2026-04-25T08:40:57.776Z</time></trkpt><trkpt lat="44.2815133" lon="11.7276378"><ele>153.42857142857142</ele><time>2026-04-25T08:40:59.777Z</time></trkpt><trkpt lat="44.2815132" lon="11.727529"><ele>154.0</ele><time>2026-04-25T08:41:01.776Z</time></trkpt><trkpt lat="44.281519" lon="11.7274136"><ele>154.28571428571428</ele><time>2026-04-25T08:41:03.777Z</time></trkpt><trkpt lat="44.2815165" lon="11.7273097"><ele>154.57142857142856</ele><time>2026-04-25T08:41:05.776Z</time></trkpt><trkpt lat="44.2815098" lon="11.7271961"><ele>154.85714285714286</ele><time>2026-04-25T08:41:07.777Z</time></trkpt><trkpt lat="44.2815061" lon="11.7270908"><ele>155.14285714285714</ele><time>2026-04-25T08:41:09.776Z</time></trkpt><trkpt lat="44.2815069" lon="11.7269842"><ele>155.42857142857142</ele><time>2026-04-25T08:41:11.776Z</time></trkpt><trkpt lat="44.2815142" lon="11.7268898"><ele>155.71428571428572</ele><time>2026-04-25T08:41:13.777Z</time></trkpt><trkpt lat="44.281517" lon="11.7267936"><ele>156.0</ele><time>2026-04-25T08:41:15.777Z</time></trkpt><trkpt lat="44.2815218" lon="11.7266967"><ele>157.0</ele><time>2026-04-25T08:41:17.777Z</time></trkpt><trkpt lat="44.2815294" lon="11.7265946"><ele>158.0</ele><time>2026-04-25T08:41:19.777Z</time></trkpt><trkpt lat="44.2815414" lon="11.7264963"><ele>159.0</ele><time>2026-04-25T08:41:21.776Z</time></trkpt><trkpt lat="44.2815543" lon="11.7264006"><ele>160.0</ele><time>2026-04-25T08:41:23.776Z</time></trkpt><trkpt lat="44.2815646" lon="11.7262954"><ele>161.0</ele><time>2026-04-25T08:41:25.777Z</time></trkpt><trkpt lat="44.2815819" lon="11.7261636"><ele>162.0</ele><time>2026-04-25T08:41:28.776Z</time></trkpt><trkpt lat="44.2816027" lon="11.7260719"><ele>162.42857142857144</ele><time>2026-04-25T08:41:30.777Z</time></trkpt><trkpt lat="44.2816165" lon="11.72598"><ele>162.85714285714286</ele><time>2026-04-25T08:41:32.777Z</time></trkpt><trkpt lat="44.2816362" lon="11.7258888"><ele>163.28571428571428</ele><time>2026-04-25T08:41:34.776Z</time></trkpt><trkpt lat="44.2816718" lon="11.725805"><ele>163.71428571428572</ele><time>2026-04-25T08:41:36.777Z</time></trkpt><trkpt lat="44.281714" lon="11.7257114"><ele>164.14285714285714</ele><time>2026-04-25T08:41:38.776Z</time></trkpt><trkpt lat="44.2817447" lon="11.7256259"><ele>164.57142857142858</ele><time>2026-04-25T08:41:40.777Z</time></trkpt><trkpt lat="44.2817776" lon="11.7255407"><ele>165.0</ele><time>2026-04-25T08:41:42.777Z</time></trkpt><trkpt lat="44.2818103" lon="11.7254457"><ele>165.00000000000003</ele><time>2026-04-25T08:41:44.777Z</time></trkpt><trkpt lat="44.2818402" lon="11.7253455"><ele>165.0</ele><time>2026-04-25T08:41:46.776Z</time></trkpt><trkpt lat="44.281868" lon="11.7252556"><ele>165.0</ele><time>2026-04-25T08:41:48.776Z</time></trkpt><trkpt lat="44.2818919" lon="11.7251604"><ele>165.0</ele><time>2026-04-25T08:41:50.777Z</time></trkpt><trkpt lat="44.2819022" lon="11.7250588"><ele>165.0</ele><time>2026-04-25T08:41:52.777Z</time></trkpt><trkpt lat="44.2819077" lon="11.7249674"><ele>165.00000000000003</ele><time>2026-04-25T08:41:54.776Z</time></trkpt><trkpt lat="44.2819051" lon="11.7248699"><ele>165.0</ele><time>2026-04-25T08:41:56.776Z</time></trkpt><trkpt lat="44.2819062" lon="11.724774"><ele>165.66666666666666</ele><time>2026-04-25T08:41:58.776Z</time></trkpt><trkpt lat="44.2819058" lon="11.7246665"><ele>166.33333333333334</ele><time>2026-04-25T08:42:00.776Z</time></trkpt><trkpt lat="44.2819097" lon="11.724558"><ele>167.0</ele><time>2026-04-25T08:42:02.777Z</time></trkpt><trkpt lat="44.2818831" lon="11.7244658"><ele>167.66666666666669</ele><time>2026-04-25T08:42:04.776Z</time></trkpt><trkpt lat="44.2818729" lon="11.7243352"><ele>168.33333333333334</ele><time>2026-04-25T08:42:07.776Z</time></trkpt><trkpt lat="44.2818649" lon="11.7242418"><ele>169.0</ele><time>2026-04-25T08:42:09.776Z</time></trkpt><trkpt lat="44.2818606" lon="11.724145"><ele>170.42857142857144</ele><time>2026-04-25T08:42:11.776Z</time></trkpt><trkpt lat="44.2818718" lon="11.724045"><ele>171.85714285714286</ele><time>2026-04-25T08:42:13.777Z</time></trkpt><trkpt lat="44.2818923" lon="11.723958"><ele>173.28571428571428</ele><time>2026-04-25T08:42:15.777Z</time></trkpt><trkpt lat="44.2819275" lon="11.7238407"><ele>174.71428571428572</ele><time>2026-04-25T08:42:18.776Z</time></trkpt><trkpt lat="44.2819692" lon="11.7237539"><ele>176.14285714285714</ele><time>2026-04-25T08:42:20.776Z</time></trkpt><trkpt lat="44.2820162" lon="11.7236875"><ele>177.57142857142858</ele><time>2026-04-25T08:42:22.776Z</time></trkpt><trkpt lat="44.2820627" lon="11.7236191"><ele>179.0</ele><time>2026-04-25T08:42:24.777Z</time></trkpt><trkpt lat="44.2821151" lon="11.7235625"><ele>179.66666666666666</ele><time>2026-04-25T08:42:26.776Z</time></trkpt><trkpt lat="44.2821729" lon="11.7235046"><ele>180.33333333333331</ele><time>2026-04-25T08:42:28.777Z</time></trkpt><trkpt lat="44.2822377" lon="11.7234413"><ele>181.0</ele><time>2026-04-25T08:42:30.776Z</time></trkpt><trkpt lat="44.2822951" lon="11.7233774"><ele>181.66666666666666</ele><time>2026-04-25T08:42:32.776Z</time></trkpt><trkpt lat="44.2823544" lon="11.7233038"><ele>182.33333333333334</ele><time>2026-04-25T08:42:34.776Z</time></trkpt><trkpt lat="44.282419" lon="11.7232491"><ele>183.0</ele><time>2026-04-25T08:42:36.777Z</time></trkpt><trkpt lat="44.2824917" lon="11.7231887"><ele>184.5</ele><time>2026-04-25T08:42:38.777Z</time></trkpt><trkpt lat="44.2825648" lon="11.7231488"><ele>186.0</ele><time>2026-04-25T08:42:40.776Z</time></trkpt><trkpt lat="44.2826439" lon="11.7231299"><ele>187.5</ele><time>2026-04-25T08:42:42.776Z</time></trkpt><trkpt lat="44.2827318" lon="11.7231235"><ele>189.0</ele><time>2026-04-25T08:42:44.777Z</time></trkpt><trkpt lat="44.2828113" lon="11.723133"><ele>190.5</ele><time>2026-04-25T08:42:46.777Z</time></trkpt><trkpt lat="44.2828935" lon="11.7231419"><ele>192.0</ele><time>2026-04-25T08:42:48.777Z</time></trkpt><trkpt lat="44.2829732" lon="11.7231468"><ele>192.0</ele><time>2026-04-25T08:42:50.776Z</time></trkpt><trkpt lat="44.2830528" lon="11.7231621"><ele>192.0</ele><time>2026-04-25T08:42:52.777Z</time></trkpt><trkpt lat="44.2831402" lon="11.7231815"><ele>192.0</ele><time>2026-04-25T08:42:54.777Z</time></trkpt><trkpt lat="44.2832231" lon="11.7231854"><ele>192.0</ele><time>2026-04-25T08:42:56.777Z</time></trkpt><trkpt lat="44.2833053" lon="11.7231991"><ele>192.0</ele><time>2026-04-25T08:42:58.777Z</time></trkpt><trkpt lat="44.2833809" lon="11.7231946"><ele>192.0</ele><time>2026-04-25T08:43:00.777Z</time></trkpt><trkpt lat="44.2834581" lon="11.7231908"><ele>192.5</ele><time>2026-04-25T08:43:02.777Z</time></trkpt><trkpt lat="44.2835334" lon="11.7231781"><ele>193.0</ele><time>2026-04-25T08:43:04.777Z</time></trkpt><trkpt lat="44.2836152" lon="11.7231735"><ele>193.5</ele><time>2026-04-25T08:43:06.776Z</time></trkpt><trkpt lat="44.283695" lon="11.7231566"><ele>194.0</ele><time>2026-04-25T08:43:08.776Z</time></trkpt><trkpt lat="44.2837712" lon="11.7231305"><ele>194.5</ele><time>2026-04-25T08:43:10.776Z</time></trkpt><trkpt lat="44.283843" lon="11.7231034"><ele>195.0</ele><time>2026-04-25T08:43:12.776Z</time></trkpt><trkpt lat="44.2839193" lon="11.7230749"><ele>195.83333333333334</ele><time>2026-04-25T08:43:14.776Z</time></trkpt><trkpt lat="44.2839895" lon="11.7230434"><ele>196.66666666666669</ele><time>2026-04-25T08:43:16.776Z</time></trkpt><trkpt lat="44.2840654" lon="11.7230234"><ele>197.5</ele><time>2026-04-25T08:43:18.776Z</time></trkpt><trkpt lat="44.2841461" lon="11.7230147"><ele>198.33333333333334</ele><time>2026-04-25T08:43:20.776Z</time></trkpt><trkpt lat="44.2842214" lon="11.7230035"><ele>199.16666666666669</ele><time>2026-04-25T08:43:22.776Z</time></trkpt><trkpt lat="44.2842972" lon="11.7230151"><ele>200.0</ele><time>2026-04-25T08:43:24.777Z</time></trkpt><trkpt lat="44.2843744" lon="11.7230325"><ele>200.00000000000003</ele><time>2026-04-25T08:43:26.776Z</time></trkpt><trkpt lat="44.2844417" lon="11.7230542"><ele>200.0</ele><time>2026-04-25T08:43:28.776Z</time></trkpt><trkpt lat="44.2845091" lon="11.7230843"><ele>200.0</ele><time>2026-04-25T08:43:30.776Z</time></trkpt><trkpt lat="44.2845787" lon="11.7231201"><ele>200.0</ele><time>2026-04-25T08:43:32.777Z</time></trkpt><trkpt lat="44.2846404" lon="11.7231739"><ele>200.0</ele><time>2026-04-25T08:43:34.776Z</time></trkpt><trkpt lat="44.2847001" lon="11.7232382"><ele>200.00000000000003</ele><time>2026-04-25T08:43:36.776Z</time></trkpt><trkpt lat="44.2847561" lon="11.7232999"><ele>200.0</ele><time>2026-04-25T08:43:38.776Z</time></trkpt><trkpt lat="44.2848079" lon="11.7233796"><ele>201.71428571428572</ele><time>2026-04-25T08:43:40.776Z</time></trkpt><trkpt lat="44.2848551" lon="11.7234592"><ele>203.42857142857144</ele><time>2026-04-25T08:43:42.777Z</time></trkpt><trkpt lat="44.2849015" lon="11.7235365"><ele>205.14285714285717</ele><time>2026-04-25T08:43:44.776Z</time></trkpt><trkpt lat="44.2849528" lon="11.72362"><ele>206.85714285714286</ele><time>2026-04-25T08:43:46.776Z</time></trkpt><trkpt lat="44.2850025" lon="11.7236981"><ele>208.57142857142856</ele><time>2026-04-25T08:43:48.777Z</time></trkpt><trkpt lat="44.2850485" lon="11.7237749"><ele>210.2857142857143</ele><time>2026-04-25T08:43:50.776Z</time></trkpt><trkpt lat="44.2850976" lon="11.723856"><ele>212.0</ele><time>2026-04-25T08:43:52.777Z</time></trkpt><trkpt lat="44.2851415" lon="11.7239311"><ele>212.0</ele><time>2026-04-25T08:43:54.776Z</time></trkpt><trkpt lat="44.2851738" lon="11.7240157"><ele>212.0</ele><time>2026-04-25T08:43:56.776Z</time></trkpt><trkpt lat="44.2852176" lon="11.724082"><ele>212.0</ele><time>2026-04-25T08:43:58.776Z</time></trkpt><trkpt lat="44.2852562" lon="11.724157"><ele>212.0</ele><time>2026-04-25T08:44:00.776Z</time></trkpt><trkpt lat="44.2852957" lon="11.7242381"><ele>212.0</ele><time>2026-04-25T08:44:02.776Z</time></trkpt><trkpt lat="44.285327" lon="11.7243278"><ele>212.0</ele><time>2026-04-25T08:44:04.777Z</time></trkpt><trkpt lat="44.2853506" lon="11.7244249"><ele>212.0</ele><time>2026-04-25T08:44:06.776Z</time></trkpt><trkpt lat="44.2853746" lon="11.7245191"><ele>211.57142857142858</ele><time>2026-04-25T08:44:08.777Z</time></trkpt><trkpt lat="44.2853964" lon="11.7246063"><ele>211.14285714285714</ele><time>2026-04-25T08:44:10.777Z</time></trkpt><trkpt lat="44.2854259" lon="11.724687"><ele>210.71428571428572</ele><time>2026-04-25T08:44:12.776Z</time></trkpt><trkpt lat="44.2854526" lon="11.7247772"><ele>210.28571428571428</ele><time>2026-04-25T08:44:14.776Z</time></trkpt><trkpt lat="44.2854901" lon="11.7248535"><ele>209.85714285714283</ele><time>2026-04-25T08:44:16.776Z</time></trkpt><trkpt lat="44.285551" lon="11.7249163"><ele>209.42857142857142</ele><time>2026-04-25T08:44:18.777Z</time></trkpt><trkpt lat="44.2856157" lon="11.7249487"><ele>209.0</ele><time>2026-04-25T08:44:20.776Z</time></trkpt><trkpt lat="44.2856893" lon="11.7249398"><ele>211.16666666666669</ele><time>2026-04-25T08:44:22.777Z</time></trkpt><trkpt lat="44.2857636" lon="11.7249063"><ele>213.33333333333334</ele><time>2026-04-25T08:44:24.776Z</time></trkpt><trkpt lat="44.2858191" lon="11.7248359"><ele>215.5</ele><time>2026-04-25T08:44:26.777Z</time></trkpt><trkpt lat="44.2858461" lon="11.7247312"><ele>217.66666666666669</ele><time>2026-04-25T08:44:28.777Z</time></trkpt><trkpt lat="44.2858492" lon="11.7246357"><ele>219.83333333333334</ele><time>2026-04-25T08:44:30.776Z</time></trkpt><trkpt lat="44.2858394" lon="11.724531"><ele>222.0</ele><time>2026-04-25T08:44:32.777Z</time></trkpt><trkpt lat="44.2858102" lon="11.7244192"><ele>222.57142857142856</ele><time>2026-04-25T08:44:34.777Z</time></trkpt><trkpt lat="44.2857766" lon="11.7243243"><ele>223.14285714285717</ele><time>2026-04-25T08:44:36.777Z</time></trkpt><trkpt lat="44.2857392" lon="11.7242354"><ele>223.71428571428572</ele><time>2026-04-25T08:44:38.776Z</time></trkpt><trkpt lat="44.2857059" lon="11.7241364"><ele>224.28571428571428</ele><time>2026-04-25T08:44:40.777Z</time></trkpt><trkpt lat="44.2856817" lon="11.7240359"><ele>224.85714285714283</ele><time>2026-04-25T08:44:42.777Z</time></trkpt><trkpt lat="44.2856609" lon="11.7239448"><ele>225.42857142857144</ele><time>2026-04-25T08:44:44.776Z</time></trkpt><trkpt lat="44.2856464" lon="11.7238478"><ele>226.0</ele><time>2026-04-25T08:44:46.777Z</time></trkpt><trkpt lat="44.2856369" lon="11.7237406"><ele>225.99999999999997</ele><time>2026-04-25T08:44:48.777Z</time></trkpt><trkpt lat="44.2856251" lon="11.7236276"><ele>226.0</ele><time>2026-04-25T08:44:50.776Z</time></trkpt><trkpt lat="44.2856175" lon="11.7235191"><ele>226.0</ele><time>2026-04-25T08:44:52.776Z</time></trkpt><trkpt lat="44.285613" lon="11.7234166"><ele>226.0</ele><time>2026-04-25T08:44:54.775Z</time></trkpt><trkpt lat="44.2856095" lon="11.7233074"><ele>225.99999999999997</ele><time>2026-04-25T08:44:56.775Z</time></trkpt><trkpt lat="44.2856032" lon="11.7231994"><ele>226.0</ele><time>2026-04-25T08:44:58.775Z</time></trkpt><trkpt lat="44.285602" lon="11.7230994"><ele>226.28571428571428</ele><time>2026-04-25T08:45:00.776Z</time></trkpt><trkpt lat="44.2855956" lon="11.722999"><ele>226.57142857142856</ele><time>2026-04-25T08:45:02.775Z</time></trkpt><trkpt lat="44.2855885" lon="11.7228968"><ele>226.85714285714283</ele><time>2026-04-25T08:45:04.776Z</time></trkpt><trkpt lat="44.2855845" lon="11.7227919"><ele>227.14285714285714</ele><time>2026-04-25T08:45:06.776Z</time></trkpt><trkpt lat="44.2855812" lon="11.7226908"><ele>227.4285714285714</ele><time>2026-04-25T08:45:08.775Z</time></trkpt><trkpt lat="44.2855815" lon="11.7225893"><ele>227.7142857142857</ele><time>2026-04-25T08:45:10.776Z</time></trkpt><trkpt lat="44.2855876" lon="11.7224966"><ele>228.0</ele><time>2026-04-25T08:45:12.775Z</time></trkpt><trkpt lat="44.2855985" lon="11.7224039"><ele>228.5</ele><time>2026-04-25T08:45:14.776Z</time></trkpt><trkpt lat="44.2856102" lon="11.7223004"><ele>229.0</ele><time>2026-04-25T08:45:16.775Z</time></trkpt><trkpt lat="44.2856248" lon="11.7222015"><ele>229.5</ele><time>2026-04-25T08:45:18.776Z</time></trkpt><trkpt lat="44.2856478" lon="11.7221062"><ele>230.0</ele><time>2026-04-25T08:45:20.775Z</time></trkpt><trkpt lat="44.2856686" lon="11.7220008"><ele>230.5</ele><time>2026-04-25T08:45:22.776Z</time></trkpt><trkpt lat="44.2856975" lon="11.7219015"><ele>231.0</ele><time>2026-04-25T08:45:24.776Z</time></trkpt><trkpt lat="44.2857435" lon="11.7217953"><ele>232.60000000000002</ele><time>2026-04-25T08:45:26.776Z</time></trkpt><trkpt lat="44.2857986" lon="11.721688"><ele>234.20000000000002</ele><time>2026-04-25T08:45:28.775Z</time></trkpt><trkpt lat="44.2858491" lon="11.7215802"><ele>235.79999999999998</ele><time>2026-04-25T08:45:30.776Z</time></trkpt><trkpt lat="44.2858991" lon="11.7214775"><ele>237.39999999999998</ele><time>2026-04-25T08:45:32.776Z</time></trkpt><trkpt lat="44.2859551" lon="11.7213748"><ele>239.0</ele><time>2026-04-25T08:45:34.776Z</time></trkpt><trkpt lat="44.2860066" lon="11.7212695"><ele>239.0</ele><time>2026-04-25T08:45:36.776Z</time></trkpt><trkpt lat="44.2860718" lon="11.7211665"><ele>238.99999999999997</ele><time>2026-04-25T08:45:38.776Z</time></trkpt><trkpt lat="44.2861272" lon="11.721057"><ele>238.99999999999997</ele><time>2026-04-25T08:45:40.776Z</time></trkpt><trkpt lat="44.2861847" lon="11.7209589"><ele>239.0</ele><time>2026-04-25T08:45:42.775Z</time></trkpt><trkpt lat="44.2862338" lon="11.7208525"><ele>239.0</ele><time>2026-04-25T08:45:44.775Z</time></trkpt><trkpt lat="44.2862803" lon="11.7207348"><ele>238.2</ele><time>2026-04-25T08:45:46.776Z</time></trkpt><trkpt lat="44.2863363" lon="11.7206211"><ele>237.39999999999998</ele><time>2026-04-25T08:45:48.775Z</time></trkpt><trkpt lat="44.2863792" lon="11.7204933"><ele>236.6</ele><time>2026-04-25T08:45:50.775Z</time></trkpt><trkpt lat="44.2864262" lon="11.7203662"><ele>235.8</ele><time>2026-04-25T08:45:52.775Z</time></trkpt><trkpt lat="44.2864718" lon="11.7202344"><ele>235.0</ele><time>2026-04-25T08:45:54.776Z</time></trkpt><trkpt lat="44.2865295" lon="11.7201209"><ele>234.99999999999997</ele><time>2026-04-25T08:45:56.775Z</time></trkpt><trkpt lat="44.2865804" lon="11.720001"><ele>235.0</ele><time>2026-04-25T08:45:58.776Z</time></trkpt><trkpt lat="44.2866224" lon="11.7198898"><ele>235.0</ele><time>2026-04-25T08:46:00.776Z</time></trkpt><trkpt lat="44.2866534" lon="11.7197977"><ele>235.0</ele><time>2026-04-25T08:46:02.776Z</time></trkpt><trkpt lat="44.2866032" lon="11.7197237"><ele>234.99999999999997</ele><time>2026-04-25T08:46:04.776Z</time></trkpt><trkpt lat="44.286528" lon="11.719685"><ele>235.0</ele><time>2026-04-25T08:46:06.776Z</time></trkpt><trkpt lat="44.2864761" lon="11.7196286"><ele>236.33333333333331</ele><time>2026-04-25T08:46:08.776Z</time></trkpt><trkpt lat="44.2864185" lon="11.719551"><ele>237.66666666666666</ele><time>2026-04-25T08:46:11.776Z</time></trkpt><trkpt lat="44.2863649" lon="11.719491"><ele>239.0</ele><time>2026-04-25T08:46:14.775Z</time></trkpt><trkpt lat="44.2862776" lon="11.7194657"><ele>240.33333333333331</ele><time>2026-04-25T08:46:17.775Z</time></trkpt><trkpt lat="44.2861981" lon="11.7194703"><ele>241.66666666666666</ele><time>2026-04-25T08:46:20.775Z</time></trkpt><trkpt lat="44.2861123" lon="11.719466"><ele>243.0</ele><time>2026-04-25T08:46:23.775Z</time></trkpt><trkpt lat="44.2860252" lon="11.7194731"><ele>243.0</ele><time>2026-04-25T08:46:25.775Z</time></trkpt><trkpt lat="44.2859389" lon="11.719468"><ele>243.0</ele><time>2026-04-25T08:46:27.775Z</time></trkpt><trkpt lat="44.2858553" lon="11.7194583"><ele>243.0</ele><time>2026-04-25T08:46:29.776Z</time></trkpt><trkpt lat="44.2857732" lon="11.7194442"><ele>243.0</ele><time>2026-04-25T08:46:31.776Z</time></trkpt><trkpt lat="44.2856986" lon="11.7194379"><ele>243.0</ele><time>2026-04-25T08:46:33.775Z</time></trkpt><trkpt lat="44.2856208" lon="11.7194437"><ele>243.0</ele><time>2026-04-25T08:46:35.776Z</time></trkpt><trkpt lat="44.2855385" lon="11.7194514"><ele>239.0</ele><time>2026-04-25T08:46:37.776Z</time></trkpt><trkpt lat="44.2854648" lon="11.7194511"><ele>235.0</ele><time>2026-04-25T08:46:39.775Z</time></trkpt><trkpt lat="44.2853988" lon="11.7194426"><ele>231.0</ele><time>2026-04-25T08:46:41.775Z</time></trkpt><trkpt lat="44.2853252" lon="11.7194249"><ele>227.0</ele><time>2026-04-25T08:46:43.776Z</time></trkpt><trkpt lat="44.2852448" lon="11.7193503"><ele>223.0</ele><time>2026-04-25T08:46:45.776Z</time></trkpt><trkpt lat="44.2851676" lon="11.7192895"><ele>219.0</ele><time>2026-04-25T08:46:47.776Z</time></trkpt><trkpt lat="44.2851002" lon="11.7192448"><ele>219.0</ele><time>2026-04-25T08:46:49.776Z</time></trkpt><trkpt lat="44.2850152" lon="11.7192026"><ele>219.0</ele><time>2026-04-25T08:46:51.775Z</time></trkpt><trkpt lat="44.2849464" lon="11.7191641"><ele>219.0</ele><time>2026-04-25T08:46:53.776Z</time></trkpt><trkpt lat="44.2848745" lon="11.7191275"><ele>219.0</ele><time>2026-04-25T08:46:55.776Z</time></trkpt><trkpt lat="44.2847935" lon="11.7190867"><ele>219.0</ele><time>2026-04-25T08:46:57.775Z</time></trkpt><trkpt lat="44.2847096" lon="11.7190407"><ele>219.0</ele><time>2026-04-25T08:46:59.776Z</time></trkpt><trkpt lat="44.2846134" lon="11.718979"><ele>217.0</ele><time>2026-04-25T08:47:01.776Z</time></trkpt><trkpt lat="44.2845156" lon="11.7188725"><ele>215.0</ele><time>2026-04-25T08:47:03.776Z</time></trkpt><trkpt lat="44.2844639" lon="11.7188116"><ele>213.0</ele><time>2026-04-25T08:47:04.776Z</time></trkpt><trkpt lat="44.2844124" lon="11.7187418"><ele>211.0</ele><time>2026-04-25T08:47:05.775Z</time></trkpt><trkpt lat="44.2843531" lon="11.7186675"><ele>209.0</ele><time>2026-04-25T08:47:06.775Z</time></trkpt><trkpt lat="44.2842912" lon="11.7185921"><ele>207.0</ele><time>2026-04-25T08:47:07.775Z</time></trkpt><trkpt lat="44.2842325" lon="11.7185213"><ele>207.00000000000003</ele><time>2026-04-25T08:47:08.776Z</time></trkpt><trkpt lat="44.2841768" lon="11.7184468"><ele>207.0</ele><time>2026-04-25T08:47:09.776Z</time></trkpt><trkpt lat="44.2841225" lon="11.7183755"><ele>207.0</ele><time>2026-04-25T08:47:10.775Z</time></trkpt><trkpt lat="44.2840646" lon="11.7183099"><ele>207.0</ele><time>2026-04-25T08:47:11.776Z</time></trkpt><trkpt lat="44.2839986" lon="11.7182538"><ele>207.0</ele><time>2026-04-25T08:47:12.775Z</time></trkpt><trkpt lat="44.2839335" lon="11.718211"><ele>207.00000000000003</ele><time>2026-04-25T08:47:13.776Z</time></trkpt><trkpt lat="44.2838688" lon="11.7182117"><ele>207.0</ele><time>2026-04-25T08:47:14.775Z</time></trkpt><trkpt lat="44.2837644" lon="11.7182699"><ele>205.39999999999998</ele><time>2026-04-25T08:47:16.776Z</time></trkpt><trkpt lat="44.2836784" lon="11.7183081"><ele>203.79999999999998</ele><time>2026-04-25T08:47:18.775Z</time></trkpt><trkpt lat="44.2835882" lon="11.7183424"><ele>202.2</ele><time>2026-04-25T08:47:20.775Z</time></trkpt><trkpt lat="44.2834818" lon="11.7183685"><ele>200.6</ele><time>2026-04-25T08:47:22.775Z</time></trkpt><trkpt lat="44.2833711" lon="11.7183973"><ele>199.0</ele><time>2026-04-25T08:47:24.776Z</time></trkpt><trkpt lat="44.2832688" lon="11.7184196"><ele>198.99999999999997</ele><time>2026-04-25T08:47:26.776Z</time></trkpt><trkpt lat="44.2832042" lon="11.7184437"><ele>199.0</ele><time>2026-04-25T08:47:28.775Z</time></trkpt><trkpt lat="44.2831399" lon="11.7184583"><ele>199.0</ele><time>2026-04-25T08:47:30.776Z</time></trkpt><trkpt lat="44.2830617" lon="11.7185088"><ele>199.0</ele><time>2026-04-25T08:47:32.776Z</time></trkpt><trkpt lat="44.2829894" lon="11.7185602"><ele>198.99999999999997</ele><time>2026-04-25T08:47:34.775Z</time></trkpt><trkpt lat="44.2829073" lon="11.7185744"><ele>199.0</ele><time>2026-04-25T08:47:36.775Z</time></trkpt><trkpt lat="44.2828126" lon="11.7185804"><ele>195.6</ele><time>2026-04-25T08:47:38.775Z</time></trkpt><trkpt lat="44.2827081" lon="11.7185653"><ele>192.2</ele><time>2026-04-25T08:47:40.775Z</time></trkpt><trkpt lat="44.2825999" lon="11.7185555"><ele>188.79999999999998</ele><time>2026-04-25T08:47:42.776Z</time></trkpt><trkpt lat="44.2825015" lon="11.7185294"><ele>185.39999999999998</ele><time>2026-04-25T08:47:44.775Z</time></trkpt><trkpt lat="44.2824197" lon="11.7184739"><ele>182.0</ele><time>2026-04-25T08:47:46.775Z</time></trkpt><trkpt lat="44.2823657" lon="11.718415"><ele>182.0</ele><time>2026-04-25T08:47:48.775Z</time></trkpt><trkpt lat="44.2822842" lon="11.7183428"><ele>182.0</ele><time>2026-04-25T08:47:50.775Z</time></trkpt><trkpt lat="44.2822126" lon="11.7183028"><ele>182.0</ele><time>2026-04-25T08:47:52.775Z</time></trkpt><trkpt lat="44.2821446" lon="11.718281"><ele>182.0</ele><time>2026-04-25T08:47:54.775Z</time></trkpt><trkpt lat="44.2820641" lon="11.7182775"><ele>182.0</ele><time>2026-04-25T08:47:56.775Z</time></trkpt><trkpt lat="44.2819781" lon="11.7182756"><ele>182.0</ele><time>2026-04-25T08:47:58.776Z</time></trkpt><trkpt lat="44.2818957" lon="11.7182963"><ele>179.8</ele><time>2026-04-25T08:48:00.775Z</time></trkpt><trkpt lat="44.2818149" lon="11.7183419"><ele>177.6</ele><time>2026-04-25T08:48:02.775Z</time></trkpt><trkpt lat="44.2817456" lon="11.7183894"><ele>175.4</ele><time>2026-04-25T08:48:04.776Z</time></trkpt><trkpt lat="44.2816442" lon="11.7184367"><ele>173.20000000000002</ele><time>2026-04-25T08:48:06.776Z</time></trkpt><trkpt lat="44.2815305" lon="11.7184879"><ele>171.0</ele><time>2026-04-25T08:48:08.776Z</time></trkpt><trkpt lat="44.2814329" lon="11.7185509"><ele>166.60000000000002</ele><time>2026-04-25T08:48:10.775Z</time></trkpt><trkpt lat="44.2813391" lon="11.7186067"><ele>162.20000000000002</ele><time>2026-04-25T08:48:12.775Z</time></trkpt><trkpt lat="44.2812326" lon="11.7186301"><ele>157.8</ele><time>2026-04-25T08:48:14.776Z</time></trkpt><trkpt lat="44.281127" lon="11.7186271"><ele>153.4</ele><time>2026-04-25T08:48:16.775Z</time></trkpt><trkpt lat="44.281005" lon="11.7186558"><ele>149.0</ele><time>2026-04-25T08:48:18.775Z</time></trkpt><trkpt lat="44.2808892" lon="11.7186962"><ele>149.0</ele><time>2026-04-25T08:48:20.776Z</time></trkpt><trkpt lat="44.2808004" lon="11.7187491"><ele>149.0</ele><time>2026-04-25T08:48:22.776Z</time></trkpt><trkpt lat="44.2807233" lon="11.7188065"><ele>149.0</ele><time>2026-04-25T08:48:24.775Z</time></trkpt><trkpt lat="44.2806507" lon="11.7188606"><ele>149.0</ele><time>2026-04-25T08:48:26.775Z</time></trkpt><trkpt lat="44.2805838" lon="11.7189155"><ele>149.0</ele><time>2026-04-25T08:48:28.776Z</time></trkpt><trkpt lat="44.2805122" lon="11.7189653"><ele>149.0</ele><time>2026-04-25T08:48:30.775Z</time></trkpt><trkpt lat="44.2804439" lon="11.7190136"><ele>147.6</ele><time>2026-04-25T08:48:32.776Z</time></trkpt><trkpt lat="44.2803656" lon="11.7190497"><ele>146.2</ele><time>2026-04-25T08:48:34.776Z</time></trkpt><trkpt lat="44.2802575" lon="11.7190819"><ele>144.79999999999998</ele><time>2026-04-25T08:48:36.776Z</time></trkpt><trkpt lat="44.2801466" lon="11.7191006"><ele>143.4</ele><time>2026-04-25T08:48:38.775Z</time></trkpt><trkpt lat="44.2800359" lon="11.7191019"><ele>142.0</ele><time>2026-04-25T08:48:40.775Z</time></trkpt><trkpt lat="44.279971" lon="11.7191093"><ele>142.0</ele><time>2026-04-25T08:48:41.776Z</time></trkpt><trkpt lat="44.2799086" lon="11.7191247"><ele>142.0</ele><time>2026-04-25T08:48:42.776Z</time></trkpt><trkpt lat="44.2797939" lon="11.7191686"><ele>142.0</ele><time>2026-04-25T08:48:44.776Z</time></trkpt><trkpt lat="44.2796821" lon="11.7192309"><ele>142.0</ele><time>2026-04-25T08:48:46.775Z</time></trkpt><trkpt lat="44.2795766" lon="11.7192942"><ele>142.0</ele><time>2026-04-25T08:48:48.776Z</time></trkpt><trkpt lat="44.2794568" lon="11.7193396"><ele>139.16666666666669</ele><time>2026-04-25T08:48:50.776Z</time></trkpt><trkpt lat="44.2793834" lon="11.7193382"><ele>136.33333333333334</ele><time>2026-04-25T08:48:51.775Z</time></trkpt><trkpt lat="44.2793067" lon="11.7193341"><ele>133.5</ele><time>2026-04-25T08:48:52.775Z</time></trkpt><trkpt lat="44.279236" lon="11.7193205"><ele>130.66666666666666</ele><time>2026-04-25T08:48:53.775Z</time></trkpt><trkpt lat="44.2791552" lon="11.7192925"><ele>127.83333333333333</ele><time>2026-04-25T08:48:54.776Z</time></trkpt><trkpt lat="44.2790739" lon="11.7192666"><ele>125.0</ele><time>2026-04-25T08:48:55.775Z</time></trkpt><trkpt lat="44.2790033" lon="11.719239"><ele>124.99999999999999</ele><time>2026-04-25T08:48:56.776Z</time></trkpt><trkpt lat="44.2789428" lon="11.7192146"><ele>125.0</ele><time>2026-04-25T08:48:57.775Z</time></trkpt><trkpt lat="44.2788397" lon="11.7191418"><ele>125.0</ele><time>2026-04-25T08:48:59.775Z</time></trkpt><trkpt lat="44.2787705" lon="11.7190905"><ele>125.0</ele><time>2026-04-25T08:49:01.776Z</time></trkpt><trkpt lat="44.2786835" lon="11.71915"><ele>124.99999999999999</ele><time>2026-04-25T08:49:03.775Z</time></trkpt><trkpt lat="44.2786828" lon="11.719273"><ele>125.0</ele><time>2026-04-25T08:49:05.776Z</time></trkpt><trkpt lat="44.2786892" lon="11.7193981"><ele>122.4</ele><time>2026-04-25T08:49:07.775Z</time></trkpt><trkpt lat="44.2786939" lon="11.7195101"><ele>119.8</ele><time>2026-04-25T08:49:09.776Z</time></trkpt><trkpt lat="44.2786936" lon="11.7196337"><ele>117.19999999999999</ele><time>2026-04-25T08:49:11.775Z</time></trkpt><trkpt lat="44.2786995" lon="11.7197587"><ele>114.6</ele><time>2026-04-25T08:49:13.775Z</time></trkpt><trkpt lat="44.2787187" lon="11.7199049"><ele>112.0</ele><time>2026-04-25T08:49:15.775Z</time></trkpt><trkpt lat="44.2787467" lon="11.72003"><ele>112.00000000000001</ele><time>2026-04-25T08:49:17.776Z</time></trkpt><trkpt lat="44.2787775" lon="11.7201388"><ele>112.0</ele><time>2026-04-25T08:49:19.775Z</time></trkpt><trkpt lat="44.2788176" lon="11.7202472"><ele>112.0</ele><time>2026-04-25T08:49:22.776Z</time></trkpt><trkpt lat="44.2788456" lon="11.7203482"><ele>112.0</ele><time>2026-04-25T08:49:24.776Z</time></trkpt><trkpt lat="44.2788601" lon="11.7204497"><ele>112.00000000000001</ele><time>2026-04-25T08:49:26.775Z</time></trkpt><trkpt lat="44.278876" lon="11.7205553"><ele>112.0</ele><time>2026-04-25T08:49:28.776Z</time></trkpt><trkpt lat="44.2788887" lon="11.720666"><ele>111.39999999999999</ele><time>2026-04-25T08:49:31.775Z</time></trkpt><trkpt lat="44.2788308" lon="11.7207607"><ele>110.79999999999998</ele><time>2026-04-25T08:49:34.776Z</time></trkpt><trkpt lat="44.2787267" lon="11.720826"><ele>110.2</ele><time>2026-04-25T08:49:36.775Z</time></trkpt><trkpt lat="44.2786587" lon="11.7208512"><ele>109.6</ele><time>2026-04-25T08:49:37.775Z</time></trkpt><trkpt lat="44.2785406" lon="11.72091"><ele>109.0</ele><time>2026-04-25T08:49:39.776Z</time></trkpt><trkpt lat="44.2784579" lon="11.7209739"><ele>109.00000000000001</ele><time>2026-04-25T08:49:41.775Z</time></trkpt><trkpt lat="44.2783687" lon="11.7210688"><ele>109.0</ele><time>2026-04-25T08:49:43.775Z</time></trkpt><trkpt lat="44.2782976" lon="11.7211325"><ele>109.0</ele><time>2026-04-25T08:49:45.775Z</time></trkpt><trkpt lat="44.2782419" lon="11.7211842"><ele>109.0</ele><time>2026-04-25T08:49:48.775Z</time></trkpt><trkpt lat="44.2781884" lon="11.7211079"><ele>109.00000000000001</ele><time>2026-04-25T08:49:52.775Z</time></trkpt><trkpt lat="44.2781674" lon="11.7209993"><ele>109.0</ele><time>2026-04-25T08:49:55.775Z</time></trkpt><trkpt lat="44.2781054" lon="11.7209242"><ele>109.0</ele><time>2026-04-25T08:50:00.775Z</time></trkpt><trkpt lat="44.2781154" lon="11.7208242"><ele>109.0</ele><time>2026-04-25T08:50:04.776Z</time></trkpt><trkpt lat="44.2780635" lon="11.7207667"><ele>109.0</ele><time>2026-04-25T08:59:08.773Z</time></trkpt><trkpt lat="44.2779821" lon="11.7208217"><ele>109.0</ele><time>2026-04-25T08:59:12.773Z</time></trkpt><trkpt lat="44.2779202" lon="11.7208482"><ele>109.0</ele><time>2026-04-25T08:59:14.774Z</time></trkpt><trkpt lat="44.2778588" lon="11.7208848"><ele>109.0</ele><time>2026-04-25T08:59:16.773Z</time></trkpt><trkpt lat="44.277791" lon="11.7209226"><ele>109.0</ele><time>2026-04-25T08:59:18.773Z</time></trkpt><trkpt lat="44.2777083" lon="11.7209598"><ele>108.00000000000001</ele><time>2026-04-25T08:59:21.773Z</time></trkpt><trkpt lat="44.2776489" lon="11.7210292"><ele>107.0</ele><time>2026-04-25T08:59:24.774Z</time></trkpt><trkpt lat="44.2776477" lon="11.7211276"><ele>106.0</ele><time>2026-04-25T08:59:26.774Z</time></trkpt><trkpt lat="44.2776314" lon="11.7212334"><ele>105.0</ele><time>2026-04-25T08:59:28.773Z</time></trkpt><trkpt lat="44.2775594" lon="11.7213313"><ele>104.00000000000001</ele><time>2026-04-25T08:59:30.774Z</time></trkpt><trkpt lat="44.277453" lon="11.7213844"><ele>103.0</ele><time>2026-04-25T08:59:32.774Z</time></trkpt><trkpt lat="44.2773903" lon="11.7214209"><ele>102.71428571428571</ele><time>2026-04-25T08:59:33.774Z</time></trkpt><trkpt lat="44.2773228" lon="11.7214582"><ele>102.42857142857143</ele><time>2026-04-25T08:59:34.774Z</time></trkpt><trkpt lat="44.2772599" lon="11.7215001"><ele>102.14285714285714</ele><time>2026-04-25T08:59:35.773Z</time></trkpt><trkpt lat="44.2771881" lon="11.7215323"><ele>101.85714285714286</ele><time>2026-04-25T08:59:36.773Z</time></trkpt><trkpt lat="44.277123" lon="11.7215704"><ele>101.57142857142857</ele><time>2026-04-25T08:59:37.774Z</time></trkpt><trkpt lat="44.2770512" lon="11.7216058"><ele>101.28571428571428</ele><time>2026-04-25T08:59:38.773Z</time></trkpt><trkpt lat="44.2769873" lon="11.7216341"><ele>101.0</ele><time>2026-04-25T08:59:39.773Z</time></trkpt><trkpt lat="44.2769132" lon="11.7216725"><ele>100.49999999999999</ele><time>2026-04-25T08:59:40.773Z</time></trkpt><trkpt lat="44.2768492" lon="11.7217021"><ele>100.0</ele><time>2026-04-25T08:59:41.773Z</time></trkpt><trkpt lat="44.2767539" lon="11.7217516"><ele>99.5</ele><time>2026-04-25T08:59:43.774Z</time></trkpt><trkpt lat="44.2766684" lon="11.721781"><ele>99.0</ele><time>2026-04-25T08:59:45.774Z</time></trkpt><trkpt lat="44.2766076" lon="11.7217281"><ele>98.49999999999999</ele><time>2026-04-25T08:59:47.773Z</time></trkpt><trkpt lat="44.2765543" lon="11.7216515"><ele>98.0</ele><time>2026-04-25T08:59:49.774Z</time></trkpt><trkpt lat="44.2764936" lon="11.7215448"><ele>98.0</ele><time>2026-04-25T08:59:51.774Z</time></trkpt><trkpt lat="44.2764271" lon="11.7214084"><ele>98.0</ele><time>2026-04-25T08:59:53.774Z</time></trkpt><trkpt lat="44.2763591" lon="11.7212528"><ele>98.0</ele><time>2026-04-25T08:59:55.774Z</time></trkpt><trkpt lat="44.2763238" lon="11.7211676"><ele>98.0</ele><time>2026-04-25T08:59:56.774Z</time></trkpt><trkpt lat="44.2762908" lon="11.7210851"><ele>98.0</ele><time>2026-04-25T08:59:57.773Z</time></trkpt><trkpt lat="44.2762575" lon="11.7210073"><ele>97.16666666666666</ele><time>2026-04-25T08:59:58.774Z</time></trkpt><trkpt lat="44.2762175" lon="11.7209366"><ele>96.33333333333333</ele><time>2026-04-25T08:59:59.773Z</time></trkpt><trkpt lat="44.2761714" lon="11.7208707"><ele>95.5</ele><time>2026-04-25T09:00:00.774Z</time></trkpt><trkpt lat="44.276115" lon="11.7207984"><ele>94.66666666666666</ele><time>2026-04-25T09:00:01.774Z</time></trkpt><trkpt lat="44.2760498" lon="11.7207417"><ele>93.83333333333333</ele><time>2026-04-25T09:00:02.773Z</time></trkpt><trkpt lat="44.2759666" lon="11.7206908"><ele>93.0</ele><time>2026-04-25T09:00:03.773Z</time></trkpt><trkpt lat="44.2758893" lon="11.720654"><ele>93.0</ele><time>2026-04-25T09:00:04.774Z</time></trkpt><trkpt lat="44.2758121" lon="11.720623"><ele>93.0</ele><time>2026-04-25T09:00:05.773Z</time></trkpt><trkpt lat="44.2757303" lon="11.7206241"><ele>93.0</ele><time>2026-04-25T09:00:06.774Z</time></trkpt><trkpt lat="44.2756408" lon="11.7206396"><ele>93.0</ele><time>2026-04-25T09:00:07.773Z</time></trkpt><trkpt lat="44.2755459" lon="11.7206661"><ele>93.0</ele><time>2026-04-25T09:00:08.774Z</time></trkpt><trkpt lat="44.2754516" lon="11.7206867"><ele>93.0</ele><time>2026-04-25T09:00:09.773Z</time></trkpt><trkpt lat="44.2753531" lon="11.7206959"><ele>91.83333333333333</ele><time>2026-04-25T09:00:10.774Z</time></trkpt><trkpt lat="44.2752608" lon="11.7207169"><ele>90.66666666666667</ele><time>2026-04-25T09:00:11.774Z</time></trkpt><trkpt lat="44.2751714" lon="11.72074"><ele>89.5</ele><time>2026-04-25T09:00:12.773Z</time></trkpt><trkpt lat="44.2750902" lon="11.7207597"><ele>88.33333333333334</ele><time>2026-04-25T09:00:13.774Z</time></trkpt><trkpt lat="44.2750064" lon="11.7207828"><ele>87.16666666666667</ele><time>2026-04-25T09:00:14.773Z</time></trkpt><trkpt lat="44.2749116" lon="11.7208071"><ele>86.0</ele><time>2026-04-25T09:00:15.774Z</time></trkpt><trkpt lat="44.2748193" lon="11.7208338"><ele>84.39999999999999</ele><time>2026-04-25T09:00:16.774Z</time></trkpt><trkpt lat="44.2747245" lon="11.7208781"><ele>82.8</ele><time>2026-04-25T09:00:17.773Z</time></trkpt><trkpt lat="44.2746308" lon="11.7209182"><ele>81.19999999999999</ele><time>2026-04-25T09:00:18.774Z</time></trkpt><trkpt lat="44.2745386" lon="11.7209701"><ele>79.6</ele><time>2026-04-25T09:00:19.774Z</time></trkpt><trkpt lat="44.2744599" lon="11.7210589"><ele>78.0</ele><time>2026-04-25T09:00:20.774Z</time></trkpt><trkpt lat="44.2743962" lon="11.7211546"><ele>78.0</ele><time>2026-04-25T09:00:21.774Z</time></trkpt><trkpt lat="44.2743399" lon="11.7212707"><ele>78.0</ele><time>2026-04-25T09:00:22.773Z</time></trkpt><trkpt lat="44.2742965" lon="11.7213778"><ele>78.0</ele><time>2026-04-25T09:00:23.773Z</time></trkpt><trkpt lat="44.2742587" lon="11.7214971"><ele>78.0</ele><time>2026-04-25T09:00:24.773Z</time></trkpt><trkpt lat="44.2742333" lon="11.7216104"><ele>78.0</ele><time>2026-04-25T09:00:25.774Z</time></trkpt><trkpt lat="44.2742106" lon="11.7217293"><ele>78.0</ele><time>2026-04-25T09:00:26.774Z</time></trkpt><trkpt lat="44.2741824" lon="11.7218411"><ele>78.0</ele><time>2026-04-25T09:00:27.774Z</time></trkpt><trkpt lat="44.2741322" lon="11.721946"><ele>78.0</ele><time>2026-04-25T09:00:28.773Z</time></trkpt><trkpt lat="44.2740773" lon="11.7220219"><ele>78.0</ele><time>2026-04-25T09:00:29.774Z</time></trkpt><trkpt lat="44.274007" lon="11.7220817"><ele>78.0</ele><time>2026-04-25T09:00:30.774Z</time></trkpt><trkpt lat="44.2739362" lon="11.7221288"><ele>78.0</ele><time>2026-04-25T09:00:31.773Z</time></trkpt><trkpt lat="44.2738606" lon="11.7221606"><ele>76.5</ele><time>2026-04-25T09:00:32.773Z</time></trkpt><trkpt lat="44.2737824" lon="11.72218"><ele>75.0</ele><time>2026-04-25T09:00:33.774Z</time></trkpt><trkpt lat="44.2737119" lon="11.722186"><ele>73.5</ele><time>2026-04-25T09:00:34.774Z</time></trkpt><trkpt lat="44.2736347" lon="11.7221725"><ele>72.0</ele><time>2026-04-25T09:00:35.773Z</time></trkpt><trkpt lat="44.2735525" lon="11.7221327"><ele>70.5</ele><time>2026-04-25T09:00:36.773Z</time></trkpt><trkpt lat="44.2734888" lon="11.7220743"><ele>69.0</ele><time>2026-04-25T09:00:37.774Z</time></trkpt><trkpt lat="44.2734285" lon="11.7220296"><ele>69.0</ele><time>2026-04-25T09:00:38.773Z</time></trkpt><trkpt lat="44.2733698" lon="11.7219876"><ele>69.0</ele><time>2026-04-25T09:00:39.774Z</time></trkpt><trkpt lat="44.2733092" lon="11.7219514"><ele>69.0</ele><time>2026-04-25T09:00:40.773Z</time></trkpt><trkpt lat="44.2731989" lon="11.7218714"><ele>69.0</ele><time>2026-04-25T09:00:42.773Z</time></trkpt><trkpt lat="44.2730891" lon="11.7217837"><ele>69.0</ele><time>2026-04-25T09:00:44.774Z</time></trkpt><trkpt lat="44.272987" lon="11.7216957"><ele>69.60000000000001</ele><time>2026-04-25T09:00:46.774Z</time></trkpt><trkpt lat="44.2728937" lon="11.7216021"><ele>70.2</ele><time>2026-04-25T09:00:48.773Z</time></trkpt><trkpt lat="44.2727912" lon="11.7215137"><ele>70.80000000000001</ele><time>2026-04-25T09:00:50.774Z</time></trkpt><trkpt lat="44.2726895" lon="11.7214082"><ele>71.4</ele><time>2026-04-25T09:00:52.773Z</time></trkpt><trkpt lat="44.2726353" lon="11.7213527"><ele>72.0</ele><time>2026-04-25T09:00:53.773Z</time></trkpt><trkpt lat="44.2725386" lon="11.7212578"><ele>72.0</ele><time>2026-04-25T09:00:55.773Z</time></trkpt><trkpt lat="44.2724854" lon="11.7212048"><ele>72.0</ele><time>2026-04-25T09:00:56.773Z</time></trkpt><trkpt lat="44.2723881" lon="11.7211152"><ele>72.0</ele><time>2026-04-25T09:00:58.773Z</time></trkpt><trkpt lat="44.2722886" lon="11.7210149"><ele>72.0</ele><time>2026-04-25T09:01:00.774Z</time></trkpt><trkpt lat="44.2721975" lon="11.7208979"><ele>72.0</ele><time>2026-04-25T09:01:02.774Z</time></trkpt><trkpt lat="44.2721497" lon="11.7208386"><ele>72.33333333333333</ele><time>2026-04-25T09:01:03.773Z</time></trkpt><trkpt lat="44.2721021" lon="11.720777"><ele>72.66666666666667</ele><time>2026-04-25T09:01:04.773Z</time></trkpt><trkpt lat="44.2720072" lon="11.7206579"><ele>73.0</ele><time>2026-04-25T09:01:06.774Z</time></trkpt><trkpt lat="44.2719656" lon="11.7205879"><ele>73.33333333333334</ele><time>2026-04-25T09:01:07.774Z</time></trkpt><trkpt lat="44.271929" lon="11.720515"><ele>73.66666666666667</ele><time>2026-04-25T09:01:08.773Z</time></trkpt><trkpt lat="44.2718998" lon="11.7204363"><ele>74.0</ele><time>2026-04-25T09:01:09.774Z</time></trkpt><trkpt lat="44.2718736" lon="11.7203501"><ele>74.16666666666667</ele><time>2026-04-25T09:01:10.773Z</time></trkpt><trkpt lat="44.2718277" lon="11.7201928"><ele>74.33333333333334</ele><time>2026-04-25T09:01:12.773Z</time></trkpt><trkpt lat="44.2718051" lon="11.7201075"><ele>74.5</ele><time>2026-04-25T09:01:13.774Z</time></trkpt><trkpt lat="44.2717864" lon="11.7200202"><ele>74.66666666666667</ele><time>2026-04-25T09:01:14.774Z</time></trkpt><trkpt lat="44.2717542" lon="11.7199401"><ele>74.83333333333333</ele><time>2026-04-25T09:01:15.774Z</time></trkpt><trkpt lat="44.2717277" lon="11.7198561"><ele>75.0</ele><time>2026-04-25T09:01:16.773Z</time></trkpt><trkpt lat="44.2716761" lon="11.719697"><ele>75.0</ele><time>2026-04-25T09:01:18.773Z</time></trkpt><trkpt lat="44.2716508" lon="11.7196131"><ele>75.0</ele><time>2026-04-25T09:01:19.774Z</time></trkpt><trkpt lat="44.2716321" lon="11.7195263"><ele>75.0</ele><time>2026-04-25T09:01:20.774Z</time></trkpt><trkpt lat="44.2716096" lon="11.7194419"><ele>75.0</ele><time>2026-04-25T09:01:21.774Z</time></trkpt><trkpt lat="44.2715839" lon="11.7193586"><ele>75.0</ele><time>2026-04-25T09:01:22.774Z</time></trkpt><trkpt lat="44.2715394" lon="11.7192044"><ele>75.0</ele><time>2026-04-25T09:01:24.774Z</time></trkpt><trkpt lat="44.2714876" lon="11.7190481"><ele>75.2</ele><time>2026-04-25T09:01:26.773Z</time></trkpt><trkpt lat="44.27144" lon="11.7188797"><ele>75.4</ele><time>2026-04-25T09:01:28.773Z</time></trkpt><trkpt lat="44.2714143" lon="11.7187978"><ele>75.6</ele><time>2026-04-25T09:01:29.773Z</time></trkpt><trkpt lat="44.2713604" lon="11.718646"><ele>75.8</ele><time>2026-04-25T09:01:31.772Z</time></trkpt><trkpt lat="44.2713288" lon="11.7185572"><ele>76.0</ele><time>2026-04-25T09:01:32.772Z</time></trkpt><trkpt lat="44.2712861" lon="11.7183886"><ele>76.0</ele><time>2026-04-25T09:01:34.772Z</time></trkpt><trkpt lat="44.2712554" lon="11.7183"><ele>76.0</ele><time>2026-04-25T09:01:35.773Z</time></trkpt><trkpt lat="44.2712106" lon="11.7181398"><ele>76.0</ele><time>2026-04-25T09:01:37.772Z</time></trkpt><trkpt lat="44.2711661" lon="11.7179842"><ele>76.0</ele><time>2026-04-25T09:01:39.773Z</time></trkpt><trkpt lat="44.2711492" lon="11.7178981"><ele>76.0</ele><time>2026-04-25T09:01:40.772Z</time></trkpt><trkpt lat="44.2711282" lon="11.7177384"><ele>75.6</ele><time>2026-04-25T09:01:42.772Z</time></trkpt><trkpt lat="44.2711181" lon="11.717582"><ele>75.19999999999999</ele><time>2026-04-25T09:01:44.772Z</time></trkpt><trkpt lat="44.271072" lon="11.7174321"><ele>74.80000000000001</ele><time>2026-04-25T09:01:46.773Z</time></trkpt><trkpt lat="44.2709557" lon="11.7174194"><ele>74.4</ele><time>2026-04-25T09:01:48.773Z</time></trkpt><trkpt lat="44.270855" lon="11.7174469"><ele>74.0</ele><time>2026-04-25T09:01:50.772Z</time></trkpt><trkpt lat="44.2707541" lon="11.7174468"><ele>74.0</ele><time>2026-04-25T09:01:52.773Z</time></trkpt><trkpt lat="44.2706442" lon="11.7174107"><ele>74.0</ele><time>2026-04-25T09:01:54.773Z</time></trkpt><trkpt lat="44.2705484" lon="11.7173375"><ele>74.0</ele><time>2026-04-25T09:01:56.773Z</time></trkpt><trkpt lat="44.2704619" lon="11.7172359"><ele>74.0</ele><time>2026-04-25T09:01:58.773Z</time></trkpt><trkpt lat="44.2703761" lon="11.7171264"><ele>74.4</ele><time>2026-04-25T09:02:00.772Z</time></trkpt><trkpt lat="44.2703171" lon="11.7170009"><ele>74.80000000000001</ele><time>2026-04-25T09:02:02.772Z</time></trkpt><trkpt lat="44.2702347" lon="11.7168877"><ele>75.19999999999999</ele><time>2026-04-25T09:02:04.773Z</time></trkpt><trkpt lat="44.2701358" lon="11.7168034"><ele>75.6</ele><time>2026-04-25T09:02:06.772Z</time></trkpt><trkpt lat="44.2700404" lon="11.7167444"><ele>76.0</ele><time>2026-04-25T09:02:08.773Z</time></trkpt><trkpt lat="44.2699532" lon="11.7166877"><ele>76.0</ele><time>2026-04-25T09:02:10.773Z</time></trkpt><trkpt lat="44.2698677" lon="11.7166263"><ele>76.0</ele><time>2026-04-25T09:02:12.772Z</time></trkpt><trkpt lat="44.2697861" lon="11.7165797"><ele>76.0</ele><time>2026-04-25T09:02:14.77Z</time></trkpt><trkpt lat="44.2697184" lon="11.7165427"><ele>76.0</ele><time>2026-04-25T09:02:16.772Z</time></trkpt><trkpt lat="44.2696438" lon="11.7165186"><ele>76.0</ele><time>2026-04-25T09:02:18.772Z</time></trkpt><trkpt lat="44.2695661" lon="11.7164994"><ele>76.0</ele><time>2026-04-25T09:02:20.773Z</time></trkpt><trkpt lat="44.2694909" lon="11.7164543"><ele>78.83333333333333</ele><time>2026-04-25T09:02:22.772Z</time></trkpt><trkpt lat="44.2694315" lon="11.7164138"><ele>81.66666666666666</ele><time>2026-04-25T09:02:24.773Z</time></trkpt><trkpt lat="44.2693426" lon="11.7163683"><ele>84.5</ele><time>2026-04-25T09:02:27.773Z</time></trkpt><trkpt lat="44.269265" lon="11.7163025"><ele>87.33333333333333</ele><time>2026-04-25T09:02:30.773Z</time></trkpt><trkpt lat="44.2692029" lon="11.7162622"><ele>90.16666666666667</ele><time>2026-04-25T09:02:32.772Z</time></trkpt><trkpt lat="44.2691481" lon="11.7162167"><ele>93.0</ele><time>2026-04-25T09:02:34.773Z</time></trkpt><trkpt lat="44.2690866" lon="11.71616"><ele>93.0</ele><time>2026-04-25T09:02:36.773Z</time></trkpt><trkpt lat="44.2690263" lon="11.7160956"><ele>93.0</ele><time>2026-04-25T09:02:38.772Z</time></trkpt><trkpt lat="44.2689689" lon="11.7160365"><ele>93.0</ele><time>2026-04-25T09:02:40.773Z</time></trkpt><trkpt lat="44.2689128" lon="11.7159487"><ele>93.0</ele><time>2026-04-25T09:02:43.773Z</time></trkpt><trkpt lat="44.268859" lon="11.7158549"><ele>93.0</ele><time>2026-04-25T09:02:46.773Z</time></trkpt><trkpt lat="44.2688186" lon="11.715743"><ele>93.0</ele><time>2026-04-25T09:02:49.773Z</time></trkpt><trkpt lat="44.2687798" lon="11.7156423"><ele>92.66666666666667</ele><time>2026-04-25T09:02:52.773Z</time></trkpt><trkpt lat="44.2687407" lon="11.7155537"><ele>92.33333333333333</ele><time>2026-04-25T09:02:55.773Z</time></trkpt><trkpt lat="44.2686996" lon="11.7154628"><ele>92.0</ele><time>2026-04-25T09:02:58.772Z</time></trkpt><trkpt lat="44.2686515" lon="11.7153796"><ele>91.66666666666666</ele><time>2026-04-25T09:03:01.78Z</time></trkpt><trkpt lat="44.2685913" lon="11.7152926"><ele>91.33333333333333</ele><time>2026-04-25T09:03:04.772Z</time></trkpt><trkpt lat="44.2685437" lon="11.7152158"><ele>91.0</ele><time>2026-04-25T09:03:07.772Z</time></trkpt><trkpt lat="44.268495" lon="11.7151344"><ele>91.0</ele><time>2026-04-25T09:03:10.76Z</time></trkpt><trkpt lat="44.2684626" lon="11.715057"><ele>91.0</ele><time>2026-04-25T09:03:12.773Z</time></trkpt><trkpt lat="44.2684267" lon="11.7149431"><ele>91.0</ele><time>2026-04-25T09:03:15.772Z</time></trkpt><trkpt lat="44.2683859" lon="11.7148489"><ele>91.0</ele><time>2026-04-25T09:03:18.794Z</time></trkpt><trkpt lat="44.2683108" lon="11.7147958"><ele>91.0</ele><time>2026-04-25T09:03:21.773Z</time></trkpt><trkpt lat="44.2682447" lon="11.7148312"><ele>91.0</ele><time>2026-04-25T09:03:24.773Z</time></trkpt><trkpt lat="44.2682199" lon="11.7149397"><ele>91.0</ele><time>2026-04-25T09:03:27.772Z</time></trkpt><trkpt lat="44.2682145" lon="11.7150291"><ele>91.0</ele><time>2026-04-25T09:03:29.773Z</time></trkpt><trkpt lat="44.2682185" lon="11.7151182"><ele>91.0</ele><time>2026-04-25T09:03:31.777Z</time></trkpt><trkpt lat="44.2682257" lon="11.7152134"><ele>91.0</ele><time>2026-04-25T09:03:33.792Z</time></trkpt><trkpt lat="44.268245" lon="11.7153354"><ele>91.0</ele><time>2026-04-25T09:03:36.772Z</time></trkpt><trkpt lat="44.2682634" lon="11.7154441"><ele>91.0</ele><time>2026-04-25T09:03:39.773Z</time></trkpt><trkpt lat="44.2682783" lon="11.7155483"><ele>91.0</ele><time>2026-04-25T09:03:42.772Z</time></trkpt><trkpt lat="44.2682945" lon="11.7156538"><ele>92.42857142857143</ele><time>2026-04-25T09:03:45.772Z</time></trkpt><trkpt lat="44.2682864" lon="11.7157685"><ele>93.85714285714286</ele><time>2026-04-25T09:03:48.724Z</time></trkpt><trkpt lat="44.2682695" lon="11.7158608"><ele>95.28571428571428</ele><time>2026-04-25T09:03:50.773Z</time></trkpt><trkpt lat="44.2682446" lon="11.7159416"><ele>96.71428571428572</ele><time>2026-04-25T09:03:52.772Z</time></trkpt><trkpt lat="44.2682075" lon="11.7160592"><ele>98.14285714285714</ele><time>2026-04-25T09:03:55.773Z</time></trkpt><trkpt lat="44.2681738" lon="11.7161486"><ele>99.57142857142857</ele><time>2026-04-25T09:03:57.772Z</time></trkpt><trkpt lat="44.26814" lon="11.7162357"><ele>101.0</ele><time>2026-04-25T09:03:59.773Z</time></trkpt><trkpt lat="44.2681048" lon="11.7163102"><ele>101.83333333333333</ele><time>2026-04-25T09:04:01.699Z</time></trkpt><trkpt lat="44.2680668" lon="11.7163848"><ele>102.66666666666666</ele><time>2026-04-25T09:04:03.792Z</time></trkpt><trkpt lat="44.2680267" lon="11.71646"><ele>103.5</ele><time>2026-04-25T09:04:05.761Z</time></trkpt><trkpt lat="44.2679765" lon="11.7165646"><ele>104.33333333333334</ele><time>2026-04-25T09:04:08.772Z</time></trkpt><trkpt lat="44.2679117" lon="11.7166346"><ele>105.16666666666667</ele><time>2026-04-25T09:04:11.772Z</time></trkpt><trkpt lat="44.2678185" lon="11.7166112"><ele>106.0</ele><time>2026-04-25T09:04:14.772Z</time></trkpt><trkpt lat="44.2677689" lon="11.7165443"><ele>106.00000000000001</ele><time>2026-04-25T09:04:16.778Z</time></trkpt><trkpt lat="44.2677151" lon="11.7164877"><ele>106.0</ele><time>2026-04-25T09:04:18.772Z</time></trkpt><trkpt lat="44.2676477" lon="11.7164463"><ele>106.0</ele><time>2026-04-25T09:04:20.773Z</time></trkpt><trkpt lat="44.2675786" lon="11.7164106"><ele>106.0</ele><time>2026-04-25T09:04:22.824Z</time></trkpt><trkpt lat="44.2675012" lon="11.7163574"><ele>106.00000000000001</ele><time>2026-04-25T09:04:24.787Z</time></trkpt><trkpt lat="44.2674151" lon="11.7163001"><ele>106.0</ele><time>2026-04-25T09:04:27.772Z</time></trkpt><trkpt lat="44.2673549" lon="11.7162523"><ele>106.0</ele><time>2026-04-25T09:04:29.772Z</time></trkpt><trkpt lat="44.2672934" lon="11.7162063"><ele>106.0</ele><time>2026-04-25T09:04:31.706Z</time></trkpt><trkpt lat="44.2672318" lon="11.716157"><ele>106.0</ele><time>2026-04-25T09:04:33.798Z</time></trkpt><trkpt lat="44.2671737" lon="11.7161084"><ele>106.0</ele><time>2026-04-25T09:04:35.812Z</time></trkpt><trkpt lat="44.2671129" lon="11.7160644"><ele>106.0</ele><time>2026-04-25T09:04:37.773Z</time></trkpt><trkpt lat="44.2670466" lon="11.716014"><ele>106.0</ele><time>2026-04-25T09:04:39.773Z</time></trkpt><trkpt lat="44.2669834" lon="11.7159576"><ele>106.0</ele><time>2026-04-25T09:04:41.801Z</time></trkpt><trkpt lat="44.2669213" lon="11.7159133"><ele>106.42857142857143</ele><time>2026-04-25T09:04:43.773Z</time></trkpt><trkpt lat="44.2668521" lon="11.7158675"><ele>106.85714285714285</ele><time>2026-04-25T09:04:45.78Z</time></trkpt><trkpt lat="44.266789" lon="11.7158245"><ele>107.28571428571428</ele><time>2026-04-25T09:04:47.796Z</time></trkpt><trkpt lat="44.2667285" lon="11.7157757"><ele>107.71428571428572</ele><time>2026-04-25T09:04:49.772Z</time></trkpt><trkpt lat="44.2666677" lon="11.7157241"><ele>108.14285714285714</ele><time>2026-04-25T09:04:51.773Z</time></trkpt><trkpt lat="44.2666085" lon="11.7156696"><ele>108.57142857142857</ele><time>2026-04-25T09:04:53.772Z</time></trkpt><trkpt lat="44.2665465" lon="11.7156169"><ele>109.0</ele><time>2026-04-25T09:04:55.773Z</time></trkpt><trkpt lat="44.2664888" lon="11.715574"><ele>109.71428571428572</ele><time>2026-04-25T09:04:57.681Z</time></trkpt><trkpt lat="44.2664307" lon="11.7155299"><ele>110.42857142857143</ele><time>2026-04-25T09:04:59.714Z</time></trkpt><trkpt lat="44.2663633" lon="11.7154855"><ele>111.14285714285714</ele><time>2026-04-25T09:05:01.772Z</time></trkpt><trkpt lat="44.2663033" lon="11.7154399"><ele>111.85714285714286</ele><time>2026-04-25T09:05:03.773Z</time></trkpt><trkpt lat="44.2662407" lon="11.715394"><ele>112.57142857142856</ele><time>2026-04-25T09:05:05.773Z</time></trkpt><trkpt lat="44.2661606" lon="11.7153387"><ele>113.28571428571428</ele><time>2026-04-25T09:05:08.772Z</time></trkpt><trkpt lat="44.2661007" lon="11.7152972"><ele>114.0</ele><time>2026-04-25T09:05:10.829Z</time></trkpt><trkpt lat="44.2660133" lon="11.7152462"><ele>114.0</ele><time>2026-04-25T09:05:13.788Z</time></trkpt><trkpt lat="44.2659541" lon="11.7152053"><ele>113.99999999999999</ele><time>2026-04-25T09:05:15.803Z</time></trkpt><trkpt lat="44.2658944" lon="11.7151725"><ele>114.0</ele><time>2026-04-25T09:05:17.773Z</time></trkpt><trkpt lat="44.2658148" lon="11.7150997"><ele>114.0</ele><time>2026-04-25T09:05:20.773Z</time></trkpt><trkpt lat="44.2657613" lon="11.7150495"><ele>113.99999999999999</ele><time>2026-04-25T09:05:22.772Z</time></trkpt><trkpt lat="44.2657068" lon="11.7149985"><ele>114.0</ele><time>2026-04-25T09:05:24.816Z</time></trkpt><trkpt lat="44.2656502" lon="11.714953"><ele>114.0</ele><time>2026-04-25T09:05:26.779Z</time></trkpt><trkpt lat="44.2655925" lon="11.7149034"><ele>114.85714285714285</ele><time>2026-04-25T09:05:28.795Z</time></trkpt><trkpt lat="44.2655349" lon="11.714856"><ele>115.7142857142857</ele><time>2026-04-25T09:05:30.734Z</time></trkpt><trkpt lat="44.2654746" lon="11.7148043"><ele>116.57142857142857</ele><time>2026-04-25T09:05:32.772Z</time></trkpt><trkpt lat="44.2654164" lon="11.7147587"><ele>117.42857142857142</ele><time>2026-04-25T09:05:34.772Z</time></trkpt><trkpt lat="44.2653598" lon="11.7147125"><ele>118.28571428571428</ele><time>2026-04-25T09:05:36.709Z</time></trkpt><trkpt lat="44.2652983" lon="11.7146626"><ele>119.14285714285714</ele><time>2026-04-25T09:05:38.773Z</time></trkpt><trkpt lat="44.265243" lon="11.7146179"><ele>120.0</ele><time>2026-04-25T09:05:40.675Z</time></trkpt><trkpt lat="44.2651824" lon="11.7145659"><ele>120.0</ele><time>2026-04-25T09:05:42.792Z</time></trkpt><trkpt lat="44.2651244" lon="11.7145182"><ele>120.0</ele><time>2026-04-25T09:05:44.772Z</time></trkpt><trkpt lat="44.2650654" lon="11.7144825"><ele>120.0</ele><time>2026-04-25T09:05:46.772Z</time></trkpt><trkpt lat="44.2649854" lon="11.7144118"><ele>120.0</ele><time>2026-04-25T09:05:49.773Z</time></trkpt><trkpt lat="44.2649313" lon="11.7143616"><ele>120.0</ele><time>2026-04-25T09:05:51.772Z</time></trkpt><trkpt lat="44.2648546" lon="11.7143108"><ele>120.0</ele><time>2026-04-25T09:05:54.774Z</time></trkpt><trkpt lat="44.2647743" lon="11.7142457"><ele>120.66666666666667</ele><time>2026-04-25T09:05:57.817Z</time></trkpt><trkpt lat="44.2647041" lon="11.7141971"><ele>121.33333333333334</ele><time>2026-04-25T09:05:59.852Z</time></trkpt><trkpt lat="44.2646358" lon="11.7141461"><ele>122.0</ele><time>2026-04-25T09:06:02.776Z</time></trkpt><trkpt lat="44.2645753" lon="11.7140996"><ele>122.66666666666667</ele><time>2026-04-25T09:06:04.689Z</time></trkpt><trkpt lat="44.2644898" lon="11.7140271"><ele>123.33333333333334</ele><time>2026-04-25T09:06:07.771Z</time></trkpt><trkpt lat="44.2644314" lon="11.7139753"><ele>124.0</ele><time>2026-04-25T09:06:09.735Z</time></trkpt><trkpt lat="44.2643639" lon="11.7139109"><ele>124.00000000000001</ele><time>2026-04-25T09:06:11.772Z</time></trkpt><trkpt lat="44.264307" lon="11.7138571"><ele>124.0</ele><time>2026-04-25T09:06:13.772Z</time></trkpt><trkpt lat="44.2642529" lon="11.7138049"><ele>124.0</ele><time>2026-04-25T09:06:15.772Z</time></trkpt><trkpt lat="44.2641657" lon="11.7137328"><ele>124.0</ele><time>2026-04-25T09:06:18.783Z</time></trkpt><trkpt lat="44.2640903" lon="11.7136829"><ele>124.00000000000001</ele><time>2026-04-25T09:06:20.771Z</time></trkpt><trkpt lat="44.2640244" lon="11.7136477"><ele>124.0</ele><time>2026-04-25T09:06:22.706Z</time></trkpt><trkpt lat="44.2639566" lon="11.7136098"><ele>124.0</ele><time>2026-04-25T09:06:24.771Z</time></trkpt><trkpt lat="44.2638891" lon="11.7135722"><ele>124.00000000000001</ele><time>2026-04-25T09:06:26.751Z</time></trkpt><trkpt lat="44.2638178" lon="11.7135433"><ele>124.0</ele><time>2026-04-25T09:06:28.771Z</time></trkpt><trkpt lat="44.2637514" lon="11.713517"><ele>124.0</ele><time>2026-04-25T09:06:30.772Z</time></trkpt><trkpt lat="44.2636893" lon="11.7134905"><ele>124.00000000000001</ele><time>2026-04-25T09:06:32.779Z</time></trkpt><trkpt lat="44.2636289" lon="11.7134623"><ele>124.0</ele><time>2026-04-25T09:06:34.794Z</time></trkpt><trkpt lat="44.2635681" lon="11.7134192"><ele>124.0</ele><time>2026-04-25T09:06:36.772Z</time></trkpt><trkpt lat="44.2635077" lon="11.7133815"><ele>124.42857142857143</ele><time>2026-04-25T09:06:38.771Z</time></trkpt><trkpt lat="44.2634376" lon="11.7133601"><ele>124.85714285714286</ele><time>2026-04-25T09:06:40.772Z</time></trkpt><trkpt lat="44.2633689" lon="11.7133358"><ele>125.28571428571429</ele><time>2026-04-25T09:06:42.864Z</time></trkpt><trkpt lat="44.2633049" lon="11.7133081"><ele>125.71428571428572</ele><time>2026-04-25T09:06:44.864Z</time></trkpt><trkpt lat="44.2632421" lon="11.7132745"><ele>126.14285714285714</ele><time>2026-04-25T09:06:46.753Z</time></trkpt><trkpt lat="44.2631739" lon="11.7132459"><ele>126.57142857142858</ele><time>2026-04-25T09:06:48.786Z</time></trkpt><trkpt lat="44.2631053" lon="11.7132135"><ele>127.0</ele><time>2026-04-25T09:06:50.837Z</time></trkpt><trkpt lat="44.2630458" lon="11.713177"><ele>127.28571428571429</ele><time>2026-04-25T09:06:52.771Z</time></trkpt><trkpt lat="44.2629827" lon="11.7131417"><ele>127.57142857142856</ele><time>2026-04-25T09:06:54.771Z</time></trkpt><trkpt lat="44.2629149" lon="11.7131117"><ele>127.85714285714285</ele><time>2026-04-25T09:06:56.783Z</time></trkpt><trkpt lat="44.2628427" lon="11.7130781"><ele>128.14285714285714</ele><time>2026-04-25T09:06:58.799Z</time></trkpt><trkpt lat="44.2627698" lon="11.7130462"><ele>128.42857142857142</ele><time>2026-04-25T09:07:00.673Z</time></trkpt><trkpt lat="44.2627007" lon="11.7130126"><ele>128.7142857142857</ele><time>2026-04-25T09:07:02.828Z</time></trkpt><trkpt lat="44.2626399" lon="11.7129864"><ele>129.0</ele><time>2026-04-25T09:07:04.771Z</time></trkpt><trkpt lat="44.2625782" lon="11.7129536"><ele>128.99999999999997</ele><time>2026-04-25T09:07:06.734Z</time></trkpt><trkpt lat="44.2625027" lon="11.7129242"><ele>129.0</ele><time>2026-04-25T09:07:08.771Z</time></trkpt><trkpt lat="44.2624302" lon="11.7128934"><ele>129.0</ele><time>2026-04-25T09:07:10.778Z</time></trkpt><trkpt lat="44.2623617" lon="11.7128602"><ele>129.0</ele><time>2026-04-25T09:07:12.746Z</time></trkpt><trkpt lat="44.2622929" lon="11.7128273"><ele>129.0</ele><time>2026-04-25T09:07:14.806Z</time></trkpt><trkpt lat="44.2622281" lon="11.712794"><ele>128.99999999999997</ele><time>2026-04-25T09:07:16.772Z</time></trkpt><trkpt lat="44.2621683" lon="11.7127596"><ele>129.0</ele><time>2026-04-25T09:07:18.671Z</time></trkpt><trkpt lat="44.2621019" lon="11.7127286"><ele>129.42857142857142</ele><time>2026-04-25T09:07:20.771Z</time></trkpt><trkpt lat="44.262035" lon="11.7126982"><ele>129.85714285714286</ele><time>2026-04-25T09:07:22.788Z</time></trkpt><trkpt lat="44.2619703" lon="11.7126671"><ele>130.28571428571428</ele><time>2026-04-25T09:07:24.771Z</time></trkpt><trkpt lat="44.2619013" lon="11.7126392"><ele>130.71428571428572</ele><time>2026-04-25T09:07:26.732Z</time></trkpt><trkpt lat="44.261832" lon="11.7126166"><ele>131.14285714285714</ele><time>2026-04-25T09:07:28.788Z</time></trkpt><trkpt lat="44.2617668" lon="11.712585"><ele>131.57142857142856</ele><time>2026-04-25T09:07:30.793Z</time></trkpt><trkpt lat="44.2617045" lon="11.7125503"><ele>132.0</ele><time>2026-04-25T09:07:32.772Z</time></trkpt><trkpt lat="44.2616447" lon="11.7125168"><ele>132.0</ele><time>2026-04-25T09:07:34.772Z</time></trkpt><trkpt lat="44.2615819" lon="11.712495"><ele>132.0</ele><time>2026-04-25T09:07:36.772Z</time></trkpt><trkpt lat="44.2615194" lon="11.7124788"><ele>132.0</ele><time>2026-04-25T09:07:38.771Z</time></trkpt><trkpt lat="44.2614543" lon="11.7124881"><ele>132.0</ele><time>2026-04-25T09:07:40.771Z</time></trkpt><trkpt lat="44.2613904" lon="11.7125188"><ele>132.0</ele><time>2026-04-25T09:07:42.783Z</time></trkpt><trkpt lat="44.2613087" lon="11.7125834"><ele>132.0</ele><time>2026-04-25T09:07:45.875Z</time></trkpt><trkpt lat="44.2612449" lon="11.7126377"><ele>132.0</ele><time>2026-04-25T09:07:48.278Z</time></trkpt><trkpt lat="44.2611536" lon="11.7127015"><ele>133.5</ele><time>2026-04-25T09:07:51.771Z</time></trkpt><trkpt lat="44.2611018" lon="11.712752"><ele>135.0</ele><time>2026-04-25T09:07:53.673Z</time></trkpt><trkpt lat="44.2610462" lon="11.7128136"><ele>136.5</ele><time>2026-04-25T09:07:56.771Z</time></trkpt><trkpt lat="44.2609812" lon="11.712896"><ele>138.0</ele><time>2026-04-25T09:07:59.771Z</time></trkpt><trkpt lat="44.2609165" lon="11.7129745"><ele>139.5</ele><time>2026-04-25T09:08:02.771Z</time></trkpt><trkpt lat="44.2608544" lon="11.7130535"><ele>141.0</ele><time>2026-04-25T09:08:05.788Z</time></trkpt><trkpt lat="44.2607984" lon="11.7131162"><ele>141.0</ele><time>2026-04-25T09:08:08.771Z</time></trkpt><trkpt lat="44.2607523" lon="11.7131948"><ele>141.0</ele><time>2026-04-25T09:08:11.819Z</time></trkpt><trkpt lat="44.2606943" lon="11.7132679"><ele>141.0</ele><time>2026-04-25T09:08:14.772Z</time></trkpt><trkpt lat="44.2606434" lon="11.7133338"><ele>141.0</ele><time>2026-04-25T09:08:17.817Z</time></trkpt><trkpt lat="44.2605921" lon="11.713406"><ele>141.0</ele><time>2026-04-25T09:08:20.792Z</time></trkpt><trkpt lat="44.2605326" lon="11.7134929"><ele>141.0</ele><time>2026-04-25T09:08:23.815Z</time></trkpt><trkpt lat="44.2604753" lon="11.7135697"><ele>144.16666666666666</ele><time>2026-04-25T09:08:26.772Z</time></trkpt><trkpt lat="44.2604166" lon="11.7136349"><ele>147.33333333333334</ele><time>2026-04-25T09:08:29.771Z</time></trkpt><trkpt lat="44.2603574" lon="11.7137053"><ele>150.5</ele><time>2026-04-25T09:08:32.786Z</time></trkpt><trkpt lat="44.2603009" lon="11.713772"><ele>153.66666666666669</ele><time>2026-04-25T09:08:35.855Z</time></trkpt><trkpt lat="44.2602442" lon="11.7138462"><ele>156.83333333333334</ele><time>2026-04-25T09:08:38.772Z</time></trkpt><trkpt lat="44.2601623" lon="11.7139019"><ele>160.0</ele><time>2026-04-25T09:08:42.374Z</time></trkpt><trkpt lat="44.2600993" lon="11.7139287"><ele>160.0</ele><time>2026-04-25T09:08:44.772Z</time></trkpt><trkpt lat="44.2600258" lon="11.713955"><ele>160.0</ele><time>2026-04-25T09:08:47.771Z</time></trkpt><trkpt lat="44.2599479" lon="11.7139604"><ele>160.0</ele><time>2026-04-25T09:08:50.78Z</time></trkpt><trkpt lat="44.2598806" lon="11.7139403"><ele>160.0</ele><time>2026-04-25T09:08:53.772Z</time></trkpt><trkpt lat="44.259805" lon="11.7139296"><ele>160.0</ele><time>2026-04-25T09:08:57.772Z</time></trkpt><trkpt lat="44.2597292" lon="11.7139016"><ele>160.0</ele><time>2026-04-25T09:09:02.668Z</time></trkpt><trkpt lat="44.2596644" lon="11.7138839"><ele>160.0</ele><time>2026-04-25T09:09:05.772Z</time></trkpt><trkpt lat="44.2595958" lon="11.7138523"><ele>162.28571428571428</ele><time>2026-04-25T09:09:09.854Z</time></trkpt><trkpt lat="44.2595415" lon="11.7138078"><ele>164.57142857142858</ele><time>2026-04-25T09:09:13.784Z</time></trkpt><trkpt lat="44.2594736" lon="11.7137672"><ele>166.85714285714286</ele><time>2026-04-25T09:09:17.772Z</time></trkpt><trkpt lat="44.2593946" lon="11.7137362"><ele>169.14285714285714</ele><time>2026-04-25T09:09:21.772Z</time></trkpt><trkpt lat="44.259318" lon="11.7137156"><ele>171.42857142857142</ele><time>2026-04-25T09:09:25.771Z</time></trkpt><trkpt lat="44.2592519" lon="11.7137117"><ele>173.71428571428572</ele><time>2026-04-25T09:09:28.778Z</time></trkpt><trkpt lat="44.259183" lon="11.7137074"><ele>176.0</ele><time>2026-04-25T09:09:31.803Z</time></trkpt><trkpt lat="44.259121" lon="11.7136839"><ele>176.0</ele><time>2026-04-25T09:09:34.772Z</time></trkpt><trkpt lat="44.2590437" lon="11.7136649"><ele>176.0</ele><time>2026-04-25T09:09:38.771Z</time></trkpt><trkpt lat="44.2589691" lon="11.7136497"><ele>176.0</ele><time>2026-04-25T09:09:42.775Z</time></trkpt><trkpt lat="44.2589035" lon="11.7136472"><ele>176.0</ele><time>2026-04-25T09:09:45.771Z</time></trkpt><trkpt lat="44.2588373" lon="11.7136512"><ele>176.0</ele><time>2026-04-25T09:09:48.772Z</time></trkpt><trkpt lat="44.2587689" lon="11.713649"><ele>176.0</ele><time>2026-04-25T09:09:52.772Z</time></trkpt><trkpt lat="44.258695" lon="11.7136335"><ele>176.0</ele><time>2026-04-25T09:09:56.771Z</time></trkpt><trkpt lat="44.2586202" lon="11.7135893"><ele>177.0</ele><time>2026-04-25T09:10:00.852Z</time></trkpt><trkpt lat="44.2585668" lon="11.7135192"><ele>178.0</ele><time>2026-04-25T09:10:03.771Z</time></trkpt><trkpt lat="44.2585289" lon="11.7134355"><ele>179.0</ele><time>2026-04-25T09:10:06.771Z</time></trkpt><trkpt lat="44.2585119" lon="11.7133438"><ele>180.0</ele><time>2026-04-25T09:10:09.815Z</time></trkpt><trkpt lat="44.2585066" lon="11.7132361"><ele>181.0</ele><time>2026-04-25T09:10:12.771Z</time></trkpt><trkpt lat="44.2585172" lon="11.7131461"><ele>182.0</ele><time>2026-04-25T09:10:15.769Z</time></trkpt><trkpt lat="44.2585418" lon="11.7130318"><ele>183.0</ele><time>2026-04-25T09:10:19.786Z</time></trkpt><trkpt lat="44.2585655" lon="11.7129489"><ele>183.0</ele><time>2026-04-25T09:10:22.772Z</time></trkpt><trkpt lat="44.2585697" lon="11.7128386"><ele>183.0</ele><time>2026-04-25T09:10:26.772Z</time></trkpt><trkpt lat="44.2585375" lon="11.7127618"><ele>183.0</ele><time>2026-04-25T09:10:29.774Z</time></trkpt><trkpt lat="44.258473" lon="11.7127142"><ele>183.0</ele><time>2026-04-25T09:10:32.771Z</time></trkpt><trkpt lat="44.2583976" lon="11.7127235"><ele>183.0</ele><time>2026-04-25T09:10:35.771Z</time></trkpt><trkpt lat="44.2583337" lon="11.7127728"><ele>183.0</ele><time>2026-04-25T09:10:38.787Z</time></trkpt><trkpt lat="44.2582927" lon="11.7128588"><ele>183.0</ele><time>2026-04-25T09:10:41.772Z</time></trkpt><trkpt lat="44.258269" lon="11.7129473"><ele>183.0</ele><time>2026-04-25T09:10:44.771Z</time></trkpt><trkpt lat="44.25825" lon="11.7130401"><ele>183.0</ele><time>2026-04-25T09:10:47.772Z</time></trkpt><trkpt lat="44.2582358" lon="11.7131431"><ele>183.0</ele><time>2026-04-25T09:10:50.772Z</time></trkpt><trkpt lat="44.2582334" lon="11.7132523"><ele>183.0</ele><time>2026-04-25T09:10:54.792Z</time></trkpt><trkpt lat="44.2582352" lon="11.7133447"><ele>183.0</ele><time>2026-04-25T09:10:57.771Z</time></trkpt><trkpt lat="44.2582292" lon="11.7134335"><ele>183.0</ele><time>2026-04-25T09:11:00.77Z</time></trkpt><trkpt lat="44.2582312" lon="11.7135249"><ele>183.0</ele><time>2026-04-25T09:11:03.771Z</time></trkpt><trkpt lat="44.2582439" lon="11.713627"><ele>184.42857142857144</ele><time>2026-04-25T09:11:07.681Z</time></trkpt><trkpt lat="44.2582722" lon="11.7137081"><ele>185.85714285714286</ele><time>2026-04-25T09:11:10.726Z</time></trkpt><trkpt lat="44.2583145" lon="11.7138006"><ele>187.28571428571428</ele><time>2026-04-25T09:11:13.771Z</time></trkpt><trkpt lat="44.2583591" lon="11.7138764"><ele>188.71428571428572</ele><time>2026-04-25T09:11:16.771Z</time></trkpt><trkpt lat="44.2584097" lon="11.7139556"><ele>190.14285714285714</ele><time>2026-04-25T09:11:19.771Z</time></trkpt><trkpt lat="44.2584606" lon="11.7140284"><ele>191.57142857142858</ele><time>2026-04-25T09:11:22.77Z</time></trkpt><trkpt lat="44.2585076" lon="11.7140901"><ele>193.0</ele><time>2026-04-25T09:11:25.771Z</time></trkpt><trkpt lat="44.2585603" lon="11.71418"><ele>193.00000000000003</ele><time>2026-04-25T09:11:29.77Z</time></trkpt><trkpt lat="44.258598" lon="11.7142528"><ele>193.0</ele><time>2026-04-25T09:11:32.77Z</time></trkpt><trkpt lat="44.2586242" lon="11.7143411"><ele>193.0</ele><time>2026-04-25T09:11:35.771Z</time></trkpt><trkpt lat="44.2586409" lon="11.7144343"><ele>193.0</ele><time>2026-04-25T09:11:38.771Z</time></trkpt><trkpt lat="44.2586572" lon="11.7145221"><ele>193.0</ele><time>2026-04-25T09:11:41.77Z</time></trkpt><trkpt lat="44.2586641" lon="11.7146295"><ele>193.00000000000003</ele><time>2026-04-25T09:11:45.77Z</time></trkpt><trkpt lat="44.2586651" lon="11.7147403"><ele>193.0</ele><time>2026-04-25T09:11:49.77Z</time></trkpt><trkpt lat="44.2586654" lon="11.7148554"><ele>194.57142857142858</ele><time>2026-04-25T09:11:53.77Z</time></trkpt><trkpt lat="44.2586621" lon="11.7149742"><ele>196.14285714285714</ele><time>2026-04-25T09:11:57.79Z</time></trkpt><trkpt lat="44.2586579" lon="11.7150742"><ele>197.71428571428572</ele><time>2026-04-25T09:12:00.771Z</time></trkpt><trkpt lat="44.2586547" lon="11.7151635"><ele>199.28571428571428</ele><time>2026-04-25T09:12:03.771Z</time></trkpt><trkpt lat="44.2586472" lon="11.7152808"><ele>200.85714285714286</ele><time>2026-04-25T09:12:07.77Z</time></trkpt><trkpt lat="44.2586384" lon="11.7153731"><ele>202.42857142857144</ele><time>2026-04-25T09:12:10.776Z</time></trkpt><trkpt lat="44.258628" lon="11.7154708"><ele>204.0</ele><time>2026-04-25T09:12:13.725Z</time></trkpt><trkpt lat="44.2586055" lon="11.7155657"><ele>204.14285714285714</ele><time>2026-04-25T09:12:16.771Z</time></trkpt><trkpt lat="44.2585797" lon="11.7156462"><ele>204.28571428571428</ele><time>2026-04-25T09:12:19.77Z</time></trkpt><trkpt lat="44.258528" lon="11.7157413"><ele>204.42857142857144</ele><time>2026-04-25T09:12:23.77Z</time></trkpt><trkpt lat="44.2584831" lon="11.7158049"><ele>204.57142857142856</ele><time>2026-04-25T09:12:26.776Z</time></trkpt><trkpt lat="44.2584325" lon="11.7158682"><ele>204.7142857142857</ele><time>2026-04-25T09:12:29.796Z</time></trkpt><trkpt lat="44.2583772" lon="11.7159214"><ele>204.85714285714286</ele><time>2026-04-25T09:12:32.771Z</time></trkpt><trkpt lat="44.2583229" lon="11.7159712"><ele>205.0</ele><time>2026-04-25T09:12:35.771Z</time></trkpt><trkpt lat="44.2582669" lon="11.7160187"><ele>205.0</ele><time>2026-04-25T09:12:39.772Z</time></trkpt><trkpt lat="44.2581934" lon="11.7160634"><ele>205.0</ele><time>2026-04-25T09:12:43.782Z</time></trkpt><trkpt lat="44.258117" lon="11.7160831"><ele>205.0</ele><time>2026-04-25T09:12:47.77Z</time></trkpt><trkpt lat="44.2580457" lon="11.7160509"><ele>205.0</ele><time>2026-04-25T09:12:51.771Z</time></trkpt><trkpt lat="44.2580264" lon="11.7159649"><ele>205.0</ele><time>2026-04-25T09:12:54.77Z</time></trkpt><trkpt lat="44.258031" lon="11.7158739"><ele>205.0</ele><time>2026-04-25T09:12:57.771Z</time></trkpt><trkpt lat="44.2580337" lon="11.7157672"><ele>205.0</ele><time>2026-04-25T09:13:01.794Z</time></trkpt><trkpt lat="44.2580331" lon="11.7156756"><ele>207.71428571428572</ele><time>2026-04-25T09:13:04.77Z</time></trkpt><trkpt lat="44.2580331" lon="11.7155768"><ele>210.42857142857142</ele><time>2026-04-25T09:13:07.77Z</time></trkpt><trkpt lat="44.2580249" lon="11.7154827"><ele>213.14285714285714</ele><time>2026-04-25T09:13:10.771Z</time></trkpt><trkpt lat="44.2580095" lon="11.7153951"><ele>215.85714285714286</ele><time>2026-04-25T09:13:13.77Z</time></trkpt><trkpt lat="44.2579924" lon="11.7153024"><ele>218.57142857142856</ele><time>2026-04-25T09:13:16.798Z</time></trkpt><trkpt lat="44.2579807" lon="11.715216"><ele>221.28571428571428</ele><time>2026-04-25T09:13:19.77Z</time></trkpt><trkpt lat="44.2579471" lon="11.7151093"><ele>224.0</ele><time>2026-04-25T09:13:23.77Z</time></trkpt><trkpt lat="44.2579175" lon="11.7150308"><ele>224.33333333333334</ele><time>2026-04-25T09:13:26.771Z</time></trkpt><trkpt lat="44.2578801" lon="11.7149532"><ele>224.66666666666669</ele><time>2026-04-25T09:13:29.784Z</time></trkpt><trkpt lat="44.2578382" lon="11.7148562"><ele>225.0</ele><time>2026-04-25T09:13:33.771Z</time></trkpt><trkpt lat="44.2577817" lon="11.714769"><ele>225.33333333333331</ele><time>2026-04-25T09:13:37.77Z</time></trkpt><trkpt lat="44.2577237" lon="11.714684"><ele>225.66666666666666</ele><time>2026-04-25T09:13:41.77Z</time></trkpt><trkpt lat="44.2576737" lon="11.7146247"><ele>226.0</ele><time>2026-04-25T09:13:44.783Z</time></trkpt><trkpt lat="44.257614" lon="11.7145718"><ele>226.0</ele><time>2026-04-25T09:13:47.771Z</time></trkpt><trkpt lat="44.2575612" lon="11.7145067"><ele>226.0</ele><time>2026-04-25T09:13:51.77Z</time></trkpt><trkpt lat="44.2575018" lon="11.714439"><ele>226.0</ele><time>2026-04-25T09:13:55.77Z</time></trkpt><trkpt lat="44.2574443" lon="11.7143716"><ele>226.0</ele><time>2026-04-25T09:13:59.782Z</time></trkpt><trkpt lat="44.2573883" lon="11.7143122"><ele>226.0</ele><time>2026-04-25T09:14:02.771Z</time></trkpt><trkpt lat="44.2573126" lon="11.7142677"><ele>226.0</ele><time>2026-04-25T09:14:06.789Z</time></trkpt><trkpt lat="44.2572466" lon="11.7142324"><ele>226.0</ele><time>2026-04-25T09:14:09.77Z</time></trkpt><trkpt lat="44.2571677" lon="11.7142014"><ele>226.66666666666666</ele><time>2026-04-25T09:14:13.785Z</time></trkpt><trkpt lat="44.257095" lon="11.7141636"><ele>227.33333333333331</ele><time>2026-04-25T09:14:17.771Z</time></trkpt><trkpt lat="44.2570338" lon="11.7141125"><ele>228.0</ele><time>2026-04-25T09:14:22.771Z</time></trkpt><trkpt lat="44.2569566" lon="11.7140932"><ele>228.66666666666669</ele><time>2026-04-25T09:14:47.77Z</time></trkpt><trkpt lat="44.2568804" lon="11.7141111"><ele>229.33333333333334</ele><time>2026-04-25T09:14:50.771Z</time></trkpt><trkpt lat="44.2567987" lon="11.7141068"><ele>230.0</ele><time>2026-04-25T09:14:53.672Z</time></trkpt><trkpt lat="44.2567332" lon="11.7140939"><ele>229.99999999999997</ele><time>2026-04-25T09:14:56.77Z</time></trkpt><trkpt lat="44.2566632" lon="11.7140699"><ele>230.0</ele><time>2026-04-25T09:14:59.778Z</time></trkpt><trkpt lat="44.2565933" lon="11.7140655"><ele>229.99999999999997</ele><time>2026-04-25T09:15:06.771Z</time></trkpt><trkpt lat="44.2565246" lon="11.7140663"><ele>229.99999999999997</ele><time>2026-04-25T09:15:09.77Z</time></trkpt><trkpt lat="44.2564416" lon="11.7140235"><ele>230.0</ele><time>2026-04-25T09:15:12.771Z</time></trkpt><trkpt lat="44.2563847" lon="11.7139834"><ele>229.99999999999997</ele><time>2026-04-25T09:15:14.782Z</time></trkpt><trkpt lat="44.2563131" lon="11.7139517"><ele>229.99999999999997</ele><time>2026-04-25T09:15:16.77Z</time></trkpt><trkpt lat="44.2562464" lon="11.7139037"><ele>226.66666666666669</ele><time>2026-04-25T09:15:18.77Z</time></trkpt><trkpt lat="44.2561825" lon="11.7138367"><ele>223.33333333333334</ele><time>2026-04-25T09:15:20.77Z</time></trkpt><trkpt lat="44.2561425" lon="11.7137626"><ele>220.0</ele><time>2026-04-25T09:15:22.77Z</time></trkpt><trkpt lat="44.2560814" lon="11.7136817"><ele>216.66666666666669</ele><time>2026-04-25T09:15:25.686Z</time></trkpt><trkpt lat="44.2559902" lon="11.7136336"><ele>213.33333333333334</ele><time>2026-04-25T09:15:28.775Z</time></trkpt><trkpt lat="44.2559114" lon="11.7136017"><ele>210.0</ele><time>2026-04-25T09:15:30.771Z</time></trkpt><trkpt lat="44.255844" lon="11.7135795"><ele>210.33333333333334</ele><time>2026-04-25T09:15:32.789Z</time></trkpt><trkpt lat="44.2557656" lon="11.7135608"><ele>210.66666666666669</ele><time>2026-04-25T09:15:34.771Z</time></trkpt><trkpt lat="44.2556881" lon="11.7135223"><ele>211.0</ele><time>2026-04-25T09:15:36.771Z</time></trkpt><trkpt lat="44.2556109" lon="11.7134663"><ele>211.33333333333334</ele><time>2026-04-25T09:15:38.77Z</time></trkpt><trkpt lat="44.2555253" lon="11.7134131"><ele>211.66666666666669</ele><time>2026-04-25T09:15:40.77Z</time></trkpt><trkpt lat="44.2554347" lon="11.7133801"><ele>212.0</ele><time>2026-04-25T09:15:42.771Z</time></trkpt><trkpt lat="44.2553526" lon="11.7133749"><ele>212.00000000000003</ele><time>2026-04-25T09:15:44.77Z</time></trkpt><trkpt lat="44.2552677" lon="11.7133742"><ele>212.0</ele><time>2026-04-25T09:15:46.77Z</time></trkpt><trkpt lat="44.2551673" lon="11.7133742"><ele>212.0</ele><time>2026-04-25T09:15:48.771Z</time></trkpt><trkpt lat="44.255083" lon="11.7133869"><ele>212.0</ele><time>2026-04-25T09:15:50.77Z</time></trkpt><trkpt lat="44.2550021" lon="11.7133983"><ele>212.00000000000003</ele><time>2026-04-25T09:15:53.771Z</time></trkpt><trkpt lat="44.2549362" lon="11.713414"><ele>212.0</ele><time>2026-04-25T09:15:55.77Z</time></trkpt><trkpt lat="44.2548712" lon="11.7134306"><ele>212.00000000000003</ele><time>2026-04-25T09:15:57.77Z</time></trkpt><trkpt lat="44.254798" lon="11.7134421"><ele>212.0</ele><time>2026-04-25T09:16:25.77Z</time></trkpt><trkpt lat="44.2547235" lon="11.7134591"><ele>212.0</ele><time>2026-04-25T09:16:29.769Z</time></trkpt><trkpt lat="44.2546589" lon="11.7135021"><ele>212.0</ele><time>2026-04-25T09:16:31.77Z</time></trkpt><trkpt lat="44.2545628" lon="11.7135616"><ele>212.00000000000003</ele><time>2026-04-25T09:16:33.769Z</time></trkpt><trkpt lat="44.2544627" lon="11.7136122"><ele>212.0</ele><time>2026-04-25T09:16:35.769Z</time></trkpt><trkpt lat="44.2543664" lon="11.7136425"><ele>211.00000000000003</ele><time>2026-04-25T09:16:37.769Z</time></trkpt><trkpt lat="44.2542849" lon="11.7136531"><ele>210.0</ele><time>2026-04-25T09:16:39.769Z</time></trkpt><trkpt lat="44.2542087" lon="11.7136339"><ele>209.0</ele><time>2026-04-25T09:16:41.77Z</time></trkpt><trkpt lat="44.2541321" lon="11.7135753"><ele>208.0</ele><time>2026-04-25T09:16:43.769Z</time></trkpt><trkpt lat="44.254047" lon="11.7135196"><ele>207.00000000000003</ele><time>2026-04-25T09:16:45.77Z</time></trkpt><trkpt lat="44.2539584" lon="11.7134948"><ele>206.0</ele><time>2026-04-25T09:16:47.77Z</time></trkpt><trkpt lat="44.2538659" lon="11.7135052"><ele>206.00000000000003</ele><time>2026-04-25T09:16:49.769Z</time></trkpt><trkpt lat="44.2537794" lon="11.7135562"><ele>206.0</ele><time>2026-04-25T09:16:51.769Z</time></trkpt><trkpt lat="44.2537069" lon="11.7136047"><ele>206.0</ele><time>2026-04-25T09:16:53.769Z</time></trkpt><trkpt lat="44.2536541" lon="11.713685"><ele>206.0</ele><time>2026-04-25T09:16:55.77Z</time></trkpt><trkpt lat="44.2536081" lon="11.7137817"><ele>206.00000000000003</ele><time>2026-04-25T09:16:57.769Z</time></trkpt><trkpt lat="44.2535688" lon="11.713888"><ele>206.0</ele><time>2026-04-25T09:16:59.769Z</time></trkpt><trkpt lat="44.2535303" lon="11.7140041"><ele>202.4</ele><time>2026-04-25T09:17:01.77Z</time></trkpt><trkpt lat="44.2534975" lon="11.7141267"><ele>198.8</ele><time>2026-04-25T09:17:03.769Z</time></trkpt><trkpt lat="44.2534756" lon="11.7142583"><ele>195.20000000000002</ele><time>2026-04-25T09:17:05.769Z</time></trkpt><trkpt lat="44.2534505" lon="11.7143962"><ele>191.60000000000002</ele><time>2026-04-25T09:17:07.77Z</time></trkpt><trkpt lat="44.2534226" lon="11.7145063"><ele>188.0</ele><time>2026-04-25T09:17:09.77Z</time></trkpt><trkpt lat="44.2533741" lon="11.714635"><ele>185.60000000000002</ele><time>2026-04-25T09:17:11.769Z</time></trkpt><trkpt lat="44.2533267" lon="11.7147474"><ele>183.20000000000002</ele><time>2026-04-25T09:17:13.769Z</time></trkpt><trkpt lat="44.2532859" lon="11.7148604"><ele>180.8</ele><time>2026-04-25T09:17:15.769Z</time></trkpt><trkpt lat="44.2532244" lon="11.7149783"><ele>178.4</ele><time>2026-04-25T09:17:17.769Z</time></trkpt><trkpt lat="44.2531612" lon="11.7150665"><ele>176.0</ele><time>2026-04-25T09:17:19.77Z</time></trkpt><trkpt lat="44.2530987" lon="11.7151253"><ele>175.0</ele><time>2026-04-25T09:17:21.77Z</time></trkpt><trkpt lat="44.2530416" lon="11.7151667"><ele>174.0</ele><time>2026-04-25T09:17:23.77Z</time></trkpt><trkpt lat="44.2529621" lon="11.7152116"><ele>173.0</ele><time>2026-04-25T09:17:26.769Z</time></trkpt><trkpt lat="44.2528886" lon="11.7152204"><ele>172.0</ele><time>2026-04-25T09:17:29.77Z</time></trkpt><trkpt lat="44.2528135" lon="11.715215"><ele>171.0</ele><time>2026-04-25T09:17:51.77Z</time></trkpt><trkpt lat="44.2527329" lon="11.7151847"><ele>170.0</ele><time>2026-04-25T09:17:54.769Z</time></trkpt><trkpt lat="44.2526685" lon="11.7151482"><ele>170.0</ele><time>2026-04-25T09:17:56.769Z</time></trkpt><trkpt lat="44.2526117" lon="11.7150996"><ele>170.0</ele><time>2026-04-25T09:17:58.769Z</time></trkpt><trkpt lat="44.2525331" lon="11.7150176"><ele>170.0</ele><time>2026-04-25T09:18:01.77Z</time></trkpt><trkpt lat="44.2524776" lon="11.7149695"><ele>170.0</ele><time>2026-04-25T09:18:03.77Z</time></trkpt><trkpt lat="44.2524206" lon="11.7149256"><ele>170.0</ele><time>2026-04-25T09:18:06.77Z</time></trkpt><trkpt lat="44.2523544" lon="11.7149584"><ele>170.0</ele><time>2026-04-25T09:18:09.769Z</time></trkpt><trkpt lat="44.2523077" lon="11.7150352"><ele>170.0</ele><time>2026-04-25T09:18:13.769Z</time></trkpt><trkpt lat="44.2522872" lon="11.7151452"><ele>170.0</ele><time>2026-04-25T09:18:17.769Z</time></trkpt><trkpt lat="44.2523153" lon="11.7152248"><ele>170.0</ele><time>2026-04-25T09:18:21.77Z</time></trkpt><trkpt lat="44.2523182" lon="11.7153647"><ele>170.0</ele><time>2026-04-25T09:18:24.769Z</time></trkpt><trkpt lat="44.2523134" lon="11.7154546"><ele>170.0</ele><time>2026-04-25T09:18:26.769Z</time></trkpt><trkpt lat="44.25232" lon="11.7155469"><ele>170.0</ele><time>2026-04-25T09:18:28.77Z</time></trkpt><trkpt lat="44.2523295" lon="11.7156426"><ele>170.0</ele><time>2026-04-25T09:18:30.77Z</time></trkpt><trkpt lat="44.2523504" lon="11.7157467"><ele>170.0</ele><time>2026-04-25T09:18:32.77Z</time></trkpt><trkpt lat="44.2523671" lon="11.7158353"><ele>167.83333333333331</ele><time>2026-04-25T09:18:34.769Z</time></trkpt><trkpt lat="44.252395" lon="11.7159201"><ele>165.66666666666666</ele><time>2026-04-25T09:18:36.769Z</time></trkpt><trkpt lat="44.2524235" lon="11.7160195"><ele>163.5</ele><time>2026-04-25T09:18:39.77Z</time></trkpt><trkpt lat="44.2524714" lon="11.7161115"><ele>161.33333333333334</ele><time>2026-04-25T09:18:42.77Z</time></trkpt><trkpt lat="44.2525313" lon="11.7162209"><ele>159.16666666666669</ele><time>2026-04-25T09:18:45.77Z</time></trkpt><trkpt lat="44.2525799" lon="11.7163082"><ele>157.0</ele><time>2026-04-25T09:18:47.77Z</time></trkpt><trkpt lat="44.2526351" lon="11.7163907"><ele>154.66666666666669</ele><time>2026-04-25T09:18:49.769Z</time></trkpt><trkpt lat="44.2526813" lon="11.7164833"><ele>152.33333333333334</ele><time>2026-04-25T09:18:51.77Z</time></trkpt><trkpt lat="44.2527233" lon="11.7165714"><ele>150.0</ele><time>2026-04-25T09:18:53.77Z</time></trkpt><trkpt lat="44.2527664" lon="11.7166605"><ele>147.66666666666666</ele><time>2026-04-25T09:18:55.77Z</time></trkpt><trkpt lat="44.2528185" lon="11.716761"><ele>145.33333333333331</ele><time>2026-04-25T09:18:57.77Z</time></trkpt><trkpt lat="44.2528567" lon="11.7168733"><ele>143.0</ele><time>2026-04-25T09:18:59.769Z</time></trkpt><trkpt lat="44.2528902" lon="11.7169832"><ele>141.83333333333331</ele><time>2026-04-25T09:19:01.769Z</time></trkpt><trkpt lat="44.2529204" lon="11.7170842"><ele>140.66666666666666</ele><time>2026-04-25T09:19:03.769Z</time></trkpt><trkpt lat="44.2529446" lon="11.7172034"><ele>139.5</ele><time>2026-04-25T09:19:05.77Z</time></trkpt><trkpt lat="44.2529695" lon="11.7173149"><ele>138.33333333333334</ele><time>2026-04-25T09:19:07.77Z</time></trkpt><trkpt lat="44.2529845" lon="11.7174509"><ele>137.16666666666669</ele><time>2026-04-25T09:19:09.77Z</time></trkpt><trkpt lat="44.2529905" lon="11.7175465"><ele>136.0</ele><time>2026-04-25T09:19:11.769Z</time></trkpt><trkpt lat="44.2529892" lon="11.7176524"><ele>136.0</ele><time>2026-04-25T09:19:13.77Z</time></trkpt><trkpt lat="44.252998" lon="11.7177718"><ele>136.0</ele><time>2026-04-25T09:19:15.77Z</time></trkpt><trkpt lat="44.2530111" lon="11.7178853"><ele>136.0</ele><time>2026-04-25T09:19:17.769Z</time></trkpt><trkpt lat="44.252992" lon="11.7179921"><ele>136.0</ele><time>2026-04-25T09:19:20.769Z</time></trkpt><trkpt lat="44.2529758" lon="11.7180944"><ele>136.0</ele><time>2026-04-25T09:19:22.77Z</time></trkpt><trkpt lat="44.2529863" lon="11.7182171"><ele>136.0</ele><time>2026-04-25T09:19:24.769Z</time></trkpt><trkpt lat="44.253009" lon="11.7183501"><ele>136.0</ele><time>2026-04-25T09:19:26.77Z</time></trkpt><trkpt lat="44.2530174" lon="11.7184803"><ele>136.0</ele><time>2026-04-25T09:19:28.77Z</time></trkpt><trkpt lat="44.2530204" lon="11.7186092"><ele>136.0</ele><time>2026-04-25T09:19:30.77Z</time></trkpt><trkpt lat="44.2530174" lon="11.7187045"><ele>136.0</ele><time>2026-04-25T09:19:32.77Z</time></trkpt><trkpt lat="44.2530108" lon="11.7188154"><ele>136.0</ele><time>2026-04-25T09:19:34.77Z</time></trkpt><trkpt lat="44.253011" lon="11.7189568"><ele>136.0</ele><time>2026-04-25T09:19:36.77Z</time></trkpt><trkpt lat="44.2530211" lon="11.719128"><ele>135.57142857142856</ele><time>2026-04-25T09:19:38.77Z</time></trkpt><trkpt lat="44.2530302" lon="11.7192168"><ele>135.14285714285714</ele><time>2026-04-25T09:19:39.77Z</time></trkpt><trkpt lat="44.2530377" lon="11.7193121"><ele>134.71428571428572</ele><time>2026-04-25T09:19:40.769Z</time></trkpt><trkpt lat="44.2530456" lon="11.7194144"><ele>134.28571428571428</ele><time>2026-04-25T09:19:41.769Z</time></trkpt><trkpt lat="44.2530574" lon="11.719521"><ele>133.85714285714286</ele><time>2026-04-25T09:19:42.769Z</time></trkpt><trkpt lat="44.2530721" lon="11.7196202"><ele>133.42857142857142</ele><time>2026-04-25T09:19:43.77Z</time></trkpt><trkpt lat="44.2530828" lon="11.7197185"><ele>133.0</ele><time>2026-04-25T09:19:44.769Z</time></trkpt><trkpt lat="44.2530898" lon="11.7198095"><ele>131.6</ele><time>2026-04-25T09:19:45.769Z</time></trkpt><trkpt lat="44.2530954" lon="11.7199648"><ele>130.20000000000002</ele><time>2026-04-25T09:19:47.769Z</time></trkpt><trkpt lat="44.2530475" lon="11.7201124"><ele>128.8</ele><time>2026-04-25T09:19:49.77Z</time></trkpt><trkpt lat="44.2529813" lon="11.7202523"><ele>127.4</ele><time>2026-04-25T09:19:51.77Z</time></trkpt><trkpt lat="44.2529467" lon="11.7203338"><ele>126.0</ele><time>2026-04-25T09:19:52.769Z</time></trkpt><trkpt lat="44.2529075" lon="11.7204183"><ele>125.57142857142857</ele><time>2026-04-25T09:19:53.769Z</time></trkpt><trkpt lat="44.2528703" lon="11.7205008"><ele>125.14285714285714</ele><time>2026-04-25T09:19:54.769Z</time></trkpt><trkpt lat="44.2528405" lon="11.7205911"><ele>124.71428571428572</ele><time>2026-04-25T09:19:55.77Z</time></trkpt><trkpt lat="44.2528111" lon="11.7206872"><ele>124.28571428571429</ele><time>2026-04-25T09:19:56.77Z</time></trkpt><trkpt lat="44.2527812" lon="11.7207728"><ele>123.85714285714286</ele><time>2026-04-25T09:19:57.769Z</time></trkpt><trkpt lat="44.2527452" lon="11.7208577"><ele>123.42857142857144</ele><time>2026-04-25T09:19:58.77Z</time></trkpt><trkpt lat="44.2527058" lon="11.7209408"><ele>123.00000000000001</ele><time>2026-04-25T09:19:59.77Z</time></trkpt><trkpt lat="44.2526673" lon="11.7210236"><ele>123.0</ele><time>2026-04-25T09:20:00.77Z</time></trkpt><trkpt lat="44.2526258" lon="11.7211053"><ele>123.0</ele><time>2026-04-25T09:20:01.77Z</time></trkpt><trkpt lat="44.2525693" lon="11.7211863"><ele>123.0</ele><time>2026-04-25T09:20:02.77Z</time></trkpt><trkpt lat="44.2525178" lon="11.7212609"><ele>123.0</ele><time>2026-04-25T09:20:03.769Z</time></trkpt><trkpt lat="44.2524622" lon="11.7213374"><ele>123.0</ele><time>2026-04-25T09:20:04.769Z</time></trkpt><trkpt lat="44.2524063" lon="11.7214281"><ele>123.0</ele><time>2026-04-25T09:20:05.769Z</time></trkpt><trkpt lat="44.2523518" lon="11.7215163"><ele>123.0</ele><time>2026-04-25T09:20:06.769Z</time></trkpt><trkpt lat="44.2523065" lon="11.7216056"><ele>123.0</ele><time>2026-04-25T09:20:07.77Z</time></trkpt><trkpt lat="44.2522701" lon="11.7217023"><ele>123.0</ele><time>2026-04-25T09:20:08.77Z</time></trkpt><trkpt lat="44.2522446" lon="11.7218043"><ele>123.0</ele><time>2026-04-25T09:20:09.77Z</time></trkpt><trkpt lat="44.2522249" lon="11.7219071"><ele>123.0</ele><time>2026-04-25T09:20:10.769Z</time></trkpt><trkpt lat="44.2522118" lon="11.722009"><ele>123.0</ele><time>2026-04-25T09:20:11.769Z</time></trkpt><trkpt lat="44.2522018" lon="11.7221104"><ele>123.14285714285717</ele><time>2026-04-25T09:20:12.769Z</time></trkpt><trkpt lat="44.2521934" lon="11.7222093"><ele>123.28571428571429</ele><time>2026-04-25T09:20:13.77Z</time></trkpt><trkpt lat="44.252188" lon="11.7223052"><ele>123.42857142857144</ele><time>2026-04-25T09:20:14.769Z</time></trkpt><trkpt lat="44.2521791" lon="11.7224041"><ele>123.57142857142858</ele><time>2026-04-25T09:20:15.769Z</time></trkpt><trkpt lat="44.2521659" lon="11.7224984"><ele>123.71428571428572</ele><time>2026-04-25T09:20:16.769Z</time></trkpt><trkpt lat="44.2521508" lon="11.7226028"><ele>123.85714285714286</ele><time>2026-04-25T09:20:17.769Z</time></trkpt><trkpt lat="44.2521327" lon="11.7227015"><ele>124.0</ele><time>2026-04-25T09:20:18.77Z</time></trkpt><trkpt lat="44.252114" lon="11.722797"><ele>122.83333333333334</ele><time>2026-04-25T09:20:19.769Z</time></trkpt><trkpt lat="44.252084" lon="11.7228929"><ele>121.66666666666667</ele><time>2026-04-25T09:20:20.769Z</time></trkpt><trkpt lat="44.2520451" lon="11.7229921"><ele>120.5</ele><time>2026-04-25T09:20:21.769Z</time></trkpt><trkpt lat="44.252001" lon="11.7230764"><ele>119.33333333333334</ele><time>2026-04-25T09:20:22.769Z</time></trkpt><trkpt lat="44.2519565" lon="11.7231706"><ele>118.16666666666667</ele><time>2026-04-25T09:20:23.769Z</time></trkpt><trkpt lat="44.2519125" lon="11.7232656"><ele>117.0</ele><time>2026-04-25T09:20:24.77Z</time></trkpt><trkpt lat="44.2518681" lon="11.7233714"><ele>117.0</ele><time>2026-04-25T09:20:25.77Z</time></trkpt><trkpt lat="44.2518297" lon="11.723471"><ele>117.0</ele><time>2026-04-25T09:20:26.769Z</time></trkpt><trkpt lat="44.2517937" lon="11.7235712"><ele>117.0</ele><time>2026-04-25T09:20:27.769Z</time></trkpt><trkpt lat="44.2517664" lon="11.7236822"><ele>117.0</ele><time>2026-04-25T09:20:28.77Z</time></trkpt><trkpt lat="44.2517465" lon="11.7237989"><ele>117.0</ele><time>2026-04-25T09:20:29.77Z</time></trkpt><trkpt lat="44.2517276" lon="11.7239132"><ele>117.0</ele><time>2026-04-25T09:20:30.77Z</time></trkpt><trkpt lat="44.2517095" lon="11.7240251"><ele>116.57142857142858</ele><time>2026-04-25T09:20:31.769Z</time></trkpt><trkpt lat="44.25169" lon="11.7241358"><ele>116.14285714285715</ele><time>2026-04-25T09:20:32.769Z</time></trkpt><trkpt lat="44.2516702" lon="11.7242384"><ele>115.71428571428572</ele><time>2026-04-25T09:20:33.77Z</time></trkpt><trkpt lat="44.2516537" lon="11.7243313"><ele>115.28571428571428</ele><time>2026-04-25T09:20:34.77Z</time></trkpt><trkpt lat="44.251635" lon="11.7244198"><ele>114.85714285714285</ele><time>2026-04-25T09:20:35.77Z</time></trkpt><trkpt lat="44.2516194" lon="11.7245131"><ele>114.42857142857142</ele><time>2026-04-25T09:20:36.77Z</time></trkpt><trkpt lat="44.2516109" lon="11.7246096"><ele>114.0</ele><time>2026-04-25T09:20:37.77Z</time></trkpt><trkpt lat="44.2516071" lon="11.7246991"><ele>113.83333333333333</ele><time>2026-04-25T09:20:38.77Z</time></trkpt><trkpt lat="44.25161" lon="11.7247915"><ele>113.66666666666666</ele><time>2026-04-25T09:20:39.769Z</time></trkpt><trkpt lat="44.2516153" lon="11.7248845"><ele>113.5</ele><time>2026-04-25T09:20:40.77Z</time></trkpt><trkpt lat="44.2516233" lon="11.7249771"><ele>113.33333333333333</ele><time>2026-04-25T09:20:41.77Z</time></trkpt><trkpt lat="44.2516459" lon="11.7251425"><ele>113.16666666666666</ele><time>2026-04-25T09:20:43.77Z</time></trkpt><trkpt lat="44.2516834" lon="11.7252851"><ele>113.0</ele><time>2026-04-25T09:20:45.769Z</time></trkpt><trkpt lat="44.2517427" lon="11.7254038"><ele>112.60000000000001</ele><time>2026-04-25T09:20:47.769Z</time></trkpt><trkpt lat="44.2518163" lon="11.7255058"><ele>112.20000000000002</ele><time>2026-04-25T09:20:49.769Z</time></trkpt><trkpt lat="44.2518846" lon="11.7256059"><ele>111.8</ele><time>2026-04-25T09:20:51.769Z</time></trkpt><trkpt lat="44.2519524" lon="11.7257166"><ele>111.4</ele><time>2026-04-25T09:20:53.77Z</time></trkpt><trkpt lat="44.2520029" lon="11.7258277"><ele>111.0</ele><time>2026-04-25T09:20:55.77Z</time></trkpt><trkpt lat="44.2520383" lon="11.7259532"><ele>110.8</ele><time>2026-04-25T09:20:57.77Z</time></trkpt><trkpt lat="44.2520595" lon="11.7260821"><ele>110.6</ele><time>2026-04-25T09:20:59.77Z</time></trkpt><trkpt lat="44.25207" lon="11.7262099"><ele>110.4</ele><time>2026-04-25T09:21:01.769Z</time></trkpt><trkpt lat="44.2520895" lon="11.72635"><ele>110.2</ele><time>2026-04-25T09:21:03.769Z</time></trkpt><trkpt lat="44.252118" lon="11.7264946"><ele>110.0</ele><time>2026-04-25T09:21:05.768Z</time></trkpt><trkpt lat="44.2521496" lon="11.726626"><ele>110.0</ele><time>2026-04-25T09:21:07.769Z</time></trkpt><trkpt lat="44.2521961" lon="11.7267409"><ele>110.0</ele><time>2026-04-25T09:21:09.768Z</time></trkpt><trkpt lat="44.2522562" lon="11.7268502"><ele>110.0</ele><time>2026-04-25T09:21:11.768Z</time></trkpt><trkpt lat="44.2523225" lon="11.7269502"><ele>110.0</ele><time>2026-04-25T09:21:13.768Z</time></trkpt><trkpt lat="44.2523839" lon="11.7270537"><ele>110.0</ele><time>2026-04-25T09:21:15.768Z</time></trkpt><trkpt lat="44.2524413" lon="11.7271743"><ele>109.66666666666666</ele><time>2026-04-25T09:21:17.769Z</time></trkpt><trkpt lat="44.2525023" lon="11.727277"><ele>109.33333333333333</ele><time>2026-04-25T09:21:19.769Z</time></trkpt><trkpt lat="44.2525558" lon="11.7274129"><ele>109.0</ele><time>2026-04-25T09:21:21.769Z</time></trkpt><trkpt lat="44.2525796" lon="11.7274962"><ele>108.66666666666666</ele><time>2026-04-25T09:21:22.768Z</time></trkpt><trkpt lat="44.2526073" lon="11.7275809"><ele>108.33333333333333</ele><time>2026-04-25T09:21:23.768Z</time></trkpt><trkpt lat="44.252636" lon="11.7276683"><ele>108.0</ele><time>2026-04-25T09:21:24.769Z</time></trkpt><trkpt lat="44.2526717" lon="11.7277571"><ele>108.0</ele><time>2026-04-25T09:21:25.769Z</time></trkpt><trkpt lat="44.2527114" lon="11.7278438"><ele>108.0</ele><time>2026-04-25T09:21:26.768Z</time></trkpt><trkpt lat="44.2527519" lon="11.7279267"><ele>108.0</ele><time>2026-04-25T09:21:27.769Z</time></trkpt><trkpt lat="44.2527919" lon="11.7280004"><ele>108.0</ele><time>2026-04-25T09:21:28.769Z</time></trkpt><trkpt lat="44.252831" lon="11.7280759"><ele>108.0</ele><time>2026-04-25T09:21:29.768Z</time></trkpt><trkpt lat="44.2528728" lon="11.7281524"><ele>108.0</ele><time>2026-04-25T09:21:30.768Z</time></trkpt><trkpt lat="44.2529145" lon="11.7282223"><ele>108.0</ele><time>2026-04-25T09:21:31.768Z</time></trkpt><trkpt lat="44.2529578" lon="11.7282916"><ele>108.0</ele><time>2026-04-25T09:21:32.769Z</time></trkpt><trkpt lat="44.2530039" lon="11.7283618"><ele>108.0</ele><time>2026-04-25T09:21:33.768Z</time></trkpt><trkpt lat="44.2530481" lon="11.7284275"><ele>108.0</ele><time>2026-04-25T09:21:34.768Z</time></trkpt><trkpt lat="44.2531327" lon="11.7285498"><ele>108.0</ele><time>2026-04-25T09:21:36.768Z</time></trkpt><trkpt lat="44.2531763" lon="11.7286179"><ele>108.0</ele><time>2026-04-25T09:21:37.769Z</time></trkpt><trkpt lat="44.2532507" lon="11.7287477"><ele>108.0</ele><time>2026-04-25T09:21:39.769Z</time></trkpt><trkpt lat="44.2533164" lon="11.7288766"><ele>106.80000000000001</ele><time>2026-04-25T09:21:41.768Z</time></trkpt><trkpt lat="44.253386" lon="11.7289771"><ele>105.60000000000001</ele><time>2026-04-25T09:21:43.768Z</time></trkpt><trkpt lat="44.2534633" lon="11.7290908"><ele>104.4</ele><time>2026-04-25T09:21:45.769Z</time></trkpt><trkpt lat="44.253543" lon="11.7291811"><ele>103.19999999999999</ele><time>2026-04-25T09:21:47.769Z</time></trkpt><trkpt lat="44.2536366" lon="11.7292415"><ele>102.0</ele><time>2026-04-25T09:21:49.769Z</time></trkpt><trkpt lat="44.2537296" lon="11.7293259"><ele>102.75</ele><time>2026-04-25T09:21:51.769Z</time></trkpt><trkpt lat="44.2538144" lon="11.7294261"><ele>103.5</ele><time>2026-04-25T09:21:53.768Z</time></trkpt><trkpt lat="44.2538991" lon="11.7295458"><ele>104.25</ele><time>2026-04-25T09:21:55.768Z</time></trkpt><trkpt lat="44.2539772" lon="11.7296807"><ele>105.0</ele><time>2026-04-25T09:21:57.768Z</time></trkpt><trkpt lat="44.2540638" lon="11.7298093"><ele>103.6</ele><time>2026-04-25T09:21:59.768Z</time></trkpt><trkpt lat="44.2541483" lon="11.7299331"><ele>102.2</ele><time>2026-04-25T09:22:01.769Z</time></trkpt><trkpt lat="44.2542525" lon="11.7300335"><ele>100.80000000000001</ele><time>2026-04-25T09:22:03.769Z</time></trkpt><trkpt lat="44.2543092" lon="11.7300752"><ele>99.4</ele><time>2026-04-25T09:22:04.769Z</time></trkpt><trkpt lat="44.2543787" lon="11.7302054"><ele>98.0</ele><time>2026-04-25T09:22:06.769Z</time></trkpt><trkpt lat="44.2543886" lon="11.73037"><ele>97.80000000000001</ele><time>2026-04-25T09:22:08.768Z</time></trkpt><trkpt lat="44.2543577" lon="11.7305197"><ele>97.6</ele><time>2026-04-25T09:22:10.768Z</time></trkpt><trkpt lat="44.2543457" lon="11.7306866"><ele>97.4</ele><time>2026-04-25T09:22:12.769Z</time></trkpt><trkpt lat="44.2543626" lon="11.7308583"><ele>97.19999999999999</ele><time>2026-04-25T09:22:14.768Z</time></trkpt><trkpt lat="44.2543787" lon="11.7309452"><ele>97.0</ele><time>2026-04-25T09:22:15.768Z</time></trkpt><trkpt lat="44.2543942" lon="11.7310376"><ele>96.85714285714285</ele><time>2026-04-25T09:22:16.769Z</time></trkpt><trkpt lat="44.2544047" lon="11.7311331"><ele>96.71428571428572</ele><time>2026-04-25T09:22:17.768Z</time></trkpt><trkpt lat="44.2544088" lon="11.7312281"><ele>96.57142857142857</ele><time>2026-04-25T09:22:18.769Z</time></trkpt><trkpt lat="44.2544039" lon="11.7313235"><ele>96.42857142857142</ele><time>2026-04-25T09:22:19.769Z</time></trkpt><trkpt lat="44.2543943" lon="11.7314184"><ele>96.28571428571428</ele><time>2026-04-25T09:22:20.768Z</time></trkpt><trkpt lat="44.2543805" lon="11.7315057"><ele>96.14285714285714</ele><time>2026-04-25T09:22:21.769Z</time></trkpt><trkpt lat="44.254357" lon="11.7315906"><ele>96.0</ele><time>2026-04-25T09:22:22.769Z</time></trkpt><trkpt lat="44.2543409" lon="11.7316845"><ele>95.99999999999999</ele><time>2026-04-25T09:22:23.768Z</time></trkpt><trkpt lat="44.2543303" lon="11.7317839"><ele>96.0</ele><time>2026-04-25T09:22:24.769Z</time></trkpt><trkpt lat="44.2543316" lon="11.7318886"><ele>96.0</ele><time>2026-04-25T09:22:25.769Z</time></trkpt><trkpt lat="44.2543409" lon="11.7319863"><ele>96.0</ele><time>2026-04-25T09:22:26.769Z</time></trkpt><trkpt lat="44.2543566" lon="11.7320831"><ele>96.0</ele><time>2026-04-25T09:22:27.769Z</time></trkpt><trkpt lat="44.2543798" lon="11.7321735"><ele>95.99999999999999</ele><time>2026-04-25T09:22:28.769Z</time></trkpt><trkpt lat="44.2544062" lon="11.7322689"><ele>96.0</ele><time>2026-04-25T09:22:29.769Z</time></trkpt><trkpt lat="44.2544323" lon="11.7323616"><ele>96.19999999999999</ele><time>2026-04-25T09:22:30.769Z</time></trkpt><trkpt lat="44.2544517" lon="11.7324504"><ele>96.39999999999999</ele><time>2026-04-25T09:22:31.768Z</time></trkpt><trkpt lat="44.2544701" lon="11.7325401"><ele>96.6</ele><time>2026-04-25T09:22:32.768Z</time></trkpt><trkpt lat="44.2545116" lon="11.7326985"><ele>96.8</ele><time>2026-04-25T09:22:34.768Z</time></trkpt><trkpt lat="44.2545484" lon="11.7328506"><ele>97.0</ele><time>2026-04-25T09:22:36.768Z</time></trkpt><trkpt lat="44.2545781" lon="11.7330043"><ele>97.0</ele><time>2026-04-25T09:22:38.768Z</time></trkpt><trkpt lat="44.2546145" lon="11.733147"><ele>97.0</ele><time>2026-04-25T09:22:40.768Z</time></trkpt><trkpt lat="44.2546528" lon="11.7332867"><ele>97.0</ele><time>2026-04-25T09:22:42.768Z</time></trkpt><trkpt lat="44.2546984" lon="11.733434"><ele>97.0</ele><time>2026-04-25T09:22:44.768Z</time></trkpt><trkpt lat="44.2547575" lon="11.7335692"><ele>97.0</ele><time>2026-04-25T09:22:46.769Z</time></trkpt><trkpt lat="44.2548113" lon="11.733712"><ele>96.19999999999999</ele><time>2026-04-25T09:22:48.768Z</time></trkpt><trkpt lat="44.2548338" lon="11.7338709"><ele>95.4</ele><time>2026-04-25T09:22:50.769Z</time></trkpt><trkpt lat="44.2548358" lon="11.7340278"><ele>94.6</ele><time>2026-04-25T09:22:52.768Z</time></trkpt><trkpt lat="44.2548345" lon="11.7341843"><ele>93.80000000000001</ele><time>2026-04-25T09:22:54.768Z</time></trkpt><trkpt lat="44.2548345" lon="11.7343313"><ele>93.0</ele><time>2026-04-25T09:22:56.768Z</time></trkpt><trkpt lat="44.2548395" lon="11.7344715"><ele>92.4</ele><time>2026-04-25T09:22:58.768Z</time></trkpt><trkpt lat="44.2548554" lon="11.7346141"><ele>91.80000000000001</ele><time>2026-04-25T09:23:00.768Z</time></trkpt><trkpt lat="44.2548861" lon="11.734767"><ele>91.2</ele><time>2026-04-25T09:23:02.768Z</time></trkpt><trkpt lat="44.2549111" lon="11.734886"><ele>90.6</ele><time>2026-04-25T09:23:04.768Z</time></trkpt><trkpt lat="44.2549425" lon="11.735028"><ele>90.0</ele><time>2026-04-25T09:23:06.768Z</time></trkpt><trkpt lat="44.2549553" lon="11.7351795"><ele>89.75</ele><time>2026-04-25T09:23:08.768Z</time></trkpt><trkpt lat="44.2549526" lon="11.7353483"><ele>89.5</ele><time>2026-04-25T09:23:10.769Z</time></trkpt><trkpt lat="44.2549209" lon="11.7355145"><ele>89.25</ele><time>2026-04-25T09:23:12.768Z</time></trkpt><trkpt lat="44.2548831" lon="11.7356588"><ele>89.0</ele><time>2026-04-25T09:23:14.769Z</time></trkpt><trkpt lat="44.2548668" lon="11.7357944"><ele>89.0</ele><time>2026-04-25T09:23:16.769Z</time></trkpt><trkpt lat="44.2548652" lon="11.735926"><ele>89.0</ele><time>2026-04-25T09:23:18.769Z</time></trkpt><trkpt lat="44.2548852" lon="11.7360695"><ele>89.0</ele><time>2026-04-25T09:23:20.769Z</time></trkpt><trkpt lat="44.2549368" lon="11.7362025"><ele>89.0</ele><time>2026-04-25T09:23:22.769Z</time></trkpt><trkpt lat="44.2549924" lon="11.7363573"><ele>89.0</ele><time>2026-04-25T09:23:24.768Z</time></trkpt><trkpt lat="44.2550337" lon="11.7365123"><ele>88.6</ele><time>2026-04-25T09:23:26.768Z</time></trkpt><trkpt lat="44.2550653" lon="11.7366716"><ele>88.2</ele><time>2026-04-25T09:23:28.769Z</time></trkpt><trkpt lat="44.2550913" lon="11.736834"><ele>87.8</ele><time>2026-04-25T09:23:30.768Z</time></trkpt><trkpt lat="44.2551097" lon="11.7369787"><ele>87.39999999999999</ele><time>2026-04-25T09:23:32.769Z</time></trkpt><trkpt lat="44.2551294" lon="11.7371219"><ele>87.0</ele><time>2026-04-25T09:23:34.769Z</time></trkpt><trkpt lat="44.2551329" lon="11.7372528"><ele>87.19999999999999</ele><time>2026-04-25T09:23:36.768Z</time></trkpt><trkpt lat="44.2551491" lon="11.737384"><ele>87.4</ele><time>2026-04-25T09:23:38.768Z</time></trkpt><trkpt lat="44.2551674" lon="11.7375225"><ele>87.6</ele><time>2026-04-25T09:23:40.769Z</time></trkpt><trkpt lat="44.2551941" lon="11.7376733"><ele>87.80000000000001</ele><time>2026-04-25T09:23:42.768Z</time></trkpt><trkpt lat="44.2552257" lon="11.7378108"><ele>88.0</ele><time>2026-04-25T09:23:44.769Z</time></trkpt><trkpt lat="44.2552761" lon="11.7379242"><ele>88.0</ele><time>2026-04-25T09:23:46.768Z</time></trkpt><trkpt lat="44.2553291" lon="11.73803"><ele>88.0</ele><time>2026-04-25T09:23:48.769Z</time></trkpt><trkpt lat="44.2553833" lon="11.7381515"><ele>88.0</ele><time>2026-04-25T09:23:50.768Z</time></trkpt><trkpt lat="44.255441" lon="11.7382803"><ele>88.0</ele><time>2026-04-25T09:23:52.769Z</time></trkpt><trkpt lat="44.2555027" lon="11.7384053"><ele>88.0</ele><time>2026-04-25T09:23:54.769Z</time></trkpt><trkpt lat="44.2555621" lon="11.7385295"><ele>87.5</ele><time>2026-04-25T09:23:56.769Z</time></trkpt><trkpt lat="44.2556171" lon="11.7386343"><ele>87.0</ele><time>2026-04-25T09:23:58.768Z</time></trkpt><trkpt lat="44.2556667" lon="11.7387228"><ele>86.5</ele><time>2026-04-25T09:24:00.768Z</time></trkpt><trkpt lat="44.2557266" lon="11.738812"><ele>86.0</ele><time>2026-04-25T09:24:02.769Z</time></trkpt><trkpt lat="44.2557835" lon="11.7389038"><ele>85.5</ele><time>2026-04-25T09:24:04.769Z</time></trkpt><trkpt lat="44.2558405" lon="11.7389686"><ele>85.0</ele><time>2026-04-25T09:24:06.768Z</time></trkpt><trkpt lat="44.2559078" lon="11.7390385"><ele>85.0</ele><time>2026-04-25T09:24:09.769Z</time></trkpt><trkpt lat="44.2559514" lon="11.7391088"><ele>85.0</ele><time>2026-04-25T09:24:11.769Z</time></trkpt><trkpt lat="44.256035" lon="11.7391875"><ele>85.0</ele><time>2026-04-25T09:24:14.769Z</time></trkpt><trkpt lat="44.2560692" lon="11.7392646"><ele>85.0</ele><time>2026-04-25T09:24:15.768Z</time></trkpt><trkpt lat="44.2561075" lon="11.7393462"><ele>85.0</ele><time>2026-04-25T09:24:16.768Z</time></trkpt><trkpt lat="44.2561844" lon="11.7394789"><ele>85.0</ele><time>2026-04-25T09:24:18.768Z</time></trkpt><trkpt lat="44.2562475" lon="11.7396055"><ele>85.2</ele><time>2026-04-25T09:24:20.768Z</time></trkpt><trkpt lat="44.2563093" lon="11.7397225"><ele>85.4</ele><time>2026-04-25T09:24:22.769Z</time></trkpt><trkpt lat="44.2563749" lon="11.739818"><ele>85.6</ele><time>2026-04-25T09:24:24.768Z</time></trkpt><trkpt lat="44.2564441" lon="11.7399103"><ele>85.8</ele><time>2026-04-25T09:24:26.769Z</time></trkpt><trkpt lat="44.2565148" lon="11.7400081"><ele>86.0</ele><time>2026-04-25T09:24:28.769Z</time></trkpt><trkpt lat="44.2565994" lon="11.7400959"><ele>86.0</ele><time>2026-04-25T09:24:30.768Z</time></trkpt><trkpt lat="44.2566757" lon="11.7401859"><ele>86.0</ele><time>2026-04-25T09:24:32.768Z</time></trkpt><trkpt lat="44.2567553" lon="11.7402685"><ele>86.0</ele><time>2026-04-25T09:24:34.769Z</time></trkpt><trkpt lat="44.2568381" lon="11.7403419"><ele>86.0</ele><time>2026-04-25T09:24:36.769Z</time></trkpt><trkpt lat="44.2569161" lon="11.7404206"><ele>86.0</ele><time>2026-04-25T09:24:38.768Z</time></trkpt><trkpt lat="44.2569913" lon="11.7404957"><ele>86.0</ele><time>2026-04-25T09:24:40.768Z</time></trkpt><trkpt lat="44.2570654" lon="11.7405575"><ele>86.0</ele><time>2026-04-25T09:24:42.769Z</time></trkpt><trkpt lat="44.2571442" lon="11.7406012"><ele>86.0</ele><time>2026-04-25T09:24:44.769Z</time></trkpt><trkpt lat="44.2572255" lon="11.7406579"><ele>86.0</ele><time>2026-04-25T09:24:46.769Z</time></trkpt><trkpt lat="44.2573015" lon="11.7407011"><ele>86.0</ele><time>2026-04-25T09:24:48.769Z</time></trkpt><trkpt lat="44.2573758" lon="11.7407588"><ele>86.0</ele><time>2026-04-25T09:24:50.768Z</time></trkpt><trkpt lat="44.2574461" lon="11.7408213"><ele>85.83333333333334</ele><time>2026-04-25T09:24:52.769Z</time></trkpt><trkpt lat="44.2575215" lon="11.7408814"><ele>85.66666666666667</ele><time>2026-04-25T09:24:54.769Z</time></trkpt><trkpt lat="44.2575947" lon="11.740933"><ele>85.5</ele><time>2026-04-25T09:24:56.769Z</time></trkpt><trkpt lat="44.2576707" lon="11.7409846"><ele>85.33333333333333</ele><time>2026-04-25T09:24:58.768Z</time></trkpt><trkpt lat="44.2577429" lon="11.74104"><ele>85.16666666666666</ele><time>2026-04-25T09:25:00.768Z</time></trkpt><trkpt lat="44.2577987" lon="11.7410807"><ele>85.0</ele><time>2026-04-25T09:25:02.768Z</time></trkpt><trkpt lat="44.2578597" lon="11.7411264"><ele>85.0</ele><time>2026-04-25T09:25:04.843Z</time></trkpt><trkpt lat="44.2579357" lon="11.7411781"><ele>85.0</ele><time>2026-04-25T09:25:07.769Z</time></trkpt><trkpt lat="44.2580028" lon="11.7412138"><ele>85.0</ele><time>2026-04-25T09:25:10.77Z</time></trkpt><trkpt lat="44.2580713" lon="11.7412349"><ele>85.0</ele><time>2026-04-25T09:25:12.768Z</time></trkpt><trkpt lat="44.2581453" lon="11.7412742"><ele>85.0</ele><time>2026-04-25T09:25:14.769Z</time></trkpt><trkpt lat="44.2582043" lon="11.7413433"><ele>85.0</ele><time>2026-04-25T09:25:16.717Z</time></trkpt><trkpt lat="44.2582334" lon="11.741457"><ele>85.0</ele><time>2026-04-25T09:25:18.768Z</time></trkpt><trkpt lat="44.2582545" lon="11.7415591"><ele>85.0</ele><time>2026-04-25T09:25:20.769Z</time></trkpt><trkpt lat="44.2582673" lon="11.7416684"><ele>85.0</ele><time>2026-04-25T09:25:22.769Z</time></trkpt><trkpt lat="44.2582822" lon="11.7417841"><ele>85.0</ele><time>2026-04-25T09:25:24.769Z</time></trkpt><trkpt lat="44.2582976" lon="11.7418862"><ele>85.0</ele><time>2026-04-25T09:25:26.784Z</time></trkpt><trkpt lat="44.2583256" lon="11.7419907"><ele>85.0</ele><time>2026-04-25T09:25:28.8Z</time></trkpt><trkpt lat="44.2583537" lon="11.7420766"><ele>85.0</ele><time>2026-04-25T09:25:30.769Z</time></trkpt><trkpt lat="44.2583752" lon="11.7421689"><ele>85.0</ele><time>2026-04-25T09:25:32.769Z</time></trkpt><trkpt lat="44.2583948" lon="11.7422655"><ele>85.0</ele><time>2026-04-25T09:25:34.768Z</time></trkpt><trkpt lat="44.2584149" lon="11.7423607"><ele>85.0</ele><time>2026-04-25T09:25:36.769Z</time></trkpt><trkpt lat="44.2584396" lon="11.7424548"><ele>85.0</ele><time>2026-04-25T09:25:38.769Z</time></trkpt><trkpt lat="44.2584578" lon="11.7425512"><ele>85.0</ele><time>2026-04-25T09:25:40.779Z</time></trkpt><trkpt lat="44.2584741" lon="11.7426432"><ele>85.0</ele><time>2026-04-25T09:25:42.768Z</time></trkpt><trkpt lat="44.2584949" lon="11.7427424"><ele>84.85714285714286</ele><time>2026-04-25T09:25:44.769Z</time></trkpt><trkpt lat="44.2585199" lon="11.7428396"><ele>84.71428571428571</ele><time>2026-04-25T09:25:46.703Z</time></trkpt><trkpt lat="44.2585461" lon="11.7429373"><ele>84.57142857142857</ele><time>2026-04-25T09:25:48.769Z</time></trkpt><trkpt lat="44.2585686" lon="11.7430303"><ele>84.42857142857143</ele><time>2026-04-25T09:25:50.769Z</time></trkpt><trkpt lat="44.2585935" lon="11.7431264"><ele>84.28571428571428</ele><time>2026-04-25T09:25:52.786Z</time></trkpt><trkpt lat="44.2586202" lon="11.7432152"><ele>84.14285714285714</ele><time>2026-04-25T09:25:54.769Z</time></trkpt><trkpt lat="44.2586507" lon="11.7432978"><ele>84.0</ele><time>2026-04-25T09:25:56.768Z</time></trkpt><trkpt lat="44.2586822" lon="11.7433808"><ele>84.0</ele><time>2026-04-25T09:25:58.768Z</time></trkpt><trkpt lat="44.2587187" lon="11.7434631"><ele>84.0</ele><time>2026-04-25T09:26:00.768Z</time></trkpt><trkpt lat="44.2587537" lon="11.743549"><ele>84.0</ele><time>2026-04-25T09:26:02.769Z</time></trkpt><trkpt lat="44.2587969" lon="11.7436373"><ele>84.0</ele><time>2026-04-25T09:26:04.769Z</time></trkpt><trkpt lat="44.258839" lon="11.743713"><ele>84.0</ele><time>2026-04-25T09:26:06.769Z</time></trkpt><trkpt lat="44.2588823" lon="11.7437889"><ele>84.0</ele><time>2026-04-25T09:26:08.769Z</time></trkpt><trkpt lat="44.2589278" lon="11.7438616"><ele>84.0</ele><time>2026-04-25T09:26:10.768Z</time></trkpt><trkpt lat="44.2589776" lon="11.7439306"><ele>85.85714285714286</ele><time>2026-04-25T09:26:12.778Z</time></trkpt><trkpt lat="44.2590295" lon="11.7440022"><ele>87.71428571428572</ele><time>2026-04-25T09:26:14.796Z</time></trkpt><trkpt lat="44.2590811" lon="11.7440694"><ele>89.57142857142857</ele><time>2026-04-25T09:26:16.768Z</time></trkpt><trkpt lat="44.2591348" lon="11.7441279"><ele>91.42857142857143</ele><time>2026-04-25T09:26:18.769Z</time></trkpt><trkpt lat="44.2591922" lon="11.7441832"><ele>93.28571428571429</ele><time>2026-04-25T09:26:20.768Z</time></trkpt><trkpt lat="44.259254" lon="11.7442341"><ele>95.14285714285714</ele><time>2026-04-25T09:26:22.768Z</time></trkpt><trkpt lat="44.2593236" lon="11.7442893"><ele>97.0</ele><time>2026-04-25T09:26:24.768Z</time></trkpt><trkpt lat="44.2594077" lon="11.7443458"><ele>97.00000000000001</ele><time>2026-04-25T09:26:27.759Z</time></trkpt><trkpt lat="44.2594764" lon="11.744391"><ele>97.0</ele><time>2026-04-25T09:26:29.801Z</time></trkpt><trkpt lat="44.2595487" lon="11.7444341"><ele>97.0</ele><time>2026-04-25T09:26:31.74Z</time></trkpt><trkpt lat="44.259626" lon="11.7444821"><ele>97.0</ele><time>2026-04-25T09:26:33.768Z</time></trkpt><trkpt lat="44.2597094" lon="11.7445218"><ele>97.00000000000001</ele><time>2026-04-25T09:26:35.874Z</time></trkpt><trkpt lat="44.2598037" lon="11.7445757"><ele>97.0</ele><time>2026-04-25T09:26:38.37Z</time></trkpt><trkpt lat="44.2599059" lon="11.7446381"><ele>97.0</ele><time>2026-04-25T09:26:40.767Z</time></trkpt><trkpt lat="44.2599817" lon="11.7446931"><ele>97.0</ele><time>2026-04-25T09:26:42.767Z</time></trkpt><trkpt lat="44.260069" lon="11.7447427"><ele>97.0</ele><time>2026-04-25T09:26:44.768Z</time></trkpt><trkpt lat="44.2601571" lon="11.7447936"><ele>97.0</ele><time>2026-04-25T09:26:46.767Z</time></trkpt><trkpt lat="44.2602464" lon="11.7448564"><ele>97.0</ele><time>2026-04-25T09:26:48.768Z</time></trkpt><trkpt lat="44.2603251" lon="11.7449068"><ele>97.0</ele><time>2026-04-25T09:26:50.768Z</time></trkpt><trkpt lat="44.260411" lon="11.7449522"><ele>97.0</ele><time>2026-04-25T09:26:52.768Z</time></trkpt><trkpt lat="44.2605089" lon="11.7450028"><ele>97.0</ele><time>2026-04-25T09:26:54.767Z</time></trkpt><trkpt lat="44.2606058" lon="11.7450614"><ele>97.0</ele><time>2026-04-25T09:26:56.767Z</time></trkpt><trkpt lat="44.2607028" lon="11.7451187"><ele>97.0</ele><time>2026-04-25T09:26:58.767Z</time></trkpt><trkpt lat="44.2607983" lon="11.7451827"><ele>96.39999999999999</ele><time>2026-04-25T09:27:00.767Z</time></trkpt><trkpt lat="44.2608952" lon="11.7452393"><ele>95.8</ele><time>2026-04-25T09:27:02.768Z</time></trkpt><trkpt lat="44.260992" lon="11.7452964"><ele>95.2</ele><time>2026-04-25T09:27:04.767Z</time></trkpt><trkpt lat="44.2610925" lon="11.7453627"><ele>94.6</ele><time>2026-04-25T09:27:06.768Z</time></trkpt><trkpt lat="44.2611934" lon="11.7454355"><ele>94.0</ele><time>2026-04-25T09:27:08.768Z</time></trkpt><trkpt lat="44.2612912" lon="11.7455177"><ele>94.0</ele><time>2026-04-25T09:27:10.767Z</time></trkpt><trkpt lat="44.2613887" lon="11.7455961"><ele>94.0</ele><time>2026-04-25T09:27:12.768Z</time></trkpt><trkpt lat="44.2614853" lon="11.7456775"><ele>94.0</ele><time>2026-04-25T09:27:14.768Z</time></trkpt><trkpt lat="44.2615918" lon="11.7457632"><ele>94.0</ele><time>2026-04-25T09:27:16.767Z</time></trkpt><trkpt lat="44.26169" lon="11.7458477"><ele>94.0</ele><time>2026-04-25T09:27:18.767Z</time></trkpt><trkpt lat="44.2617865" lon="11.7459407"><ele>94.0</ele><time>2026-04-25T09:27:20.768Z</time></trkpt><trkpt lat="44.2618793" lon="11.7460316"><ele>94.0</ele><time>2026-04-25T09:27:22.767Z</time></trkpt><trkpt lat="44.2619846" lon="11.7461227"><ele>94.0</ele><time>2026-04-25T09:27:24.768Z</time></trkpt><trkpt lat="44.2620903" lon="11.7462104"><ele>94.0</ele><time>2026-04-25T09:27:26.767Z</time></trkpt><trkpt lat="44.2621932" lon="11.7462936"><ele>94.0</ele><time>2026-04-25T09:27:28.768Z</time></trkpt><trkpt lat="44.2622992" lon="11.7463803"><ele>94.0</ele><time>2026-04-25T09:27:30.768Z</time></trkpt><trkpt lat="44.262404" lon="11.7464589"><ele>94.0</ele><time>2026-04-25T09:27:32.767Z</time></trkpt><trkpt lat="44.2625051" lon="11.746547"><ele>93.71428571428571</ele><time>2026-04-25T09:27:34.767Z</time></trkpt><trkpt lat="44.262566" lon="11.7465899"><ele>93.42857142857142</ele><time>2026-04-25T09:27:35.768Z</time></trkpt><trkpt lat="44.2626222" lon="11.7466379"><ele>93.14285714285714</ele><time>2026-04-25T09:27:36.767Z</time></trkpt><trkpt lat="44.262677" lon="11.74669"><ele>92.85714285714286</ele><time>2026-04-25T09:27:37.768Z</time></trkpt><trkpt lat="44.2627299" lon="11.7467411"><ele>92.57142857142857</ele><time>2026-04-25T09:27:38.767Z</time></trkpt><trkpt lat="44.2628322" lon="11.7468204"><ele>92.28571428571429</ele><time>2026-04-25T09:27:40.768Z</time></trkpt><trkpt lat="44.262887" lon="11.7468668"><ele>92.0</ele><time>2026-04-25T09:27:41.767Z</time></trkpt><trkpt lat="44.2629942" lon="11.746956"><ele>92.0</ele><time>2026-04-25T09:27:43.768Z</time></trkpt><trkpt lat="44.2630509" lon="11.7470001"><ele>92.0</ele><time>2026-04-25T09:27:44.768Z</time></trkpt><trkpt lat="44.263106" lon="11.7470459"><ele>92.0</ele><time>2026-04-25T09:27:45.767Z</time></trkpt><trkpt lat="44.263164" lon="11.7470973"><ele>92.0</ele><time>2026-04-25T09:27:46.767Z</time></trkpt><trkpt lat="44.2632218" lon="11.7471462"><ele>92.0</ele><time>2026-04-25T09:27:47.767Z</time></trkpt><trkpt lat="44.2632804" lon="11.7471911"><ele>92.0</ele><time>2026-04-25T09:27:48.768Z</time></trkpt><trkpt lat="44.2633381" lon="11.7472378"><ele>92.0</ele><time>2026-04-25T09:27:49.768Z</time></trkpt><trkpt lat="44.2633929" lon="11.7472823"><ele>91.6</ele><time>2026-04-25T09:27:50.768Z</time></trkpt><trkpt lat="44.2634506" lon="11.7473304"><ele>91.19999999999999</ele><time>2026-04-25T09:27:51.768Z</time></trkpt><trkpt lat="44.2635061" lon="11.7473766"><ele>90.8</ele><time>2026-04-25T09:27:52.768Z</time></trkpt><trkpt lat="44.2636069" lon="11.7474758"><ele>90.4</ele><time>2026-04-25T09:27:54.767Z</time></trkpt><trkpt lat="44.2637147" lon="11.7475613"><ele>90.0</ele><time>2026-04-25T09:27:56.767Z</time></trkpt><trkpt lat="44.2638247" lon="11.7476525"><ele>90.0</ele><time>2026-04-25T09:27:58.768Z</time></trkpt><trkpt lat="44.2638833" lon="11.747695"><ele>90.0</ele><time>2026-04-25T09:27:59.768Z</time></trkpt><trkpt lat="44.2639404" lon="11.7477356"><ele>90.0</ele><time>2026-04-25T09:28:00.768Z</time></trkpt><trkpt lat="44.2639977" lon="11.7477752"><ele>90.0</ele><time>2026-04-25T09:28:01.768Z</time></trkpt><trkpt lat="44.264058" lon="11.7478092"><ele>90.0</ele><time>2026-04-25T09:28:02.768Z</time></trkpt><trkpt lat="44.2641208" lon="11.7478266"><ele>90.0</ele><time>2026-04-25T09:28:03.768Z</time></trkpt><trkpt lat="44.2641893" lon="11.7478488"><ele>90.0</ele><time>2026-04-25T09:28:04.768Z</time></trkpt><trkpt lat="44.264255" lon="11.7478739"><ele>90.0</ele><time>2026-04-25T09:28:05.767Z</time></trkpt><trkpt lat="44.2643179" lon="11.7478978"><ele>90.0</ele><time>2026-04-25T09:28:06.768Z</time></trkpt><trkpt lat="44.2643766" lon="11.7479297"><ele>90.0</ele><time>2026-04-25T09:28:07.767Z</time></trkpt><trkpt lat="44.2644352" lon="11.7479637"><ele>90.0</ele><time>2026-04-25T09:28:08.768Z</time></trkpt><trkpt lat="44.2644954" lon="11.7480003"><ele>90.0</ele><time>2026-04-25T09:28:09.767Z</time></trkpt><trkpt lat="44.2645563" lon="11.7480453"><ele>90.0</ele><time>2026-04-25T09:28:10.768Z</time></trkpt><trkpt lat="44.2646097" lon="11.7480934"><ele>90.0</ele><time>2026-04-25T09:28:11.767Z</time></trkpt><trkpt lat="44.26471" lon="11.7481977"><ele>90.0</ele><time>2026-04-25T09:28:13.767Z</time></trkpt><trkpt lat="44.2647611" lon="11.748251"><ele>90.0</ele><time>2026-04-25T09:28:14.767Z</time></trkpt><trkpt lat="44.2648136" lon="11.7483018"><ele>90.0</ele><time>2026-04-25T09:28:15.768Z</time></trkpt><trkpt lat="44.2649173" lon="11.748394"><ele>90.0</ele><time>2026-04-25T09:28:17.768Z</time></trkpt><trkpt lat="44.2649747" lon="11.7484395"><ele>90.0</ele><time>2026-04-25T09:28:18.767Z</time></trkpt><trkpt lat="44.2650309" lon="11.7484867"><ele>90.0</ele><time>2026-04-25T09:28:19.767Z</time></trkpt><trkpt lat="44.2651373" lon="11.74858"><ele>89.6</ele><time>2026-04-25T09:28:21.768Z</time></trkpt><trkpt lat="44.2651891" lon="11.7486326"><ele>89.2</ele><time>2026-04-25T09:28:22.768Z</time></trkpt><trkpt lat="44.2652813" lon="11.7487459"><ele>88.80000000000001</ele><time>2026-04-25T09:28:24.767Z</time></trkpt><trkpt lat="44.2653727" lon="11.7488558"><ele>88.4</ele><time>2026-04-25T09:28:26.767Z</time></trkpt><trkpt lat="44.2654689" lon="11.7489607"><ele>88.0</ele><time>2026-04-25T09:28:28.768Z</time></trkpt><trkpt lat="44.2655462" lon="11.7490875"><ele>88.0</ele><time>2026-04-25T09:28:30.767Z</time></trkpt><trkpt lat="44.2656396" lon="11.7492008"><ele>88.0</ele><time>2026-04-25T09:28:32.768Z</time></trkpt><trkpt lat="44.2657393" lon="11.7493006"><ele>88.0</ele><time>2026-04-25T09:28:34.767Z</time></trkpt><trkpt lat="44.2658414" lon="11.7493887"><ele>88.0</ele><time>2026-04-25T09:28:36.768Z</time></trkpt><trkpt lat="44.2659396" lon="11.7494814"><ele>87.80000000000001</ele><time>2026-04-25T09:28:38.768Z</time></trkpt><trkpt lat="44.2660318" lon="11.7495773"><ele>87.6</ele><time>2026-04-25T09:28:40.767Z</time></trkpt><trkpt lat="44.2661298" lon="11.7496814"><ele>87.4</ele><time>2026-04-25T09:28:42.767Z</time></trkpt><trkpt lat="44.2662377" lon="11.7497749"><ele>87.19999999999999</ele><time>2026-04-25T09:28:44.768Z</time></trkpt><trkpt lat="44.2662936" lon="11.7498188"><ele>87.0</ele><time>2026-04-25T09:28:45.768Z</time></trkpt><trkpt lat="44.2663482" lon="11.7498668"><ele>87.0</ele><time>2026-04-25T09:28:46.767Z</time></trkpt><trkpt lat="44.2664058" lon="11.7499177"><ele>87.0</ele><time>2026-04-25T09:28:47.767Z</time></trkpt><trkpt lat="44.2664611" lon="11.7499696"><ele>87.0</ele><time>2026-04-25T09:28:48.768Z</time></trkpt><trkpt lat="44.2665573" lon="11.7500516"><ele>87.0</ele><time>2026-04-25T09:28:50.768Z</time></trkpt><trkpt lat="44.2666596" lon="11.7501474"><ele>87.0</ele><time>2026-04-25T09:28:52.768Z</time></trkpt><trkpt lat="44.2667123" lon="11.7502139"><ele>87.0</ele><time>2026-04-25T09:28:53.768Z</time></trkpt><trkpt lat="44.2667574" lon="11.7502804"><ele>86.66666666666667</ele><time>2026-04-25T09:28:54.768Z</time></trkpt><trkpt lat="44.2667872" lon="11.7503592"><ele>86.33333333333333</ele><time>2026-04-25T09:28:55.767Z</time></trkpt><trkpt lat="44.2668227" lon="11.7505254"><ele>86.0</ele><time>2026-04-25T09:28:57.767Z</time></trkpt><trkpt lat="44.2668166" lon="11.7506138"><ele>85.66666666666666</ele><time>2026-04-25T09:28:58.768Z</time></trkpt><trkpt lat="44.2667988" lon="11.7507032"><ele>85.33333333333333</ele><time>2026-04-25T09:28:59.768Z</time></trkpt><trkpt lat="44.26678" lon="11.7507892"><ele>85.0</ele><time>2026-04-25T09:29:00.768Z</time></trkpt><trkpt lat="44.2667601" lon="11.75088"><ele>85.0</ele><time>2026-04-25T09:29:01.767Z</time></trkpt><trkpt lat="44.2667421" lon="11.7509705"><ele>85.0</ele><time>2026-04-25T09:29:02.767Z</time></trkpt><trkpt lat="44.2667255" lon="11.7510609"><ele>85.0</ele><time>2026-04-25T09:29:03.767Z</time></trkpt><trkpt lat="44.2667071" lon="11.7511452"><ele>85.0</ele><time>2026-04-25T09:29:04.767Z</time></trkpt><trkpt lat="44.2666589" lon="11.751293"><ele>85.0</ele><time>2026-04-25T09:29:06.767Z</time></trkpt><trkpt lat="44.2666042" lon="11.7514371"><ele>85.0</ele><time>2026-04-25T09:29:08.767Z</time></trkpt><trkpt lat="44.266555" lon="11.7515822"><ele>84.66666666666666</ele><time>2026-04-25T09:29:10.768Z</time></trkpt><trkpt lat="44.2665023" lon="11.7517381"><ele>84.33333333333333</ele><time>2026-04-25T09:29:12.767Z</time></trkpt><trkpt lat="44.2664706" lon="11.7518181"><ele>84.0</ele><time>2026-04-25T09:29:13.767Z</time></trkpt><trkpt lat="44.2664403" lon="11.751899"><ele>83.66666666666667</ele><time>2026-04-25T09:29:14.767Z</time></trkpt><trkpt lat="44.2664059" lon="11.7519779"><ele>83.33333333333334</ele><time>2026-04-25T09:29:15.767Z</time></trkpt><trkpt lat="44.2663694" lon="11.7520653"><ele>83.0</ele><time>2026-04-25T09:29:16.768Z</time></trkpt><trkpt lat="44.2663328" lon="11.7521499"><ele>82.42857142857143</ele><time>2026-04-25T09:29:17.767Z</time></trkpt><trkpt lat="44.2662955" lon="11.7522377"><ele>81.85714285714286</ele><time>2026-04-25T09:29:18.768Z</time></trkpt><trkpt lat="44.2662527" lon="11.7523278"><ele>81.28571428571429</ele><time>2026-04-25T09:29:19.767Z</time></trkpt><trkpt lat="44.2662129" lon="11.7524097"><ele>80.71428571428572</ele><time>2026-04-25T09:29:20.767Z</time></trkpt><trkpt lat="44.266172" lon="11.752494"><ele>80.14285714285714</ele><time>2026-04-25T09:29:21.767Z</time></trkpt><trkpt lat="44.2661325" lon="11.752582"><ele>79.57142857142858</ele><time>2026-04-25T09:29:22.768Z</time></trkpt><trkpt lat="44.2660905" lon="11.7526605"><ele>79.0</ele><time>2026-04-25T09:29:23.767Z</time></trkpt><trkpt lat="44.2660505" lon="11.7527403"><ele>79.00000000000001</ele><time>2026-04-25T09:29:24.767Z</time></trkpt><trkpt lat="44.2660113" lon="11.7528231"><ele>79.0</ele><time>2026-04-25T09:29:25.767Z</time></trkpt><trkpt lat="44.2659698" lon="11.7529039"><ele>79.0</ele><time>2026-04-25T09:29:26.768Z</time></trkpt><trkpt lat="44.2659261" lon="11.7529826"><ele>79.0</ele><time>2026-04-25T09:29:27.768Z</time></trkpt><trkpt lat="44.2658828" lon="11.753059"><ele>79.0</ele><time>2026-04-25T09:29:28.767Z</time></trkpt><trkpt lat="44.2658438" lon="11.7531313"><ele>79.00000000000001</ele><time>2026-04-25T09:29:29.768Z</time></trkpt><trkpt lat="44.2658043" lon="11.7532025"><ele>79.0</ele><time>2026-04-25T09:29:30.768Z</time></trkpt><trkpt lat="44.2657348" lon="11.7533471"><ele>79.0</ele><time>2026-04-25T09:29:32.768Z</time></trkpt><trkpt lat="44.2657089" lon="11.7535111"><ele>79.0</ele><time>2026-04-25T09:29:34.767Z</time></trkpt><trkpt lat="44.2657257" lon="11.7535976"><ele>79.0</ele><time>2026-04-25T09:29:35.768Z</time></trkpt><trkpt lat="44.2657987" lon="11.753733"><ele>79.0</ele><time>2026-04-25T09:29:37.768Z</time></trkpt><trkpt lat="44.265893" lon="11.7538399"><ele>79.0</ele><time>2026-04-25T09:29:39.767Z</time></trkpt><trkpt lat="44.2659787" lon="11.7539518"><ele>78.8</ele><time>2026-04-25T09:29:41.767Z</time></trkpt><trkpt lat="44.2660604" lon="11.7540524"><ele>78.60000000000001</ele><time>2026-04-25T09:29:43.768Z</time></trkpt><trkpt lat="44.2661519" lon="11.7541439"><ele>78.4</ele><time>2026-04-25T09:29:45.767Z</time></trkpt><trkpt lat="44.2662329" lon="11.7542387"><ele>78.2</ele><time>2026-04-25T09:29:47.768Z</time></trkpt><trkpt lat="44.2663157" lon="11.7543239"><ele>78.0</ele><time>2026-04-25T09:29:49.768Z</time></trkpt><trkpt lat="44.2664016" lon="11.7543876"><ele>78.2</ele><time>2026-04-25T09:29:51.768Z</time></trkpt><trkpt lat="44.2664974" lon="11.7544635"><ele>78.4</ele><time>2026-04-25T09:29:53.768Z</time></trkpt><trkpt lat="44.2665959" lon="11.754538"><ele>78.60000000000001</ele><time>2026-04-25T09:29:55.768Z</time></trkpt><trkpt lat="44.2667075" lon="11.7546156"><ele>78.8</ele><time>2026-04-25T09:29:57.768Z</time></trkpt><trkpt lat="44.2667636" lon="11.7546597"><ele>79.0</ele><time>2026-04-25T09:29:58.767Z</time></trkpt><trkpt lat="44.2668206" lon="11.7547039"><ele>79.0</ele><time>2026-04-25T09:29:59.768Z</time></trkpt><trkpt lat="44.2669298" lon="11.754788"><ele>79.0</ele><time>2026-04-25T09:30:01.768Z</time></trkpt><trkpt lat="44.2670448" lon="11.7548671"><ele>79.0</ele><time>2026-04-25T09:30:03.768Z</time></trkpt><trkpt lat="44.2671005" lon="11.7549107"><ele>79.0</ele><time>2026-04-25T09:30:04.768Z</time></trkpt><trkpt lat="44.2672149" lon="11.7549811"><ele>79.0</ele><time>2026-04-25T09:30:06.767Z</time></trkpt><trkpt lat="44.2672729" lon="11.7550159"><ele>79.0</ele><time>2026-04-25T09:30:07.768Z</time></trkpt><trkpt lat="44.267381" lon="11.7550976"><ele>79.0</ele><time>2026-04-25T09:30:09.767Z</time></trkpt><trkpt lat="44.2674862" lon="11.7551799"><ele>79.0</ele><time>2026-04-25T09:30:11.767Z</time></trkpt><trkpt lat="44.2675869" lon="11.7552507"><ele>79.0</ele><time>2026-04-25T09:30:13.767Z</time></trkpt><trkpt lat="44.2676883" lon="11.7553084"><ele>79.0</ele><time>2026-04-25T09:30:15.767Z</time></trkpt><trkpt lat="44.2677786" lon="11.7553738"><ele>79.0</ele><time>2026-04-25T09:30:17.767Z</time></trkpt><trkpt lat="44.2678427" lon="11.755465"><ele>79.0</ele><time>2026-04-25T09:30:19.768Z</time></trkpt><trkpt lat="44.2678502" lon="11.7556251"><ele>79.0</ele><time>2026-04-25T09:30:21.767Z</time></trkpt><trkpt lat="44.2678552" lon="11.7557172"><ele>79.0</ele><time>2026-04-25T09:30:22.768Z</time></trkpt><trkpt lat="44.2678617" lon="11.7558086"><ele>79.0</ele><time>2026-04-25T09:30:23.768Z</time></trkpt><trkpt lat="44.267864" lon="11.755898"><ele>79.0</ele><time>2026-04-25T09:30:24.768Z</time></trkpt><trkpt lat="44.2678698" lon="11.7559896"><ele>79.0</ele><time>2026-04-25T09:30:25.767Z</time></trkpt><trkpt lat="44.2678704" lon="11.7560825"><ele>79.0</ele><time>2026-04-25T09:30:26.768Z</time></trkpt><trkpt lat="44.267863" lon="11.7562608"><ele>79.0</ele><time>2026-04-25T09:30:28.767Z</time></trkpt><trkpt lat="44.2678616" lon="11.7563536"><ele>79.0</ele><time>2026-04-25T09:30:29.768Z</time></trkpt><trkpt lat="44.2678595" lon="11.7564503"><ele>79.0</ele><time>2026-04-25T09:30:30.767Z</time></trkpt><trkpt lat="44.2678581" lon="11.7565527"><ele>77.66666666666666</ele><time>2026-04-25T09:30:31.768Z</time></trkpt><trkpt lat="44.2678697" lon="11.7566538"><ele>76.33333333333333</ele><time>2026-04-25T09:30:32.768Z</time></trkpt><trkpt lat="44.2678881" lon="11.7567675"><ele>75.0</ele><time>2026-04-25T09:30:33.767Z</time></trkpt><trkpt lat="44.2678971" lon="11.7568831"><ele>73.66666666666667</ele><time>2026-04-25T09:30:34.767Z</time></trkpt><trkpt lat="44.2679052" lon="11.757002"><ele>72.33333333333334</ele><time>2026-04-25T09:30:35.767Z</time></trkpt><trkpt lat="44.267907" lon="11.7571245"><ele>71.0</ele><time>2026-04-25T09:30:36.767Z</time></trkpt><trkpt lat="44.2679088" lon="11.7572551"><ele>69.39999999999999</ele><time>2026-04-25T09:30:37.767Z</time></trkpt><trkpt lat="44.2679139" lon="11.7573868"><ele>67.8</ele><time>2026-04-25T09:30:38.768Z</time></trkpt><trkpt lat="44.2679155" lon="11.7575115"><ele>66.19999999999999</ele><time>2026-04-25T09:30:39.768Z</time></trkpt><trkpt lat="44.2679159" lon="11.7576414"><ele>64.6</ele><time>2026-04-25T09:30:40.767Z</time></trkpt><trkpt lat="44.2679171" lon="11.7577854"><ele>63.0</ele><time>2026-04-25T09:30:41.767Z</time></trkpt><trkpt lat="44.2679133" lon="11.757929"><ele>62.599999999999994</ele><time>2026-04-25T09:30:42.767Z</time></trkpt><trkpt lat="44.2679063" lon="11.7580732"><ele>62.199999999999996</ele><time>2026-04-25T09:30:43.767Z</time></trkpt><trkpt lat="44.2678972" lon="11.7582197"><ele>61.8</ele><time>2026-04-25T09:30:44.767Z</time></trkpt><trkpt lat="44.2678828" lon="11.7583607"><ele>61.4</ele><time>2026-04-25T09:30:45.768Z</time></trkpt><trkpt lat="44.2678549" lon="11.7584955"><ele>61.0</ele><time>2026-04-25T09:30:46.767Z</time></trkpt><trkpt lat="44.2678029" lon="11.7586314"><ele>60.8</ele><time>2026-04-25T09:30:47.768Z</time></trkpt><trkpt lat="44.2677413" lon="11.758761"><ele>60.599999999999994</ele><time>2026-04-25T09:30:48.768Z</time></trkpt><trkpt lat="44.2676777" lon="11.7588814"><ele>60.4</ele><time>2026-04-25T09:30:49.768Z</time></trkpt><trkpt lat="44.2676192" lon="11.7589953"><ele>60.2</ele><time>2026-04-25T09:30:50.768Z</time></trkpt><trkpt lat="44.2675748" lon="11.75911"><ele>60.0</ele><time>2026-04-25T09:30:51.767Z</time></trkpt><trkpt lat="44.2675468" lon="11.7592354"><ele>59.4</ele><time>2026-04-25T09:30:52.768Z</time></trkpt><trkpt lat="44.2675521" lon="11.7593692"><ele>58.8</ele><time>2026-04-25T09:30:53.767Z</time></trkpt><trkpt lat="44.2675775" lon="11.7595068"><ele>58.2</ele><time>2026-04-25T09:30:54.768Z</time></trkpt><trkpt lat="44.2676085" lon="11.7596374"><ele>57.6</ele><time>2026-04-25T09:30:55.767Z</time></trkpt><trkpt lat="44.2676381" lon="11.759771"><ele>57.0</ele><time>2026-04-25T09:30:56.767Z</time></trkpt><trkpt lat="44.2676678" lon="11.7598998"><ele>57.0</ele><time>2026-04-25T09:30:57.768Z</time></trkpt><trkpt lat="44.2676958" lon="11.760033"><ele>57.0</ele><time>2026-04-25T09:30:58.767Z</time></trkpt><trkpt lat="44.2677217" lon="11.7601651"><ele>57.0</ele><time>2026-04-25T09:30:59.768Z</time></trkpt><trkpt lat="44.2677476" lon="11.7602931"><ele>57.0</ele><time>2026-04-25T09:31:00.768Z</time></trkpt><trkpt lat="44.2677733" lon="11.7604155"><ele>57.0</ele><time>2026-04-25T09:31:01.768Z</time></trkpt><trkpt lat="44.2677963" lon="11.760533"><ele>57.0</ele><time>2026-04-25T09:31:02.767Z</time></trkpt><trkpt lat="44.2678188" lon="11.7606449"><ele>56.99999999999999</ele><time>2026-04-25T09:31:03.768Z</time></trkpt><trkpt lat="44.267837" lon="11.7607501"><ele>57.0</ele><time>2026-04-25T09:31:04.768Z</time></trkpt><trkpt lat="44.267855" lon="11.7608522"><ele>57.0</ele><time>2026-04-25T09:31:05.767Z</time></trkpt><trkpt lat="44.2678709" lon="11.7609482"><ele>56.99999999999999</ele><time>2026-04-25T09:31:06.768Z</time></trkpt><trkpt lat="44.2678929" lon="11.7610372"><ele>57.0</ele><time>2026-04-25T09:31:07.767Z</time></trkpt><trkpt lat="44.2679149" lon="11.7611219"><ele>57.0</ele><time>2026-04-25T09:31:08.767Z</time></trkpt><trkpt lat="44.267955" lon="11.761286"><ele>58.0</ele><time>2026-04-25T09:31:10.768Z</time></trkpt><trkpt lat="44.2680084" lon="11.7614408"><ele>59.0</ele><time>2026-04-25T09:31:12.768Z</time></trkpt><trkpt lat="44.2680725" lon="11.7615661"><ele>60.0</ele><time>2026-04-25T09:31:14.767Z</time></trkpt><trkpt lat="44.2681494" lon="11.7616867"><ele>61.0</ele><time>2026-04-25T09:31:16.767Z</time></trkpt><trkpt lat="44.2682322" lon="11.7618158"><ele>63.666666666666664</ele><time>2026-04-25T09:31:18.767Z</time></trkpt><trkpt lat="44.2682781" lon="11.7618772"><ele>66.33333333333333</ele><time>2026-04-25T09:31:19.767Z</time></trkpt><trkpt lat="44.2683288" lon="11.7619335"><ele>69.0</ele><time>2026-04-25T09:31:20.767Z</time></trkpt><trkpt lat="44.2684305" lon="11.7620387"><ele>71.66666666666667</ele><time>2026-04-25T09:31:22.767Z</time></trkpt><trkpt lat="44.2684874" lon="11.7620904"><ele>74.33333333333334</ele><time>2026-04-25T09:31:23.767Z</time></trkpt><trkpt lat="44.2685467" lon="11.7621399"><ele>77.0</ele><time>2026-04-25T09:31:24.768Z</time></trkpt><trkpt lat="44.268604" lon="11.762181"><ele>77.0</ele><time>2026-04-25T09:31:25.768Z</time></trkpt><trkpt lat="44.2686608" lon="11.7622206"><ele>77.0</ele><time>2026-04-25T09:31:26.767Z</time></trkpt><trkpt lat="44.2687693" lon="11.7622916"><ele>77.0</ele><time>2026-04-25T09:31:28.767Z</time></trkpt><trkpt lat="44.2688768" lon="11.7623597"><ele>77.0</ele><time>2026-04-25T09:31:30.767Z</time></trkpt><trkpt lat="44.2689736" lon="11.7624273"><ele>77.0</ele><time>2026-04-25T09:31:32.767Z</time></trkpt><trkpt lat="44.2690839" lon="11.7625093"><ele>78.0</ele><time>2026-04-25T09:31:34.768Z</time></trkpt><trkpt lat="44.2691946" lon="11.7625619"><ele>79.0</ele><time>2026-04-25T09:31:36.768Z</time></trkpt><trkpt lat="44.2693151" lon="11.7626221"><ele>80.0</ele><time>2026-04-25T09:31:38.767Z</time></trkpt><trkpt lat="44.2693736" lon="11.7626718"><ele>81.0</ele><time>2026-04-25T09:31:39.767Z</time></trkpt><trkpt lat="44.2694279" lon="11.7627258"><ele>82.0</ele><time>2026-04-25T09:31:40.768Z</time></trkpt><trkpt lat="44.2694839" lon="11.762782"><ele>83.0</ele><time>2026-04-25T09:31:41.767Z</time></trkpt><trkpt lat="44.2695372" lon="11.7628327"><ele>83.0</ele><time>2026-04-25T09:31:42.768Z</time></trkpt><trkpt lat="44.2696307" lon="11.7629281"><ele>83.0</ele><time>2026-04-25T09:31:44.767Z</time></trkpt><trkpt lat="44.2697414" lon="11.7630126"><ele>83.0</ele><time>2026-04-25T09:31:46.767Z</time></trkpt><trkpt lat="44.2698017" lon="11.7630501"><ele>83.0</ele><time>2026-04-25T09:31:47.767Z</time></trkpt><trkpt lat="44.2699116" lon="11.7631211"><ele>83.0</ele><time>2026-04-25T09:31:49.768Z</time></trkpt><trkpt lat="44.2699675" lon="11.7631617"><ele>81.85714285714285</ele><time>2026-04-25T09:31:50.768Z</time></trkpt><trkpt lat="44.2700249" lon="11.7632076"><ele>80.71428571428572</ele><time>2026-04-25T09:31:51.767Z</time></trkpt><trkpt lat="44.2700836" lon="11.7632536"><ele>79.57142857142857</ele><time>2026-04-25T09:31:52.767Z</time></trkpt><trkpt lat="44.2701477" lon="11.7633043"><ele>78.42857142857142</ele><time>2026-04-25T09:31:53.768Z</time></trkpt><trkpt lat="44.2702136" lon="11.7633658"><ele>77.28571428571428</ele><time>2026-04-25T09:31:54.768Z</time></trkpt><trkpt lat="44.2702801" lon="11.7634293"><ele>76.14285714285714</ele><time>2026-04-25T09:31:55.768Z</time></trkpt><trkpt lat="44.2703464" lon="11.7634917"><ele>75.0</ele><time>2026-04-25T09:31:56.767Z</time></trkpt><trkpt lat="44.270414" lon="11.7635489"><ele>75.0</ele><time>2026-04-25T09:31:57.768Z</time></trkpt><trkpt lat="44.2704798" lon="11.7636099"><ele>75.0</ele><time>2026-04-25T09:31:58.768Z</time></trkpt><trkpt lat="44.2705424" lon="11.7636629"><ele>75.0</ele><time>2026-04-25T09:31:59.768Z</time></trkpt><trkpt lat="44.2706076" lon="11.7637102"><ele>75.0</ele><time>2026-04-25T09:32:00.767Z</time></trkpt><trkpt lat="44.2706753" lon="11.7637557"><ele>75.0</ele><time>2026-04-25T09:32:01.768Z</time></trkpt><trkpt lat="44.2707434" lon="11.7637996"><ele>75.0</ele><time>2026-04-25T09:32:02.768Z</time></trkpt><trkpt lat="44.2708206" lon="11.7638438"><ele>73.33333333333333</ele><time>2026-04-25T09:32:03.767Z</time></trkpt><trkpt lat="44.2708986" lon="11.7638839"><ele>71.66666666666667</ele><time>2026-04-25T09:32:04.767Z</time></trkpt><trkpt lat="44.2709759" lon="11.7639193"><ele>70.0</ele><time>2026-04-25T09:32:05.768Z</time></trkpt><trkpt lat="44.2710531" lon="11.7639481"><ele>68.33333333333334</ele><time>2026-04-25T09:32:06.768Z</time></trkpt><trkpt lat="44.2711337" lon="11.7639758"><ele>66.66666666666667</ele><time>2026-04-25T09:32:07.767Z</time></trkpt><trkpt lat="44.2712123" lon="11.7639965"><ele>65.0</ele><time>2026-04-25T09:32:08.766Z</time></trkpt><trkpt lat="44.2712895" lon="11.7640157"><ele>65.0</ele><time>2026-04-25T09:32:09.767Z</time></trkpt><trkpt lat="44.271364" lon="11.7640382"><ele>65.0</ele><time>2026-04-25T09:32:10.767Z</time></trkpt><trkpt lat="44.2714397" lon="11.7640665"><ele>65.0</ele><time>2026-04-25T09:32:11.766Z</time></trkpt><trkpt lat="44.2715171" lon="11.7640904"><ele>65.0</ele><time>2026-04-25T09:32:12.767Z</time></trkpt><trkpt lat="44.2715922" lon="11.7641094"><ele>65.0</ele><time>2026-04-25T09:32:13.766Z</time></trkpt><trkpt lat="44.2716663" lon="11.764127"><ele>65.0</ele><time>2026-04-25T09:32:14.767Z</time></trkpt><trkpt lat="44.271736" lon="11.7641339"><ele>64.00000000000001</ele><time>2026-04-25T09:32:15.767Z</time></trkpt><trkpt lat="44.271809" lon="11.7641497"><ele>63.0</ele><time>2026-04-25T09:32:16.766Z</time></trkpt><trkpt lat="44.2718792" lon="11.7641688"><ele>62.00000000000001</ele><time>2026-04-25T09:32:17.766Z</time></trkpt><trkpt lat="44.2719476" lon="11.7641887"><ele>61.00000000000001</ele><time>2026-04-25T09:32:18.767Z</time></trkpt><trkpt lat="44.2720174" lon="11.7642072"><ele>60.0</ele><time>2026-04-25T09:32:19.767Z</time></trkpt><trkpt lat="44.2720893" lon="11.7642311"><ele>59.00000000000001</ele><time>2026-04-25T09:32:20.766Z</time></trkpt><trkpt lat="44.2721581" lon="11.7642615"><ele>58.00000000000001</ele><time>2026-04-25T09:32:21.767Z</time></trkpt><trkpt lat="44.2722235" lon="11.7643013"><ele>57.71428571428572</ele><time>2026-04-25T09:32:22.767Z</time></trkpt><trkpt lat="44.2722859" lon="11.7643476"><ele>57.42857142857143</ele><time>2026-04-25T09:32:23.767Z</time></trkpt><trkpt lat="44.272342" lon="11.7643948"><ele>57.142857142857146</ele><time>2026-04-25T09:32:24.766Z</time></trkpt><trkpt lat="44.2723977" lon="11.7644471"><ele>56.85714285714286</ele><time>2026-04-25T09:32:25.766Z</time></trkpt><trkpt lat="44.2724509" lon="11.7645008"><ele>56.57142857142857</ele><time>2026-04-25T09:32:26.766Z</time></trkpt><trkpt lat="44.2725006" lon="11.7645605"><ele>56.285714285714285</ele><time>2026-04-25T09:32:27.767Z</time></trkpt><trkpt lat="44.2725497" lon="11.7646213"><ele>56.0</ele><time>2026-04-25T09:32:28.766Z</time></trkpt><trkpt lat="44.2726466" lon="11.7647331"><ele>55.833333333333336</ele><time>2026-04-25T09:32:30.767Z</time></trkpt><trkpt lat="44.2726973" lon="11.7647913"><ele>55.66666666666667</ele><time>2026-04-25T09:32:31.766Z</time></trkpt><trkpt lat="44.2727447" lon="11.7648524"><ele>55.5</ele><time>2026-04-25T09:32:32.766Z</time></trkpt><trkpt lat="44.2728412" lon="11.7649677"><ele>55.33333333333333</ele><time>2026-04-25T09:32:34.767Z</time></trkpt><trkpt lat="44.2728908" lon="11.7650253"><ele>55.166666666666664</ele><time>2026-04-25T09:32:35.767Z</time></trkpt><trkpt lat="44.2729883" lon="11.7651393"><ele>55.0</ele><time>2026-04-25T09:32:37.766Z</time></trkpt><trkpt lat="44.273042" lon="11.765195"><ele>55.0</ele><time>2026-04-25T09:32:38.767Z</time></trkpt><trkpt lat="44.2731421" lon="11.7653045"><ele>55.0</ele><time>2026-04-25T09:32:40.766Z</time></trkpt><trkpt lat="44.2731933" lon="11.7653565"><ele>55.0</ele><time>2026-04-25T09:32:41.766Z</time></trkpt><trkpt lat="44.2732896" lon="11.7654637"><ele>55.0</ele><time>2026-04-25T09:32:43.767Z</time></trkpt><trkpt lat="44.273384" lon="11.7655739"><ele>55.0</ele><time>2026-04-25T09:32:45.767Z</time></trkpt><trkpt lat="44.2734599" lon="11.7657089"><ele>55.0</ele><time>2026-04-25T09:32:47.767Z</time></trkpt><trkpt lat="44.2734819" lon="11.7657931"><ele>55.0</ele><time>2026-04-25T09:32:48.767Z</time></trkpt><trkpt lat="44.2734986" lon="11.7659694"><ele>55.0</ele><time>2026-04-25T09:32:50.767Z</time></trkpt><trkpt lat="44.2734845" lon="11.7661386"><ele>55.0</ele><time>2026-04-25T09:32:52.766Z</time></trkpt><trkpt lat="44.2734644" lon="11.7663013"><ele>55.0</ele><time>2026-04-25T09:32:54.767Z</time></trkpt><trkpt lat="44.2734572" lon="11.7664561"><ele>55.4</ele><time>2026-04-25T09:32:56.766Z</time></trkpt><trkpt lat="44.2734611" lon="11.7666137"><ele>55.8</ele><time>2026-04-25T09:32:58.767Z</time></trkpt><trkpt lat="44.2734941" lon="11.7667595"><ele>56.2</ele><time>2026-04-25T09:33:00.767Z</time></trkpt><trkpt lat="44.2735545" lon="11.7668844"><ele>56.6</ele><time>2026-04-25T09:33:02.767Z</time></trkpt><trkpt lat="44.2736318" lon="11.7669893"><ele>57.0</ele><time>2026-04-25T09:33:04.766Z</time></trkpt><trkpt lat="44.2737101" lon="11.7670959"><ele>57.2</ele><time>2026-04-25T09:33:06.767Z</time></trkpt><trkpt lat="44.2737873" lon="11.7671975"><ele>57.400000000000006</ele><time>2026-04-25T09:33:08.766Z</time></trkpt><trkpt lat="44.2738603" lon="11.7672893"><ele>57.599999999999994</ele><time>2026-04-25T09:33:10.766Z</time></trkpt><trkpt lat="44.2739318" lon="11.7673834"><ele>57.8</ele><time>2026-04-25T09:33:12.766Z</time></trkpt><trkpt lat="44.2740098" lon="11.7674883"><ele>58.0</ele><time>2026-04-25T09:33:14.766Z</time></trkpt><trkpt lat="44.2740916" lon="11.7675827"><ele>58.0</ele><time>2026-04-25T09:33:16.766Z</time></trkpt><trkpt lat="44.2741736" lon="11.7676767"><ele>58.0</ele><time>2026-04-25T09:33:18.767Z</time></trkpt><trkpt lat="44.2742541" lon="11.7677724"><ele>58.0</ele><time>2026-04-25T09:33:20.766Z</time></trkpt><trkpt lat="44.2743389" lon="11.7678546"><ele>58.0</ele><time>2026-04-25T09:33:22.766Z</time></trkpt><trkpt lat="44.2744203" lon="11.7679363"><ele>58.0</ele><time>2026-04-25T09:33:24.767Z</time></trkpt><trkpt lat="44.2744995" lon="11.7680195"><ele>58.83333333333333</ele><time>2026-04-25T09:33:26.767Z</time></trkpt><trkpt lat="44.2745673" lon="11.7680961"><ele>59.666666666666664</ele><time>2026-04-25T09:33:28.767Z</time></trkpt><trkpt lat="44.2746352" lon="11.7681628"><ele>60.5</ele><time>2026-04-25T09:33:30.766Z</time></trkpt><trkpt lat="44.2747027" lon="11.768233"><ele>61.33333333333333</ele><time>2026-04-25T09:33:32.766Z</time></trkpt><trkpt lat="44.2747709" lon="11.7683001"><ele>62.166666666666664</ele><time>2026-04-25T09:33:34.767Z</time></trkpt><trkpt lat="44.2748343" lon="11.7683645"><ele>63.0</ele><time>2026-04-25T09:33:36.766Z</time></trkpt><trkpt lat="44.2749104" lon="11.7684412"><ele>63.0</ele><time>2026-04-25T09:33:38.766Z</time></trkpt><trkpt lat="44.2750039" lon="11.7684992"><ele>63.0</ele><time>2026-04-25T09:33:40.767Z</time></trkpt><trkpt lat="44.2751185" lon="11.7685506"><ele>63.0</ele><time>2026-04-25T09:33:42.767Z</time></trkpt><trkpt lat="44.2752412" lon="11.7686033"><ele>63.0</ele><time>2026-04-25T09:33:44.766Z</time></trkpt><trkpt lat="44.2753069" lon="11.7686253"><ele>63.0</ele><time>2026-04-25T09:33:45.767Z</time></trkpt><trkpt lat="44.2754286" lon="11.7686572"><ele>64.0</ele><time>2026-04-25T09:33:47.766Z</time></trkpt><trkpt lat="44.2755474" lon="11.7686907"><ele>65.0</ele><time>2026-04-25T09:33:49.767Z</time></trkpt><trkpt lat="44.2756669" lon="11.7687322"><ele>66.0</ele><time>2026-04-25T09:33:51.766Z</time></trkpt><trkpt lat="44.2757805" lon="11.7687941"><ele>67.0</ele><time>2026-04-25T09:33:53.766Z</time></trkpt><trkpt lat="44.2758923" lon="11.7688598"><ele>67.0</ele><time>2026-04-25T09:33:55.767Z</time></trkpt><trkpt lat="44.2759951" lon="11.7689339"><ele>67.0</ele><time>2026-04-25T09:33:57.767Z</time></trkpt><trkpt lat="44.276095" lon="11.7690295"><ele>67.0</ele><time>2026-04-25T09:33:59.766Z</time></trkpt><trkpt lat="44.2761946" lon="11.7691202"><ele>67.0</ele><time>2026-04-25T09:34:01.766Z</time></trkpt><trkpt lat="44.2762478" lon="11.7691675"><ele>67.0</ele><time>2026-04-25T09:34:02.767Z</time></trkpt><trkpt lat="44.276343" lon="11.7692559"><ele>67.4</ele><time>2026-04-25T09:34:04.766Z</time></trkpt><trkpt lat="44.2764388" lon="11.7693346"><ele>67.80000000000001</ele><time>2026-04-25T09:34:06.767Z</time></trkpt><trkpt lat="44.2765254" lon="11.7694182"><ele>68.2</ele><time>2026-04-25T09:34:08.766Z</time></trkpt><trkpt lat="44.2766125" lon="11.7694991"><ele>68.60000000000001</ele><time>2026-04-25T09:34:10.767Z</time></trkpt><trkpt lat="44.2766965" lon="11.7695752"><ele>69.0</ele><time>2026-04-25T09:34:12.767Z</time></trkpt><trkpt lat="44.276784" lon="11.7696489"><ele>69.0</ele><time>2026-04-25T09:34:14.767Z</time></trkpt><trkpt lat="44.2768704" lon="11.7697221"><ele>69.0</ele><time>2026-04-25T09:34:16.766Z</time></trkpt><trkpt lat="44.2769496" lon="11.7698059"><ele>69.0</ele><time>2026-04-25T09:34:18.766Z</time></trkpt><trkpt lat="44.2770305" lon="11.7698947"><ele>69.0</ele><time>2026-04-25T09:34:20.766Z</time></trkpt><trkpt lat="44.2771182" lon="11.7699781"><ele>69.0</ele><time>2026-04-25T09:34:22.767Z</time></trkpt><trkpt lat="44.2772095" lon="11.7700703"><ele>68.75</ele><time>2026-04-25T09:34:24.766Z</time></trkpt><trkpt lat="44.2773048" lon="11.7701795"><ele>68.5</ele><time>2026-04-25T09:34:26.767Z</time></trkpt><trkpt lat="44.2774033" lon="11.7702813"><ele>68.25</ele><time>2026-04-25T09:34:28.766Z</time></trkpt><trkpt lat="44.2775011" lon="11.7703863"><ele>68.0</ele><time>2026-04-25T09:34:30.767Z</time></trkpt><trkpt lat="44.2775964" lon="11.7704889"><ele>68.0</ele><time>2026-04-25T09:34:32.766Z</time></trkpt><trkpt lat="44.2776945" lon="11.7705823"><ele>68.0</ele><time>2026-04-25T09:34:34.767Z</time></trkpt><trkpt lat="44.2777881" lon="11.7706862"><ele>68.0</ele><time>2026-04-25T09:34:36.767Z</time></trkpt><trkpt lat="44.2778774" lon="11.7707815"><ele>68.0</ele><time>2026-04-25T09:34:38.767Z</time></trkpt><trkpt lat="44.2779699" lon="11.7708789"><ele>68.0</ele><time>2026-04-25T09:34:40.767Z</time></trkpt><trkpt lat="44.2780605" lon="11.7709728"><ele>68.0</ele><time>2026-04-25T09:34:42.767Z</time></trkpt><trkpt lat="44.2781525" lon="11.7710662"><ele>68.0</ele><time>2026-04-25T09:34:44.766Z</time></trkpt><trkpt lat="44.2782436" lon="11.7711548"><ele>68.0</ele><time>2026-04-25T09:34:46.766Z</time></trkpt><trkpt lat="44.278341" lon="11.7712405"><ele>68.5</ele><time>2026-04-25T09:34:48.766Z</time></trkpt><trkpt lat="44.2784387" lon="11.7713193"><ele>69.0</ele><time>2026-04-25T09:34:50.767Z</time></trkpt><trkpt lat="44.2785428" lon="11.7713915"><ele>69.5</ele><time>2026-04-25T09:34:52.767Z</time></trkpt><trkpt lat="44.278648" lon="11.7714584"><ele>70.0</ele><time>2026-04-25T09:34:54.767Z</time></trkpt><trkpt lat="44.278761" lon="11.7715286"><ele>70.0</ele><time>2026-04-25T09:34:56.766Z</time></trkpt><trkpt lat="44.2788682" lon="11.7715958"><ele>70.0</ele><time>2026-04-25T09:34:58.767Z</time></trkpt><trkpt lat="44.2789784" lon="11.7716586"><ele>70.0</ele><time>2026-04-25T09:35:00.767Z</time></trkpt><trkpt lat="44.2790926" lon="11.7717184"><ele>70.0</ele><time>2026-04-25T09:35:02.766Z</time></trkpt><trkpt lat="44.2791517" lon="11.7717491"><ele>70.0</ele><time>2026-04-25T09:35:03.767Z</time></trkpt><trkpt lat="44.2792111" lon="11.771787"><ele>69.8</ele><time>2026-04-25T09:35:04.766Z</time></trkpt><trkpt lat="44.27927" lon="11.7718292"><ele>69.6</ele><time>2026-04-25T09:35:05.766Z</time></trkpt><trkpt lat="44.2793728" lon="11.7719208"><ele>69.4</ele><time>2026-04-25T09:35:07.767Z</time></trkpt><trkpt lat="44.2794717" lon="11.7719912"><ele>69.2</ele><time>2026-04-25T09:35:09.766Z</time></trkpt><trkpt lat="44.2795709" lon="11.7720668"><ele>69.0</ele><time>2026-04-25T09:35:11.767Z</time></trkpt><trkpt lat="44.2796747" lon="11.7721465"><ele>69.60000000000001</ele><time>2026-04-25T09:35:13.767Z</time></trkpt><trkpt lat="44.2797756" lon="11.7722166"><ele>70.2</ele><time>2026-04-25T09:35:15.767Z</time></trkpt><trkpt lat="44.2798686" lon="11.7722838"><ele>70.80000000000001</ele><time>2026-04-25T09:35:17.766Z</time></trkpt><trkpt lat="44.2799706" lon="11.7723729"><ele>71.4</ele><time>2026-04-25T09:35:19.767Z</time></trkpt><trkpt lat="44.2800275" lon="11.7724144"><ele>72.0</ele><time>2026-04-25T09:35:20.766Z</time></trkpt><trkpt lat="44.2800832" lon="11.7724565"><ele>72.0</ele><time>2026-04-25T09:35:21.767Z</time></trkpt><trkpt lat="44.2801974" lon="11.7725279"><ele>72.0</ele><time>2026-04-25T09:35:23.767Z</time></trkpt><trkpt lat="44.2802529" lon="11.7725695"><ele>72.0</ele><time>2026-04-25T09:35:24.767Z</time></trkpt><trkpt lat="44.2803078" lon="11.7726151"><ele>72.0</ele><time>2026-04-25T09:35:25.767Z</time></trkpt><trkpt lat="44.2804125" lon="11.7727121"><ele>72.0</ele><time>2026-04-25T09:35:27.767Z</time></trkpt><trkpt lat="44.2804637" lon="11.7727677"><ele>72.0</ele><time>2026-04-25T09:35:28.767Z</time></trkpt><trkpt lat="44.2805157" lon="11.7728209"><ele>72.0</ele><time>2026-04-25T09:35:29.767Z</time></trkpt><trkpt lat="44.2805694" lon="11.7728674"><ele>72.0</ele><time>2026-04-25T09:35:30.766Z</time></trkpt><trkpt lat="44.2806802" lon="11.7729525"><ele>72.0</ele><time>2026-04-25T09:35:32.767Z</time></trkpt><trkpt lat="44.2807852" lon="11.7730363"><ele>72.0</ele><time>2026-04-25T09:35:34.766Z</time></trkpt><trkpt lat="44.2808933" lon="11.7731155"><ele>72.0</ele><time>2026-04-25T09:35:36.767Z</time></trkpt><trkpt lat="44.2810073" lon="11.7731886"><ele>71.2</ele><time>2026-04-25T09:35:38.766Z</time></trkpt><trkpt lat="44.2810651" lon="11.7732246"><ele>70.4</ele><time>2026-04-25T09:35:39.767Z</time></trkpt><trkpt lat="44.2811804" lon="11.7732981"><ele>69.6</ele><time>2026-04-25T09:35:41.766Z</time></trkpt><trkpt lat="44.2812887" lon="11.7733703"><ele>68.8</ele><time>2026-04-25T09:35:43.767Z</time></trkpt><trkpt lat="44.2813987" lon="11.7734537"><ele>68.0</ele><time>2026-04-25T09:35:45.767Z</time></trkpt><trkpt lat="44.2814582" lon="11.7734926"><ele>68.2</ele><time>2026-04-25T09:35:46.767Z</time></trkpt><trkpt lat="44.2815174" lon="11.7735307"><ele>68.4</ele><time>2026-04-25T09:35:47.767Z</time></trkpt><trkpt lat="44.2815773" lon="11.7735692"><ele>68.60000000000001</ele><time>2026-04-25T09:35:48.766Z</time></trkpt><trkpt lat="44.2816912" lon="11.7736392"><ele>68.8</ele><time>2026-04-25T09:35:50.766Z</time></trkpt><trkpt lat="44.2818015" lon="11.7737081"><ele>69.0</ele><time>2026-04-25T09:35:52.767Z</time></trkpt><trkpt lat="44.2819167" lon="11.7737727"><ele>69.0</ele><time>2026-04-25T09:35:54.766Z</time></trkpt><trkpt lat="44.2819772" lon="11.7737991"><ele>69.0</ele><time>2026-04-25T09:35:55.766Z</time></trkpt><trkpt lat="44.2820379" lon="11.7738246"><ele>69.0</ele><time>2026-04-25T09:35:56.766Z</time></trkpt><trkpt lat="44.2820995" lon="11.7738506"><ele>69.0</ele><time>2026-04-25T09:35:57.767Z</time></trkpt><trkpt lat="44.2821626" lon="11.7738781"><ele>69.0</ele><time>2026-04-25T09:35:58.766Z</time></trkpt><trkpt lat="44.2822227" lon="11.7739083"><ele>69.0</ele><time>2026-04-25T09:35:59.766Z</time></trkpt><trkpt lat="44.282336" lon="11.7739738"><ele>69.0</ele><time>2026-04-25T09:36:01.767Z</time></trkpt><trkpt lat="44.2824486" lon="11.7740556"><ele>69.0</ele><time>2026-04-25T09:36:03.766Z</time></trkpt><trkpt lat="44.2825063" lon="11.7741005"><ele>69.0</ele><time>2026-04-25T09:36:04.767Z</time></trkpt><trkpt lat="44.2825601" lon="11.7741466"><ele>69.0</ele><time>2026-04-25T09:36:05.767Z</time></trkpt><trkpt lat="44.2826603" lon="11.7742289"><ele>69.0</ele><time>2026-04-25T09:36:07.766Z</time></trkpt><trkpt lat="44.2827584" lon="11.7743112"><ele>69.0</ele><time>2026-04-25T09:36:09.767Z</time></trkpt><trkpt lat="44.2828583" lon="11.774402"><ele>69.25</ele><time>2026-04-25T09:36:11.767Z</time></trkpt><trkpt lat="44.282966" lon="11.7744858"><ele>69.5</ele><time>2026-04-25T09:36:13.767Z</time></trkpt><trkpt lat="44.2830705" lon="11.7745729"><ele>69.75</ele><time>2026-04-25T09:36:15.766Z</time></trkpt><trkpt lat="44.2831746" lon="11.7746579"><ele>70.0</ele><time>2026-04-25T09:36:17.767Z</time></trkpt><trkpt lat="44.2832771" lon="11.774742"><ele>69.4</ele><time>2026-04-25T09:36:19.766Z</time></trkpt><trkpt lat="44.2833718" lon="11.7748188"><ele>68.8</ele><time>2026-04-25T09:36:21.766Z</time></trkpt><trkpt lat="44.2834731" lon="11.7748997"><ele>68.2</ele><time>2026-04-25T09:36:23.767Z</time></trkpt><trkpt lat="44.2835815" lon="11.7749798"><ele>67.6</ele><time>2026-04-25T09:36:25.767Z</time></trkpt><trkpt lat="44.283639" lon="11.7750232"><ele>67.0</ele><time>2026-04-25T09:36:26.767Z</time></trkpt><trkpt lat="44.2836963" lon="11.7750668"><ele>67.0</ele><time>2026-04-25T09:36:27.766Z</time></trkpt><trkpt lat="44.2837539" lon="11.7751078"><ele>67.0</ele><time>2026-04-25T09:36:28.766Z</time></trkpt><trkpt lat="44.2838092" lon="11.7751504"><ele>67.0</ele><time>2026-04-25T09:36:29.766Z</time></trkpt><trkpt lat="44.2838632" lon="11.7751995"><ele>67.0</ele><time>2026-04-25T09:36:30.767Z</time></trkpt><trkpt lat="44.2839195" lon="11.7752489"><ele>67.0</ele><time>2026-04-25T09:36:31.767Z</time></trkpt><trkpt lat="44.2839763" lon="11.7752942"><ele>67.0</ele><time>2026-04-25T09:36:32.766Z</time></trkpt><trkpt lat="44.2840306" lon="11.775339"><ele>67.0</ele><time>2026-04-25T09:36:33.766Z</time></trkpt><trkpt lat="44.2840861" lon="11.7753867"><ele>66.85714285714286</ele><time>2026-04-25T09:36:34.766Z</time></trkpt><trkpt lat="44.2841426" lon="11.775434"><ele>66.71428571428571</ele><time>2026-04-25T09:36:35.767Z</time></trkpt><trkpt lat="44.2841986" lon="11.7754789"><ele>66.57142857142857</ele><time>2026-04-25T09:36:36.766Z</time></trkpt><trkpt lat="44.2842547" lon="11.7755237"><ele>66.42857142857143</ele><time>2026-04-25T09:36:37.767Z</time></trkpt><trkpt lat="44.2843137" lon="11.7755701"><ele>66.28571428571429</ele><time>2026-04-25T09:36:38.766Z</time></trkpt><trkpt lat="44.2843689" lon="11.7756176"><ele>66.14285714285714</ele><time>2026-04-25T09:36:39.767Z</time></trkpt><trkpt lat="44.2844245" lon="11.7756615"><ele>66.0</ele><time>2026-04-25T09:36:40.767Z</time></trkpt><trkpt lat="44.2844808" lon="11.7757072"><ele>66.0</ele><time>2026-04-25T09:36:41.767Z</time></trkpt><trkpt lat="44.284535" lon="11.7757543"><ele>66.0</ele><time>2026-04-25T09:36:42.767Z</time></trkpt><trkpt lat="44.2846391" lon="11.7758536"><ele>66.0</ele><time>2026-04-25T09:36:44.766Z</time></trkpt><trkpt lat="44.2847454" lon="11.7759446"><ele>66.0</ele><time>2026-04-25T09:36:46.767Z</time></trkpt><trkpt lat="44.2848023" lon="11.7759865"><ele>66.0</ele><time>2026-04-25T09:36:47.767Z</time></trkpt><trkpt lat="44.2848586" lon="11.7760313"><ele>66.0</ele><time>2026-04-25T09:36:48.767Z</time></trkpt><trkpt lat="44.2849191" lon="11.7760787"><ele>65.66666666666667</ele><time>2026-04-25T09:36:49.767Z</time></trkpt><trkpt lat="44.2849774" lon="11.7761219"><ele>65.33333333333333</ele><time>2026-04-25T09:36:50.767Z</time></trkpt><trkpt lat="44.2850358" lon="11.776165"><ele>65.0</ele><time>2026-04-25T09:36:51.767Z</time></trkpt><trkpt lat="44.285146" lon="11.7762506"><ele>64.66666666666666</ele><time>2026-04-25T09:36:53.767Z</time></trkpt><trkpt lat="44.2852009" lon="11.7762952"><ele>64.33333333333333</ele><time>2026-04-25T09:36:54.766Z</time></trkpt><trkpt lat="44.2852567" lon="11.7763419"><ele>64.0</ele><time>2026-04-25T09:36:55.766Z</time></trkpt><trkpt lat="44.2853122" lon="11.7763881"><ele>63.99999999999999</ele><time>2026-04-25T09:36:56.767Z</time></trkpt><trkpt lat="44.2854169" lon="11.7764781"><ele>64.0</ele><time>2026-04-25T09:36:58.767Z</time></trkpt><trkpt lat="44.285474" lon="11.7765192"><ele>64.0</ele><time>2026-04-25T09:36:59.767Z</time></trkpt><trkpt lat="44.2855332" lon="11.7765622"><ele>64.0</ele><time>2026-04-25T09:37:00.766Z</time></trkpt><trkpt lat="44.2855929" lon="11.7766041"><ele>63.99999999999999</ele><time>2026-04-25T09:37:01.766Z</time></trkpt><trkpt lat="44.285652" lon="11.7766486"><ele>64.0</ele><time>2026-04-25T09:37:02.767Z</time></trkpt><trkpt lat="44.2857087" lon="11.7766937"><ele>63.99999999999999</ele><time>2026-04-25T09:37:03.766Z</time></trkpt><trkpt lat="44.2858173" lon="11.7767823"><ele>64.0</ele><time>2026-04-25T09:37:05.766Z</time></trkpt><trkpt lat="44.285873" lon="11.7768302"><ele>64.0</ele><time>2026-04-25T09:37:06.766Z</time></trkpt><trkpt lat="44.2859304" lon="11.7768742"><ele>64.0</ele><time>2026-04-25T09:37:07.766Z</time></trkpt><trkpt lat="44.2859896" lon="11.7769193"><ele>63.99999999999999</ele><time>2026-04-25T09:37:08.767Z</time></trkpt><trkpt lat="44.2860483" lon="11.7769606"><ele>64.0</ele><time>2026-04-25T09:37:09.766Z</time></trkpt><trkpt lat="44.2861051" lon="11.7770047"><ele>64.0</ele><time>2026-04-25T09:37:10.767Z</time></trkpt><trkpt lat="44.2862141" lon="11.7770815"><ele>64.0</ele><time>2026-04-25T09:37:12.767Z</time></trkpt><trkpt lat="44.2863264" lon="11.7771691"><ele>64.0</ele><time>2026-04-25T09:37:14.767Z</time></trkpt><trkpt lat="44.2863856" lon="11.7772135"><ele>64.0</ele><time>2026-04-25T09:37:15.766Z</time></trkpt><trkpt lat="44.2864452" lon="11.7772535"><ele>64.0</ele><time>2026-04-25T09:37:16.767Z</time></trkpt><trkpt lat="44.2865035" lon="11.7772969"><ele>63.666666666666664</ele><time>2026-04-25T09:37:17.767Z</time></trkpt><trkpt lat="44.2865596" lon="11.7773388"><ele>63.33333333333333</ele><time>2026-04-25T09:37:18.767Z</time></trkpt><trkpt lat="44.2866665" lon="11.7774342"><ele>63.0</ele><time>2026-04-25T09:37:20.767Z</time></trkpt><trkpt lat="44.2867792" lon="11.7775208"><ele>62.66666666666667</ele><time>2026-04-25T09:37:22.766Z</time></trkpt><trkpt lat="44.2868375" lon="11.7775633"><ele>62.333333333333336</ele><time>2026-04-25T09:37:23.767Z</time></trkpt><trkpt lat="44.2868927" lon="11.7776065"><ele>62.0</ele><time>2026-04-25T09:37:24.767Z</time></trkpt><trkpt lat="44.2870033" lon="11.7776951"><ele>62.0</ele><time>2026-04-25T09:37:26.766Z</time></trkpt><trkpt lat="44.2870595" lon="11.7777372"><ele>62.00000000000001</ele><time>2026-04-25T09:37:27.766Z</time></trkpt><trkpt lat="44.2871161" lon="11.7777782"><ele>62.0</ele><time>2026-04-25T09:37:28.766Z</time></trkpt><trkpt lat="44.2871737" lon="11.777824"><ele>62.0</ele><time>2026-04-25T09:37:29.767Z</time></trkpt><trkpt lat="44.2872292" lon="11.7778713"><ele>62.00000000000001</ele><time>2026-04-25T09:37:30.766Z</time></trkpt><trkpt lat="44.2872856" lon="11.7779193"><ele>62.0</ele><time>2026-04-25T09:37:31.767Z</time></trkpt><trkpt lat="44.2873408" lon="11.7779659"><ele>62.0</ele><time>2026-04-25T09:37:32.767Z</time></trkpt><trkpt lat="44.2873967" lon="11.7780086"><ele>61.50000000000001</ele><time>2026-04-25T09:37:33.766Z</time></trkpt><trkpt lat="44.2874532" lon="11.7780499"><ele>61.0</ele><time>2026-04-25T09:37:34.767Z</time></trkpt><trkpt lat="44.2875102" lon="11.7780926"><ele>60.5</ele><time>2026-04-25T09:37:35.767Z</time></trkpt><trkpt lat="44.2876218" lon="11.7781742"><ele>60.0</ele><time>2026-04-25T09:37:37.767Z</time></trkpt><trkpt lat="44.287732" lon="11.7782621"><ele>59.50000000000001</ele><time>2026-04-25T09:37:39.767Z</time></trkpt><trkpt lat="44.2877864" lon="11.7783134"><ele>59.0</ele><time>2026-04-25T09:37:40.767Z</time></trkpt><trkpt lat="44.287844" lon="11.7783669"><ele>59.0</ele><time>2026-04-25T09:37:41.766Z</time></trkpt><trkpt lat="44.2879029" lon="11.7784207"><ele>59.0</ele><time>2026-04-25T09:37:42.766Z</time></trkpt><trkpt lat="44.2879606" lon="11.7784772"><ele>59.0</ele><time>2026-04-25T09:37:43.767Z</time></trkpt><trkpt lat="44.2880185" lon="11.7785306"><ele>59.0</ele><time>2026-04-25T09:37:44.766Z</time></trkpt><trkpt lat="44.288077" lon="11.7785811"><ele>59.0</ele><time>2026-04-25T09:37:45.766Z</time></trkpt><trkpt lat="44.2881331" lon="11.7786324"><ele>59.0</ele><time>2026-04-25T09:37:46.767Z</time></trkpt><trkpt lat="44.2881899" lon="11.7786902"><ele>59.0</ele><time>2026-04-25T09:37:47.766Z</time></trkpt><trkpt lat="44.2882432" lon="11.7787492"><ele>58.857142857142854</ele><time>2026-04-25T09:37:48.765Z</time></trkpt><trkpt lat="44.2882971" lon="11.7788088"><ele>58.71428571428572</ele><time>2026-04-25T09:37:49.766Z</time></trkpt><trkpt lat="44.2883532" lon="11.7788664"><ele>58.57142857142858</ele><time>2026-04-25T09:37:50.766Z</time></trkpt><trkpt lat="44.2884097" lon="11.7789248"><ele>58.42857142857143</ele><time>2026-04-25T09:37:51.765Z</time></trkpt><trkpt lat="44.2884687" lon="11.7789784"><ele>58.28571428571429</ele><time>2026-04-25T09:37:52.766Z</time></trkpt><trkpt lat="44.2885246" lon="11.7790399"><ele>58.14285714285715</ele><time>2026-04-25T09:37:53.765Z</time></trkpt><trkpt lat="44.2885793" lon="11.779097"><ele>58.00000000000001</ele><time>2026-04-25T09:37:54.766Z</time></trkpt><trkpt lat="44.2886371" lon="11.7791489"><ele>58.00000000000001</ele><time>2026-04-25T09:37:55.766Z</time></trkpt><trkpt lat="44.2886954" lon="11.7791996"><ele>58.0</ele><time>2026-04-25T09:37:56.766Z</time></trkpt><trkpt lat="44.2887509" lon="11.7792533"><ele>58.00000000000001</ele><time>2026-04-25T09:37:57.765Z</time></trkpt><trkpt lat="44.2888071" lon="11.7793097"><ele>58.00000000000001</ele><time>2026-04-25T09:37:58.765Z</time></trkpt><trkpt lat="44.2888614" lon="11.7793612"><ele>58.0</ele><time>2026-04-25T09:37:59.765Z</time></trkpt><trkpt lat="44.2889143" lon="11.7794146"><ele>58.00000000000001</ele><time>2026-04-25T09:38:00.766Z</time></trkpt><trkpt lat="44.2889665" lon="11.7794734"><ele>58.00000000000001</ele><time>2026-04-25T09:38:01.766Z</time></trkpt><trkpt lat="44.2890154" lon="11.7795304"><ele>58.4</ele><time>2026-04-25T09:38:02.766Z</time></trkpt><trkpt lat="44.2891158" lon="11.7796395"><ele>58.8</ele><time>2026-04-25T09:38:04.766Z</time></trkpt><trkpt lat="44.2891667" lon="11.7796982"><ele>59.2</ele><time>2026-04-25T09:38:05.766Z</time></trkpt><trkpt lat="44.2892194" lon="11.7797508"><ele>59.6</ele><time>2026-04-25T09:38:06.766Z</time></trkpt><trkpt lat="44.2892713" lon="11.779803"><ele>60.0</ele><time>2026-04-25T09:38:07.765Z</time></trkpt><trkpt lat="44.2893742" lon="11.7799085"><ele>60.0</ele><time>2026-04-25T09:38:09.766Z</time></trkpt><trkpt lat="44.2894267" lon="11.7799583"><ele>60.0</ele><time>2026-04-25T09:38:10.765Z</time></trkpt><trkpt lat="44.2895266" lon="11.7800543"><ele>60.0</ele><time>2026-04-25T09:38:12.766Z</time></trkpt><trkpt lat="44.2896334" lon="11.7801514"><ele>60.0</ele><time>2026-04-25T09:38:14.765Z</time></trkpt><trkpt lat="44.2896904" lon="11.7801994"><ele>60.0</ele><time>2026-04-25T09:38:15.765Z</time></trkpt><trkpt lat="44.2897468" lon="11.7802427"><ele>60.0</ele><time>2026-04-25T09:38:16.766Z</time></trkpt><trkpt lat="44.2898023" lon="11.7802865"><ele>59.25</ele><time>2026-04-25T09:38:17.766Z</time></trkpt><trkpt lat="44.2899151" lon="11.7803647"><ele>58.5</ele><time>2026-04-25T09:38:19.765Z</time></trkpt><trkpt lat="44.2900317" lon="11.780417"><ele>57.75</ele><time>2026-04-25T09:38:21.765Z</time></trkpt><trkpt lat="44.2901546" lon="11.7804267"><ele>57.0</ele><time>2026-04-25T09:38:23.766Z</time></trkpt><trkpt lat="44.2902766" lon="11.7804266"><ele>57.0</ele><time>2026-04-25T09:38:25.765Z</time></trkpt><trkpt lat="44.2903408" lon="11.7804233"><ele>57.0</ele><time>2026-04-25T09:38:26.765Z</time></trkpt><trkpt lat="44.290468" lon="11.7804007"><ele>57.0</ele><time>2026-04-25T09:38:28.765Z</time></trkpt><trkpt lat="44.2905316" lon="11.7803876"><ele>57.0</ele><time>2026-04-25T09:38:29.766Z</time></trkpt><trkpt lat="44.2905963" lon="11.7803773"><ele>57.0</ele><time>2026-04-25T09:38:30.766Z</time></trkpt><trkpt lat="44.2906609" lon="11.7803709"><ele>57.0</ele><time>2026-04-25T09:38:31.765Z</time></trkpt><trkpt lat="44.2907271" lon="11.7803743"><ele>57.0</ele><time>2026-04-25T09:38:32.766Z</time></trkpt><trkpt lat="44.2907917" lon="11.7803888"><ele>56.99999999999999</ele><time>2026-04-25T09:38:33.765Z</time></trkpt><trkpt lat="44.2908544" lon="11.7804156"><ele>57.0</ele><time>2026-04-25T09:38:34.765Z</time></trkpt><trkpt lat="44.2909192" lon="11.7804492"><ele>57.0</ele><time>2026-04-25T09:38:35.765Z</time></trkpt><trkpt lat="44.2909805" lon="11.780484"><ele>56.99999999999999</ele><time>2026-04-25T09:38:36.766Z</time></trkpt><trkpt lat="44.2910405" lon="11.780518"><ele>57.0</ele><time>2026-04-25T09:38:37.765Z</time></trkpt><trkpt lat="44.2910998" lon="11.7805549"><ele>57.0</ele><time>2026-04-25T09:38:38.766Z</time></trkpt><trkpt lat="44.2911584" lon="11.7805958"><ele>57.0</ele><time>2026-04-25T09:38:39.766Z</time></trkpt><trkpt lat="44.2912677" lon="11.7806794"><ele>57.0</ele><time>2026-04-25T09:38:41.766Z</time></trkpt><trkpt lat="44.2913244" lon="11.7807273"><ele>57.0</ele><time>2026-04-25T09:38:42.766Z</time></trkpt><trkpt lat="44.2913805" lon="11.780779"><ele>57.0</ele><time>2026-04-25T09:38:43.765Z</time></trkpt><trkpt lat="44.2914304" lon="11.7808366"><ele>57.0</ele><time>2026-04-25T09:38:44.766Z</time></trkpt><trkpt lat="44.2914804" lon="11.7808987"><ele>57.0</ele><time>2026-04-25T09:38:45.765Z</time></trkpt><trkpt lat="44.2915278" lon="11.7809673"><ele>56.57142857142857</ele><time>2026-04-25T09:38:46.766Z</time></trkpt><trkpt lat="44.2915692" lon="11.7810383"><ele>56.14285714285714</ele><time>2026-04-25T09:38:47.765Z</time></trkpt><trkpt lat="44.2916059" lon="11.7811101"><ele>55.71428571428571</ele><time>2026-04-25T09:38:48.765Z</time></trkpt><trkpt lat="44.2916418" lon="11.7811878"><ele>55.285714285714285</ele><time>2026-04-25T09:38:49.766Z</time></trkpt><trkpt lat="44.2916744" lon="11.7812654"><ele>54.857142857142854</ele><time>2026-04-25T09:38:50.766Z</time></trkpt><trkpt lat="44.2917072" lon="11.7813418"><ele>54.42857142857143</ele><time>2026-04-25T09:38:51.765Z</time></trkpt><trkpt lat="44.2917419" lon="11.7814221"><ele>54.0</ele><time>2026-04-25T09:38:52.765Z</time></trkpt><trkpt lat="44.2917757" lon="11.7815035"><ele>54.0</ele><time>2026-04-25T09:38:53.766Z</time></trkpt><trkpt lat="44.2918087" lon="11.781586"><ele>54.0</ele><time>2026-04-25T09:38:54.765Z</time></trkpt><trkpt lat="44.2918401" lon="11.7816643"><ele>54.0</ele><time>2026-04-25T09:38:55.765Z</time></trkpt><trkpt lat="44.2918739" lon="11.7817438"><ele>54.0</ele><time>2026-04-25T09:38:56.766Z</time></trkpt><trkpt lat="44.2919074" lon="11.781823"><ele>54.0</ele><time>2026-04-25T09:38:57.765Z</time></trkpt><trkpt lat="44.2919703" lon="11.7819718"><ele>54.0</ele><time>2026-04-25T09:38:59.765Z</time></trkpt><trkpt lat="44.2920384" lon="11.7821147"><ele>54.25</ele><time>2026-04-25T09:39:01.765Z</time></trkpt><trkpt lat="44.2921059" lon="11.7822541"><ele>54.5</ele><time>2026-04-25T09:39:03.766Z</time></trkpt><trkpt lat="44.2921715" lon="11.7823874"><ele>54.75</ele><time>2026-04-25T09:39:05.766Z</time></trkpt><trkpt lat="44.2922473" lon="11.7825058"><ele>55.0</ele><time>2026-04-25T09:39:07.766Z</time></trkpt><trkpt lat="44.2923262" lon="11.7826118"><ele>55.2</ele><time>2026-04-25T09:39:09.765Z</time></trkpt><trkpt lat="44.2924074" lon="11.7827014"><ele>55.4</ele><time>2026-04-25T09:39:11.765Z</time></trkpt><trkpt lat="44.2924678" lon="11.7827845"><ele>55.599999999999994</ele><time>2026-04-25T09:39:13.766Z</time></trkpt><trkpt lat="44.2925175" lon="11.782852"><ele>55.8</ele><time>2026-04-25T09:39:15.765Z</time></trkpt><trkpt lat="44.2925895" lon="11.782928"><ele>56.0</ele><time>2026-04-25T09:39:17.765Z</time></trkpt><trkpt lat="44.2926844" lon="11.7830013"><ele>56.0</ele><time>2026-04-25T09:39:19.766Z</time></trkpt><trkpt lat="44.2927431" lon="11.7830432"><ele>56.0</ele><time>2026-04-25T09:39:20.766Z</time></trkpt><trkpt lat="44.2928013" lon="11.7830891"><ele>56.0</ele><time>2026-04-25T09:39:21.765Z</time></trkpt><trkpt lat="44.2928654" lon="11.7831352"><ele>56.0</ele><time>2026-04-25T09:39:22.766Z</time></trkpt><trkpt lat="44.2929326" lon="11.7831694"><ele>56.0</ele><time>2026-04-25T09:39:23.765Z</time></trkpt><trkpt lat="44.2930015" lon="11.7832061"><ele>56.0</ele><time>2026-04-25T09:39:24.766Z</time></trkpt><trkpt lat="44.2930703" lon="11.7832428"><ele>56.0</ele><time>2026-04-25T09:39:25.765Z</time></trkpt><trkpt lat="44.2931361" lon="11.7832818"><ele>55.142857142857146</ele><time>2026-04-25T09:39:26.765Z</time></trkpt><trkpt lat="44.2932038" lon="11.7833107"><ele>54.285714285714285</ele><time>2026-04-25T09:39:27.765Z</time></trkpt><trkpt lat="44.2932727" lon="11.7833289"><ele>53.42857142857143</ele><time>2026-04-25T09:39:28.766Z</time></trkpt><trkpt lat="44.2933429" lon="11.7833399"><ele>52.57142857142857</ele><time>2026-04-25T09:39:29.765Z</time></trkpt><trkpt lat="44.2934105" lon="11.7833434"><ele>51.714285714285715</ele><time>2026-04-25T09:39:30.766Z</time></trkpt><trkpt lat="44.2934799" lon="11.7833424"><ele>50.85714285714286</ele><time>2026-04-25T09:39:31.766Z</time></trkpt><trkpt lat="44.2935456" lon="11.7833406"><ele>50.0</ele><time>2026-04-25T09:39:32.765Z</time></trkpt><trkpt lat="44.2936122" lon="11.7833307"><ele>50.0</ele><time>2026-04-25T09:39:33.765Z</time></trkpt><trkpt lat="44.2937354" lon="11.7832892"><ele>50.0</ele><time>2026-04-25T09:39:35.765Z</time></trkpt><trkpt lat="44.2938559" lon="11.7832331"><ele>50.0</ele><time>2026-04-25T09:39:37.765Z</time></trkpt><trkpt lat="44.2939129" lon="11.7831952"><ele>50.0</ele><time>2026-04-25T09:39:38.765Z</time></trkpt><trkpt lat="44.2939706" lon="11.7831589"><ele>50.0</ele><time>2026-04-25T09:39:39.766Z</time></trkpt><trkpt lat="44.2940813" lon="11.7831029"><ele>49.2</ele><time>2026-04-25T09:39:41.765Z</time></trkpt><trkpt lat="44.2941828" lon="11.7830444"><ele>48.4</ele><time>2026-04-25T09:39:43.766Z</time></trkpt><trkpt lat="44.2942753" lon="11.7829959"><ele>47.599999999999994</ele><time>2026-04-25T09:39:45.766Z</time></trkpt><trkpt lat="44.2943648" lon="11.782937"><ele>46.8</ele><time>2026-04-25T09:39:47.766Z</time></trkpt><trkpt lat="44.2944535" lon="11.7828661"><ele>46.0</ele><time>2026-04-25T09:39:49.765Z</time></trkpt><trkpt lat="44.2945044" lon="11.782745"><ele>46.0</ele><time>2026-04-25T09:39:51.765Z</time></trkpt><trkpt lat="44.2945359" lon="11.7825968"><ele>46.0</ele><time>2026-04-25T09:39:53.766Z</time></trkpt><trkpt lat="44.2945856" lon="11.782437"><ele>46.0</ele><time>2026-04-25T09:39:55.766Z</time></trkpt><trkpt lat="44.2946142" lon="11.7823573"><ele>46.0</ele><time>2026-04-25T09:39:56.766Z</time></trkpt><trkpt lat="44.2946516" lon="11.7822765"><ele>46.0</ele><time>2026-04-25T09:39:57.766Z</time></trkpt><trkpt lat="44.2946925" lon="11.7822011"><ele>46.0</ele><time>2026-04-25T09:39:58.765Z</time></trkpt><trkpt lat="44.294736" lon="11.782129"><ele>45.714285714285715</ele><time>2026-04-25T09:39:59.765Z</time></trkpt><trkpt lat="44.2947849" lon="11.7820562"><ele>45.42857142857142</ele><time>2026-04-25T09:40:00.765Z</time></trkpt><trkpt lat="44.2948332" lon="11.7819892"><ele>45.14285714285714</ele><time>2026-04-25T09:40:01.766Z</time></trkpt><trkpt lat="44.2948854" lon="11.7819205"><ele>44.85714285714286</ele><time>2026-04-25T09:40:02.766Z</time></trkpt><trkpt lat="44.2949362" lon="11.7818524"><ele>44.57142857142857</ele><time>2026-04-25T09:40:03.765Z</time></trkpt><trkpt lat="44.2949874" lon="11.7817817"><ele>44.285714285714285</ele><time>2026-04-25T09:40:04.766Z</time></trkpt><trkpt lat="44.2950414" lon="11.7817156"><ele>44.0</ele><time>2026-04-25T09:40:05.766Z</time></trkpt><trkpt lat="44.2950952" lon="11.7816531"><ele>44.0</ele><time>2026-04-25T09:40:06.765Z</time></trkpt><trkpt lat="44.2951455" lon="11.7815886"><ele>44.0</ele><time>2026-04-25T09:40:07.765Z</time></trkpt><trkpt lat="44.2951955" lon="11.7815262"><ele>44.0</ele><time>2026-04-25T09:40:08.766Z</time></trkpt><trkpt lat="44.2952865" lon="11.7814136"><ele>44.0</ele><time>2026-04-25T09:40:10.766Z</time></trkpt><trkpt lat="44.2953335" lon="11.7813516"><ele>44.0</ele><time>2026-04-25T09:40:11.765Z</time></trkpt><trkpt lat="44.2953808" lon="11.7812839"><ele>44.0</ele><time>2026-04-25T09:40:12.766Z</time></trkpt><trkpt lat="44.2954273" lon="11.7812197"><ele>44.0</ele><time>2026-04-25T09:40:13.765Z</time></trkpt><trkpt lat="44.2954749" lon="11.7811558"><ele>44.0</ele><time>2026-04-25T09:40:14.766Z</time></trkpt><trkpt lat="44.2955222" lon="11.7810906"><ele>44.0</ele><time>2026-04-25T09:40:15.766Z</time></trkpt><trkpt lat="44.2956141" lon="11.7809716"><ele>44.0</ele><time>2026-04-25T09:40:17.766Z</time></trkpt><trkpt lat="44.2956612" lon="11.7809081"><ele>44.0</ele><time>2026-04-25T09:40:18.766Z</time></trkpt><trkpt lat="44.2957081" lon="11.7808483"><ele>44.0</ele><time>2026-04-25T09:40:19.765Z</time></trkpt><trkpt lat="44.2957588" lon="11.7807873"><ele>44.5</ele><time>2026-04-25T09:40:20.765Z</time></trkpt><trkpt lat="44.2958093" lon="11.7807303"><ele>45.0</ele><time>2026-04-25T09:40:21.765Z</time></trkpt><trkpt lat="44.2959135" lon="11.7806321"><ele>45.5</ele><time>2026-04-25T09:40:23.765Z</time></trkpt><trkpt lat="44.2959774" lon="11.7806155"><ele>46.0</ele><time>2026-04-25T09:40:24.766Z</time></trkpt><trkpt lat="44.2960434" lon="11.7806259"><ele>46.5</ele><time>2026-04-25T09:40:25.765Z</time></trkpt><trkpt lat="44.2961043" lon="11.7806583"><ele>47.0</ele><time>2026-04-25T09:40:26.765Z</time></trkpt><trkpt lat="44.2961652" lon="11.7806905"><ele>47.0</ele><time>2026-04-25T09:40:27.766Z</time></trkpt><trkpt lat="44.2962272" lon="11.7807153"><ele>47.0</ele><time>2026-04-25T09:40:28.766Z</time></trkpt><trkpt lat="44.2963453" lon="11.780766"><ele>47.0</ele><time>2026-04-25T09:40:30.765Z</time></trkpt><trkpt lat="44.2964051" lon="11.7808007"><ele>47.0</ele><time>2026-04-25T09:40:31.766Z</time></trkpt><trkpt lat="44.2964673" lon="11.7808301"><ele>47.0</ele><time>2026-04-25T09:40:32.766Z</time></trkpt><trkpt lat="44.2965314" lon="11.780857"><ele>47.0</ele><time>2026-04-25T09:40:33.766Z</time></trkpt><trkpt lat="44.296596" lon="11.7808858"><ele>47.0</ele><time>2026-04-25T09:40:34.766Z</time></trkpt><trkpt lat="44.2967107" lon="11.7809424"><ele>47.0</ele><time>2026-04-25T09:40:36.765Z</time></trkpt><trkpt lat="44.2967709" lon="11.780969"><ele>47.0</ele><time>2026-04-25T09:40:37.765Z</time></trkpt><trkpt lat="44.2968939" lon="11.7810158"><ele>47.0</ele><time>2026-04-25T09:40:39.765Z</time></trkpt><trkpt lat="44.297015" lon="11.781063"><ele>47.0</ele><time>2026-04-25T09:40:41.765Z</time></trkpt><trkpt lat="44.2970772" lon="11.7810836"><ele>47.0</ele><time>2026-04-25T09:40:42.766Z</time></trkpt><trkpt lat="44.297199" lon="11.7811308"><ele>47.0</ele><time>2026-04-25T09:40:44.765Z</time></trkpt><trkpt lat="44.2973128" lon="11.7811887"><ele>47.0</ele><time>2026-04-25T09:40:46.765Z</time></trkpt><trkpt lat="44.2973744" lon="11.7812136"><ele>47.0</ele><time>2026-04-25T09:40:47.765Z</time></trkpt><trkpt lat="44.2974385" lon="11.7812394"><ele>47.0</ele><time>2026-04-25T09:40:48.765Z</time></trkpt><trkpt lat="44.2975566" lon="11.7812938"><ele>46.666666666666664</ele><time>2026-04-25T09:40:50.765Z</time></trkpt><trkpt lat="44.2976184" lon="11.7813209"><ele>46.33333333333333</ele><time>2026-04-25T09:40:51.766Z</time></trkpt><trkpt lat="44.2976816" lon="11.7813489"><ele>46.0</ele><time>2026-04-25T09:40:52.765Z</time></trkpt><trkpt lat="44.2977941" lon="11.7814253"><ele>45.666666666666664</ele><time>2026-04-25T09:40:54.765Z</time></trkpt><trkpt lat="44.2978469" lon="11.7814737"><ele>45.333333333333336</ele><time>2026-04-25T09:40:55.765Z</time></trkpt><trkpt lat="44.2979517" lon="11.7815624"><ele>45.0</ele><time>2026-04-25T09:40:57.766Z</time></trkpt><trkpt lat="44.2980619" lon="11.7816517"><ele>45.6</ele><time>2026-04-25T09:40:59.765Z</time></trkpt><trkpt lat="44.298173" lon="11.7817335"><ele>46.2</ele><time>2026-04-25T09:41:01.765Z</time></trkpt><trkpt lat="44.2982815" lon="11.7818211"><ele>46.8</ele><time>2026-04-25T09:41:03.766Z</time></trkpt><trkpt lat="44.2983342" lon="11.7818755"><ele>47.4</ele><time>2026-04-25T09:41:04.765Z</time></trkpt><trkpt lat="44.2984375" lon="11.7819736"><ele>48.0</ele><time>2026-04-25T09:41:06.765Z</time></trkpt><trkpt lat="44.298491" lon="11.7820273"><ele>48.0</ele><time>2026-04-25T09:41:07.765Z</time></trkpt><trkpt lat="44.2985457" lon="11.7820781"><ele>48.0</ele><time>2026-04-25T09:41:08.766Z</time></trkpt><trkpt lat="44.2986546" lon="11.7821722"><ele>48.0</ele><time>2026-04-25T09:41:10.765Z</time></trkpt><trkpt lat="44.2987059" lon="11.7822273"><ele>48.0</ele><time>2026-04-25T09:41:11.766Z</time></trkpt><trkpt lat="44.298808" lon="11.7823242"><ele>48.0</ele><time>2026-04-25T09:41:13.766Z</time></trkpt><trkpt lat="44.2989047" lon="11.782422"><ele>47.75</ele><time>2026-04-25T09:41:15.765Z</time></trkpt><trkpt lat="44.2990029" lon="11.7825252"><ele>47.5</ele><time>2026-04-25T09:41:17.765Z</time></trkpt><trkpt lat="44.2991026" lon="11.782619"><ele>47.25</ele><time>2026-04-25T09:41:19.765Z</time></trkpt><trkpt lat="44.2992027" lon="11.7827184"><ele>47.0</ele><time>2026-04-25T09:41:21.766Z</time></trkpt><trkpt lat="44.2993093" lon="11.7828089"><ele>46.83333333333333</ele><time>2026-04-25T09:41:23.766Z</time></trkpt><trkpt lat="44.2993659" lon="11.7828509"><ele>46.666666666666664</ele><time>2026-04-25T09:41:24.765Z</time></trkpt><trkpt lat="44.2994179" lon="11.7829014"><ele>46.5</ele><time>2026-04-25T09:41:25.765Z</time></trkpt><trkpt lat="44.2994688" lon="11.7829552"><ele>46.333333333333336</ele><time>2026-04-25T09:41:26.766Z</time></trkpt><trkpt lat="44.299575" lon="11.7830492"><ele>46.16666666666667</ele><time>2026-04-25T09:41:28.766Z</time></trkpt><trkpt lat="44.2996777" lon="11.7831435"><ele>46.0</ele><time>2026-04-25T09:41:30.765Z</time></trkpt><trkpt lat="44.2997296" lon="11.7831998"><ele>46.199999999999996</ele><time>2026-04-25T09:41:31.765Z</time></trkpt><trkpt lat="44.2998252" lon="11.7833061"><ele>46.4</ele><time>2026-04-25T09:41:33.765Z</time></trkpt><trkpt lat="44.2999132" lon="11.7834241"><ele>46.6</ele><time>2026-04-25T09:41:35.766Z</time></trkpt><trkpt lat="44.2999546" lon="11.783491"><ele>46.8</ele><time>2026-04-25T09:41:36.766Z</time></trkpt><trkpt lat="44.300036" lon="11.7836235"><ele>47.0</ele><time>2026-04-25T09:41:38.766Z</time></trkpt><trkpt lat="44.3000779" lon="11.7836915"><ele>47.0</ele><time>2026-04-25T09:41:39.765Z</time></trkpt><trkpt lat="44.3001629" lon="11.7838202"><ele>47.0</ele><time>2026-04-25T09:41:41.765Z</time></trkpt><trkpt lat="44.3002508" lon="11.7839304"><ele>47.0</ele><time>2026-04-25T09:41:43.765Z</time></trkpt><trkpt lat="44.3003382" lon="11.7840521"><ele>47.0</ele><time>2026-04-25T09:41:45.765Z</time></trkpt><trkpt lat="44.3004272" lon="11.7841717"><ele>47.0</ele><time>2026-04-25T09:41:47.766Z</time></trkpt><trkpt lat="44.300476" lon="11.7842334"><ele>47.0</ele><time>2026-04-25T09:41:48.765Z</time></trkpt><trkpt lat="44.3005207" lon="11.784298"><ele>47.0</ele><time>2026-04-25T09:41:49.765Z</time></trkpt><trkpt lat="44.3005631" lon="11.7843635"><ele>47.0</ele><time>2026-04-25T09:41:50.766Z</time></trkpt><trkpt lat="44.3006033" lon="11.7844365"><ele>47.0</ele><time>2026-04-25T09:41:51.766Z</time></trkpt><trkpt lat="44.3006443" lon="11.7845097"><ele>47.0</ele><time>2026-04-25T09:41:52.765Z</time></trkpt><trkpt lat="44.3006849" lon="11.7845791"><ele>47.0</ele><time>2026-04-25T09:41:53.765Z</time></trkpt><trkpt lat="44.3007608" lon="11.7847168"><ele>46.857142857142854</ele><time>2026-04-25T09:41:55.766Z</time></trkpt><trkpt lat="44.3007993" lon="11.78479"><ele>46.71428571428571</ele><time>2026-04-25T09:41:56.766Z</time></trkpt><trkpt lat="44.3008371" lon="11.7848619"><ele>46.57142857142857</ele><time>2026-04-25T09:41:57.765Z</time></trkpt><trkpt lat="44.3008743" lon="11.7849347"><ele>46.42857142857143</ele><time>2026-04-25T09:41:58.766Z</time></trkpt><trkpt lat="44.300945" lon="11.7850771"><ele>46.285714285714285</ele><time>2026-04-25T09:42:00.765Z</time></trkpt><trkpt lat="44.3009808" lon="11.7851507"><ele>46.142857142857146</ele><time>2026-04-25T09:42:01.766Z</time></trkpt><trkpt lat="44.3010205" lon="11.7852197"><ele>46.0</ele><time>2026-04-25T09:42:02.766Z</time></trkpt><trkpt lat="44.3010912" lon="11.7853467"><ele>45.8</ele><time>2026-04-25T09:42:04.765Z</time></trkpt><trkpt lat="44.3011635" lon="11.7854681"><ele>45.599999999999994</ele><time>2026-04-25T09:42:06.765Z</time></trkpt><trkpt lat="44.3012402" lon="11.7855938"><ele>45.4</ele><time>2026-04-25T09:42:08.766Z</time></trkpt><trkpt lat="44.3013205" lon="11.7857287"><ele>45.2</ele><time>2026-04-25T09:42:10.765Z</time></trkpt><trkpt lat="44.301366" lon="11.7858008"><ele>45.0</ele><time>2026-04-25T09:42:11.765Z</time></trkpt><trkpt lat="44.301409" lon="11.7858719"><ele>45.0</ele><time>2026-04-25T09:42:12.766Z</time></trkpt><trkpt lat="44.3014498" lon="11.7859412"><ele>45.0</ele><time>2026-04-25T09:42:13.765Z</time></trkpt><trkpt lat="44.3014918" lon="11.7860097"><ele>45.0</ele><time>2026-04-25T09:42:14.766Z</time></trkpt><trkpt lat="44.3015719" lon="11.7861506"><ele>45.0</ele><time>2026-04-25T09:42:16.766Z</time></trkpt><trkpt lat="44.3016107" lon="11.7862199"><ele>45.0</ele><time>2026-04-25T09:42:17.765Z</time></trkpt><trkpt lat="44.3016902" lon="11.7863545"><ele>45.0</ele><time>2026-04-25T09:42:19.766Z</time></trkpt><trkpt lat="44.3017317" lon="11.7864302"><ele>45.0</ele><time>2026-04-25T09:42:20.765Z</time></trkpt><trkpt lat="44.3017727" lon="11.7865016"><ele>45.0</ele><time>2026-04-25T09:42:21.765Z</time></trkpt><trkpt lat="44.3018114" lon="11.7865781"><ele>45.0</ele><time>2026-04-25T09:42:22.765Z</time></trkpt><trkpt lat="44.301884" lon="11.7867203"><ele>45.0</ele><time>2026-04-25T09:42:24.766Z</time></trkpt><trkpt lat="44.3019509" lon="11.7868633"><ele>45.0</ele><time>2026-04-25T09:42:26.765Z</time></trkpt><trkpt lat="44.3019849" lon="11.7869387"><ele>45.0</ele><time>2026-04-25T09:42:27.765Z</time></trkpt><trkpt lat="44.3020202" lon="11.7870161"><ele>45.0</ele><time>2026-04-25T09:42:28.766Z</time></trkpt><trkpt lat="44.3020575" lon="11.787094"><ele>45.0</ele><time>2026-04-25T09:42:29.766Z</time></trkpt><trkpt lat="44.3020971" lon="11.7871685"><ele>45.0</ele><time>2026-04-25T09:42:30.766Z</time></trkpt><trkpt lat="44.3021359" lon="11.7872413"><ele>45.0</ele><time>2026-04-25T09:42:31.766Z</time></trkpt><trkpt lat="44.3022078" lon="11.7873871"><ele>45.0</ele><time>2026-04-25T09:42:33.766Z</time></trkpt><trkpt lat="44.3022774" lon="11.7875277"><ele>45.0</ele><time>2026-04-25T09:42:35.766Z</time></trkpt><trkpt lat="44.3023463" lon="11.7876559"><ele>45.0</ele><time>2026-04-25T09:42:37.765Z</time></trkpt><trkpt lat="44.3024092" lon="11.7877721"><ele>45.0</ele><time>2026-04-25T09:42:39.766Z</time></trkpt><trkpt lat="44.3024815" lon="11.7878809"><ele>45.0</ele><time>2026-04-25T09:42:41.766Z</time></trkpt><trkpt lat="44.3025585" lon="11.7879894"><ele>45.0</ele><time>2026-04-25T09:42:43.765Z</time></trkpt><trkpt lat="44.302641" lon="11.7881036"><ele>45.0</ele><time>2026-04-25T09:42:45.765Z</time></trkpt><trkpt lat="44.3027294" lon="11.7882113"><ele>45.0</ele><time>2026-04-25T09:42:47.766Z</time></trkpt><trkpt lat="44.3027999" lon="11.7883198"><ele>45.0</ele><time>2026-04-25T09:42:49.766Z</time></trkpt><trkpt lat="44.3028811" lon="11.7884366"><ele>45.0</ele><time>2026-04-25T09:42:51.765Z</time></trkpt><trkpt lat="44.3029525" lon="11.7885477"><ele>45.0</ele><time>2026-04-25T09:42:53.765Z</time></trkpt><trkpt lat="44.303021" lon="11.7886407"><ele>45.0</ele><time>2026-04-25T09:42:55.765Z</time></trkpt><trkpt lat="44.3030873" lon="11.788739"><ele>44.8</ele><time>2026-04-25T09:42:57.765Z</time></trkpt><trkpt lat="44.3031637" lon="11.7888436"><ele>44.6</ele><time>2026-04-25T09:42:59.765Z</time></trkpt><trkpt lat="44.30325" lon="11.788933"><ele>44.400000000000006</ele><time>2026-04-25T09:43:01.766Z</time></trkpt><trkpt lat="44.3033438" lon="11.7890225"><ele>44.2</ele><time>2026-04-25T09:43:03.765Z</time></trkpt><trkpt lat="44.3034532" lon="11.7890844"><ele>44.0</ele><time>2026-04-25T09:43:05.766Z</time></trkpt><trkpt lat="44.3035668" lon="11.7890922"><ele>44.0</ele><time>2026-04-25T09:43:07.766Z</time></trkpt><trkpt lat="44.3036613" lon="11.7890582"><ele>44.0</ele><time>2026-04-25T09:43:09.765Z</time></trkpt><trkpt lat="44.3037711" lon="11.7890307"><ele>44.0</ele><time>2026-04-25T09:43:11.765Z</time></trkpt><trkpt lat="44.3038843" lon="11.7889949"><ele>44.0</ele><time>2026-04-25T09:43:13.764Z</time></trkpt><trkpt lat="44.3039988" lon="11.7889572"><ele>44.0</ele><time>2026-04-25T09:43:15.764Z</time></trkpt><trkpt lat="44.3041106" lon="11.7889399"><ele>43.75</ele><time>2026-04-25T09:43:17.763Z</time></trkpt><trkpt lat="44.3042288" lon="11.7889366"><ele>43.5</ele><time>2026-04-25T09:43:19.764Z</time></trkpt><trkpt lat="44.3043457" lon="11.7889549"><ele>43.25</ele><time>2026-04-25T09:43:21.765Z</time></trkpt><trkpt lat="44.3044591" lon="11.7889927"><ele>43.0</ele><time>2026-04-25T09:43:23.765Z</time></trkpt><trkpt lat="44.3045666" lon="11.7890719"><ele>43.0</ele><time>2026-04-25T09:43:25.764Z</time></trkpt><trkpt lat="44.3046609" lon="11.78917"><ele>43.0</ele><time>2026-04-25T09:43:27.765Z</time></trkpt><trkpt lat="44.3047471" lon="11.7892729"><ele>43.0</ele><time>2026-04-25T09:43:29.765Z</time></trkpt><trkpt lat="44.3048272" lon="11.7893801"><ele>43.0</ele><time>2026-04-25T09:43:31.764Z</time></trkpt><trkpt lat="44.3048985" lon="11.7895192"><ele>43.142857142857146</ele><time>2026-04-25T09:43:33.764Z</time></trkpt><trkpt lat="44.3049301" lon="11.7895986"><ele>43.285714285714285</ele><time>2026-04-25T09:43:34.765Z</time></trkpt><trkpt lat="44.3049576" lon="11.7896803"><ele>43.42857142857143</ele><time>2026-04-25T09:43:35.764Z</time></trkpt><trkpt lat="44.3049799" lon="11.7897679"><ele>43.57142857142857</ele><time>2026-04-25T09:43:36.764Z</time></trkpt><trkpt lat="44.3049973" lon="11.7898561"><ele>43.714285714285715</ele><time>2026-04-25T09:43:37.765Z</time></trkpt><trkpt lat="44.3050088" lon="11.7899438"><ele>43.85714285714286</ele><time>2026-04-25T09:43:38.765Z</time></trkpt><trkpt lat="44.3050163" lon="11.7901135"><ele>44.0</ele><time>2026-04-25T09:43:40.765Z</time></trkpt><trkpt lat="44.3050195" lon="11.7902026"><ele>44.0</ele><time>2026-04-25T09:43:41.765Z</time></trkpt><trkpt lat="44.3050196" lon="11.7902913"><ele>44.0</ele><time>2026-04-25T09:43:42.764Z</time></trkpt><trkpt lat="44.3050178" lon="11.7903842"><ele>44.0</ele><time>2026-04-25T09:43:43.764Z</time></trkpt><trkpt lat="44.3050153" lon="11.7904752"><ele>44.0</ele><time>2026-04-25T09:43:44.765Z</time></trkpt><trkpt lat="44.3050147" lon="11.7905658"><ele>44.0</ele><time>2026-04-25T09:43:45.765Z</time></trkpt><trkpt lat="44.3050173" lon="11.7907407"><ele>44.0</ele><time>2026-04-25T09:43:47.764Z</time></trkpt><trkpt lat="44.3050158" lon="11.79083"><ele>44.0</ele><time>2026-04-25T09:43:48.764Z</time></trkpt><trkpt lat="44.3050183" lon="11.7909206"><ele>44.400000000000006</ele><time>2026-04-25T09:43:49.765Z</time></trkpt><trkpt lat="44.3050218" lon="11.7910133"><ele>44.8</ele><time>2026-04-25T09:43:50.765Z</time></trkpt><trkpt lat="44.3050264" lon="11.791104"><ele>45.2</ele><time>2026-04-25T09:43:51.764Z</time></trkpt><trkpt lat="44.3050454" lon="11.7912782"><ele>45.599999999999994</ele><time>2026-04-25T09:43:53.764Z</time></trkpt><trkpt lat="44.305101" lon="11.7914335"><ele>46.0</ele><time>2026-04-25T09:43:55.764Z</time></trkpt><trkpt lat="44.3051868" lon="11.7915543"><ele>46.0</ele><time>2026-04-25T09:43:57.765Z</time></trkpt><trkpt lat="44.3052867" lon="11.7916339"><ele>46.0</ele><time>2026-04-25T09:43:59.765Z</time></trkpt><trkpt lat="44.3053907" lon="11.7916979"><ele>46.0</ele><time>2026-04-25T09:44:01.765Z</time></trkpt><trkpt lat="44.3055062" lon="11.7917512"><ele>46.0</ele><time>2026-04-25T09:44:03.765Z</time></trkpt><trkpt lat="44.3056222" lon="11.7918051"><ele>46.0</ele><time>2026-04-25T09:44:05.764Z</time></trkpt><trkpt lat="44.3057365" lon="11.7918399"><ele>46.0</ele><time>2026-04-25T09:44:07.765Z</time></trkpt><trkpt lat="44.3058574" lon="11.7918962"><ele>46.0</ele><time>2026-04-25T09:44:09.764Z</time></trkpt><trkpt lat="44.3059199" lon="11.791922"><ele>46.0</ele><time>2026-04-25T09:44:10.764Z</time></trkpt><trkpt lat="44.3060377" lon="11.7919701"><ele>46.0</ele><time>2026-04-25T09:44:12.765Z</time></trkpt><trkpt lat="44.3061505" lon="11.7920254"><ele>45.75</ele><time>2026-04-25T09:44:14.764Z</time></trkpt><trkpt lat="44.3062611" lon="11.7920763"><ele>45.5</ele><time>2026-04-25T09:44:16.764Z</time></trkpt><trkpt lat="44.3063747" lon="11.7921278"><ele>45.25</ele><time>2026-04-25T09:44:18.764Z</time></trkpt><trkpt lat="44.3064814" lon="11.7922063"><ele>45.0</ele><time>2026-04-25T09:44:20.764Z</time></trkpt><trkpt lat="44.3065829" lon="11.7923085"><ele>45.0</ele><time>2026-04-25T09:44:22.765Z</time></trkpt><trkpt lat="44.3066814" lon="11.7924132"><ele>45.0</ele><time>2026-04-25T09:44:24.765Z</time></trkpt><trkpt lat="44.3067774" lon="11.7925264"><ele>45.0</ele><time>2026-04-25T09:44:26.764Z</time></trkpt><trkpt lat="44.3068266" lon="11.7925872"><ele>45.0</ele><time>2026-04-25T09:44:27.765Z</time></trkpt><trkpt lat="44.3068736" lon="11.79265"><ele>45.0</ele><time>2026-04-25T09:44:28.764Z</time></trkpt><trkpt lat="44.3069585" lon="11.7927753"><ele>45.0</ele><time>2026-04-25T09:44:30.765Z</time></trkpt><trkpt lat="44.3070079" lon="11.7928367"><ele>45.0</ele><time>2026-04-25T09:44:31.765Z</time></trkpt><trkpt lat="44.3071017" lon="11.7929561"><ele>45.0</ele><time>2026-04-25T09:44:33.764Z</time></trkpt><trkpt lat="44.3072015" lon="11.7930563"><ele>45.0</ele><time>2026-04-25T09:44:35.765Z</time></trkpt><trkpt lat="44.3072909" lon="11.7931558"><ele>45.0</ele><time>2026-04-25T09:44:37.764Z</time></trkpt><trkpt lat="44.3074051" lon="11.7932124"><ele>45.2</ele><time>2026-04-25T09:44:39.765Z</time></trkpt><trkpt lat="44.3075222" lon="11.7931841"><ele>45.4</ele><time>2026-04-25T09:44:41.765Z</time></trkpt><trkpt lat="44.307625" lon="11.7931045"><ele>45.599999999999994</ele><time>2026-04-25T09:44:43.764Z</time></trkpt><trkpt lat="44.3077279" lon="11.7930274"><ele>45.8</ele><time>2026-04-25T09:44:45.765Z</time></trkpt><trkpt lat="44.3077927" lon="11.7930074"><ele>46.0</ele><time>2026-04-25T09:44:46.765Z</time></trkpt><trkpt lat="44.3079159" lon="11.7930226"><ele>46.0</ele><time>2026-04-25T09:44:48.765Z</time></trkpt><trkpt lat="44.308026" lon="11.7930901"><ele>46.0</ele><time>2026-04-25T09:44:50.764Z</time></trkpt><trkpt lat="44.3081346" lon="11.793154"><ele>46.0</ele><time>2026-04-25T09:44:52.764Z</time></trkpt><trkpt lat="44.3082431" lon="11.7932289"><ele>46.0</ele><time>2026-04-25T09:44:54.764Z</time></trkpt><trkpt lat="44.3083049" lon="11.7932622"><ele>46.0</ele><time>2026-04-25T09:44:55.764Z</time></trkpt><trkpt lat="44.3084174" lon="11.793327"><ele>45.66666666666667</ele><time>2026-04-25T09:44:57.764Z</time></trkpt><trkpt lat="44.3085367" lon="11.7933931"><ele>45.333333333333336</ele><time>2026-04-25T09:44:59.764Z</time></trkpt><trkpt lat="44.3085956" lon="11.7934267"><ele>45.0</ele><time>2026-04-25T09:45:00.765Z</time></trkpt><trkpt lat="44.3086554" lon="11.7934645"><ele>44.666666666666664</ele><time>2026-04-25T09:45:01.765Z</time></trkpt><trkpt lat="44.3087151" lon="11.7935016"><ele>44.33333333333333</ele><time>2026-04-25T09:45:02.764Z</time></trkpt><trkpt lat="44.3087729" lon="11.7935414"><ele>44.0</ele><time>2026-04-25T09:45:03.764Z</time></trkpt><trkpt lat="44.3088804" lon="11.7936224"><ele>43.83333333333333</ele><time>2026-04-25T09:45:05.764Z</time></trkpt><trkpt lat="44.3089352" lon="11.7936664"><ele>43.666666666666664</ele><time>2026-04-25T09:45:06.765Z</time></trkpt><trkpt lat="44.3089905" lon="11.7937133"><ele>43.5</ele><time>2026-04-25T09:45:07.764Z</time></trkpt><trkpt lat="44.309099" lon="11.793799"><ele>43.333333333333336</ele><time>2026-04-25T09:45:09.764Z</time></trkpt><trkpt lat="44.3091599" lon="11.7938377"><ele>43.16666666666667</ele><time>2026-04-25T09:45:10.765Z</time></trkpt><trkpt lat="44.3092248" lon="11.7938646"><ele>43.0</ele><time>2026-04-25T09:45:11.764Z</time></trkpt><trkpt lat="44.3092885" lon="11.793874"><ele>43.0</ele><time>2026-04-25T09:45:12.764Z</time></trkpt><trkpt lat="44.3093538" lon="11.7938685"><ele>43.0</ele><time>2026-04-25T09:45:13.765Z</time></trkpt><trkpt lat="44.3094747" lon="11.7938209"><ele>43.0</ele><time>2026-04-25T09:45:15.764Z</time></trkpt><trkpt lat="44.3095394" lon="11.7937917"><ele>43.0</ele><time>2026-04-25T09:45:16.764Z</time></trkpt><trkpt lat="44.3096005" lon="11.79376"><ele>43.0</ele><time>2026-04-25T09:45:17.765Z</time></trkpt><trkpt lat="44.3096628" lon="11.7937371"><ele>43.0</ele><time>2026-04-25T09:45:18.764Z</time></trkpt><trkpt lat="44.3097841" lon="11.7937104"><ele>43.0</ele><time>2026-04-25T09:45:20.764Z</time></trkpt><trkpt lat="44.3099076" lon="11.7936991"><ele>43.0</ele><time>2026-04-25T09:45:22.764Z</time></trkpt><trkpt lat="44.310032" lon="11.7936879"><ele>43.0</ele><time>2026-04-25T09:45:24.764Z</time></trkpt><trkpt lat="44.3101586" lon="11.7936773"><ele>43.0</ele><time>2026-04-25T09:45:26.765Z</time></trkpt><trkpt lat="44.3102231" lon="11.7936722"><ele>43.0</ele><time>2026-04-25T09:45:27.764Z</time></trkpt><trkpt lat="44.3102873" lon="11.7936644"><ele>43.00000000000001</ele><time>2026-04-25T09:45:28.765Z</time></trkpt><trkpt lat="44.3103522" lon="11.7936551"><ele>43.0</ele><time>2026-04-25T09:45:29.764Z</time></trkpt><trkpt lat="44.310417" lon="11.7936499"><ele>43.0</ele><time>2026-04-25T09:45:30.765Z</time></trkpt><trkpt lat="44.3105427" lon="11.7936304"><ele>43.0</ele><time>2026-04-25T09:45:32.764Z</time></trkpt><trkpt lat="44.3106069" lon="11.7936206"><ele>43.0</ele><time>2026-04-25T09:45:33.764Z</time></trkpt><trkpt lat="44.3106701" lon="11.7936088"><ele>43.00000000000001</ele><time>2026-04-25T09:45:34.765Z</time></trkpt><trkpt lat="44.3107341" lon="11.7935978"><ele>43.0</ele><time>2026-04-25T09:45:35.764Z</time></trkpt><trkpt lat="44.3108592" lon="11.7935808"><ele>43.0</ele><time>2026-04-25T09:45:37.764Z</time></trkpt><trkpt lat="44.3109245" lon="11.7935687"><ele>43.0</ele><time>2026-04-25T09:45:38.764Z</time></trkpt><trkpt lat="44.310989" lon="11.7935538"><ele>43.0</ele><time>2026-04-25T09:45:39.765Z</time></trkpt><trkpt lat="44.3110522" lon="11.7935387"><ele>43.0</ele><time>2026-04-25T09:45:40.765Z</time></trkpt><trkpt lat="44.3111768" lon="11.7935269"><ele>43.0</ele><time>2026-04-25T09:45:42.764Z</time></trkpt><trkpt lat="44.3112958" lon="11.793519"><ele>43.0</ele><time>2026-04-25T09:45:44.764Z</time></trkpt><trkpt lat="44.3114117" lon="11.7935286"><ele>43.0</ele><time>2026-04-25T09:45:46.764Z</time></trkpt><trkpt lat="44.3115289" lon="11.7935465"><ele>43.0</ele><time>2026-04-25T09:45:48.764Z</time></trkpt><trkpt lat="44.3116525" lon="11.7935665"><ele>43.0</ele><time>2026-04-25T09:45:50.765Z</time></trkpt><trkpt lat="44.3117168" lon="11.7935752"><ele>43.0</ele><time>2026-04-25T09:45:51.765Z</time></trkpt><trkpt lat="44.3117859" lon="11.7935913"><ele>43.0</ele><time>2026-04-25T09:45:52.764Z</time></trkpt><trkpt lat="44.3118511" lon="11.7936071"><ele>43.0</ele><time>2026-04-25T09:45:53.765Z</time></trkpt><trkpt lat="44.3119743" lon="11.7936335"><ele>43.0</ele><time>2026-04-25T09:45:55.764Z</time></trkpt><trkpt lat="44.3120946" lon="11.7936661"><ele>43.0</ele><time>2026-04-25T09:45:57.764Z</time></trkpt><trkpt lat="44.3121577" lon="11.7936841"><ele>43.0</ele><time>2026-04-25T09:45:58.765Z</time></trkpt><trkpt lat="44.3122207" lon="11.7936989"><ele>43.0</ele><time>2026-04-25T09:45:59.764Z</time></trkpt><trkpt lat="44.3123429" lon="11.7937276"><ele>43.0</ele><time>2026-04-25T09:46:01.765Z</time></trkpt><trkpt lat="44.3124677" lon="11.7937497"><ele>43.142857142857146</ele><time>2026-04-25T09:46:03.764Z</time></trkpt><trkpt lat="44.3125326" lon="11.7937555"><ele>43.285714285714285</ele><time>2026-04-25T09:46:04.764Z</time></trkpt><trkpt lat="44.3125957" lon="11.7937589"><ele>43.42857142857143</ele><time>2026-04-25T09:46:05.764Z</time></trkpt><trkpt lat="44.3126614" lon="11.7937574"><ele>43.57142857142857</ele><time>2026-04-25T09:46:06.765Z</time></trkpt><trkpt lat="44.3127268" lon="11.7937557"><ele>43.714285714285715</ele><time>2026-04-25T09:46:07.765Z</time></trkpt><trkpt lat="44.3127925" lon="11.793752"><ele>43.85714285714286</ele><time>2026-04-25T09:46:08.765Z</time></trkpt><trkpt lat="44.3128588" lon="11.7937439"><ele>44.0</ele><time>2026-04-25T09:46:09.764Z</time></trkpt><trkpt lat="44.3129269" lon="11.7937422"><ele>44.0</ele><time>2026-04-25T09:46:10.764Z</time></trkpt><trkpt lat="44.312991" lon="11.7937497"><ele>44.0</ele><time>2026-04-25T09:46:11.764Z</time></trkpt><trkpt lat="44.313114" lon="11.7937468"><ele>44.0</ele><time>2026-04-25T09:46:13.765Z</time></trkpt><trkpt lat="44.3132382" lon="11.7937334"><ele>44.0</ele><time>2026-04-25T09:46:15.765Z</time></trkpt><trkpt lat="44.3133017" lon="11.7937286"><ele>44.0</ele><time>2026-04-25T09:46:16.765Z</time></trkpt><trkpt lat="44.3133665" lon="11.7937249"><ele>44.0</ele><time>2026-04-25T09:46:17.764Z</time></trkpt><trkpt lat="44.3134323" lon="11.7937221"><ele>44.0</ele><time>2026-04-25T09:46:18.764Z</time></trkpt><trkpt lat="44.3135602" lon="11.793708"><ele>44.0</ele><time>2026-04-25T09:46:20.765Z</time></trkpt><trkpt lat="44.313624" lon="11.7937125"><ele>44.0</ele><time>2026-04-25T09:46:21.764Z</time></trkpt><trkpt lat="44.3136865" lon="11.7937262"><ele>44.0</ele><time>2026-04-25T09:46:22.765Z</time></trkpt><trkpt lat="44.3137496" lon="11.7937458"><ele>44.0</ele><time>2026-04-25T09:46:23.765Z</time></trkpt><trkpt lat="44.3138646" lon="11.7937821"><ele>44.0</ele><time>2026-04-25T09:46:25.764Z</time></trkpt><trkpt lat="44.3139741" lon="11.7938216"><ele>44.0</ele><time>2026-04-25T09:46:27.764Z</time></trkpt><trkpt lat="44.314099" lon="11.7938629"><ele>44.0</ele><time>2026-04-25T09:46:29.765Z</time></trkpt><trkpt lat="44.3141648" lon="11.7938774"><ele>44.0</ele><time>2026-04-25T09:46:30.765Z</time></trkpt><trkpt lat="44.3142265" lon="11.7938956"><ele>44.0</ele><time>2026-04-25T09:46:31.765Z</time></trkpt><trkpt lat="44.3142899" lon="11.7939176"><ele>44.0</ele><time>2026-04-25T09:46:32.765Z</time></trkpt><trkpt lat="44.3143517" lon="11.793945"><ele>44.0</ele><time>2026-04-25T09:46:33.765Z</time></trkpt><trkpt lat="44.3144115" lon="11.7939785"><ele>44.0</ele><time>2026-04-25T09:46:34.765Z</time></trkpt><trkpt lat="44.3144732" lon="11.7940066"><ele>44.0</ele><time>2026-04-25T09:46:35.764Z</time></trkpt><trkpt lat="44.3145344" lon="11.794034"><ele>44.0</ele><time>2026-04-25T09:46:36.764Z</time></trkpt><trkpt lat="44.3145926" lon="11.7940678"><ele>44.0</ele><time>2026-04-25T09:46:37.764Z</time></trkpt><trkpt lat="44.3146559" lon="11.7941001"><ele>44.0</ele><time>2026-04-25T09:46:38.764Z</time></trkpt><trkpt lat="44.3147137" lon="11.7941355"><ele>44.0</ele><time>2026-04-25T09:46:39.764Z</time></trkpt><trkpt lat="44.3147701" lon="11.794176"><ele>44.0</ele><time>2026-04-25T09:46:40.764Z</time></trkpt><trkpt lat="44.314825" lon="11.7942192"><ele>44.0</ele><time>2026-04-25T09:46:41.764Z</time></trkpt><trkpt lat="44.3148825" lon="11.7942682"><ele>44.0</ele><time>2026-04-25T09:46:42.764Z</time></trkpt><trkpt lat="44.3149883" lon="11.7943533"><ele>44.0</ele><time>2026-04-25T09:46:44.765Z</time></trkpt><trkpt lat="44.3150999" lon="11.7944427"><ele>44.0</ele><time>2026-04-25T09:46:46.764Z</time></trkpt><trkpt lat="44.3151532" lon="11.7944896"><ele>44.0</ele><time>2026-04-25T09:46:47.765Z</time></trkpt><trkpt lat="44.3152068" lon="11.7945395"><ele>44.0</ele><time>2026-04-25T09:46:48.765Z</time></trkpt><trkpt lat="44.3152606" lon="11.794588"><ele>44.0</ele><time>2026-04-25T09:46:49.764Z</time></trkpt><trkpt lat="44.3153146" lon="11.7946386"><ele>44.0</ele><time>2026-04-25T09:46:50.765Z</time></trkpt><trkpt lat="44.3154121" lon="11.7947282"><ele>44.0</ele><time>2026-04-25T09:46:52.765Z</time></trkpt><trkpt lat="44.3155115" lon="11.7948058"><ele>44.0</ele><time>2026-04-25T09:46:54.765Z</time></trkpt><trkpt lat="44.3156124" lon="11.7948873"><ele>44.0</ele><time>2026-04-25T09:46:56.764Z</time></trkpt><trkpt lat="44.3157257" lon="11.7949525"><ele>44.0</ele><time>2026-04-25T09:46:58.764Z</time></trkpt><trkpt lat="44.3158487" lon="11.7949793"><ele>44.0</ele><time>2026-04-25T09:47:00.764Z</time></trkpt><trkpt lat="44.3159743" lon="11.7949956"><ele>44.0</ele><time>2026-04-25T09:47:02.764Z</time></trkpt><trkpt lat="44.31604" lon="11.7949968"><ele>44.0</ele><time>2026-04-25T09:47:03.764Z</time></trkpt><trkpt lat="44.3161069" lon="11.7949947"><ele>44.0</ele><time>2026-04-25T09:47:04.765Z</time></trkpt><trkpt lat="44.3162266" lon="11.794991"><ele>44.0</ele><time>2026-04-25T09:47:06.765Z</time></trkpt><trkpt lat="44.3163424" lon="11.7949754"><ele>44.0</ele><time>2026-04-25T09:47:08.764Z</time></trkpt><trkpt lat="44.3164542" lon="11.7949744"><ele>44.0</ele><time>2026-04-25T09:47:10.764Z</time></trkpt><trkpt lat="44.3165626" lon="11.7949717"><ele>44.0</ele><time>2026-04-25T09:47:12.764Z</time></trkpt><trkpt lat="44.3166722" lon="11.7949582"><ele>44.0</ele><time>2026-04-25T09:47:14.764Z</time></trkpt><trkpt lat="44.3167716" lon="11.794935"><ele>44.0</ele><time>2026-04-25T09:47:16.764Z</time></trkpt><trkpt lat="44.3168638" lon="11.7949328"><ele>44.0</ele><time>2026-04-25T09:47:18.765Z</time></trkpt><trkpt lat="44.3169547" lon="11.7949312"><ele>44.0</ele><time>2026-04-25T09:47:20.765Z</time></trkpt><trkpt lat="44.3170399" lon="11.7949234"><ele>44.0</ele><time>2026-04-25T09:47:22.765Z</time></trkpt><trkpt lat="44.3171051" lon="11.794993"><ele>44.0</ele><time>2026-04-25T09:47:24.764Z</time></trkpt><trkpt lat="44.3171307" lon="11.795106"><ele>44.0</ele><time>2026-04-25T09:47:26.764Z</time></trkpt><trkpt lat="44.3171597" lon="11.7952134"><ele>44.0</ele><time>2026-04-25T09:47:28.764Z</time></trkpt><trkpt lat="44.3171798" lon="11.795323"><ele>44.0</ele><time>2026-04-25T09:47:30.764Z</time></trkpt><trkpt lat="44.3171543" lon="11.795428"><ele>44.0</ele><time>2026-04-25T09:47:32.765Z</time></trkpt><trkpt lat="44.3170944" lon="11.7955481"><ele>44.0</ele><time>2026-04-25T09:47:34.764Z</time></trkpt><trkpt lat="44.3170375" lon="11.7956675"><ele>44.0</ele><time>2026-04-25T09:47:36.765Z</time></trkpt><trkpt lat="44.3169889" lon="11.7957666"><ele>44.0</ele><time>2026-04-25T09:47:38.764Z</time></trkpt><trkpt lat="44.3169418" lon="11.7958712"><ele>44.0</ele><time>2026-04-25T09:47:40.765Z</time></trkpt><trkpt lat="44.3169026" lon="11.7959724"><ele>44.0</ele><time>2026-04-25T09:47:42.764Z</time></trkpt><trkpt lat="44.3168402" lon="11.7959848"><ele>44.0</ele><time>2026-04-25T09:47:44.765Z</time></trkpt><trkpt lat="44.3167768" lon="11.795934"><ele>44.0</ele><time>2026-04-25T09:47:46.764Z</time></trkpt><trkpt lat="44.3167012" lon="11.7958863"><ele>44.0</ele><time>2026-04-25T09:47:48.764Z</time></trkpt><trkpt lat="44.3166371" lon="11.7958485"><ele>44.0</ele><time>2026-04-25T09:47:50.764Z</time></trkpt><trkpt lat="44.3165785" lon="11.7958025"><ele>44.0</ele><time>2026-04-25T09:47:52.764Z</time></trkpt><trkpt lat="44.3165117" lon="11.7957449"><ele>44.0</ele><time>2026-04-25T09:47:54.764Z</time></trkpt><trkpt lat="44.3164412" lon="11.7956826"><ele>44.0</ele><time>2026-04-25T09:47:56.764Z</time></trkpt><trkpt lat="44.3163635" lon="11.7956224"><ele>44.0</ele><time>2026-04-25T09:47:58.765Z</time></trkpt><trkpt lat="44.3162752" lon="11.7955785"><ele>44.0</ele><time>2026-04-25T09:48:00.764Z</time></trkpt><trkpt lat="44.3161968" lon="11.7956435"><ele>43.800000000000004</ele><time>2026-04-25T09:48:02.765Z</time></trkpt><trkpt lat="44.316131" lon="11.7957462"><ele>43.6</ele><time>2026-04-25T09:48:04.764Z</time></trkpt><trkpt lat="44.3160744" lon="11.7958641"><ele>43.4</ele><time>2026-04-25T09:48:06.765Z</time></trkpt><trkpt lat="44.3160284" lon="11.7959777"><ele>43.2</ele><time>2026-04-25T09:48:08.764Z</time></trkpt><trkpt lat="44.3159909" lon="11.7960815"><ele>43.0</ele><time>2026-04-25T09:48:10.764Z</time></trkpt><trkpt lat="44.3159584" lon="11.7961784"><ele>43.0</ele><time>2026-04-25T09:48:12.763Z</time></trkpt><trkpt lat="44.3159194" lon="11.7962742"><ele>43.0</ele><time>2026-04-25T09:48:14.763Z</time></trkpt><trkpt lat="44.3158817" lon="11.7963698"><ele>43.0</ele><time>2026-04-25T09:48:16.763Z</time></trkpt><trkpt lat="44.3158382" lon="11.796455"><ele>43.0</ele><time>2026-04-25T09:48:18.764Z</time></trkpt><trkpt lat="44.3157962" lon="11.7965525"><ele>43.0</ele><time>2026-04-25T09:48:21.763Z</time></trkpt><trkpt lat="44.3157564" lon="11.796632"><ele>43.0</ele><time>2026-04-25T09:48:34.763Z</time></trkpt><trkpt lat="44.3157895" lon="11.7967186"><ele>43.0</ele><time>2026-04-25T09:48:36.764Z</time></trkpt><trkpt lat="44.3158517" lon="11.7967902"><ele>43.0</ele><time>2026-04-25T09:48:38.763Z</time></trkpt><trkpt lat="44.3159199" lon="11.7968636"><ele>43.0</ele><time>2026-04-25T09:48:40.763Z</time></trkpt><trkpt lat="44.316004" lon="11.796934"><ele>43.0</ele><time>2026-04-25T09:48:42.763Z</time></trkpt><trkpt lat="44.3160907" lon="11.7969941"><ele>43.0</ele><time>2026-04-25T09:48:44.763Z</time></trkpt><trkpt lat="44.3161876" lon="11.7970758"><ele>42.8</ele><time>2026-04-25T09:48:46.763Z</time></trkpt><trkpt lat="44.3162767" lon="11.7971498"><ele>42.599999999999994</ele><time>2026-04-25T09:48:48.763Z</time></trkpt><trkpt lat="44.3163607" lon="11.7972274"><ele>42.400000000000006</ele><time>2026-04-25T09:48:50.763Z</time></trkpt><trkpt lat="44.3164537" lon="11.7972933"><ele>42.2</ele><time>2026-04-25T09:48:52.764Z</time></trkpt><trkpt lat="44.316548" lon="11.7973733"><ele>42.0</ele><time>2026-04-25T09:48:54.764Z</time></trkpt><trkpt lat="44.3166433" lon="11.7974374"><ele>42.400000000000006</ele><time>2026-04-25T09:48:56.763Z</time></trkpt><trkpt lat="44.3167418" lon="11.7975182"><ele>42.800000000000004</ele><time>2026-04-25T09:48:58.763Z</time></trkpt><trkpt lat="44.3168384" lon="11.7975887"><ele>43.2</ele><time>2026-04-25T09:49:00.764Z</time></trkpt><trkpt lat="44.3169237" lon="11.7976562"><ele>43.6</ele><time>2026-04-25T09:49:02.763Z</time></trkpt><trkpt lat="44.317008" lon="11.79772"><ele>44.0</ele><time>2026-04-25T09:49:04.763Z</time></trkpt><trkpt lat="44.3170897" lon="11.7977823"><ele>44.0</ele><time>2026-04-25T09:49:06.763Z</time></trkpt><trkpt lat="44.3171606" lon="11.797834"><ele>44.0</ele><time>2026-04-25T09:49:08.763Z</time></trkpt><trkpt lat="44.3172362" lon="11.7979009"><ele>44.0</ele><time>2026-04-25T09:49:10.764Z</time></trkpt><trkpt lat="44.3173053" lon="11.7979627"><ele>44.0</ele><time>2026-04-25T09:49:12.763Z</time></trkpt><trkpt lat="44.3173768" lon="11.7980152"><ele>44.0</ele><time>2026-04-25T09:49:14.764Z</time></trkpt><trkpt lat="44.3174354" lon="11.7980609"><ele>44.0</ele><time>2026-04-25T09:49:16.764Z</time></trkpt><trkpt lat="44.3174863" lon="11.7981211"><ele>44.166666666666664</ele><time>2026-04-25T09:49:18.763Z</time></trkpt><trkpt lat="44.3175487" lon="11.7981736"><ele>44.33333333333333</ele><time>2026-04-25T09:49:21.763Z</time></trkpt><trkpt lat="44.3176184" lon="11.7981893"><ele>44.5</ele><time>2026-04-25T09:49:24.764Z</time></trkpt><trkpt lat="44.3176911" lon="11.7982625"><ele>44.666666666666664</ele><time>2026-04-25T09:49:35.763Z</time></trkpt><trkpt lat="44.3177422" lon="11.7983251"><ele>44.833333333333336</ele><time>2026-04-25T09:49:42.764Z</time></trkpt><trkpt lat="44.3178855" lon="11.7982996"><ele>45.0</ele><time>2026-04-25T09:50:17.763Z</time></trkpt><trkpt lat="44.317945" lon="11.7982006"><ele>45.0</ele><time>2026-04-25T09:50:19.763Z</time></trkpt><trkpt lat="44.3179875" lon="11.7980788"><ele>45.0</ele><time>2026-04-25T09:50:21.763Z</time></trkpt><trkpt lat="44.3180388" lon="11.7979336"><ele>45.0</ele><time>2026-04-25T09:50:23.763Z</time></trkpt><trkpt lat="44.3180868" lon="11.7977951"><ele>45.0</ele><time>2026-04-25T09:50:25.764Z</time></trkpt><trkpt lat="44.3181349" lon="11.7976726"><ele>45.0</ele><time>2026-04-25T09:50:27.763Z</time></trkpt><trkpt lat="44.3181751" lon="11.7975691"><ele>44.833333333333336</ele><time>2026-04-25T09:50:29.763Z</time></trkpt><trkpt lat="44.318216" lon="11.7974976"><ele>44.666666666666664</ele><time>2026-04-25T09:50:31.764Z</time></trkpt><trkpt lat="44.3181881" lon="11.7973748"><ele>44.5</ele><time>2026-04-25T09:50:34.763Z</time></trkpt><trkpt lat="44.3181243" lon="11.797321"><ele>44.33333333333333</ele><time>2026-04-25T09:50:36.763Z</time></trkpt><trkpt lat="44.3180492" lon="11.7972667"><ele>44.166666666666664</ele><time>2026-04-25T09:50:38.763Z</time></trkpt><trkpt lat="44.3179898" lon="11.7972129"><ele>44.0</ele><time>2026-04-25T09:50:41.763Z</time></trkpt><trkpt lat="44.3180191" lon="11.7971227"><ele>44.0</ele><time>2026-04-25T09:50:44.764Z</time></trkpt><trkpt lat="44.3180458" lon="11.7970408"><ele>44.0</ele><time>2026-04-25T09:50:46.763Z</time></trkpt><trkpt lat="44.3180901" lon="11.7969278"><ele>44.0</ele><time>2026-04-25T09:50:48.763Z</time></trkpt><trkpt lat="44.3181298" lon="11.7968197"><ele>44.0</ele><time>2026-04-25T09:50:50.763Z</time></trkpt><trkpt lat="44.3181718" lon="11.7967105"><ele>44.0</ele><time>2026-04-25T09:50:52.763Z</time></trkpt><trkpt lat="44.3182291" lon="11.796621"><ele>44.0</ele><time>2026-04-25T09:50:54.764Z</time></trkpt><trkpt lat="44.3182733" lon="11.796535"><ele>43.800000000000004</ele><time>2026-04-25T09:50:56.763Z</time></trkpt><trkpt lat="44.31829" lon="11.7964086"><ele>43.6</ele><time>2026-04-25T09:50:58.764Z</time></trkpt><trkpt lat="44.3182649" lon="11.7962832"><ele>43.4</ele><time>2026-04-25T09:51:00.764Z</time></trkpt><trkpt lat="44.3182833" lon="11.7961558"><ele>43.2</ele><time>2026-04-25T09:51:02.764Z</time></trkpt><trkpt lat="44.318322" lon="11.796017"><ele>43.0</ele><time>2026-04-25T09:51:04.764Z</time></trkpt><trkpt lat="44.3183495" lon="11.7958674"><ele>43.0</ele><time>2026-04-25T09:51:06.764Z</time></trkpt><trkpt lat="44.3183863" lon="11.7957247"><ele>43.0</ele><time>2026-04-25T09:51:08.763Z</time></trkpt><trkpt lat="44.3184266" lon="11.7955703"><ele>43.0</ele><time>2026-04-25T09:51:10.764Z</time></trkpt><trkpt lat="44.3184612" lon="11.7954389"><ele>43.0</ele><time>2026-04-25T09:51:12.764Z</time></trkpt><trkpt lat="44.3184909" lon="11.7953035"><ele>43.0</ele><time>2026-04-25T09:51:14.763Z</time></trkpt><trkpt lat="44.3185235" lon="11.7951693"><ele>43.0</ele><time>2026-04-25T09:51:16.764Z</time></trkpt><trkpt lat="44.3185558" lon="11.7950463"><ele>43.0</ele><time>2026-04-25T09:51:18.763Z</time></trkpt><trkpt lat="44.3185821" lon="11.7949314"><ele>43.0</ele><time>2026-04-25T09:51:20.764Z</time></trkpt><trkpt lat="44.3186136" lon="11.7948128"><ele>43.0</ele><time>2026-04-25T09:51:22.763Z</time></trkpt><trkpt lat="44.3186416" lon="11.7947224"><ele>43.0</ele><time>2026-04-25T09:51:24.763Z</time></trkpt><trkpt lat="44.3186645" lon="11.7946356"><ele>43.0</ele><time>2026-04-25T09:51:26.763Z</time></trkpt><trkpt lat="44.3186838" lon="11.7945085"><ele>43.0</ele><time>2026-04-25T09:51:28.763Z</time></trkpt><trkpt lat="44.3187175" lon="11.7943765"><ele>43.0</ele><time>2026-04-25T09:51:30.764Z</time></trkpt><trkpt lat="44.3187577" lon="11.7942399"><ele>43.0</ele><time>2026-04-25T09:51:32.763Z</time></trkpt><trkpt lat="44.3187972" lon="11.7941041"><ele>43.0</ele><time>2026-04-25T09:51:34.763Z</time></trkpt><trkpt lat="44.3188354" lon="11.7939595"><ele>43.0</ele><time>2026-04-25T09:51:36.763Z</time></trkpt><trkpt lat="44.3188782" lon="11.7938091"><ele>43.0</ele><time>2026-04-25T09:51:38.764Z</time></trkpt><trkpt lat="44.3189147" lon="11.7936714"><ele>43.0</ele><time>2026-04-25T09:51:40.763Z</time></trkpt><trkpt lat="44.3189565" lon="11.7935256"><ele>43.0</ele><time>2026-04-25T09:51:42.764Z</time></trkpt><trkpt lat="44.3189938" lon="11.7933747"><ele>43.0</ele><time>2026-04-25T09:51:44.764Z</time></trkpt><trkpt lat="44.3190286" lon="11.7932326"><ele>43.0</ele><time>2026-04-25T09:51:46.763Z</time></trkpt><trkpt lat="44.3190717" lon="11.7930873"><ele>43.0</ele><time>2026-04-25T09:51:48.763Z</time></trkpt><trkpt lat="44.3191133" lon="11.7929418"><ele>43.0</ele><time>2026-04-25T09:51:50.763Z</time></trkpt><trkpt lat="44.3191454" lon="11.7927997"><ele>43.0</ele><time>2026-04-25T09:51:52.764Z</time></trkpt><trkpt lat="44.3191731" lon="11.7926657"><ele>43.0</ele><time>2026-04-25T09:51:54.763Z</time></trkpt><trkpt lat="44.3192065" lon="11.7925248"><ele>43.0</ele><time>2026-04-25T09:51:56.763Z</time></trkpt><trkpt lat="44.3192475" lon="11.792398"><ele>42.8</ele><time>2026-04-25T09:51:58.764Z</time></trkpt><trkpt lat="44.319339" lon="11.7923187"><ele>42.599999999999994</ele><time>2026-04-25T09:52:00.763Z</time></trkpt><trkpt lat="44.3194515" lon="11.7923302"><ele>42.400000000000006</ele><time>2026-04-25T09:52:02.763Z</time></trkpt><trkpt lat="44.3195487" lon="11.7923794"><ele>42.2</ele><time>2026-04-25T09:52:04.764Z</time></trkpt><trkpt lat="44.3196431" lon="11.7924124"><ele>42.0</ele><time>2026-04-25T09:52:06.763Z</time></trkpt><trkpt lat="44.319741" lon="11.7924842"><ele>42.0</ele><time>2026-04-25T09:52:08.764Z</time></trkpt><trkpt lat="44.319838" lon="11.7925483"><ele>42.0</ele><time>2026-04-25T09:52:10.763Z</time></trkpt><trkpt lat="44.3199294" lon="11.7925779"><ele>42.0</ele><time>2026-04-25T09:52:12.763Z</time></trkpt><trkpt lat="44.3199844" lon="11.7924946"><ele>42.0</ele><time>2026-04-25T09:52:14.763Z</time></trkpt><trkpt lat="44.3199499" lon="11.7923959"><ele>42.0</ele><time>2026-04-25T09:52:16.763Z</time></trkpt><trkpt lat="44.3199065" lon="11.7923231"><ele>42.0</ele><time>2026-04-25T09:52:18.763Z</time></trkpt><trkpt lat="44.3199034" lon="11.7922084"><ele>42.0</ele><time>2026-04-25T09:52:27.751Z</time></trkpt><trkpt lat="44.3198398" lon="11.792155"><ele>42.0</ele><time>2026-04-25T09:52:32.764Z</time></trkpt><trkpt lat="44.3199005" lon="11.7921868"><ele>42.0</ele><time>2026-04-25T09:53:02.764Z</time></trkpt><trkpt lat="44.3198866" lon="11.7923138"><ele>42.0</ele><time>2026-04-25T09:53:10.763Z</time></trkpt><trkpt lat="44.3198192" lon="11.792322"><ele>42.0</ele><time>2026-04-25T09:53:12.764Z</time></trkpt><trkpt lat="44.3197342" lon="11.7922862"><ele>42.0</ele><time>2026-04-25T09:53:14.762Z</time></trkpt><trkpt lat="44.3196722" lon="11.7922472"><ele>42.0</ele><time>2026-04-25T09:53:16.762Z</time></trkpt><trkpt lat="44.3195957" lon="11.7922218"><ele>42.0</ele><time>2026-04-25T09:53:18.762Z</time></trkpt><trkpt lat="44.3195285" lon="11.7921889"><ele>42.0</ele><time>2026-04-25T09:53:20.762Z</time></trkpt><trkpt lat="44.3194617" lon="11.7921656"><ele>42.0</ele><time>2026-04-25T09:53:22.763Z</time></trkpt><trkpt lat="44.3193797" lon="11.7921215"><ele>42.0</ele><time>2026-04-25T09:53:25.762Z</time></trkpt><trkpt lat="44.3193083" lon="11.7921419"><ele>42.0</ele><time>2026-04-25T09:53:28.763Z</time></trkpt><trkpt lat="44.3192618" lon="11.792229"><ele>42.0</ele><time>2026-04-25T09:53:32.762Z</time></trkpt><trkpt lat="44.3192308" lon="11.7923386"><ele>42.0</ele><time>2026-04-25T09:53:35.763Z</time></trkpt><trkpt lat="44.3192122" lon="11.7924347"><ele>42.0</ele><time>2026-04-25T09:53:37.763Z</time></trkpt><trkpt lat="44.3191735" lon="11.7925707"><ele>42.0</ele><time>2026-04-25T09:53:39.763Z</time></trkpt><trkpt lat="44.3191359" lon="11.7926994"><ele>42.0</ele><time>2026-04-25T09:53:41.763Z</time></trkpt><trkpt lat="44.3191021" lon="11.7928429"><ele>42.0</ele><time>2026-04-25T09:53:43.763Z</time></trkpt><trkpt lat="44.3190917" lon="11.7929649"><ele>42.0</ele><time>2026-04-25T09:53:45.762Z</time></trkpt><trkpt lat="44.3190702" lon="11.7930752"><ele>42.0</ele><time>2026-04-25T09:53:47.763Z</time></trkpt><trkpt lat="44.3189943" lon="11.7931122"><ele>42.0</ele><time>2026-04-25T09:53:49.762Z</time></trkpt><trkpt lat="44.318921" lon="11.7931114"><ele>42.0</ele><time>2026-04-25T09:53:52.763Z</time></trkpt><trkpt lat="44.3188482" lon="11.7930727"><ele>42.0</ele><time>2026-04-25T09:53:54.708Z</time></trkpt><trkpt lat="44.3187293" lon="11.7929716"><ele>42.0</ele><time>2026-04-25T09:53:56.762Z</time></trkpt><trkpt lat="44.31865" lon="11.7929233"><ele>42.0</ele><time>2026-04-25T09:53:58.763Z</time></trkpt><trkpt lat="44.3185594" lon="11.792876"><ele>42.0</ele><time>2026-04-25T09:54:00.763Z</time></trkpt><trkpt lat="44.3184789" lon="11.7928149"><ele>42.0</ele><time>2026-04-25T09:54:02.763Z</time></trkpt><trkpt lat="44.3184003" lon="11.7927329"><ele>42.0</ele><time>2026-04-25T09:54:04.763Z</time></trkpt><trkpt lat="44.3183069" lon="11.7926608"><ele>42.166666666666664</ele><time>2026-04-25T09:54:06.762Z</time></trkpt><trkpt lat="44.3182258" lon="11.7925972"><ele>42.333333333333336</ele><time>2026-04-25T09:54:08.762Z</time></trkpt><trkpt lat="44.3181517" lon="11.7925455"><ele>42.5</ele><time>2026-04-25T09:54:10.762Z</time></trkpt><trkpt lat="44.3180838" lon="11.7924879"><ele>42.66666666666667</ele><time>2026-04-25T09:54:12.762Z</time></trkpt><trkpt lat="44.3180277" lon="11.7924345"><ele>42.833333333333336</ele><time>2026-04-25T09:54:14.762Z</time></trkpt><trkpt lat="44.317964" lon="11.7923847"><ele>43.0</ele><time>2026-04-25T09:54:16.762Z</time></trkpt><trkpt lat="44.3179034" lon="11.7923399"><ele>43.00000000000001</ele><time>2026-04-25T09:54:18.763Z</time></trkpt><trkpt lat="44.3178321" lon="11.7922544"><ele>43.0</ele><time>2026-04-25T09:54:21.762Z</time></trkpt><trkpt lat="44.3178241" lon="11.7921656"><ele>43.0</ele><time>2026-04-25T09:54:23.762Z</time></trkpt><trkpt lat="44.3178349" lon="11.7920697"><ele>43.0</ele><time>2026-04-25T09:54:25.763Z</time></trkpt><trkpt lat="44.3178572" lon="11.7919806"><ele>43.0</ele><time>2026-04-25T09:54:27.763Z</time></trkpt><trkpt lat="44.3178724" lon="11.7918935"><ele>43.00000000000001</ele><time>2026-04-25T09:54:29.763Z</time></trkpt><trkpt lat="44.3178392" lon="11.7917804"><ele>43.0</ele><time>2026-04-25T09:54:32.762Z</time></trkpt><trkpt lat="44.317769" lon="11.7917377"><ele>43.16666666666667</ele><time>2026-04-25T09:54:35.763Z</time></trkpt><trkpt lat="44.3176761" lon="11.791701"><ele>43.333333333333336</ele><time>2026-04-25T09:54:37.763Z</time></trkpt><trkpt lat="44.31766" lon="11.791591"><ele>43.5</ele><time>2026-04-25T09:54:39.762Z</time></trkpt><trkpt lat="44.3177012" lon="11.7914764"><ele>43.666666666666664</ele><time>2026-04-25T09:54:41.762Z</time></trkpt><trkpt lat="44.3177367" lon="11.7913782"><ele>43.83333333333333</ele><time>2026-04-25T09:54:43.762Z</time></trkpt><trkpt lat="44.3177715" lon="11.7912683"><ele>44.0</ele><time>2026-04-25T09:54:45.762Z</time></trkpt><trkpt lat="44.3178003" lon="11.7911789"><ele>44.0</ele><time>2026-04-25T09:54:48.762Z</time></trkpt><trkpt lat="44.3177466" lon="11.7912865"><ele>44.0</ele><time>2026-04-25T09:56:46.762Z</time></trkpt><trkpt lat="44.3176492" lon="11.7912539"><ele>44.0</ele><time>2026-04-25T09:56:47.762Z</time></trkpt><trkpt lat="44.3176999" lon="11.7911999"><ele>44.0</ele><time>2026-04-25T09:56:48.753Z</time></trkpt></trkseg></trk></gpx>